AM26 / XA-ADH 7700 Squawk Report (15th of April, 2019)

Aircraft B789 Reg No. XA-ADH Age 1 years old
Model 787 Jet engines 2 First flight 03-01-18
Registered 16-01-18 Rollout N/A Delivered 16-01-18
Construction No. 44427 Line No. 0653 Series 9
ADSHEX 0D0A9B Airline name Aeromexico Owner N/A
Airfield based Mexico City-LB Juarez~Fed Distr (Mex)~XA First tracked 2018-02-01 17:59:00

Flight history for XA-ADH

Route Flight No Date Playback
Licenciado Benito Juarez (MEX) - Barajas (MAD) AM21 2019-05-23 15:20:00
Barajas (MAD) - Licenciado Benito Juarez (MEX) AM2 2019-05-23 05:22:00
Licenciado Benito Juarez (MEX) - Barajas (MAD) AM1 2019-05-22 13:10:00
Charles De Gaulle (CDG) - Licenciado Benito Juarez (MEX) AM4 2019-05-21 08:33:00
Licenciado Benito Juarez (MEX) - Charles De Gaulle (CDG) AM3 2019-05-20 21:22:00
John F Kennedy Intl (JFK) - Licenciado Benito Juarez (MEX) AM409 2019-05-20 05:04:00
Licenciado Benito Juarez (MEX) - John F Kennedy Intl (JFK) AM408 2019-05-19 19:23:00
Barajas (MAD) - Licenciado Benito Juarez (MEX) AM22 2019-05-19 08:57:00
Licenciado Benito Juarez (MEX) - Barajas (MAD) AM21 2019-05-18 21:32:00
Ministro Pistarini (EZE) - Licenciado Benito Juarez (MEX) AM31 2019-05-18 05:52:00
Licenciado Benito Juarez (MEX) - Ministro Pistarini (EZE) AM28 2019-05-17 13:25:00
Guarulhos Gov Andre Franco Montoro (GRU) - Licenciado Benito Juarez (MEX) AM15 2019-05-16 22:04:00
Licenciado Benito Juarez (MEX) - Guarulhos Gov Andre Franco Montoro (GRU) AM14 2019-05-16 12:59:00
Schiphol (AMS) - Licenciado Benito Juarez (MEX) AM26 2019-05-15 07:28:00
Licenciado Benito Juarez (MEX) - Schiphol (AMS) AM25 2019-05-14 20:18:00
Barajas (MAD) - Licenciado Benito Juarez (MEX) AM24 2019-05-13 19:28:00
Licenciado Benito Juarez (MEX) - Barajas (MAD) AM23 2019-05-13 08:00:00
Schiphol (AMS) - Licenciado Benito Juarez (MEX) AM26 2019-05-12 08:32:00
Licenciado Benito Juarez (MEX) - Schiphol (AMS) AM25 2019-05-11 20:33:00
John F Kennedy Intl (JFK) - Licenciado Benito Juarez (MEX) AM409 2019-05-11 05:18:00
Time Lat Lon Altitude Heading Speed Vertical Rate
2019-04-16 11:43:11 GMT 19.425041 -99.077721 0 196 9 0
2019-04-16 11:43:08 GMT 19.425142 -99.077667 0 185 8 0
2019-04-16 11:40:29 GMT 19.430717 -99.075722 0 233 19 0
2019-04-16 11:39:15 GMT 19.433058 -99.070335 0 233 16 0
2019-04-16 11:38:53 GMT 19.433847 -99.068962 0 236 15 0
2019-04-16 11:38:33 GMT 19.434357 -99.067757 0 216 12 0
2019-04-16 11:38:18 GMT 19.435101 -99.067238 0 205 16 0
2019-04-16 11:38:08 GMT 19.435677 -99.066841 0 222 14 0
2019-04-16 11:37:54 GMT 19.436199 -99.066078 0 233 16 0
2019-04-16 11:37:51 GMT 19.436304 -99.065895 0 233 17 0
2019-04-16 11:37:36 GMT 19.436991 -99.064659 0 233 23 0
2019-04-16 11:37:30 GMT 19.437317 -99.064072 0 233 22 0
2019-04-16 11:37:19 GMT 19.437864 -99.063095 0 233 21 0
2019-04-16 11:37:08 GMT 19.438374 -99.062187 0 233 20 0
2019-04-16 11:36:58 GMT 19.438841 -99.061348 0 233 19 0
2019-04-16 11:36:47 GMT 19.439289 -99.060532 0 233 17 0
2019-04-16 11:36:36 GMT 19.439724 -99.059761 0 233 16 0
2019-04-16 11:36:25 GMT 19.440079 -99.059120 0 230 14 0
2019-04-16 11:36:16 GMT 19.440434 -99.058609 0 205 13 0
2019-04-16 11:36:05 GMT 19.440960 -99.058388 0 182 10 0
2019-04-16 11:35:54 GMT 19.441366 -99.058342 0 177 8 0
2019-04-16 11:35:44 GMT 19.441738 -99.058311 0 165 9 0
2019-04-16 11:35:33 GMT 19.442158 -99.058403 0 101 9 0
2019-04-16 11:35:23 GMT 19.442169 -99.058815 0 53 11 0
2019-04-16 11:35:12 GMT 19.441750 -99.059578 0 53 30 0
2019-04-16 11:35:02 GMT 19.440889 -99.061089 0 53 37 0
2019-04-16 11:34:51 GMT 19.440022 -99.062668 0 56 37 0
2019-04-16 11:34:40 GMT 19.439014 -99.064468 0 53 45 0
2019-04-16 11:34:30 GMT 19.437401 -99.067337 0 53 92 0
2019-04-16 11:34:19 GMT 19.434357 -99.072792 6,900 58 144 64
2019-04-16 11:33:44 GMT 19.420486 -99.097466 7,250 59 174 -960
2019-04-16 11:33:38 GMT 19.417831 -99.102219 7,350 59 175 -1088
2019-04-16 11:33:27 GMT 19.413307 -99.110313 7,525 59 176 -896
2019-04-16 11:33:15 GMT 19.408373 -99.119049 7,700 59 175 -1024
2019-04-16 11:33:05 GMT 19.404369 -99.126190 7,850 58 176 -960
2019-04-16 11:32:55 GMT 19.400116 -99.133659 8,000 59 175 -960
2019-04-16 11:32:45 GMT 19.395721 -99.141266 8,150 58 174 -896
2019-04-16 11:32:35 GMT 19.391327 -99.148911 8,275 58 178 -960
2019-04-16 11:32:24 GMT 19.386520 -99.157303 8,425 59 188 -1152
2019-04-16 11:32:13 GMT 19.382034 -99.165642 8,650 62 195 -1600
2019-04-16 11:32:03 GMT 19.378738 -99.175156 8,900 85 195 -1344
2019-04-16 11:31:52 GMT 19.379835 -99.185120 9,000 112 189 -512
2019-04-16 11:31:42 GMT 19.385010 -99.192955 9,125 142 187 -1024
2019-04-16 11:31:31 GMT 19.393150 -99.197701 9,300 160 187 -1280
2019-04-16 11:31:21 GMT 19.401716 -99.200104 9,475 170 186 -832
2019-04-16 11:31:10 GMT 19.411119 -99.201851 9,575 170 186 -640
2019-04-16 11:30:59 GMT 19.419983 -99.203453 9,700 169 188 -768
2019-04-16 11:30:49 GMT 19.429001 -99.205124 9,825 169 189 -832
2019-04-16 11:30:39 GMT 19.438120 -99.206795 9,950 170 190 -832
2019-04-16 11:30:28 GMT 19.447384 -99.208488 10,100 170 190 -896
2019-04-16 11:30:17 GMT 19.456600 -99.210136 10,250 169 189 -896
2019-04-16 11:30:06 GMT 19.466080 -99.211891 10,375 170 190 -704
2019-04-16 11:29:56 GMT 19.475454 -99.213585 10,475 170 192 -832
2019-04-16 11:29:45 GMT 19.484718 -99.215233 10,600 170 196 -768
2019-04-16 11:29:35 GMT 19.494263 -99.216980 10,725 170 205 -960
2019-04-16 11:29:24 GMT 19.504990 -99.218948 10,900 170 219 -1024
2019-04-16 11:29:14 GMT 19.515244 -99.220764 11,050 170 230 -1024
2019-04-16 11:29:03 GMT 19.526871 -99.222824 11,225 169 242 -896
2019-04-16 11:28:53 GMT 19.538767 -99.225121 11,350 171 252 -768
2019-04-16 11:28:42 GMT 19.551498 -99.226013 11,550 181 257 384
2019-04-16 11:28:31 GMT 19.564453 -99.224442 11,725 194 267 -1088
2019-04-16 11:28:21 GMT 19.576752 -99.220329 11,925 200 273 -1280
2019-04-16 11:28:10 GMT 19.589767 -99.215424 12,150 200 282 -1344
2019-04-16 11:28:00 GMT 19.602867 -99.210541 12,375 200 288 -1344
2019-04-16 11:27:49 GMT 19.615952 -99.205612 12,575 200 293 -1408
2019-04-16 11:27:39 GMT 19.629637 -99.200546 12,800 200 299 -1408
2019-04-16 11:27:28 GMT 19.644608 -99.194969 13,050 200 305 -1408
2019-04-16 11:27:17 GMT 19.659288 -99.189514 13,275 200 309 -1408
2019-04-16 11:27:08 GMT 19.671707 -99.184914 13,475 200 313 -1408
2019-04-16 11:26:57 GMT 19.686310 -99.179420 13,725 200 315 -1472
2019-04-16 11:26:46 GMT 19.701326 -99.173683 13,950 200 315 -1472
2019-04-16 11:26:35 GMT 19.717060 -99.167740 14,225 200 315 -1472
2019-04-16 11:26:24 GMT 19.731308 -99.162399 14,450 200 316 -1472
2019-04-16 11:26:13 GMT 19.746946 -99.156555 14,700 200 315 -1472
2019-04-16 11:25:48 GMT 19.782211 -99.143417 15,275 200 315 -1472
2019-04-16 11:25:20 GMT 19.820454 -99.129036 15,875 200 315 -1472
2019-04-16 11:25:11 GMT 19.832748 -99.124390 16,075 200 316 -1408
2019-04-16 11:22:49 GMT 20.038101 -99.047340 19,800 200 349 -1536
We lost coverage of the aircraft here for a total of 10 minutes
2019-04-16 11:12:33 GMT 21.180771 -98.892082 32,800 186 456 -2112
2019-04-16 11:12:28 GMT 21.195145 -98.890686 33,000 186 456 -2048
2019-04-16 11:12:17 GMT 21.217253 -98.888496 33,350 186 455 -2048
2019-04-16 11:12:05 GMT 21.241013 -98.886192 33,725 186 454 -2048
2019-04-16 11:11:56 GMT 21.261520 -98.884247 34,025 185 452 -2048
2019-04-16 11:11:45 GMT 21.284088 -98.882149 34,375 186 450 -2048
2019-04-16 11:11:33 GMT 21.306355 -98.880005 34,750 186 450 -2048
2019-04-16 11:11:24 GMT 21.328217 -98.877853 35,100 186 450 -2048
2019-04-16 11:11:12 GMT 21.350739 -98.875557 35,450 186 451 -2048
2019-04-16 11:11:02 GMT 21.372225 -98.873390 35,800 186 452 -2048
2019-04-16 11:10:51 GMT 21.396332 -98.871063 36,175 186 453 -2048
2019-04-16 11:10:40 GMT 21.417343 -98.869011 36,500 186 455 -2048
2019-04-16 11:10:30 GMT 21.440094 -98.866669 36,875 186 457 -2048
2019-04-16 11:10:20 GMT 21.462675 -98.864441 37,225 186 457 -2048
2019-04-16 11:10:08 GMT 21.485321 -98.862320 37,575 186 457 -2048
2019-04-16 11:09:58 GMT 21.507339 -98.860222 37,900 186 457 -2048
2019-04-16 11:09:48 GMT 21.529312 -98.858124 38,250 186 457 -2048
2019-04-16 11:09:36 GMT 21.552612 -98.855782 38,625 186 458 -2048
2019-04-16 11:09:27 GMT 21.575239 -98.853508 38,975 186 457 -2048
2019-04-16 11:09:16 GMT 21.597260 -98.851372 39,300 186 457 -1984
2019-04-16 11:09:05 GMT 21.619400 -98.849236 39,625 186 456 -1664
2019-04-16 11:08:55 GMT 21.642368 -98.846947 39,850 186 455 -1152
2019-04-16 11:08:44 GMT 21.664713 -98.844757 39,975 186 456 -320
2019-04-16 11:08:33 GMT 21.687151 -98.842567 40,000 186 458 -128
2019-04-16 11:08:23 GMT 21.709854 -98.840302 39,975 186 459 0
2019-04-16 11:08:12 GMT 21.732788 -98.838104 40,000 186 458 64
2019-04-16 11:08:01 GMT 21.755026 -98.835907 40,000 186 458 0
2019-04-16 11:07:51 GMT 21.778152 -98.833611 40,000 186 458 -64
2019-04-16 11:07:40 GMT 21.800833 -98.831383 40,000 186 458 -64
2019-04-16 11:07:29 GMT 21.822647 -98.829262 40,000 186 458 0
2019-04-16 11:07:19 GMT 21.846174 -98.826958 40,000 186 458 0
2019-04-16 11:07:08 GMT 21.868193 -98.824821 40,000 186 458 0
We lost coverage of the aircraft here for a total of 8 minutes
2019-04-16 10:59:35 GMT 22.755526 -98.498383 40,000 202 441 0
2019-04-16 10:59:31 GMT 22.763113 -98.495079 40,000 202 441 0
2019-04-16 10:59:19 GMT 22.785690 -98.485245 40,000 202 441 0
2019-04-16 10:59:10 GMT 22.802217 -98.478088 40,000 202 441 0
2019-04-16 10:59:00 GMT 22.823864 -98.468681 39,975 202 441 0
2019-04-16 10:58:44 GMT 22.850601 -98.457024 40,000 202 441 0
2019-04-16 10:58:36 GMT 22.866739 -98.450012 39,975 203 442 -64
2019-04-16 10:58:29 GMT 22.882334 -98.443199 40,000 202 441 -64
2019-04-16 10:58:15 GMT 22.906860 -98.432556 39,975 202 441 0
2019-04-16 10:58:08 GMT 22.921484 -98.426208 40,000 202 441 -64
2019-04-16 10:57:41 GMT 22.971085 -98.404594 40,000 202 441 0
2019-04-16 10:57:35 GMT 22.982849 -98.399445 39,975 203 441 -64
2019-04-16 10:57:12 GMT 23.025528 -98.380836 40,000 202 441 0
2019-04-16 10:57:03 GMT 23.043358 -98.373108 40,000 202 440 0
2019-04-16 10:56:52 GMT 23.063841 -98.364204 40,000 202 441 -64
2019-04-16 10:56:42 GMT 23.082596 -98.356003 39,975 203 440 0
2019-04-16 10:56:31 GMT 23.101913 -98.347565 39,975 203 440 0
2019-04-16 10:56:21 GMT 23.122330 -98.338623 39,975 203 440 -64
2019-04-16 10:56:11 GMT 23.143112 -98.329536 40,000 202 438 -64
2019-04-16 10:55:59 GMT 23.164627 -98.320145 40,000 202 438 0
2019-04-16 10:55:50 GMT 23.184086 -98.311668 40,000 202 438 0
2019-04-16 10:55:38 GMT 23.202347 -98.303665 39,975 202 437 64
2019-04-16 10:55:29 GMT 23.221746 -98.295189 39,975 202 437 0
2019-04-16 10:55:18 GMT 23.241119 -98.286690 40,000 202 437 0
2019-04-16 10:55:08 GMT 23.261078 -98.277946 40,000 202 437 0
2019-04-16 10:54:56 GMT 23.282682 -98.268486 39,975 203 436 0
2019-04-16 10:54:47 GMT 23.301682 -98.260223 39,975 202 436 0
2019-04-16 10:54:35 GMT 23.321787 -98.251442 40,000 203 436 0
2019-04-16 10:54:26 GMT 23.341461 -98.242790 40,000 203 436 0
2019-04-16 10:54:11 GMT 23.366592 -98.231758 40,000 203 436 0
2019-04-16 10:54:05 GMT 23.379930 -98.225914 39,975 203 436 0
2019-04-16 10:53:54 GMT 23.398865 -98.217575 39,975 203 436 -64
2019-04-16 10:53:43 GMT 23.420431 -98.208107 39,975 203 436 0
2019-04-16 10:53:30 GMT 23.444078 -98.197731 40,000 203 436 0
2019-04-16 10:53:14 GMT 23.474897 -98.184204 40,000 203 436 -64
2019-04-16 10:53:11 GMT 23.479412 -98.182220 40,000 203 436 0
2019-04-16 10:53:01 GMT 23.499481 -98.173378 40,000 203 436 0
2019-04-16 10:52:51 GMT 23.517725 -98.165382 40,000 203 436 0
2019-04-16 10:52:39 GMT 23.539139 -98.155975 39,975 203 436 64
2019-04-16 10:52:24 GMT 23.568604 -98.143005 40,000 203 436 0
2019-04-16 10:52:18 GMT 23.578354 -98.138680 39,975 203 436 -64
2019-04-16 10:52:08 GMT 23.599936 -98.129211 40,000 203 436 -64
2019-04-16 10:51:57 GMT 23.617035 -98.121643 40,000 203 436 0
2019-04-16 10:51:46 GMT 23.640701 -98.111214 40,000 203 436 0
2019-04-16 10:51:34 GMT 23.663177 -98.101295 40,000 203 436 0
2019-04-16 10:51:26 GMT 23.678749 -98.094490 40,000 203 436 0
2019-04-16 10:51:15 GMT 23.698425 -98.085838 40,000 203 436 0
2019-04-16 10:51:06 GMT 23.716225 -98.078011 40,000 203 436 0
2019-04-16 10:50:54 GMT 23.735870 -98.069305 39,975 203 436 0
2019-04-16 10:50:45 GMT 23.755371 -98.060707 39,975 203 436 0
2019-04-16 10:50:31 GMT 23.778946 -98.050285 40,000 203 436 -64
2019-04-16 10:50:24 GMT 23.794693 -98.043312 40,000 203 436 -64
2019-04-16 10:50:12 GMT 23.816437 -98.033752 40,000 203 436 0
2019-04-16 10:49:46 GMT 23.866728 -98.011574 39,975 203 435 -64
2019-04-16 10:49:26 GMT 23.903137 -97.995399 40,000 203 435 0
2019-04-16 10:49:20 GMT 23.912476 -97.991280 39,975 203 435 0
2019-04-16 10:49:08 GMT 23.936005 -97.980858 40,000 203 435 0
2019-04-16 10:48:58 GMT 23.952988 -97.973328 40,000 203 435 0
2019-04-16 10:48:49 GMT 23.972773 -97.964569 39,975 203 435 0
2019-04-16 10:48:37 GMT 23.991859 -97.956177 40,000 203 435 0
2019-04-16 10:48:28 GMT 24.011856 -97.947289 39,975 203 435 0
2019-04-16 10:48:16 GMT 24.030533 -97.938995 39,975 203 435 -64
2019-04-16 10:48:06 GMT 24.049988 -97.930351 40,000 203 436 -64
2019-04-16 10:47:55 GMT 24.071510 -97.920776 40,000 203 436 0
2019-04-16 10:47:44 GMT 24.092133 -97.911659 40,000 203 436 0
2019-04-16 10:47:34 GMT 24.111591 -97.903053 40,000 203 436 0
2019-04-16 10:47:23 GMT 24.130678 -97.894562 39,975 203 435 0
2019-04-16 10:47:13 GMT 24.149391 -97.886269 39,975 203 435 0
2019-04-16 10:47:03 GMT 24.169785 -97.877197 40,000 203 436 -64
2019-04-16 10:46:53 GMT 24.188311 -97.868958 40,000 203 436 -64
2019-04-16 10:46:39 GMT 24.213547 -97.857765 40,000 203 436 0
2019-04-16 10:46:32 GMT 24.230207 -97.850349 39,975 203 435 0
2019-04-16 10:46:20 GMT 24.249435 -97.841797 40,000 203 435 0
2019-04-16 10:45:57 GMT 24.292215 -97.822678 40,000 203 435 0
2019-04-16 10:45:02 GMT 24.395655 -97.776611 40,000 203 435 0
2019-04-16 10:44:56 GMT 24.405579 -97.772217 39,975 203 435 0
2019-04-16 10:43:51 GMT 24.528793 -97.717117 40,000 203 436 0
2019-04-16 10:43:43 GMT 24.543228 -97.710670 39,975 203 436 0
2019-04-16 10:43:05 GMT 24.616310 -97.678047 40,000 203 438 0
2019-04-16 10:42:26 GMT 24.690582 -97.644707 40,000 203 437 0
2019-04-16 10:42:16 GMT 24.705412 -97.638039 40,000 203 437 64
2019-04-16 10:42:08 GMT 24.722683 -97.630318 39,975 203 437 0
2019-04-16 10:41:58 GMT 24.739746 -97.622627 39,975 203 437 -64
2019-04-16 10:41:46 GMT 24.761490 -97.612816 40,000 203 436 -64
2019-04-16 10:41:37 GMT 24.781199 -97.603935 40,000 203 437 0
2019-04-16 10:41:25 GMT 24.799959 -97.595543 39,975 203 437 64
2019-04-16 10:41:16 GMT 24.819466 -97.586838 39,975 203 437 0
2019-04-16 10:41:04 GMT 24.841251 -97.577095 40,000 203 437 -64
2019-04-16 10:40:54 GMT 24.861130 -97.568184 39,975 203 437 0
2019-04-16 10:40:43 GMT 24.880634 -97.559425 39,975 203 436 0
2019-04-16 10:40:33 GMT 24.899506 -97.550911 40,000 203 435 -64
2019-04-16 10:40:23 GMT 24.918760 -97.542221 40,000 203 435 0
2019-04-16 10:40:12 GMT 24.938690 -97.533165 40,000 203 434 0
2019-04-16 10:40:02 GMT 24.957493 -97.524704 39,975 203 433 0
2019-04-16 10:39:50 GMT 24.978836 -97.515053 40,000 203 432 0
2019-04-16 10:39:41 GMT 24.998520 -97.506203 40,000 203 432 0
2019-04-16 10:39:29 GMT 25.017963 -97.497444 40,000 203 431 0
2019-04-16 10:39:20 GMT 25.036074 -97.489304 40,000 203 430 0
2019-04-16 10:39:09 GMT 25.055786 -97.480415 39,975 203 430 0
2019-04-16 10:38:57 GMT 25.077366 -97.470703 39,975 203 430 64
2019-04-16 10:38:47 GMT 25.095472 -97.462570 39,975 203 430 0
2019-04-16 10:38:36 GMT 25.114607 -97.453911 40,000 203 430 -64
2019-04-16 10:38:26 GMT 25.134338 -97.445015 40,000 203 429 -64
2019-04-16 10:38:16 GMT 25.152786 -97.436623 40,000 203 430 0
2019-04-16 10:38:05 GMT 25.172699 -97.427620 39,975 203 430 0
2019-04-16 10:37:55 GMT 25.191650 -97.419037 39,975 203 430 -64
2019-04-16 10:37:45 GMT 25.210457 -97.410484 40,000 203 430 -64
2019-04-16 10:37:33 GMT 25.230755 -97.401314 40,000 203 430 0
2019-04-16 10:37:23 GMT 25.249374 -97.392883 39,975 203 429 0
2019-04-16 10:37:12 GMT 25.269068 -97.383949 40,000 203 429 -64
2019-04-16 10:37:02 GMT 25.288742 -97.375031 40,000 203 429 0
2019-04-16 10:36:51 GMT 25.308975 -97.365875 39,975 203 429 0
2019-04-16 10:36:41 GMT 25.327536 -97.357468 40,000 203 429 -64
2019-04-16 10:36:29 GMT 25.349442 -97.347565 40,000 203 428 0
2019-04-16 10:36:19 GMT 25.367065 -97.339577 40,000 203 428 0
2019-04-16 10:36:10 GMT 25.407978 -97.320992 39,975 203 428 0
2019-04-16 10:35:58 GMT 25.414961 -97.317825 39,975 203 428 0
2019-04-16 10:35:47 GMT 25.425249 -97.313164 40,000 203 428 -64
2019-04-16 10:35:37 GMT 25.445034 -97.304146 40,000 203 428 0
2019-04-16 10:35:28 GMT 25.462143 -97.296394 40,000 203 428 -64
2019-04-16 10:35:24 GMT 25.468542 -97.293472 40,000 203 428 -64
2019-04-16 10:35:18 GMT 25.481598 -97.287544 40,000 203 428 -64
2019-04-16 10:35:15 GMT 25.485260 -97.285866 40,000 203 428 0
2019-04-16 10:35:05 GMT 25.503782 -97.277458 39,975 203 428 0
2019-04-16 10:34:57 GMT 25.519192 -97.270409 40,000 203 428 -64
2019-04-16 10:34:53 GMT 25.525476 -97.267563 39,975 203 428 -64
2019-04-16 10:34:45 GMT 25.541630 -97.260201 40,000 203 429 -64
2019-04-16 10:34:39 GMT 25.552826 -97.255096 40,000 203 429 0
2019-04-16 10:34:30 GMT 25.567932 -97.248283 40,000 203 429 0
2019-04-16 10:34:21 GMT 25.586134 -97.239937 39,975 203 429 0
2019-04-16 10:34:09 GMT 25.606567 -97.230629 40,000 203 429 -64
2019-04-16 10:34:00 GMT 25.624603 -97.222389 40,000 203 429 -64
2019-04-16 10:33:38 GMT 25.664749 -97.204033 40,000 203 429 0
2019-04-16 10:33:32 GMT 25.676352 -97.198738 39,975 203 429 64
2019-04-16 10:33:21 GMT 25.696426 -97.189636 39,975 203 430 0
2019-04-16 10:33:17 GMT 25.701397 -97.187340 39,975 203 430 0
2019-04-16 10:33:10 GMT 25.714096 -97.181549 40,000 203 430 -64
2019-04-16 10:33:06 GMT 25.724998 -97.176613 39,975 203 430 0
2019-04-16 10:32:58 GMT 25.737522 -97.170860 40,000 203 430 0
2019-04-16 10:32:54 GMT 25.744354 -97.167763 39,975 203 430 0
2019-04-16 10:32:46 GMT 25.762115 -97.159630 40,000 203 432 -64
2019-04-16 10:32:36 GMT 25.778908 -97.151894 40,000 203 432 0
2019-04-16 10:32:33 GMT 25.783003 -97.150024 40,000 203 432 0
2019-04-16 10:32:29 GMT 25.792053 -97.145844 39,975 203 432 0
2019-04-16 10:32:24 GMT 25.801111 -97.141685 39,975 203 432 0
2019-04-16 10:32:18 GMT 25.811867 -97.136757 40,000 203 432 0
2019-04-16 10:32:14 GMT 25.819267 -97.133392 39,975 203 432 0
2019-04-16 10:32:07 GMT 25.831139 -97.127960 40,000 203 432 0
2019-04-16 10:31:58 GMT 25.852066 -97.118416 39,975 203 432 0
2019-04-16 10:31:51 GMT 25.860420 -97.114655 39,975 203 432 0
2019-04-16 10:31:44 GMT 25.874105 -97.108368 40,000 203 432 -64
2019-04-16 10:31:41 GMT 25.878948 -97.106148 40,000 203 432 0
2019-04-16 10:31:33 GMT 25.894171 -97.099174 40,000 203 433 -64
2019-04-16 10:31:23 GMT 25.913116 -97.090569 40,000 203 434 -64
2019-04-16 10:31:15 GMT 25.930389 -97.082657 40,000 203 433 0
2019-04-16 10:31:12 GMT 25.933182 -97.081375 40,000 203 433 -64
2019-04-16 10:31:05 GMT 25.946915 -97.075089 40,000 203 432 64
2019-04-16 10:30:58 GMT 25.961563 -97.068405 40,000 203 432 -64
2019-04-16 10:30:54 GMT 25.968048 -97.065422 40,000 203 432 -64
2019-04-16 10:30:50 GMT 25.973785 -97.062813 40,000 203 432 -64
2019-04-16 10:30:43 GMT 25.989304 -97.055656 40,000 203 432 -64
2019-04-16 10:30:40 GMT 25.991913 -97.054466 39,975 203 432 0
2019-04-16 10:30:30 GMT 26.011667 -97.045357 39,975 203 431 0
2019-04-16 10:30:27 GMT 26.016462 -97.043137 39,975 203 430 0
2019-04-16 10:30:18 GMT 26.035492 -97.034409 39,975 203 430 0
2019-04-16 10:30:10 GMT 26.049133 -97.028137 40,000 203 430 -64
2019-04-16 10:30:06 GMT 26.054672 -97.025604 39,975 203 430 0
2019-04-16 10:30:00 GMT 26.069046 -97.018967 40,000 203 430 0
2019-04-16 10:29:57 GMT 26.073675 -97.016884 40,000 203 430 0
2019-04-16 10:29:52 GMT 26.083265 -97.012444 39,975 203 430 0
2019-04-16 10:29:48 GMT 26.088060 -97.010284 39,975 203 430 0
2019-04-16 10:29:45 GMT 26.093765 -97.007622 39,975 203 429 64
2019-04-16 10:29:38 GMT 26.108871 -97.000671 39,975 203 429 0
2019-04-16 10:29:35 GMT 26.114777 -96.997978 39,975 203 429 -64
2019-04-16 10:29:30 GMT 26.123199 -96.994095 39,975 203 429 -64
2019-04-16 10:29:24 GMT 26.132767 -96.989693 39,975 203 429 -64
2019-04-16 10:29:19 GMT 26.143644 -96.984665 40,000 203 429 0
2019-04-16 10:29:16 GMT 26.146950 -96.983131 39,975 203 429 -64
2019-04-16 10:29:10 GMT 26.160915 -96.976685 40,000 203 429 -64
2019-04-16 10:29:07 GMT 26.166780 -96.973991 40,000 203 429 64
2019-04-16 10:29:03 GMT 26.172646 -96.971298 40,000 203 429 0
2019-04-16 10:28:56 GMT 26.185684 -96.965279 39,975 203 428 0
2019-04-16 10:28:52 GMT 26.191406 -96.962692 39,975 203 428 64
2019-04-16 10:28:49 GMT 26.199646 -96.958855 40,000 203 428 0
2019-04-16 10:28:42 GMT 26.211191 -96.953552 40,000 203 428 -64
2019-04-16 10:28:38 GMT 26.218546 -96.950172 40,000 203 428 -64
2019-04-16 10:28:34 GMT 26.225483 -96.946953 40,000 203 428 0
2019-04-16 10:28:31 GMT 26.230276 -96.944733 40,000 203 428 0
2019-04-16 10:28:28 GMT 26.237045 -96.941650 39,975 203 428 -64
2019-04-16 10:28:24 GMT 26.244522 -96.938187 39,975 203 427 64
2019-04-16 10:28:21 GMT 26.249317 -96.935966 40,000 203 427 0
2019-04-16 10:28:16 GMT 26.258286 -96.931854 39,975 203 427 0
2019-04-16 10:28:13 GMT 26.263935 -96.929207 39,975 203 427 0
2019-04-16 10:28:10 GMT 26.267612 -96.927513 39,975 203 427 0
2019-04-16 10:28:06 GMT 26.277109 -96.923126 39,975 203 427 0
2019-04-16 10:28:01 GMT 26.286804 -96.918694 39,975 203 427 0
2019-04-16 10:27:55 GMT 26.296846 -96.914047 40,000 203 426 0
2019-04-16 10:27:52 GMT 26.303085 -96.911194 39,975 203 426 0
2019-04-16 10:27:46 GMT 26.315323 -96.905525 40,000 203 426 0
2019-04-16 10:27:39 GMT 26.325577 -96.900810 40,000 203 426 -64
2019-04-16 10:27:34 GMT 26.334509 -96.896667 40,000 203 426 -64
2019-04-16 10:27:29 GMT 26.344528 -96.892052 40,000 203 426 0
2019-04-16 10:27:25 GMT 26.353317 -96.888016 40,000 203 426 -64
2019-04-16 10:27:19 GMT 26.362253 -96.883888 40,000 203 425 0
2019-04-16 10:27:13 GMT 26.371902 -96.879410 40,000 203 425 0
2019-04-16 10:27:08 GMT 26.382111 -96.874695 39,975 203 425 0
2019-04-16 10:27:04 GMT 26.391768 -96.870209 40,000 203 425 0
2019-04-16 10:26:55 GMT 26.405222 -96.863976 39,975 203 425 0
2019-04-16 10:26:52 GMT 26.411785 -96.860962 40,000 203 425 0
2019-04-16 10:26:47 GMT 26.421799 -96.856354 39,975 203 425 0
2019-04-16 10:26:42 GMT 26.430862 -96.852097 40,000 203 424 0
2019-04-16 10:26:37 GMT 26.440338 -96.847748 39,975 203 424 -64
2019-04-16 10:26:30 GMT 26.453430 -96.841682 40,000 203 424 -64
2019-04-16 10:26:25 GMT 26.463085 -96.837250 40,000 203 424 -64
2019-04-16 10:26:14 GMT 26.479425 -96.829697 40,000 203 424 0
2019-04-16 10:26:10 GMT 26.488724 -96.825409 40,000 203 424 0
2019-04-16 10:26:05 GMT 26.498371 -96.820976 40,000 203 424 0
2019-04-16 10:25:54 GMT 26.518295 -96.811737 40,000 203 423 -64
2019-04-16 10:25:48 GMT 26.528641 -96.806961 40,000 203 423 0
2019-04-16 10:25:43 GMT 26.537338 -96.802917 40,000 203 423 0
2019-04-16 10:25:38 GMT 26.544617 -96.799553 39,975 203 423 0
2019-04-16 10:25:31 GMT 26.557446 -96.793617 40,000 203 423 -64
2019-04-16 10:25:28 GMT 26.563639 -96.790764 40,000 203 423 -64
2019-04-16 10:25:22 GMT 26.576477 -96.784782 40,000 203 422 0
2019-04-16 10:25:18 GMT 26.582291 -96.782089 40,000 203 422 0
2019-04-16 10:25:11 GMT 26.596390 -96.775505 40,000 203 421 0
2019-04-16 10:25:07 GMT 26.600880 -96.773438 40,000 203 422 64
2019-04-16 10:25:00 GMT 26.614792 -96.766953 39,975 203 421 0
2019-04-16 10:24:57 GMT 26.620384 -96.764359 39,975 203 421 64
2019-04-16 10:24:50 GMT 26.631729 -96.759026 39,975 203 421 0
2019-04-16 10:24:47 GMT 26.640541 -96.754906 40,000 203 421 -64
2019-04-16 10:24:39 GMT 26.651016 -96.750046 39,975 203 421 -64
2019-04-16 10:24:35 GMT 26.659103 -96.746277 39,975 203 421 -64
2019-04-16 10:24:29 GMT 26.669729 -96.741325 39,975 203 421 0
2019-04-16 10:24:26 GMT 26.678389 -96.737259 39,975 203 421 0
2019-04-16 10:24:17 GMT 26.696594 -96.728813 40,000 203 421 -64
2019-04-16 10:24:07 GMT 26.711014 -96.722130 40,000 203 421 0
2019-04-16 10:24:04 GMT 26.715317 -96.720108 40,000 203 421 0
2019-04-16 10:23:57 GMT 26.727219 -96.714615 40,000 203 421 0
2019-04-16 10:23:54 GMT 26.734997 -96.711006 40,000 203 421 -64
2019-04-16 10:23:47 GMT 26.746353 -96.705704 40,000 203 421 0
2019-04-16 10:23:44 GMT 26.753540 -96.702385 40,000 203 420 0
2019-04-16 10:23:36 GMT 26.765581 -96.696747 40,000 203 420 0
2019-04-16 10:23:33 GMT 26.771896 -96.693832 39,975 203 420 0
2019-04-16 10:23:25 GMT 26.784485 -96.687981 39,975 203 420 0
2019-04-16 10:23:22 GMT 26.791512 -96.684708 39,975 203 420 0
2019-04-16 10:23:15 GMT 26.803383 -96.679161 39,975 203 420 -64
2019-04-16 10:23:11 GMT 26.810760 -96.675697 40,000 203 420 0
2019-04-16 10:23:05 GMT 26.821770 -96.670601 39,975 203 421 0
2019-04-16 10:23:02 GMT 26.829683 -96.666962 39,975 203 421 0
2019-04-16 10:22:54 GMT 26.841228 -96.661568 40,000 203 421 0
2019-04-16 10:22:50 GMT 26.848072 -96.658401 39,975 203 421 0
2019-04-16 10:22:44 GMT 26.860474 -96.652634 39,975 203 421 0
2019-04-16 10:22:41 GMT 26.866785 -96.649689 39,975 203 421 -64
2019-04-16 10:22:33 GMT 26.879402 -96.643768 39,975 203 421 -64
2019-04-16 10:22:22 GMT 26.899233 -96.634476 40,000 203 421 -64
2019-04-16 10:22:19 GMT 26.906448 -96.631149 39,975 203 421 -64
2019-04-16 10:22:12 GMT 26.916733 -96.626312 39,975 203 422 -64
2019-04-16 10:22:09 GMT 26.924137 -96.622856 40,000 203 422 -64
2019-04-16 10:22:00 GMT 26.937498 -96.616623 39,975 203 422 -64
2019-04-16 10:21:57 GMT 26.943644 -96.613770 40,000 203 422 0
2019-04-16 10:21:50 GMT 26.955935 -96.608009 39,975 203 421 0
2019-04-16 10:21:46 GMT 26.963333 -96.604546 40,000 203 421 0
2019-04-16 10:21:40 GMT 26.975067 -96.599083 40,000 203 421 -64
2019-04-16 10:21:35 GMT 26.982981 -96.595390 40,000 203 421 0
2019-04-16 10:21:29 GMT 26.994526 -96.589951 40,000 203 421 -64
2019-04-16 10:21:26 GMT 27.001741 -96.586571 40,000 203 421 0
2019-04-16 10:21:17 GMT 27.017569 -96.579170 40,000 203 420 64
2019-04-16 10:21:14 GMT 27.021011 -96.577599 40,000 203 420 64
2019-04-16 10:21:08 GMT 27.032698 -96.572098 40,000 203 420 0
2019-04-16 10:21:04 GMT 27.039734 -96.568840 39,975 203 420 0
2019-04-16 10:20:57 GMT 27.052111 -96.563011 39,975 203 420 64
2019-04-16 10:20:53 GMT 27.060024 -96.559311 39,975 203 420 64
2019-04-16 10:20:46 GMT 27.071150 -96.554085 39,975 203 420 64
2019-04-16 10:20:43 GMT 27.078186 -96.550804 40,000 203 420 64
2019-04-16 10:20:36 GMT 27.092751 -96.543999 39,975 203 422 -64
2019-04-16 10:20:31 GMT 27.098150 -96.541458 39,975 203 421 0
2019-04-16 10:20:28 GMT 27.106979 -96.537277 39,975 203 421 -64
2019-04-16 10:20:25 GMT 27.117611 -96.532326 39,975 203 422 -64
2019-04-16 10:20:21 GMT 27.117611 -96.532326 39,975 203 421 -64
2019-04-16 10:20:15 GMT 27.128084 -96.527412 40,000 203 422 -64
2019-04-16 10:20:11 GMT 27.136744 -96.523346 40,000 203 422 -64
2019-04-16 10:20:04 GMT 27.147446 -96.518311 40,000 203 423 -64
2019-04-16 10:20:00 GMT 27.156668 -96.513992 39,975 203 423 0
2019-04-16 10:19:54 GMT 27.166260 -96.509506 39,975 203 423 64
2019-04-16 10:19:48 GMT 27.176010 -96.504944 40,000 203 424 0
2019-04-16 10:19:43 GMT 27.185074 -96.500694 39,975 203 424 0
2019-04-16 10:19:35 GMT 27.202103 -96.492714 40,000 203 424 0
2019-04-16 10:19:32 GMT 27.204802 -96.491386 40,000 203 424 0
2019-04-16 10:19:28 GMT 27.214951 -96.486633 39,975 203 424 0
2019-04-16 10:19:22 GMT 27.223656 -96.482567 39,975 203 424 0
2019-04-16 10:19:17 GMT 27.234375 -96.477531 40,000 203 425 -64
2019-04-16 10:19:11 GMT 27.242556 -96.473640 40,000 203 425 0
2019-04-16 10:19:06 GMT 27.253281 -96.468613 39,975 203 425 0
2019-04-16 10:19:03 GMT 27.260193 -96.465347 39,975 203 426 0
2019-04-16 10:19:00 GMT 27.264542 -96.463326 39,975 203 426 0
2019-04-16 10:18:56 GMT 27.272919 -96.459389 39,975 203 426 0
2019-04-16 10:18:50 GMT 27.283289 -96.454468 39,975 203 426 -64
2019-04-16 10:18:44 GMT 27.294800 -96.449081 39,975 203 426 -64
2019-04-16 10:18:41 GMT 27.298462 -96.447365 40,000 203 427 -64
2019-04-16 10:18:38 GMT 27.304098 -96.444748 39,975 203 426 -64
2019-04-16 10:18:33 GMT 27.312286 -96.440887 39,975 203 427 -64
2019-04-16 10:18:28 GMT 27.322495 -96.436073 40,000 203 427 -64
2019-04-16 10:18:22 GMT 27.332016 -96.431618 40,000 203 427 -64
2019-04-16 10:18:18 GMT 27.339294 -96.428192 40,000 203 427 -64
2019-04-16 10:18:15 GMT 27.345154 -96.425446 40,000 203 426 0
2019-04-16 10:18:12 GMT 27.352066 -96.422180 39,975 203 426 64
2019-04-16 10:18:09 GMT 27.356049 -96.420319 39,975 203 426 64
2019-04-16 10:18:06 GMT 27.362274 -96.417412 40,000 203 426 0
2019-04-16 10:18:01 GMT 27.372250 -96.412689 40,000 203 425 -64
2019-04-16 10:17:56 GMT 27.380447 -96.408813 40,000 203 425 -64
2019-04-16 10:17:49 GMT 27.399307 -96.399948 40,000 203 424 0
2019-04-16 10:17:38 GMT 27.413452 -96.393265 40,000 203 424 0
2019-04-16 10:17:35 GMT 27.418533 -96.390884 40,000 203 424 0
2019-04-16 10:17:30 GMT 27.429230 -96.385857 40,000 203 424 0
2019-04-16 10:17:27 GMT 27.432678 -96.384193 40,000 203 424 0
2019-04-16 10:17:24 GMT 27.438080 -96.381660 40,000 203 423 0
2019-04-16 10:17:19 GMT 27.448410 -96.376770 40,000 203 423 0
2019-04-16 10:17:14 GMT 27.456161 -96.373108 39,975 203 423 64
2019-04-16 10:17:07 GMT 27.469208 -96.366989 39,975 203 423 0
2019-04-16 10:17:03 GMT 27.476028 -96.363724 40,000 203 423 64
2019-04-16 10:16:58 GMT 27.487610 -96.358284 39,975 203 423 64
2019-04-16 10:16:52 GMT 27.496126 -96.354271 39,975 203 423 64
2019-04-16 10:16:47 GMT 27.506971 -96.349091 39,975 203 423 64
2019-04-16 10:16:42 GMT 27.528809 -96.338753 39,975 203 423 -64
2019-04-16 10:16:34 GMT 27.533693 -96.336418 39,975 203 423 0
2019-04-16 10:16:24 GMT 27.549242 -96.329025 39,975 203 424 -64
2019-04-16 10:16:20 GMT 27.552874 -96.327332 40,000 203 425 -64
2019-04-16 10:16:10 GMT 27.572426 -96.318092 39,975 203 424 0
2019-04-16 10:16:02 GMT 27.587128 -96.311127 40,000 203 425 0
2019-04-16 10:15:59 GMT 27.592575 -96.308586 39,975 203 425 0
2019-04-16 10:15:52 GMT 27.611296 -96.299706 39,975 203 425 0
2019-04-16 10:15:41 GMT 27.624893 -96.293297 40,000 203 425 -64
2019-04-16 10:15:37 GMT 27.630707 -96.290550 40,000 203 425 -64
2019-04-16 10:15:31 GMT 27.644485 -96.284027 40,000 203 425 -64
2019-04-16 10:15:27 GMT 27.649933 -96.281487 40,000 203 424 -64
2019-04-16 10:15:19 GMT 27.663712 -96.274956 40,000 203 424 0
2019-04-16 10:15:16 GMT 27.670418 -96.271820 40,000 203 423 -64
2019-04-16 10:15:10 GMT 27.684196 -96.265274 39,975 203 423 0
2019-04-16 10:15:05 GMT 27.689272 -96.262894 39,975 203 423 0
2019-04-16 10:14:58 GMT 27.703005 -96.256348 39,975 203 423 0
2019-04-16 10:14:54 GMT 27.708776 -96.253601 39,975 203 423 -64
2019-04-16 10:14:47 GMT 27.723404 -96.246658 40,000 203 423 -64
2019-04-16 10:14:43 GMT 27.728851 -96.244118 40,000 203 422 0
2019-04-16 10:14:36 GMT 27.741642 -96.238014 40,000 203 423 0
2019-04-16 10:14:33 GMT 27.748159 -96.234955 40,000 203 422 0
2019-04-16 10:14:28 GMT 27.758102 -96.230232 40,000 203 422 0
2019-04-16 10:14:25 GMT 27.769108 -96.224968 39,975 203 422 -64
2019-04-16 10:14:13 GMT 27.784937 -96.217415 40,000 204 421 -64
2019-04-16 10:14:06 GMT 27.798250 -96.211075 40,000 204 421 -64
2019-04-16 10:14:01 GMT 27.805466 -96.207642 40,000 204 421 0
2019-04-16 10:13:56 GMT 27.815689 -96.202766 40,000 203 421 64
2019-04-16 10:13:52 GMT 27.823242 -96.199142 40,000 203 421 64
2019-04-16 10:13:49 GMT 27.826693 -96.197556 39,975 203 421 64
2019-04-16 10:13:45 GMT 27.835831 -96.193176 40,000 203 420 64
2019-04-16 10:13:39 GMT 27.844482 -96.189087 40,000 203 420 0
2019-04-16 10:13:34 GMT 27.853973 -96.184616 39,975 203 420 0
2019-04-16 10:13:31 GMT 27.862061 -96.180740 40,000 203 421 0
2019-04-16 10:13:28 GMT 27.864944 -96.179398 40,000 203 421 0
2019-04-16 10:13:23 GMT 27.873596 -96.175301 39,975 204 421 0
2019-04-16 10:13:20 GMT 27.884033 -96.170273 39,975 204 421 64
2019-04-16 10:13:12 GMT 27.894470 -96.165298 39,975 203 422 64
2019-04-16 10:13:09 GMT 27.899687 -96.162804 39,975 203 422 64
2019-04-16 10:13:02 GMT 27.912304 -96.156830 39,975 203 423 0
2019-04-16 10:12:59 GMT 27.918447 -96.153877 39,975 203 423 0
2019-04-16 10:12:55 GMT 27.924219 -96.151131 39,975 203 423 -64
2019-04-16 10:12:50 GMT 27.936722 -96.145195 40,000 203 424 -64
2019-04-16 10:12:45 GMT 27.941257 -96.143028 40,000 203 424 -64
2019-04-16 10:12:41 GMT 27.951233 -96.138290 40,000 204 424 -64
2019-04-16 10:12:35 GMT 27.960663 -96.133804 40,000 203 425 -64
2019-04-16 10:12:30 GMT 27.969360 -96.129631 40,000 203 425 0
2019-04-16 10:12:27 GMT 27.975706 -96.126602 39,975 203 425 0
2019-04-16 10:12:24 GMT 27.979523 -96.124771 39,975 203 425 0
2019-04-16 10:12:20 GMT 27.987345 -96.121056 39,975 203 425 64
2019-04-16 10:12:17 GMT 27.994034 -96.117851 39,975 203 425 0
2019-04-16 10:12:14 GMT 27.998428 -96.115791 39,950 203 425 0
2019-04-16 10:12:09 GMT 28.009130 -96.110657 39,975 203 425 0
2019-04-16 10:12:03 GMT 28.018908 -96.105972 39,975 203 425 -64
2019-04-16 10:12:00 GMT 28.025253 -96.102959 40,000 203 425 -64
2019-04-16 10:11:57 GMT 28.031433 -96.099998 40,000 203 425 -64
2019-04-16 10:11:52 GMT 28.037613 -96.097038 40,000 203 425 -64
2019-04-16 10:11:48 GMT 28.045212 -96.093399 40,000 203 425 0
2019-04-16 10:11:45 GMT 28.050659 -96.090813 39,975 203 425 -64
2019-04-16 10:11:39 GMT 28.063551 -96.084648 39,975 204 424 0
2019-04-16 10:11:36 GMT 28.070251 -96.081459 40,000 204 424 0
2019-04-16 10:11:31 GMT 28.075516 -96.078941 40,000 204 424 0
2019-04-16 10:11:28 GMT 28.082405 -96.075653 40,000 204 424 64
2019-04-16 10:11:24 GMT 28.090364 -96.071831 39,975 204 424 64
2019-04-16 10:11:18 GMT 28.102158 -96.066246 39,975 203 424 64
2019-04-16 10:11:13 GMT 28.109756 -96.062607 40,000 203 424 -64
2019-04-16 10:11:10 GMT 28.114105 -96.060547 39,975 203 424 0
2019-04-16 10:11:07 GMT 28.121136 -96.057129 39,975 204 424 0
2019-04-16 10:11:04 GMT 28.126419 -96.054626 40,000 204 424 -64
2019-04-16 10:10:59 GMT 28.133472 -96.051262 40,000 204 424 -64
2019-04-16 10:10:56 GMT 28.140316 -96.047974 39,975 203 424 0
2019-04-16 10:10:52 GMT 28.146507 -96.045013 40,000 203 424 0
2019-04-16 10:10:49 GMT 28.152281 -96.042267 39,975 204 424 0
2019-04-16 10:10:43 GMT 28.165512 -96.035934 40,000 203 424 0
2019-04-16 10:10:39 GMT 28.171326 -96.033180 39,975 204 424 -64
2019-04-16 10:10:32 GMT 28.185286 -96.026489 39,975 204 424 0
2019-04-16 10:10:24 GMT 28.197372 -96.020721 40,000 204 424 0
2019-04-16 10:10:19 GMT 28.206606 -96.016251 40,000 204 424 0
2019-04-16 10:10:15 GMT 28.216755 -96.011406 40,000 204 424 0
2019-04-16 10:10:10 GMT 28.223831 -96.008041 40,000 204 424 0
2019-04-16 10:10:07 GMT 28.228912 -96.005615 39,975 204 424 0
2019-04-16 10:10:03 GMT 28.236305 -96.002037 39,975 204 424 0
2019-04-16 10:10:00 GMT 28.243744 -95.998482 40,000 204 424 -64
2019-04-16 10:09:56 GMT 28.248093 -95.996422 40,000 204 424 -64
2019-04-16 10:09:53 GMT 28.254416 -95.993362 40,000 204 424 -64
2019-04-16 10:09:50 GMT 28.266907 -95.987389 40,000 204 424 0
2019-04-16 10:09:46 GMT 28.266907 -95.987389 39,975 204 424 0
2019-04-16 10:09:43 GMT 28.272524 -95.984695 39,975 204 424 -64
2019-04-16 10:09:40 GMT 28.278343 -95.981895 40,000 204 424 -64
2019-04-16 10:09:35 GMT 28.286304 -95.978073 39,975 204 424 64
2019-04-16 10:09:32 GMT 28.292267 -95.975189 39,975 204 424 0
2019-04-16 10:09:27 GMT 28.303162 -95.969963 39,975 204 424 0
2019-04-16 10:09:24 GMT 28.306046 -95.968590 39,975 204 424 0
2019-04-16 10:09:21 GMT 28.311302 -95.966064 39,975 204 424 0
2019-04-16 10:09:16 GMT 28.322893 -95.960510 39,975 204 424 0
2019-04-16 10:09:12 GMT 28.330673 -95.956757 40,000 204 424 -64
2019-04-16 10:09:09 GMT 28.335230 -95.954590 39,975 204 424 0
2019-04-16 10:09:06 GMT 28.339737 -95.952423 40,000 204 424 0
2019-04-16 10:09:03 GMT 28.344633 -95.950066 40,000 204 424 -64
2019-04-16 10:09:00 GMT 28.350266 -95.947357 40,000 204 424 -64
2019-04-16 10:08:56 GMT 28.359695 -95.942863 40,000 204 424 -64
2019-04-16 10:08:51 GMT 28.368393 -95.938690 40,000 204 424 -64
2019-04-16 10:08:45 GMT 28.378710 -95.933693 40,000 204 424 0
2019-04-16 10:08:40 GMT 28.386669 -95.929871 40,000 204 424 0
2019-04-16 10:08:36 GMT 28.393560 -95.926529 39,975 204 423 0
2019-04-16 10:08:33 GMT 28.399521 -95.923691 40,000 204 423 0
2019-04-16 10:08:30 GMT 28.406021 -95.920570 39,975 204 423 0
2019-04-16 10:08:24 GMT 28.416697 -95.915436 39,975 204 423 64
2019-04-16 10:08:19 GMT 28.424835 -95.911491 39,975 204 423 0
2019-04-16 10:08:13 GMT 28.436371 -95.905891 39,975 204 423 0
2019-04-16 10:08:08 GMT 28.443604 -95.902458 39,975 204 423 0
2019-04-16 10:08:02 GMT 28.455708 -95.896591 39,975 204 423 -64
2019-04-16 10:07:57 GMT 28.462923 -95.893143 40,000 204 423 0
2019-04-16 10:07:52 GMT 28.475372 -95.887138 40,000 204 423 -64
2019-04-16 10:07:47 GMT 28.481873 -95.884026 39,975 204 423 0
2019-04-16 10:07:41 GMT 28.493820 -95.878265 40,000 204 423 0
2019-04-16 10:07:37 GMT 28.502678 -95.873970 40,000 204 423 0
2019-04-16 10:07:33 GMT 28.507751 -95.871544 39,975 204 423 64
2019-04-16 10:07:28 GMT 28.516205 -95.867439 39,975 204 423 64
2019-04-16 10:07:25 GMT 28.520920 -95.865166 39,975 204 423 64
2019-04-16 10:07:20 GMT 28.532822 -95.859413 39,975 204 423 0
2019-04-16 10:07:16 GMT 28.541153 -95.855446 39,975 204 423 -64
2019-04-16 10:07:12 GMT 28.545647 -95.853233 40,000 204 423 -64
2019-04-16 10:07:07 GMT 28.554724 -95.848869 39,975 204 424 -64
2019-04-16 10:07:02 GMT 28.564453 -95.844131 40,000 204 424 -64
2019-04-16 10:06:57 GMT 28.571714 -95.840637 40,000 204 424 -64
2019-04-16 10:06:54 GMT 28.578234 -95.837509 40,000 204 424 -64
2019-04-16 10:06:51 GMT 28.583633 -95.834869 39,975 204 424 -64
2019-04-16 10:06:48 GMT 28.590683 -95.831467 39,975 204 424 -64
2019-04-16 10:06:43 GMT 28.596863 -95.828514 40,000 204 423 0
2019-04-16 10:06:40 GMT 28.602440 -95.825768 40,000 204 424 -64
2019-04-16 10:06:37 GMT 28.610073 -95.822105 40,000 204 424 -64
2019-04-16 10:06:33 GMT 28.615149 -95.819687 40,000 204 423 0
2019-04-16 10:06:30 GMT 28.621490 -95.816628 40,000 204 424 -64
2019-04-16 10:06:26 GMT 28.629625 -95.812683 40,000 204 424 -64
2019-04-16 10:06:22 GMT 28.635590 -95.809814 40,000 204 423 0
2019-04-16 10:06:19 GMT 28.640100 -95.807617 40,000 204 423 0
2019-04-16 10:06:13 GMT 28.654724 -95.800568 40,000 204 423 0
2019-04-16 10:06:09 GMT 28.658861 -95.798515 39,975 204 423 0
2019-04-16 10:06:05 GMT 28.668091 -95.794075 40,000 204 423 0
2019-04-16 10:06:01 GMT 28.674782 -95.790871 39,975 204 423 -64
2019-04-16 10:05:58 GMT 28.678041 -95.789253 40,000 204 423 0
2019-04-16 10:05:52 GMT 28.689213 -95.783875 40,000 204 423 0
2019-04-16 10:05:49 GMT 28.697174 -95.779991 39,975 204 423 0
2019-04-16 10:05:41 GMT 28.710388 -95.773628 39,975 204 423 64
2019-04-16 10:05:38 GMT 28.715981 -95.770889 40,000 204 423 0
2019-04-16 10:05:30 GMT 28.729713 -95.764267 40,000 204 423 0
2019-04-16 10:05:26 GMT 28.737122 -95.760689 39,975 204 423 0
2019-04-16 10:05:22 GMT 28.749266 -95.754845 40,000 204 425 0
2019-04-16 10:05:16 GMT 28.754837 -95.752083 39,975 204 425 0
2019-04-16 10:05:10 GMT 28.767151 -95.746170 40,000 204 425 0
2019-04-16 10:05:05 GMT 28.774590 -95.742561 39,975 204 425 0
2019-04-16 10:04:59 GMT 28.786926 -95.736588 40,000 204 426 -64
2019-04-16 10:04:54 GMT 28.794342 -95.732964 39,975 204 425 -64
2019-04-16 10:04:49 GMT 28.806152 -95.727272 40,000 204 426 0
2019-04-16 10:04:45 GMT 28.810854 -95.725006 40,000 204 426 0
2019-04-16 10:04:37 GMT 28.825562 -95.717911 40,000 204 426 0
2019-04-16 10:04:31 GMT 28.835899 -95.712837 39,975 204 426 0
2019-04-16 10:04:28 GMT 28.843906 -95.708961 39,975 204 425 0
2019-04-16 10:04:24 GMT 28.848980 -95.706482 40,000 204 425 0
2019-04-16 10:04:15 GMT 28.866898 -95.697784 39,975 204 425 -64
2019-04-16 10:04:05 GMT 28.882639 -95.690056 40,000 204 425 -64
2019-04-16 10:04:02 GMT 28.888641 -95.687164 40,000 204 425 -64
2019-04-16 10:03:57 GMT 28.899303 -95.681976 39,975 204 425 0
2019-04-16 10:03:54 GMT 28.905821 -95.678802 40,000 204 424 0
2019-04-16 10:03:45 GMT 28.926863 -95.668678 39,975 204 425 0
2019-04-16 10:03:41 GMT 28.926863 -95.668678 39,975 204 424 0
2019-04-16 10:03:33 GMT 28.943665 -95.660439 40,000 204 424 0
2019-04-16 10:03:24 GMT 28.960281 -95.652359 40,000 204 424 -64
2019-04-16 10:03:20 GMT 28.964630 -95.650246 39,975 204 424 0
2019-04-16 10:03:14 GMT 28.977997 -95.643753 40,000 204 424 64
2019-04-16 10:03:11 GMT 28.982666 -95.641426 39,975 204 424 64
2019-04-16 10:03:04 GMT 28.995853 -95.635017 39,975 204 424 0
2019-04-16 10:03:01 GMT 29.000702 -95.632660 39,975 204 424 0
2019-04-16 10:02:52 GMT 29.022720 -95.621887 40,000 204 424 -64
2019-04-16 10:02:48 GMT 29.022720 -95.621887 39,975 204 424 0
2019-04-16 10:02:42 GMT 29.034119 -95.616325 40,000 204 424 0
2019-04-16 10:02:39 GMT 29.040436 -95.613274 40,000 204 424 0
2019-04-16 10:02:32 GMT 29.054855 -95.606247 40,000 204 424 -64
2019-04-16 10:02:29 GMT 29.058327 -95.604538 39,975 204 424 0
2019-04-16 10:02:23 GMT 29.070786 -95.598488 40,000 204 424 -64
2019-04-16 10:02:19 GMT 29.076342 -95.595757 40,000 204 424 0
2019-04-16 10:02:10 GMT 29.092072 -95.588081 39,975 204 424 0
2019-04-16 10:02:07 GMT 29.096218 -95.586060 40,000 204 424 0
2019-04-16 10:02:02 GMT 29.114822 -95.576988 40,000 204 424 0
2019-04-16 10:01:58 GMT 29.114822 -95.576988 39,975 204 424 0
2019-04-16 10:01:52 GMT 29.125828 -95.571632 40,000 204 424 0
2019-04-16 10:01:46 GMT 29.134689 -95.567322 40,000 204 424 0
2019-04-16 10:01:39 GMT 29.153458 -95.558128 40,000 204 424 -64
2019-04-16 10:01:30 GMT 29.164307 -95.552849 39,975 204 424 0
2019-04-16 10:01:27 GMT 29.168610 -95.550735 39,975 204 424 0
2019-04-16 10:01:24 GMT 29.174057 -95.548096 39,975 204 424 0
2019-04-16 10:01:18 GMT 29.185593 -95.542442 40,000 204 424 0
2019-04-16 10:01:15 GMT 29.191931 -95.539368 39,975 204 424 0
2019-04-16 10:01:11 GMT 29.200962 -95.534958 40,000 204 424 -64
2019-04-16 10:01:06 GMT 29.208921 -95.531075 39,975 204 424 -64
2019-04-16 10:00:58 GMT 29.223726 -95.523804 40,000 204 424 -64
2019-04-16 10:00:54 GMT 29.230942 -95.520309 40,000 204 424 0
2019-04-16 10:00:50 GMT 29.237831 -95.516914 40,000 204 424 0
2019-04-16 10:00:46 GMT 29.244507 -95.513657 39,975 204 424 0
2019-04-16 10:00:43 GMT 29.251007 -95.510490 39,975 204 424 0
2019-04-16 10:00:35 GMT 29.263321 -95.504463 39,975 204 424 0
2019-04-16 10:00:31 GMT 29.270697 -95.500862 39,975 204 424 0
2019-04-16 10:00:27 GMT 29.277786 -95.497444 40,000 204 424 0
2019-04-16 10:00:24 GMT 29.283920 -95.494431 40,000 204 424 0
2019-04-16 10:00:21 GMT 29.288956 -95.491951 39,975 204 424 0
2019-04-16 10:00:17 GMT 29.296921 -95.488045 40,000 204 423 0
2019-04-16 10:00:14 GMT 29.301224 -95.485931 40,000 204 423 0
2019-04-16 10:00:10 GMT 29.309509 -95.481857 39,975 204 423 0
2019-04-16 10:00:06 GMT 29.319111 -95.477165 40,000 204 423 0
2019-04-16 10:00:03 GMT 29.322876 -95.475365 40,000 204 423 -64
2019-04-16 10:00:00 GMT 29.327398 -95.473129 40,000 204 423 -64
2019-04-16 09:59:55 GMT 29.334614 -95.469574 40,000 204 423 0
2019-04-16 09:59:52 GMT 29.341084 -95.466400 39,975 204 423 0
2019-04-16 09:59:49 GMT 29.346313 -95.463852 39,975 204 423 -64
2019-04-16 09:59:44 GMT 29.355143 -95.459503 40,000 204 423 0
2019-04-16 09:59:41 GMT 29.360001 -95.457092 40,000 204 423 -64
2019-04-16 09:59:38 GMT 29.366867 -95.453758 40,000 204 423 0
2019-04-16 09:59:34 GMT 29.373688 -95.450378 40,000 204 423 -64
2019-04-16 09:59:31 GMT 29.378185 -95.448196 39,975 204 423 0
2019-04-16 09:59:27 GMT 29.387009 -95.443832 40,000 204 423 0
2019-04-16 09:59:24 GMT 29.393316 -95.440765 40,000 204 422 -64
2019-04-16 09:59:21 GMT 29.396393 -95.439240 40,000 204 422 -64
2019-04-16 09:59:18 GMT 29.402115 -95.436386 40,000 204 422 0
2019-04-16 09:59:14 GMT 29.410959 -95.432037 40,000 204 422 0
2019-04-16 09:59:10 GMT 29.416685 -95.429237 40,000 204 422 0
2019-04-16 09:59:07 GMT 29.421341 -95.426926 40,000 204 422 0
2019-04-16 09:59:02 GMT 29.430862 -95.422226 40,000 204 422 0
2019-04-16 09:58:59 GMT 29.435898 -95.419746 39,975 204 422 0
2019-04-16 09:58:56 GMT 29.442894 -95.416313 39,975 204 422 0
2019-04-16 09:58:52 GMT 29.448120 -95.413780 40,000 204 422 0
2019-04-16 09:58:48 GMT 29.455137 -95.410339 39,975 204 421 0
2019-04-16 09:58:45 GMT 29.463003 -95.406403 40,000 204 420 0
2019-04-16 09:58:42 GMT 29.467484 -95.404167 40,000 204 420 0
2019-04-16 09:58:38 GMT 29.473387 -95.401176 40,000 205 420 0
2019-04-16 09:58:32 GMT 29.485977 -95.394653 39,975 205 420 64
2019-04-16 09:58:28 GMT 29.503086 -95.385506 39,975 206 420 0
2019-04-16 09:58:22 GMT 29.503086 -95.385506 39,975 206 420 0
2019-04-16 09:58:19 GMT 29.508865 -95.382347 39,975 206 419 0
2019-04-16 09:58:16 GMT 29.513077 -95.380028 39,975 206 419 0
2019-04-16 09:58:11 GMT 29.523010 -95.374413 40,000 207 419 -64
2019-04-16 09:58:08 GMT 29.528225 -95.371452 39,975 207 419 -64
2019-04-16 09:58:05 GMT 29.535486 -95.367310 40,000 207 419 -64
2019-04-16 09:58:01 GMT 29.540863 -95.364182 40,000 207 419 -64
2019-04-16 09:57:57 GMT 29.547962 -95.360092 40,000 207 419 -64
2019-04-16 09:57:50 GMT 29.564758 -95.350342 40,000 207 419 -64
2019-04-16 09:57:47 GMT 29.564758 -95.350342 40,000 207 419 0
2019-04-16 09:57:43 GMT 29.572542 -95.345818 40,000 207 419 0
2019-04-16 09:57:40 GMT 29.577757 -95.342804 40,000 207 419 0
2019-04-16 09:57:36 GMT 29.582748 -95.339935 40,000 207 418 0
2019-04-16 09:57:30 GMT 29.600567 -95.329605 39,975 207 418 0
2019-04-16 09:57:26 GMT 29.600567 -95.329605 39,975 207 418 0
2019-04-16 09:57:22 GMT 29.606277 -95.326256 40,000 207 418 0
2019-04-16 09:57:19 GMT 29.613741 -95.321960 40,000 207 418 -64
2019-04-16 09:57:15 GMT 29.618908 -95.319000 40,000 207 418 -64
2019-04-16 09:57:10 GMT 29.628387 -95.313477 40,000 207 418 -64
2019-04-16 09:57:04 GMT 29.636353 -95.308876 40,000 207 418 0
2019-04-16 09:56:58 GMT 29.650377 -95.300743 40,000 207 417 0
2019-04-16 09:56:54 GMT 29.655396 -95.297890 39,975 207 417 0
2019-04-16 09:56:49 GMT 29.665054 -95.292297 40,000 207 417 64
2019-04-16 09:56:46 GMT 29.668533 -95.290283 39,975 207 417 64
2019-04-16 09:56:43 GMT 29.673019 -95.287697 40,000 207 417 64
2019-04-16 09:56:38 GMT 29.685425 -95.280518 39,975 207 417 0
2019-04-16 09:56:35 GMT 29.696457 -95.274124 39,975 207 417 0
2019-04-16 09:56:31 GMT 29.696457 -95.274124 39,975 207 417 0
2019-04-16 09:56:26 GMT 29.703541 -95.269989 39,975 207 417 -64
2019-04-16 09:56:23 GMT 29.715775 -95.262871 40,000 207 417 -64
2019-04-16 09:56:15 GMT 29.728226 -95.255692 40,000 207 418 0
2019-04-16 09:56:12 GMT 29.728226 -95.255692 40,000 207 418 -64
2019-04-16 09:56:05 GMT 29.740311 -95.248665 40,000 207 418 0
2019-04-16 09:56:02 GMT 29.746695 -95.244949 40,000 207 418 0
2019-04-16 09:55:58 GMT 29.750977 -95.242432 40,000 207 418 0
2019-04-16 09:55:54 GMT 29.758255 -95.238258 39,975 207 418 0
2019-04-16 09:55:51 GMT 29.763266 -95.235306 39,975 207 418 0
2019-04-16 09:55:47 GMT 29.772400 -95.230019 39,975 207 418 0
2019-04-16 09:55:44 GMT 29.774998 -95.228523 39,975 207 418 0
2019-04-16 09:55:39 GMT 29.787231 -95.221359 40,000 207 418 0
2019-04-16 09:55:33 GMT 29.796085 -95.216248 40,000 207 418 0
2019-04-16 09:55:30 GMT 29.799532 -95.214249 40,000 207 418 0
2019-04-16 09:55:27 GMT 29.804901 -95.211166 39,975 207 418 0
2019-04-16 09:55:24 GMT 29.812008 -95.207031 40,000 207 418 0
2019-04-16 09:55:21 GMT 29.814753 -95.205475 39,975 207 418 0
2019-04-16 09:55:18 GMT 29.822205 -95.201126 40,000 207 419 -64
2019-04-16 09:55:12 GMT 29.830490 -95.196320 39,975 207 419 -64
2019-04-16 09:55:09 GMT 29.836540 -95.192764 40,000 207 419 -64
2019-04-16 09:55:03 GMT 29.848690 -95.185707 40,000 207 419 -64
2019-04-16 09:54:57 GMT 29.857864 -95.180420 40,000 207 419 -64
2019-04-16 09:54:52 GMT 29.865509 -95.175987 40,000 207 419 0
2019-04-16 09:54:49 GMT 29.872944 -95.171654 40,000 207 419 0
2019-04-16 09:54:46 GMT 29.876587 -95.169487 40,000 207 419 0
2019-04-16 09:54:42 GMT 29.885048 -95.164597 40,000 207 419 0
2019-04-16 09:54:38 GMT 29.889725 -95.161835 39,975 207 419 0
2019-04-16 09:54:35 GMT 29.895102 -95.158730 40,000 207 419 0
2019-04-16 09:54:31 GMT 29.903761 -95.153664 39,975 207 418 -64
2019-04-16 09:54:28 GMT 29.907904 -95.151245 40,000 207 418 -64
2019-04-16 09:54:25 GMT 29.912567 -95.148552 40,000 207 418 0
2019-04-16 09:54:21 GMT 29.920853 -95.143700 39,975 207 419 0
2019-04-16 09:54:16 GMT 29.926758 -95.140259 40,000 207 418 0
2019-04-16 09:54:13 GMT 29.934723 -95.135628 39,975 207 418 0
2019-04-16 09:54:10 GMT 29.939575 -95.132820 39,975 207 418 0
2019-04-16 09:54:06 GMT 29.944588 -95.129898 40,000 207 418 0
2019-04-16 09:54:03 GMT 29.953199 -95.124847 39,975 207 418 0
2019-04-16 09:54:00 GMT 29.957714 -95.122269 39,975 207 418 0
2019-04-16 09:53:56 GMT 29.962557 -95.119408 40,000 207 418 -64
2019-04-16 09:53:53 GMT 29.967911 -95.116287 40,000 207 418 -64
2019-04-16 09:53:49 GMT 29.976381 -95.111336 40,000 207 418 -64
2019-04-16 09:53:44 GMT 29.985214 -95.106216 39,975 207 418 0
2019-04-16 09:53:41 GMT 29.991074 -95.102776 40,000 207 418 0
2019-04-16 09:53:38 GMT 29.993002 -95.101669 40,000 207 418 0
2019-04-16 09:53:35 GMT 29.999193 -95.098038 39,975 207 418 0
2019-04-16 09:53:32 GMT 30.005951 -95.094101 40,000 207 418 0
2019-04-16 09:53:28 GMT 30.011297 -95.090958 40,000 207 418 -64
2019-04-16 09:53:23 GMT 30.022202 -95.084625 40,000 207 418 -64
2019-04-16 09:53:19 GMT 30.028568 -95.080902 40,000 207 418 -64
2019-04-16 09:53:15 GMT 30.033234 -95.078163 40,000 207 418 -64
2019-04-16 09:53:12 GMT 30.038576 -95.075027 40,000 207 418 -64
2019-04-16 09:53:08 GMT 30.046537 -95.070412 40,000 207 418 -64
2019-04-16 09:53:04 GMT 30.053427 -95.066345 40,000 207 418 0
2019-04-16 09:53:01 GMT 30.057570 -95.063927 40,000 207 418 0
2019-04-16 09:52:57 GMT 30.066376 -95.058830 40,000 207 417 -64
2019-04-16 09:52:52 GMT 30.071869 -95.055595 39,975 207 417 0
2019-04-16 09:52:46 GMT 30.083954 -95.048485 40,000 207 417 64
2019-04-16 09:52:42 GMT 30.102772 -95.037506 40,000 208 417 0
2019-04-16 09:52:36 GMT 30.102772 -95.037506 39,975 207 417 0
2019-04-16 09:52:32 GMT 30.108124 -95.034378 39,975 207 417 0
2019-04-16 09:52:25 GMT 30.126022 -95.023872 39,975 208 417 0
2019-04-16 09:52:21 GMT 30.126022 -95.023872 39,975 208 417 0
2019-04-16 09:52:16 GMT 30.134148 -95.019157 39,975 208 417 -64
2019-04-16 09:52:13 GMT 30.140533 -95.015366 39,975 208 417 -64
2019-04-16 09:52:10 GMT 30.144653 -95.012939 39,975 208 417 0
2019-04-16 09:52:04 GMT 30.156372 -95.006104 40,000 207 418 -64
2019-04-16 09:52:00 GMT 30.162277 -95.002655 39,975 207 418 -64
2019-04-16 09:51:55 GMT 30.177301 -94.993835 40,000 207 418 0
2019-04-16 09:51:49 GMT 30.180908 -94.991722 40,000 207 418 -64
2019-04-16 09:51:45 GMT 30.193405 -94.984398 39,975 207 418 0
2019-04-16 09:51:39 GMT 30.198763 -94.981255 40,000 207 419 -64
2019-04-16 09:51:33 GMT 30.211191 -94.973953 39,975 207 419 0
2019-04-16 09:51:28 GMT 30.216934 -94.970612 39,975 207 419 64
2019-04-16 09:51:24 GMT 30.229906 -94.962967 39,975 207 419 0
2019-04-16 09:51:18 GMT 30.235771 -94.959557 39,975 207 419 -64
2019-04-16 09:51:13 GMT 30.245129 -94.954063 40,000 207 419 -64
2019-04-16 09:51:10 GMT 30.250017 -94.951210 40,000 207 419 -64
2019-04-16 09:51:07 GMT 30.253462 -94.949173 39,975 207 419 -64
2019-04-16 09:51:02 GMT 30.262445 -94.943901 40,000 208 419 -64
2019-04-16 09:50:59 GMT 30.268032 -94.940659 40,000 207 419 -64
2019-04-16 09:50:56 GMT 30.272324 -94.938087 40,000 207 419 -64
2019-04-16 09:50:51 GMT 30.284279 -94.931107 40,000 207 419 0
2019-04-16 09:50:46 GMT 30.289820 -94.927864 40,000 207 419 -64
2019-04-16 09:50:42 GMT 30.298849 -94.922531 40,000 207 419 0
2019-04-16 09:50:39 GMT 30.304016 -94.919510 40,000 207 419 64
2019-04-16 09:50:36 GMT 30.308533 -94.916878 40,000 207 418 64
2019-04-16 09:50:31 GMT 30.316818 -94.911987 39,975 207 418 64
2019-04-16 09:50:28 GMT 30.322359 -94.908745 40,000 208 419 64
2019-04-16 09:50:25 GMT 30.326502 -94.906326 40,000 207 420 -64
2019-04-16 09:50:22 GMT 30.334991 -94.901306 39,975 207 418 64
2019-04-16 09:50:19 GMT 30.338791 -94.899094 40,000 207 418 64
2019-04-16 09:50:15 GMT 30.344145 -94.895950 39,975 207 418 64
2019-04-16 09:50:11 GMT 30.353130 -94.890617 39,975 208 419 0
2019-04-16 09:50:08 GMT 30.358109 -94.887680 39,975 208 419 0
2019-04-16 09:50:04 GMT 30.363138 -94.884743 39,975 208 419 0
2019-04-16 09:50:00 GMT 30.372124 -94.879410 39,975 208 419 0
2019-04-16 09:49:56 GMT 30.376965 -94.876556 40,000 208 419 0
2019-04-16 09:49:53 GMT 30.381107 -94.874138 40,000 208 419 0
2019-04-16 09:49:50 GMT 30.389236 -94.869316 39,975 208 419 0
2019-04-16 09:49:47 GMT 30.394979 -94.865952 39,975 208 419 0
2019-04-16 09:49:43 GMT 30.399448 -94.863319 40,000 207 420 -64
2019-04-16 09:49:37 GMT 30.411438 -94.856277 40,000 208 419 0
2019-04-16 09:49:33 GMT 30.416611 -94.853210 40,000 207 420 -64
2019-04-16 09:49:28 GMT 30.426315 -94.847504 40,000 208 419 -64
2019-04-16 09:49:25 GMT 30.430313 -94.845139 40,000 207 420 -64
2019-04-16 09:49:22 GMT 30.435202 -94.842278 40,000 207 420 -64
2019-04-16 09:49:18 GMT 30.443710 -94.837273 39,975 207 420 0
2019-04-16 09:49:15 GMT 30.448563 -94.834412 39,975 207 420 -64
2019-04-16 09:49:12 GMT 30.453735 -94.831345 40,000 207 420 -64
2019-04-16 09:49:08 GMT 30.461922 -94.826515 40,000 207 420 -64
2019-04-16 09:49:05 GMT 30.467463 -94.823219 40,000 208 421 0
2019-04-16 09:49:01 GMT 30.474398 -94.819153 40,000 208 421 0
2019-04-16 09:48:57 GMT 30.481522 -94.814919 40,000 208 421 0
2019-04-16 09:48:54 GMT 30.485151 -94.812782 40,000 207 420 64
2019-04-16 09:48:51 GMT 30.489342 -94.810310 40,000 208 421 64
2019-04-16 09:48:47 GMT 30.497301 -94.805641 40,000 207 420 0
2019-04-16 09:48:44 GMT 30.504089 -94.801620 40,000 207 420 0
2019-04-16 09:48:40 GMT 30.508255 -94.799141 40,000 207 420 64
2019-04-16 09:48:36 GMT 30.517088 -94.793938 39,975 208 419 0
2019-04-16 09:48:33 GMT 30.521072 -94.791603 39,975 207 420 0
2019-04-16 09:48:30 GMT 30.527664 -94.787666 40,000 207 420 0
2019-04-16 09:48:26 GMT 30.533569 -94.784225 39,975 207 420 0
2019-04-16 09:48:23 GMT 30.541214 -94.779701 39,975 207 420 0
2019-04-16 09:48:19 GMT 30.544506 -94.777733 39,975 207 420 0
2019-04-16 09:48:16 GMT 30.551441 -94.773666 39,975 208 421 -64
2019-04-16 09:48:13 GMT 30.556824 -94.770493 39,975 208 421 -64
2019-04-16 09:48:10 GMT 30.562941 -94.766914 39,975 208 421 -64
2019-04-16 09:48:05 GMT 30.570740 -94.762253 39,975 208 421 0
2019-04-16 09:48:02 GMT 30.577332 -94.758369 40,000 208 421 -64
2019-04-16 09:47:58 GMT 30.581701 -94.755814 40,000 208 421 -64
2019-04-16 09:47:54 GMT 30.590361 -94.750656 40,000 208 421 -64
2019-04-16 09:47:51 GMT 30.594875 -94.747963 40,000 208 421 -64
2019-04-16 09:47:47 GMT 30.600266 -94.744804 40,000 208 421 -64
2019-04-16 09:47:44 GMT 30.606327 -94.741203 40,000 208 420 0
2019-04-16 09:47:41 GMT 30.613083 -94.737206 40,000 208 420 0
2019-04-16 09:47:38 GMT 30.617081 -94.734833 40,000 208 420 0
2019-04-16 09:47:34 GMT 30.624390 -94.730492 40,000 208 420 0
2019-04-16 09:47:31 GMT 30.630255 -94.727036 39,975 208 420 64
2019-04-16 09:47:28 GMT 30.636168 -94.723518 39,975 208 420 64
2019-04-16 09:47:24 GMT 30.643105 -94.719398 39,975 208 420 0
2019-04-16 09:47:20 GMT 30.649342 -94.715714 39,975 208 420 0
2019-04-16 09:47:17 GMT 30.654007 -94.712975 40,000 208 420 0
2019-04-16 09:47:13 GMT 30.660233 -94.709259 39,975 208 420 0
2019-04-16 09:47:09 GMT 30.667030 -94.705223 40,000 208 420 0
2019-04-16 09:47:06 GMT 30.672199 -94.702148 39,975 208 420 0
2019-04-16 09:47:03 GMT 30.679832 -94.697647 39,975 208 420 0
2019-04-16 09:46:59 GMT 30.685226 -94.694450 40,000 208 421 -64
2019-04-16 09:46:56 GMT 30.690912 -94.691055 39,975 208 420 0
2019-04-16 09:46:52 GMT 30.703262 -94.683784 39,975 208 420 0
2019-04-16 09:46:49 GMT 30.703262 -94.683784 39,975 208 420 0
2019-04-16 09:46:45 GMT 30.708801 -94.680496 39,975 208 420 -64
2019-04-16 09:46:42 GMT 30.715027 -94.676781 40,000 208 421 -64
2019-04-16 09:46:38 GMT 30.727524 -94.669350 39,975 208 420 0
2019-04-16 09:46:35 GMT 30.727524 -94.669350 40,000 208 420 0
2019-04-16 09:46:32 GMT 30.732204 -94.666611 39,975 208 420 -64
2019-04-16 09:46:28 GMT 30.740707 -94.661545 40,000 208 420 -64
2019-04-16 09:46:24 GMT 30.745750 -94.658531 39,975 208 420 -64
2019-04-16 09:46:21 GMT 30.758226 -94.651115 40,000 208 420 -64
2019-04-16 09:46:17 GMT 30.758226 -94.651115 40,000 208 420 -64
2019-04-16 09:46:13 GMT 30.763767 -94.647820 40,000 208 420 -64
2019-04-16 09:46:10 GMT 30.769455 -94.644417 39,975 208 420 0
2019-04-16 09:46:07 GMT 30.777100 -94.639893 40,000 208 420 0
2019-04-16 09:46:03 GMT 30.780579 -94.637848 40,000 208 420 0
2019-04-16 09:45:58 GMT 30.791466 -94.631393 40,000 208 419 0
2019-04-16 09:45:53 GMT 30.798203 -94.627342 40,000 208 419 0
2019-04-16 09:45:47 GMT 30.808737 -94.621071 40,000 208 419 0
2019-04-16 09:45:42 GMT 30.816879 -94.616249 40,000 208 419 0
2019-04-16 09:45:39 GMT 30.824112 -94.611938 39,975 208 419 0
2019-04-16 09:45:35 GMT 30.831024 -94.607849 40,000 208 418 0
2019-04-16 09:45:32 GMT 30.835190 -94.605370 40,000 208 418 0
2019-04-16 09:45:27 GMT 30.842743 -94.600845 39,975 208 418 0
2019-04-16 09:45:24 GMT 30.852589 -94.594978 39,975 208 418 0
2019-04-16 09:45:17 GMT 30.861526 -94.589645 39,975 208 418 0
2019-04-16 09:45:14 GMT 30.868607 -94.585449 39,975 208 418 64
2019-04-16 09:45:11 GMT 30.871033 -94.584045 39,975 208 418 0
2019-04-16 09:45:04 GMT 30.885315 -94.575531 39,975 208 418 0
2019-04-16 09:45:01 GMT 30.889252 -94.573166 39,975 208 418 0
2019-04-16 09:44:58 GMT 30.895477 -94.569450 39,975 208 418 0
2019-04-16 09:44:53 GMT 30.902344 -94.565361 39,975 208 418 0
2019-04-16 09:44:50 GMT 30.907707 -94.562180 39,975 208 418 0
2019-04-16 09:44:47 GMT 30.912500 -94.559326 39,975 208 418 0
2019-04-16 09:44:43 GMT 30.920462 -94.554604 40,000 208 418 -64
2019-04-16 09:44:40 GMT 30.926834 -94.550766 40,000 208 418 -64
2019-04-16 09:44:37 GMT 30.929073 -94.549438 40,000 208 418 -64
2019-04-16 09:44:31 GMT 30.949045 -94.537460 40,000 208 418 0
2019-04-16 09:44:26 GMT 30.949045 -94.537460 40,000 208 418 0
2019-04-16 09:44:22 GMT 30.957870 -94.532234 39,975 208 418 0
2019-04-16 09:44:19 GMT 30.962500 -94.529442 40,000 208 418 0
2019-04-16 09:44:16 GMT 30.965424 -94.527718 40,000 208 418 0
2019-04-16 09:44:13 GMT 30.971483 -94.524117 39,975 208 418 0
2019-04-16 09:44:08 GMT 30.979935 -94.519043 40,000 208 418 0
2019-04-16 09:44:00 GMT 30.993713 -94.510803 40,000 208 419 0
2019-04-16 09:43:57 GMT 30.997879 -94.508324 39,975 208 418 0
2019-04-16 09:43:49 GMT 31.014404 -94.498421 39,975 208 418 0
2019-04-16 09:43:40 GMT 31.028229 -94.490173 40,000 208 419 0
2019-04-16 09:43:37 GMT 31.034609 -94.486374 40,000 208 419 0
2019-04-16 09:43:34 GMT 31.040314 -94.482964 40,000 208 419 -64
2019-04-16 09:43:29 GMT 31.048061 -94.478302 40,000 208 419 0
2019-04-16 09:43:25 GMT 31.052719 -94.475525 40,000 208 419 0
2019-04-16 09:43:21 GMT 31.062057 -94.469925 40,000 208 419 0
2019-04-16 09:43:16 GMT 31.071030 -94.464600 39,975 208 419 0
2019-04-16 09:43:13 GMT 31.075516 -94.461906 39,975 208 419 0
2019-04-16 09:43:07 GMT 31.086420 -94.455399 39,975 208 419 0
2019-04-16 09:43:02 GMT 31.092453 -94.451782 40,000 208 419 -64
2019-04-16 09:42:56 GMT 31.106764 -94.443199 40,000 208 419 0
2019-04-16 09:42:53 GMT 31.110209 -94.441170 40,000 208 419 0
2019-04-16 09:42:48 GMT 31.119370 -94.435677 40,000 208 419 -64
2019-04-16 09:42:42 GMT 31.129715 -94.429482 39,975 208 419 0
2019-04-16 09:42:36 GMT 31.139420 -94.423721 39,975 208 419 0
2019-04-16 09:42:33 GMT 31.142853 -94.421623 39,975 208 419 0
2019-04-16 09:42:30 GMT 31.151314 -94.416557 40,000 208 419 0
2019-04-16 09:42:26 GMT 31.156677 -94.413383 40,000 208 419 0
2019-04-16 09:42:23 GMT 31.160952 -94.410789 40,000 208 419 0
2019-04-16 09:42:19 GMT 31.167343 -94.406921 39,975 208 419 0
2019-04-16 09:42:13 GMT 31.179619 -94.399582 39,975 208 419 0
2019-04-16 09:42:10 GMT 31.184786 -94.396507 39,975 208 419 0
2019-04-16 09:42:04 GMT 31.193769 -94.391129 39,975 208 419 0
2019-04-16 09:42:01 GMT 31.197739 -94.388718 39,975 208 419 0
2019-04-16 09:41:58 GMT 31.203964 -94.385002 39,975 208 419 0
2019-04-16 09:41:54 GMT 31.211884 -94.380257 40,000 208 418 0
2019-04-16 09:41:51 GMT 31.217422 -94.376923 40,000 208 419 -64
2019-04-16 09:41:41 GMT 31.233627 -94.367172 39,975 208 419 0
2019-04-16 09:41:37 GMT 31.239996 -94.363327 40,000 208 419 0
2019-04-16 09:41:33 GMT 31.250006 -94.357285 40,000 208 418 64
2019-04-16 09:41:30 GMT 31.251892 -94.356186 39,975 208 418 64
2019-04-16 09:41:26 GMT 31.260498 -94.350960 39,975 208 418 0
2019-04-16 09:41:23 GMT 31.265181 -94.348167 39,975 208 418 0
2019-04-16 09:41:20 GMT 31.269470 -94.345573 39,975 208 418 0
2019-04-16 09:41:17 GMT 31.275843 -94.341743 39,975 208 418 0
2019-04-16 09:41:13 GMT 31.283569 -94.337120 39,975 208 418 -64
2019-04-16 09:41:09 GMT 31.288225 -94.334328 40,000 208 418 -64
2019-04-16 09:41:05 GMT 31.296341 -94.329422 40,000 208 417 0
2019-04-16 09:40:59 GMT 31.309067 -94.321777 40,000 208 417 0
2019-04-16 09:40:56 GMT 31.311447 -94.320320 39,975 208 417 0
2019-04-16 09:40:51 GMT 31.320740 -94.314774 40,000 208 417 -64
2019-04-16 09:40:48 GMT 31.324022 -94.312790 40,000 208 417 0
2019-04-16 09:40:45 GMT 31.330215 -94.309059 40,000 208 417 -64
2019-04-16 09:40:38 GMT 31.343296 -94.301147 40,000 208 417 -64
2019-04-16 09:40:34 GMT 31.349625 -94.297325 39,975 208 417 -64
2019-04-16 09:40:31 GMT 31.356171 -94.293388 40,000 208 417 -64
2019-04-16 09:40:27 GMT 31.360800 -94.290604 40,000 208 417 0
2019-04-16 09:40:24 GMT 31.366619 -94.287086 40,000 208 417 -64
2019-04-16 09:40:19 GMT 31.375397 -94.281761 40,000 208 417 0
2019-04-16 09:40:16 GMT 31.380724 -94.278572 39,975 208 417 0
2019-04-16 09:40:10 GMT 31.391012 -94.272362 39,975 208 416 64
2019-04-16 09:40:05 GMT 31.399063 -94.267540 39,975 208 416 64
2019-04-16 09:40:02 GMT 31.403349 -94.264946 39,975 208 416 64
2019-04-16 09:39:59 GMT 31.409166 -94.261429 39,975 208 416 0
2019-04-16 09:39:56 GMT 31.414009 -94.258522 39,975 208 416 0
2019-04-16 09:39:53 GMT 31.419983 -94.254883 40,000 208 416 -64
2019-04-16 09:39:49 GMT 31.427536 -94.250366 40,000 208 416 -64
2019-04-16 09:39:45 GMT 31.431837 -94.247757 39,975 208 416 -64
2019-04-16 09:39:41 GMT 31.440216 -94.242714 40,000 208 416 -64
2019-04-16 09:39:38 GMT 31.445023 -94.239807 40,000 208 416 -64
2019-04-16 09:39:33 GMT 31.455643 -94.233398 40,000 208 416 64
2019-04-16 09:39:28 GMT 31.464249 -94.228226 39,975 208 416 64
2019-04-16 09:39:24 GMT 31.474340 -94.222099 39,975 208 416 64
2019-04-16 09:39:15 GMT 31.483278 -94.216721 39,975 208 416 64
2019-04-16 09:39:12 GMT 31.492035 -94.211426 40,000 208 417 0
2019-04-16 09:39:04 GMT 31.504395 -94.203941 40,000 208 417 0
2019-04-16 09:38:59 GMT 31.511948 -94.199364 40,000 208 417 0
2019-04-16 09:38:56 GMT 31.517761 -94.195808 39,975 208 417 0
2019-04-16 09:38:51 GMT 31.527054 -94.190208 39,975 208 417 0
2019-04-16 09:38:47 GMT 31.532064 -94.187164 39,975 208 417 0
2019-04-16 09:38:42 GMT 31.540466 -94.182076 39,975 208 418 0
2019-04-16 09:38:38 GMT 31.547699 -94.177711 39,975 208 419 0
2019-04-16 09:38:35 GMT 31.554411 -94.173653 39,975 208 419 0
2019-04-16 09:38:30 GMT 31.562851 -94.168556 40,000 208 419 0
2019-04-16 09:38:26 GMT 31.568710 -94.165001 39,975 208 419 0
2019-04-16 09:38:22 GMT 31.576151 -94.160522 40,000 208 419 0
2019-04-16 09:38:19 GMT 31.581482 -94.157249 39,975 208 419 -64
2019-04-16 09:38:14 GMT 31.591326 -94.151291 40,000 208 419 -64
2019-04-16 09:38:11 GMT 31.594574 -94.149330 40,000 208 419 0
2019-04-16 09:38:06 GMT 31.604780 -94.143166 40,000 208 419 -64
2019-04-16 09:38:00 GMT 31.612694 -94.138329 39,975 208 419 -64
2019-04-16 09:37:53 GMT 31.624798 -94.131027 39,975 208 419 -64
2019-04-16 09:37:50 GMT 31.630142 -94.127739 39,975 208 419 0
2019-04-16 09:37:45 GMT 31.641045 -94.121193 40,000 208 419 -64
2019-04-16 09:37:41 GMT 31.646212 -94.118057 39,975 208 419 -64
2019-04-16 09:37:37 GMT 31.655521 -94.112404 39,975 208 419 0
2019-04-16 09:37:32 GMT 31.662086 -94.108391 39,975 208 419 0
2019-04-16 09:37:29 GMT 31.667084 -94.105385 39,975 208 419 0
2019-04-16 09:37:25 GMT 31.673817 -94.101250 40,000 208 419 0
2019-04-16 09:37:21 GMT 31.681032 -94.096855 39,975 208 419 0
2019-04-16 09:37:17 GMT 31.689646 -94.091637 40,000 208 419 -64
2019-04-16 09:37:11 GMT 31.699654 -94.085541 40,000 208 419 0
2019-04-16 09:37:08 GMT 31.703098 -94.083450 40,000 208 419 0
2019-04-16 09:37:05 GMT 31.708265 -94.080322 40,000 208 418 0
2019-04-16 09:37:00 GMT 31.717026 -94.075012 40,000 208 418 0
2019-04-16 09:36:57 GMT 31.720974 -94.072578 40,000 208 418 -64
2019-04-16 09:36:50 GMT 31.736618 -94.063110 40,000 208 417 0
2019-04-16 09:36:47 GMT 31.739223 -94.061539 40,000 208 417 0
2019-04-16 09:36:37 GMT 31.758123 -94.050056 39,975 208 417 64
2019-04-16 09:36:29 GMT 31.772182 -94.041512 39,975 208 416 0
2019-04-16 09:36:26 GMT 31.775436 -94.039505 39,975 208 416 0
2019-04-16 09:36:16 GMT 31.793289 -94.028687 39,975 208 416 -64
2019-04-16 09:36:05 GMT 31.811462 -94.017647 40,000 208 417 -64
2019-04-16 09:35:55 GMT 31.830322 -94.006111 40,000 208 417 -64
2019-04-16 09:35:44 GMT 31.847643 -93.995544 40,000 208 416 0
2019-04-16 09:35:36 GMT 31.862074 -93.986801 40,000 208 416 0
2019-04-16 09:35:33 GMT 31.867035 -93.983810 40,000 208 416 0
2019-04-16 09:35:26 GMT 31.879395 -93.976280 40,000 208 416 0
2019-04-16 09:35:22 GMT 31.884155 -93.973373 39,975 208 415 0
2019-04-16 09:35:18 GMT 31.893768 -93.967545 39,975 208 415 0
2019-04-16 09:35:13 GMT 31.902109 -93.962418 40,000 208 415 -64
2019-04-16 09:35:07 GMT 31.910349 -93.957436 40,000 208 415 0
2019-04-16 09:35:02 GMT 31.919891 -93.951546 40,000 208 415 0
2019-04-16 09:34:52 GMT 31.937628 -93.940727 39,975 208 415 0
2019-04-16 09:34:43 GMT 31.951447 -93.932281 40,000 208 415 0
2019-04-16 09:34:40 GMT 31.956062 -93.929459 40,000 208 415 0
2019-04-16 09:34:31 GMT 31.973101 -93.919037 39,975 208 415 0
2019-04-16 09:34:23 GMT 31.987719 -93.910065 40,000 208 414 0
2019-04-16 09:34:19 GMT 31.992004 -93.907455 40,000 208 414 0
2019-04-16 09:34:12 GMT 32.004593 -93.899704 40,000 208 414 0
2019-04-16 09:34:09 GMT 32.010204 -93.896278 40,000 208 414 0
2019-04-16 09:34:02 GMT 32.022076 -93.888939 39,975 208 414 0
2019-04-16 09:33:59 GMT 32.026703 -93.886139 40,000 208 414 0
2019-04-16 09:33:52 GMT 32.038925 -93.878616 40,000 208 414 0
2019-04-16 09:33:48 GMT 32.047440 -93.873337 40,000 208 415 0
2019-04-16 09:33:40 GMT 32.058655 -93.866470 39,975 208 415 64
2019-04-16 09:33:37 GMT 32.063599 -93.863434 40,000 208 415 0
2019-04-16 09:33:32 GMT 32.071609 -93.858566 40,000 208 415 -64
2019-04-16 09:33:28 GMT 32.080311 -93.853233 39,975 208 415 0
2019-04-16 09:33:22 GMT 32.090012 -93.847305 39,975 208 415 -64
2019-04-16 09:33:19 GMT 32.095093 -93.844170 39,975 208 414 0
2019-04-16 09:33:16 GMT 32.099213 -93.841644 39,975 208 414 0
2019-04-16 09:33:11 GMT 32.107361 -93.836647 40,000 208 415 0
2019-04-16 09:33:07 GMT 32.116390 -93.831093 39,975 208 415 0
2019-04-16 09:33:02 GMT 32.125397 -93.825546 39,975 208 415 0
2019-04-16 09:32:59 GMT 32.130356 -93.822571 40,000 208 415 -64
2019-04-16 09:32:55 GMT 32.135284 -93.819504 39,975 208 414 -64
2019-04-16 09:32:46 GMT 32.152313 -93.809067 40,000 208 414 0
2019-04-16 09:32:35 GMT 32.170029 -93.798195 39,975 208 414 0
2019-04-16 09:32:27 GMT 32.184772 -93.789108 40,000 208 414 0
2019-04-16 09:32:24 GMT 32.187523 -93.787422 40,000 208 414 -64
2019-04-16 09:32:17 GMT 32.202621 -93.778145 40,000 208 413 -64
2019-04-16 09:32:14 GMT 32.206009 -93.776054 40,000 208 413 -64
2019-04-16 09:32:06 GMT 32.220062 -93.767357 40,000 208 413 0
2019-04-16 09:32:01 GMT 32.227020 -93.763092 40,000 208 413 64
2019-04-16 09:31:57 GMT 32.235004 -93.758163 39,975 208 413 64
2019-04-16 09:31:53 GMT 32.242264 -93.753700 39,975 208 413 64
2019-04-16 09:31:45 GMT 32.255127 -93.745735 39,975 208 412 0
2019-04-16 09:31:41 GMT 32.260208 -93.742599 39,975 208 412 0
2019-04-16 09:31:37 GMT 32.267822 -93.737877 39,975 208 412 -64
2019-04-16 09:31:32 GMT 32.277973 -93.731651 40,000 208 412 -64
2019-04-16 09:31:23 GMT 32.290649 -93.723816 40,000 208 412 0
2019-04-16 09:31:20 GMT 32.296051 -93.720467 39,975 208 412 64
2019-04-16 09:31:17 GMT 32.303146 -93.716072 39,975 208 412 64
2019-04-16 09:31:12 GMT 32.308914 -93.712502 39,975 208 412 0
2019-04-16 09:31:03 GMT 32.325806 -93.702065 39,975 208 411 -64
2019-04-16 09:30:52 GMT 32.344215 -93.690681 40,000 208 411 -64
2019-04-16 09:30:40 GMT 32.368889 -93.675430 39,975 208 411 64
2019-04-16 09:30:32 GMT 32.380234 -93.668442 39,975 208 411 64
2019-04-16 09:30:28 GMT 32.391357 -93.661575 39,975 208 411 0
2019-04-16 09:30:20 GMT 32.397446 -93.657845 39,975 208 411 0
2019-04-16 09:30:13 GMT 32.411110 -93.649368 40,000 208 411 0
2019-04-16 09:30:10 GMT 32.415161 -93.646896 40,000 208 411 0
2019-04-16 09:30:00 GMT 32.433411 -93.635635 40,000 208 411 0
2019-04-16 09:29:49 GMT 32.450634 -93.625038 39,975 208 411 0
2019-04-16 09:29:39 GMT 32.468719 -93.613899 39,975 208 411 0
2019-04-16 09:29:34 GMT 32.474655 -93.610245 40,000 208 411 0
2019-04-16 09:29:28 GMT 32.489044 -93.601372 39,975 208 411 0
2019-04-16 09:29:24 GMT 32.492065 -93.599503 39,975 208 411 0
2019-04-16 09:29:18 GMT 32.504242 -93.591980 39,975 208 412 -64
2019-04-16 09:29:14 GMT 32.509323 -93.588791 40,000 208 411 -64
2019-04-16 09:29:07 GMT 32.527771 -93.577393 40,000 208 411 0
2019-04-16 09:29:04 GMT 32.527771 -93.577393 40,000 208 411 0
2019-04-16 09:28:55 GMT 32.540771 -93.569405 40,000 208 411 0
2019-04-16 09:28:46 GMT 32.557343 -93.559128 39,975 208 411 64
2019-04-16 09:28:43 GMT 32.562592 -93.555870 39,975 208 411 64
2019-04-16 09:28:35 GMT 32.575928 -93.547592 39,975 208 412 0
2019-04-16 09:28:30 GMT 32.583214 -93.543091 39,975 208 411 -64
2019-04-16 09:28:25 GMT 32.593315 -93.536812 40,000 208 411 -64
2019-04-16 09:28:21 GMT 32.600391 -93.532387 40,000 208 411 -64
2019-04-16 09:28:14 GMT 32.611893 -93.525269 40,000 208 411 0
2019-04-16 09:28:04 GMT 32.630093 -93.513885 40,000 208 411 0
2019-04-16 09:27:53 GMT 32.646103 -93.503868 40,000 208 411 0
2019-04-16 09:27:50 GMT 32.651459 -93.500519 40,000 208 410 0
2019-04-16 09:27:43 GMT 32.664448 -93.492416 40,000 208 411 64
2019-04-16 09:27:30 GMT 32.700943 -93.469650 39,975 208 410 64
2019-04-16 09:27:20 GMT 32.700943 -93.469650 39,975 208 410 0
2019-04-16 09:27:11 GMT 32.719116 -93.458275 39,975 208 410 0
2019-04-16 09:26:59 GMT 32.741493 -93.444267 39,975 208 411 64
2019-04-16 09:26:46 GMT 32.764767 -93.429749 40,000 208 411 -64
2019-04-16 09:26:40 GMT 32.770340 -93.426308 40,000 208 412 -64
2019-04-16 09:26:35 GMT 32.777943 -93.421570 40,000 208 412 0
2019-04-16 09:26:29 GMT 32.787918 -93.415321 40,000 208 412 0
2019-04-16 09:26:26 GMT 32.793163 -93.412094 40,000 208 412 0
2019-04-16 09:26:19 GMT 32.806137 -93.403946 39,975 208 412 0
2019-04-16 09:26:16 GMT 32.810532 -93.401199 39,975 208 412 0
2019-04-16 09:26:08 GMT 32.823193 -93.393265 40,000 208 412 0
2019-04-16 09:26:03 GMT 32.831497 -93.388130 40,000 208 412 0
2019-04-16 09:25:58 GMT 32.840790 -93.382332 40,000 208 412 0
2019-04-16 09:25:55 GMT 32.846516 -93.378746 40,000 208 412 64
2019-04-16 09:25:43 GMT 32.872009 -93.362747 39,975 208 412 -64
2019-04-16 09:25:36 GMT 32.877609 -93.359238 40,000 208 412 -64
2019-04-16 09:25:26 GMT 32.894989 -93.348358 40,000 208 412 -64
2019-04-16 09:25:15 GMT 32.913734 -93.336594 40,000 208 412 -64
2019-04-16 09:25:04 GMT 32.937386 -93.321793 40,000 208 412 64
2019-04-16 09:24:58 GMT 32.940411 -93.319885 39,975 208 412 64
2019-04-16 09:24:54 GMT 32.948685 -93.314682 39,975 208 412 64
2019-04-16 09:24:48 GMT 32.957153 -93.309410 39,975 208 412 0
2019-04-16 09:24:44 GMT 32.967133 -93.303131 40,000 208 412 -64
2019-04-16 09:24:38 GMT 32.975418 -93.297989 39,975 208 412 -64
2019-04-16 09:24:35 GMT 32.981506 -93.294144 40,000 208 412 -64
2019-04-16 09:24:32 GMT 32.984730 -93.292145 40,000 208 412 -64
2019-04-16 09:24:27 GMT 32.999084 -93.283096 40,000 208 413 0
2019-04-16 09:24:23 GMT 33.001785 -93.281395 40,000 208 413 0
2019-04-16 09:24:12 GMT 33.019730 -93.270134 39,975 208 413 0
2019-04-16 09:24:01 GMT 33.037846 -93.258736 40,000 208 413 0
2019-04-16 09:23:50 GMT 33.055813 -93.247467 40,000 208 413 64
2019-04-16 09:23:42 GMT 33.069855 -93.238663 39,975 208 414 0
2019-04-16 09:23:39 GMT 33.073734 -93.236198 39,975 208 414 0
2019-04-16 09:23:30 GMT 33.091232 -93.225204 40,000 208 414 0
2019-04-16 09:23:21 GMT 33.105297 -93.216362 39,975 208 415 0
2019-04-16 09:23:18 GMT 33.110229 -93.213280 40,000 208 415 -64
2019-04-16 09:23:15 GMT 33.115677 -93.209824 39,975 208 416 0
2019-04-16 09:23:08 GMT 33.127735 -93.202232 40,000 208 415 -64
2019-04-16 09:23:04 GMT 33.136047 -93.197021 40,000 208 416 0
2019-04-16 09:22:59 GMT 33.150173 -93.188110 40,000 208 416 0
2019-04-16 09:22:55 GMT 33.150173 -93.188110 40,000 208 416 0
2019-04-16 09:22:49 GMT 33.159019 -93.182503 39,975 208 416 64
2019-04-16 09:22:45 GMT 33.167679 -93.177025 40,000 208 416 64
2019-04-16 09:22:40 GMT 33.176384 -93.171577 39,975 208 416 64
2019-04-16 09:22:37 GMT 33.181831 -93.168098 39,975 208 416 64
2019-04-16 09:22:25 GMT 33.200043 -93.156593 39,975 209 416 0
2019-04-16 09:22:16 GMT 33.217117 -93.145767 40,000 208 417 0
2019-04-16 09:22:12 GMT 33.225822 -93.140297 40,000 208 417 0
2019-04-16 09:22:04 GMT 33.236252 -93.133743 40,000 208 417 0
2019-04-16 09:21:57 GMT 33.247749 -93.126511 39,975 208 418 0
2019-04-16 09:21:54 GMT 33.253895 -93.122581 39,975 209 419 0
2019-04-16 09:21:44 GMT 33.271675 -93.111320 39,975 209 419 0
2019-04-16 09:21:33 GMT 33.291458 -93.098862 39,975 208 419 -64
2019-04-16 09:21:23 GMT 33.313618 -93.084862 40,000 208 420 -64
2019-04-16 09:21:17 GMT 33.317230 -93.082596 40,000 208 420 -64
2019-04-16 09:21:08 GMT 33.339085 -93.068771 39,975 208 420 64
2019-04-16 09:21:01 GMT 33.344055 -93.065628 39,975 208 420 64
2019-04-16 09:20:55 GMT 33.355774 -93.058212 39,975 209 420 64
2019-04-16 09:20:51 GMT 33.362453 -93.053978 39,975 209 420 64
2019-04-16 09:20:44 GMT 33.373440 -93.046967 39,975 209 420 0
2019-04-16 09:20:40 GMT 33.381027 -93.042145 39,975 209 420 0
2019-04-16 09:20:30 GMT 33.397881 -93.031441 39,975 209 421 0
2019-04-16 09:20:20 GMT 33.421387 -93.016586 40,000 209 422 -64
2019-04-16 09:20:16 GMT 33.421387 -93.016586 40,000 209 422 -64
2019-04-16 09:20:06 GMT 33.439545 -93.005035 40,000 209 423 -64
2019-04-16 09:19:56 GMT 33.461189 -92.991310 40,000 209 422 0
2019-04-16 09:19:48 GMT 33.471725 -92.984604 40,000 209 422 0
2019-04-16 09:19:44 GMT 33.480011 -92.979324 39,975 209 422 0
2019-04-16 09:19:37 GMT 33.489349 -92.973343 39,975 209 423 0
2019-04-16 09:19:29 GMT 33.503906 -92.964111 40,000 209 423 0
2019-04-16 09:19:26 GMT 33.508209 -92.961372 40,000 209 423 64
2019-04-16 09:19:16 GMT 33.525524 -92.950333 39,975 209 424 64
2019-04-16 09:19:06 GMT 33.543915 -92.938614 39,975 209 425 -64
2019-04-16 09:18:54 GMT 33.566620 -92.924156 39,975 209 425 -64
2019-04-16 09:18:50 GMT 33.570961 -92.921394 40,000 209 425 -64
2019-04-16 09:18:44 GMT 33.580856 -92.915077 40,000 209 425 -64
2019-04-16 09:18:39 GMT 33.592140 -92.907829 40,000 209 425 -64
2019-04-16 09:18:35 GMT 33.599125 -92.903419 40,000 209 425 0
2019-04-16 09:18:29 GMT 33.608643 -92.897362 40,000 209 425 -64
2019-04-16 09:18:24 GMT 33.616287 -92.892487 40,000 209 424 0
2019-04-16 09:18:14 GMT 33.634964 -92.880493 40,000 209 424 0
2019-04-16 09:17:58 GMT 33.668518 -92.859077 40,000 209 422 0
2019-04-16 09:17:50 GMT 33.675983 -92.854324 40,000 209 423 0
2019-04-16 09:17:41 GMT 33.689987 -92.845345 39,975 209 423 64
2019-04-16 09:17:32 GMT 33.707825 -92.834015 39,975 209 424 0
2019-04-16 09:17:23 GMT 33.723789 -92.823769 39,975 209 425 -64
2019-04-16 09:17:19 GMT 33.728485 -92.820793 40,000 209 425 0
2019-04-16 09:17:14 GMT 33.736816 -92.815468 39,975 209 425 0
2019-04-16 09:17:05 GMT 33.754578 -92.804146 39,975 209 426 -64
2019-04-16 09:16:57 GMT 33.767807 -92.795631 40,000 209 426 -64
2019-04-16 09:16:54 GMT 33.772160 -92.792870 40,000 209 427 -128
2019-04-16 09:16:46 GMT 33.788219 -92.782578 40,000 209 427 -64
2019-04-16 09:16:43 GMT 33.791519 -92.780441 40,000 209 427 -64
2019-04-16 09:16:38 GMT 33.800789 -92.774506 40,000 209 427 0
2019-04-16 09:16:33 GMT 33.809494 -92.768898 40,000 209 426 0
2019-04-16 09:16:28 GMT 33.818569 -92.763062 40,000 209 427 0
2019-04-16 09:16:20 GMT 33.832165 -92.754364 40,000 209 427 0
2019-04-16 09:16:15 GMT 33.841049 -92.748657 39,975 209 426 0
2019-04-16 09:16:11 GMT 33.848740 -92.743721 40,000 209 426 0
2019-04-16 09:16:08 GMT 33.854836 -92.739830 39,975 209 426 0
2019-04-16 09:16:00 GMT 33.868057 -92.731361 40,000 209 426 -64
2019-04-16 09:15:55 GMT 33.874146 -92.727409 40,000 209 426 0
2019-04-16 09:15:49 GMT 33.885269 -92.720291 40,000 209 425 0
2019-04-16 09:15:38 GMT 33.904881 -92.707672 40,000 209 424 0
2019-04-16 09:15:34 GMT 33.910950 -92.703812 40,000 209 424 0
2019-04-16 09:15:29 GMT 33.921707 -92.696861 40,000 209 424 0
2019-04-16 09:15:17 GMT 33.941071 -92.684364 40,000 209 423 64
2019-04-16 09:15:05 GMT 33.961441 -92.671249 40,000 209 423 64
2019-04-16 09:14:55 GMT 33.978378 -92.660316 40,000 209 424 64
2019-04-16 09:14:40 GMT 34.004700 -92.643387 39,975 209 426 -64
2019-04-16 09:14:30 GMT 34.027733 -92.628479 39,975 209 425 0
2019-04-16 09:14:17 GMT 34.045303 -92.617157 39,975 209 426 -64
2019-04-16 09:14:12 GMT 34.053844 -92.611656 39,975 209 427 -64
2019-04-16 09:14:02 GMT 34.071808 -92.600006 39,975 209 428 -64
2019-04-16 09:13:51 GMT 34.090714 -92.587837 40,000 209 429 -64
2019-04-16 09:13:45 GMT 34.100876 -92.581284 40,000 209 429 -64
2019-04-16 09:13:40 GMT 34.109253 -92.575905 40,000 209 429 -64
2019-04-16 09:13:09 GMT 34.166611 -92.538742 39,975 209 428 64
2019-04-16 09:13:04 GMT 34.172741 -92.534805 40,000 209 427 -64
2019-04-16 09:12:56 GMT 34.188217 -92.524727 40,000 209 427 -64
2019-04-16 09:12:51 GMT 34.196064 -92.519646 40,000 209 427 64
2019-04-16 09:12:47 GMT 34.201279 -92.516273 40,000 209 427 64
2019-04-16 09:12:37 GMT 34.220039 -92.504082 39,975 209 425 64
2019-04-16 09:12:27 GMT 34.238148 -92.492355 39,975 209 425 64
2019-04-16 09:12:15 GMT 34.257065 -92.480110 39,975 209 426 -64
2019-04-16 09:12:10 GMT 34.267548 -92.473381 40,000 209 426 -64
2019-04-16 09:12:05 GMT 34.275391 -92.468323 40,000 209 426 -64
2019-04-16 09:11:53 GMT 34.296246 -92.454758 40,000 209 427 -64
2019-04-16 09:11:43 GMT 34.313606 -92.443428 39,975 209 426 64
2019-04-16 09:11:32 GMT 34.332184 -92.431343 40,000 209 425 64
2019-04-16 09:11:21 GMT 34.350758 -92.419281 39,975 209 426 -64
2019-04-16 09:11:11 GMT 34.369518 -92.407036 40,000 209 426 -64
2019-04-16 09:11:01 GMT 34.387711 -92.395134 39,975 209 426 -64
2019-04-16 09:10:48 GMT 34.408340 -92.381630 40,000 209 426 0
2019-04-16 09:10:39 GMT 34.424683 -92.370987 40,000 209 427 64
2019-04-16 09:10:29 GMT 34.443283 -92.358864 39,975 209 427 64
2019-04-16 09:10:18 GMT 34.461365 -92.347038 39,975 209 427 64
2019-04-16 09:10:07 GMT 34.480179 -92.334763 39,975 209 428 0
2019-04-16 09:09:56 GMT 34.499584 -92.322182 40,000 209 429 -128
2019-04-16 09:09:46 GMT 34.518265 -92.309990 40,000 209 430 -64
2019-04-16 09:09:32 GMT 34.543251 -92.293625 39,975 209 427 0
2019-04-16 09:09:23 GMT 34.556843 -92.284698 39,975 209 427 0
2019-04-16 09:09:14 GMT 34.573929 -92.273537 39,975 209 428 0
2019-04-16 09:09:02 GMT 34.592926 -92.261108 40,000 209 428 0
2019-04-16 09:08:52 GMT 34.610844 -92.249336 40,000 209 427 -64
2019-04-16 09:08:41 GMT 34.630875 -92.236168 40,000 209 427 0
2019-04-16 09:08:31 GMT 34.648087 -92.224899 40,000 209 427 64
2019-04-16 09:08:19 GMT 34.667404 -92.212288 39,975 209 427 0
2019-04-16 09:08:08 GMT 34.686539 -92.199730 40,000 209 427 0
2019-04-16 09:08:02 GMT 34.699574 -92.191139 40,000 209 427 0
2019-04-16 09:07:58 GMT 34.704254 -92.188019 40,000 209 427 64
2019-04-16 09:07:48 GMT 34.722569 -92.176041 39,975 209 427 0
2019-04-16 09:07:37 GMT 34.760330 -92.151131 39,975 209 428 0
2019-04-16 09:07:27 GMT 34.760330 -92.151131 40,000 209 428 -64
2019-04-16 09:07:14 GMT 34.780563 -92.137848 40,000 209 429 -64
2019-04-16 09:07:05 GMT 34.805695 -92.121262 40,000 209 428 64
2019-04-16 09:06:50 GMT 34.825401 -92.108231 39,975 209 429 64
2019-04-16 09:06:38 GMT 34.844376 -92.095695 39,975 209 428 0
2019-04-16 09:06:28 GMT 34.861862 -92.084206 39,975 209 430 0
2019-04-16 09:06:18 GMT 34.881592 -92.071213 40,000 209 429 0
2019-04-16 09:06:07 GMT 34.899796 -92.059196 39,975 209 429 -64
2019-04-16 09:05:55 GMT 34.918808 -92.046593 40,000 209 429 0
2019-04-16 09:05:49 GMT 34.929447 -92.039566 40,000 209 429 0
2019-04-16 09:05:44 GMT 34.938354 -92.033707 40,000 209 429 -64
2019-04-16 09:05:39 GMT 34.946579 -92.028297 39,975 209 429 0
2019-04-16 09:05:35 GMT 34.955654 -92.022285 40,000 209 429 -64
2019-04-16 09:05:29 GMT 34.964172 -92.016609 40,000 209 428 -64
2019-04-16 09:05:23 GMT 34.974289 -92.009941 40,000 209 428 0
2019-04-16 09:05:17 GMT 34.985092 -92.002762 40,000 209 428 0
2019-04-16 09:05:13 GMT 34.993103 -91.997498 39,975 209 428 64
2019-04-16 09:05:07 GMT 35.003174 -91.990768 39,975 209 427 64
2019-04-16 09:05:02 GMT 35.012878 -91.984322 39,975 209 427 64
2019-04-16 09:04:56 GMT 35.022629 -91.977875 39,975 209 427 -64
2019-04-16 09:04:52 GMT 35.030746 -91.972443 40,000 209 427 -64
2019-04-16 09:04:45 GMT 35.041870 -91.965065 40,000 209 427 -64
2019-04-16 09:04:40 GMT 35.048996 -91.960388 40,000 209 427 0
2019-04-16 09:04:35 GMT 35.059067 -91.953659 40,000 209 427 0
2019-04-16 09:04:30 GMT 35.067398 -91.948112 39,975 209 427 64
2019-04-16 09:04:25 GMT 35.077621 -91.941322 39,975 209 426 64
2019-04-16 09:04:20 GMT 35.086330 -91.935593 39,975 209 427 64
2019-04-16 09:04:14 GMT 35.095314 -91.929588 39,975 209 427 64
2019-04-16 09:04:09 GMT 35.104717 -91.923347 39,975 209 426 64
2019-04-16 09:04:03 GMT 35.117519 -91.914886 39,975 209 426 -64
2019-04-16 09:03:55 GMT 35.129341 -91.907043 39,975 209 428 -64
2019-04-16 09:03:48 GMT 35.142380 -91.898338 40,000 209 428 -64
2019-04-16 09:03:41 GMT 35.154060 -91.890564 39,975 209 428 -64
2019-04-16 09:03:36 GMT 35.160461 -91.886284 39,975 209 428 -64
2019-04-16 09:03:30 GMT 35.171799 -91.878716 40,000 209 428 -64
2019-04-16 09:03:26 GMT 35.178734 -91.874084 40,000 209 428 -64
2019-04-16 09:03:15 GMT 35.198936 -91.860641 39,975 209 427 0
2019-04-16 09:03:05 GMT 35.216125 -91.849174 40,000 209 427 -64
2019-04-16 09:02:59 GMT 35.227055 -91.841866 40,000 209 426 -64
2019-04-16 09:02:54 GMT 35.235714 -91.836121 40,000 209 426 -64
2019-04-16 09:02:43 GMT 35.254383 -91.823616 40,000 209 426 0
2019-04-16 09:02:31 GMT 35.274948 -91.809937 40,000 209 424 64
2019-04-16 09:02:22 GMT 35.289295 -91.800415 40,000 209 425 64
2019-04-16 09:02:19 GMT 35.293766 -91.797432 40,000 209 424 64
2019-04-16 09:02:14 GMT 35.304291 -91.790428 39,975 209 424 64
2019-04-16 09:02:09 GMT 35.311203 -91.785789 39,975 209 425 0
2019-04-16 09:02:03 GMT 35.322235 -91.778465 39,975 209 425 0
2019-04-16 09:01:59 GMT 35.329468 -91.773605 40,000 209 425 0
2019-04-16 09:01:53 GMT 35.340179 -91.766457 39,975 209 425 -64
2019-04-16 09:01:49 GMT 35.347778 -91.761360 39,975 209 425 -64
2019-04-16 09:01:44 GMT 35.358170 -91.754379 40,000 209 426 -64
2019-04-16 09:01:37 GMT 35.366135 -91.749062 40,000 209 426 -64
2019-04-16 09:01:31 GMT 35.377213 -91.741615 40,000 209 427 0
2019-04-16 09:01:27 GMT 35.384491 -91.736755 40,000 209 427 0
2019-04-16 09:01:21 GMT 35.395435 -91.729408 40,000 209 427 64
2019-04-16 09:01:16 GMT 35.403118 -91.724327 39,975 209 427 64
2019-04-16 09:01:11 GMT 35.413174 -91.717552 39,975 209 428 64
2019-04-16 09:01:06 GMT 35.423275 -91.710770 39,975 209 428 64
2019-04-16 09:01:00 GMT 35.431137 -91.705513 39,975 209 430 0
2019-04-16 09:00:55 GMT 35.440567 -91.699219 39,975 209 430 -64
2019-04-16 09:00:50 GMT 35.450684 -91.692413 39,975 209 430 -64
2019-04-16 09:00:44 GMT 35.459583 -91.686401 40,000 209 431 -64
2019-04-16 09:00:39 GMT 35.469910 -91.679482 39,975 209 432 -64
2019-04-16 09:00:34 GMT 35.478333 -91.673813 40,000 209 432 -64
2019-04-16 09:00:29 GMT 35.487610 -91.667587 39,975 209 432 -64
2019-04-16 09:00:23 GMT 35.497238 -91.661110 40,000 209 432 -64
2019-04-16 09:00:15 GMT 35.510239 -91.652351 40,000 209 432 -64
2019-04-16 09:00:12 GMT 35.515869 -91.648582 40,000 209 432 -64
2019-04-16 09:00:07 GMT 35.526573 -91.641403 40,000 209 433 0
2019-04-16 09:00:02 GMT 35.535187 -91.635590 40,000 209 432 0
2019-04-16 08:59:55 GMT 35.545715 -91.628548 39,975 209 432 64
2019-04-16 08:59:50 GMT 35.554504 -91.622604 39,975 209 432 64
2019-04-16 08:59:46 GMT 35.561142 -91.618134 40,000 209 432 64
2019-04-16 08:59:39 GMT 35.572357 -91.610580 40,000 209 432 64
2019-04-16 08:59:34 GMT 35.581318 -91.604591 39,975 209 432 64
2019-04-16 08:59:30 GMT 35.590622 -91.598282 39,975 209 432 0
2019-04-16 08:59:24 GMT 35.599365 -91.592384 39,975 209 432 0
2019-04-16 08:59:19 GMT 35.609573 -91.585526 40,000 209 432 0
2019-04-16 08:59:13 GMT 35.619736 -91.578651 40,000 209 432 0
2019-04-16 08:59:07 GMT 35.628525 -91.572762 40,000 209 432 -64
2019-04-16 08:59:02 GMT 35.638367 -91.566124 39,975 209 432 0
2019-04-16 08:58:56 GMT 35.647842 -91.559715 40,000 209 432 0
2019-04-16 08:58:51 GMT 35.657639 -91.553078 40,000 209 432 -64
2019-04-16 08:58:43 GMT 35.673260 -91.542465 40,000 209 433 -64
2019-04-16 08:58:36 GMT 35.686066 -91.533791 40,000 209 433 -64
2019-04-16 08:58:31 GMT 35.692383 -91.529503 40,000 209 433 0
2019-04-16 08:58:25 GMT 35.703426 -91.522018 40,000 209 433 64
2019-04-16 08:58:20 GMT 35.712708 -91.515717 39,975 209 432 64
2019-04-16 08:58:14 GMT 35.722549 -91.509018 40,000 209 431 64
2019-04-16 08:58:10 GMT 35.728821 -91.504784 39,975 209 431 64
2019-04-16 08:58:04 GMT 35.741089 -91.496429 39,975 209 432 64
2019-04-16 08:58:00 GMT 35.747604 -91.492035 39,975 209 432 64
2019-04-16 08:57:50 GMT 35.766178 -91.479469 40,000 209 433 -64
2019-04-16 08:57:42 GMT 35.778717 -91.471024 40,000 209 434 -64
2019-04-16 08:57:39 GMT 35.784714 -91.466965 40,000 209 434 -64
2019-04-16 08:57:32 GMT 35.797974 -91.458145 39,975 209 435 64
2019-04-16 08:57:29 GMT 35.803116 -91.454720 39,975 209 436 64
2019-04-16 08:57:21 GMT 35.816872 -91.445694 40,000 209 436 0
2019-04-16 08:57:17 GMT 35.822182 -91.442192 40,000 209 436 0
2019-04-16 08:57:08 GMT 35.841125 -91.429802 39,975 209 437 64
2019-04-16 08:56:59 GMT 35.855045 -91.420624 39,975 209 437 0
2019-04-16 08:56:56 GMT 35.860245 -91.417236 39,975 209 437 0
2019-04-16 08:56:49 GMT 35.874893 -91.407623 40,000 209 438 -64
2019-04-16 08:56:35 GMT 35.897270 -91.392929 40,000 209 438 0
2019-04-16 08:56:26 GMT 35.915726 -91.380898 39,975 209 438 64
2019-04-16 08:56:14 GMT 35.935822 -91.367683 39,975 209 438 64
2019-04-16 08:56:06 GMT 35.951363 -91.357452 40,000 209 438 -64
2019-04-16 08:56:03 GMT 35.956924 -91.353783 40,000 209 438 -128
2019-04-16 08:55:52 GMT 35.976974 -91.340561 40,000 209 438 0
2019-04-16 08:55:45 GMT 35.989563 -91.332321 40,000 209 438 64
2019-04-16 08:55:42 GMT 35.992233 -91.330574 39,975 209 438 64
2019-04-16 08:55:32 GMT 36.011929 -91.317596 39,975 209 438 0
2019-04-16 08:55:22 GMT 36.028519 -91.306625 40,000 209 438 -64
2019-04-16 08:55:13 GMT 36.046371 -91.294846 40,000 209 438 -64
2019-04-16 08:55:10 GMT 36.049942 -91.292496 40,000 209 438 -64
2019-04-16 08:55:02 GMT 36.083340 -91.270386 40,000 209 437 64
2019-04-16 08:54:49 GMT 36.086876 -91.268044 40,000 209 437 -64
2019-04-16 08:54:42 GMT 36.102238 -91.257935 39,975 209 436 0
2019-04-16 08:54:39 GMT 36.107758 -91.254272 40,000 209 436 0
2019-04-16 08:54:31 GMT 36.120441 -91.245895 40,000 209 437 0
2019-04-16 08:54:28 GMT 36.124191 -91.243462 40,000 209 436 64
2019-04-16 08:54:19 GMT 36.141678 -91.231956 39,975 209 436 64
2019-04-16 08:54:08 GMT 36.162151 -91.218430 39,975 209 437 0
2019-04-16 08:53:57 GMT 36.182121 -91.205162 40,000 209 437 -128
2019-04-16 08:53:54 GMT 36.189243 -91.200432 40,000 209 437 -128
2019-04-16 08:53:46 GMT 36.200603 -91.192894 40,000 209 436 -64
2019-04-16 08:53:43 GMT 36.208797 -91.187401 40,000 209 436 0
2019-04-16 08:53:39 GMT 36.213406 -91.184364 40,000 209 436 0
2019-04-16 08:53:36 GMT 36.218948 -91.180687 39,975 209 436 0
2019-04-16 08:53:28 GMT 36.232586 -91.171623 40,000 209 434 64
2019-04-16 08:53:25 GMT 36.236343 -91.169128 40,000 209 434 0
2019-04-16 08:53:18 GMT 36.251221 -91.159286 40,000 209 434 0
2019-04-16 08:53:14 GMT 36.258316 -91.154533 39,975 209 434 64
2019-04-16 08:53:05 GMT 36.274017 -91.144096 39,975 209 434 64
2019-04-16 08:52:53 GMT 36.294544 -91.130478 39,975 209 433 64
2019-04-16 08:52:43 GMT 36.314003 -91.117569 39,975 209 434 0
2019-04-16 08:52:32 GMT 36.331833 -91.105675 40,000 209 434 0
2019-04-16 08:52:22 GMT 36.349010 -91.094254 39,975 209 434 0
2019-04-16 08:52:14 GMT 36.362141 -91.085541 40,000 209 434 0
2019-04-16 08:52:09 GMT 36.373306 -91.078094 39,975 209 434 64
2019-04-16 08:51:59 GMT 36.390701 -91.066528 39,975 209 435 64
2019-04-16 08:51:50 GMT 36.405758 -91.056442 39,975 209 436 0
2019-04-16 08:51:47 GMT 36.411812 -91.052406 39,975 209 436 -64
2019-04-16 08:51:40 GMT 36.425125 -91.043533 39,975 209 441 -64
2019-04-16 08:51:35 GMT 36.431534 -91.039238 40,000 209 437 -64
2019-04-16 08:51:29 GMT 36.442932 -91.031631 39,975 209 437 0
2019-04-16 08:51:25 GMT 36.451172 -91.026131 39,975 209 438 0
2019-04-16 08:51:18 GMT 36.462414 -91.018631 39,975 209 438 -64
2019-04-16 08:51:14 GMT 36.472050 -91.012199 39,975 209 438 0
2019-04-16 08:51:07 GMT 36.483994 -91.004166 39,975 209 439 0
2019-04-16 08:50:57 GMT 36.500473 -90.993179 40,000 209 439 -64
2019-04-16 08:50:47 GMT 36.519516 -90.980476 40,000 209 441 -64
2019-04-16 08:50:34 GMT 36.541031 -90.966049 40,000 209 441 -64
2019-04-16 08:50:24 GMT 36.559708 -90.953522 39,975 209 441 64
2019-04-16 08:50:13 GMT 36.577862 -90.941376 39,975 209 441 64
2019-04-16 08:50:04 GMT 36.596649 -90.928741 39,975 209 439 64
2019-04-16 08:49:51 GMT 36.617477 -90.914841 39,975 209 440 0
2019-04-16 08:49:42 GMT 36.634518 -90.903389 40,000 209 441 -64
2019-04-16 08:49:32 GMT 36.654579 -90.889893 40,000 209 441 -64
2019-04-16 08:49:23 GMT 36.670734 -90.879021 40,000 209 441 0
2019-04-16 08:49:10 GMT 36.692616 -90.864357 40,000 209 440 0
2019-04-16 08:49:00 GMT 36.711823 -90.851440 39,975 209 439 64
2019-04-16 08:48:49 GMT 36.730972 -90.838585 39,975 209 439 64
2019-04-16 08:48:38 GMT 36.749359 -90.826149 39,975 209 439 64
2019-04-16 08:48:27 GMT 36.769520 -90.812523 40,000 209 438 64
2019-04-16 08:48:16 GMT 36.788094 -90.800018 39,975 209 438 64
2019-04-16 08:48:09 GMT 36.802597 -90.790276 39,975 209 439 0
2019-04-16 08:48:06 GMT 36.806900 -90.787354 39,975 209 439 0
2019-04-16 08:48:00 GMT 36.820305 -90.778336 39,975 209 439 0
2019-04-16 08:47:55 GMT 36.839672 -90.765305 39,975 209 439 -64
2019-04-16 08:47:48 GMT 36.839672 -90.765305 40,000 209 441 0
2019-04-16 08:47:45 GMT 36.845772 -90.761215 40,000 209 441 -64
2019-04-16 08:47:34 GMT 36.864258 -90.748711 40,000 209 441 0
2019-04-16 08:47:27 GMT 36.877533 -90.739708 40,000 209 441 -64
2019-04-16 08:47:23 GMT 36.883621 -90.735558 40,000 209 441 -64
2019-04-16 08:47:13 GMT 36.902618 -90.722702 40,000 209 440 0
2019-04-16 08:47:05 GMT 36.916065 -90.713577 39,975 209 439 0
2019-04-16 08:47:01 GMT 36.924255 -90.708023 39,975 209 439 64
2019-04-16 08:46:54 GMT 36.934963 -90.700737 39,975 209 439 64
2019-04-16 08:46:51 GMT 36.941254 -90.696526 40,000 209 439 0
2019-04-16 08:46:41 GMT 36.960709 -90.683304 39,975 209 439 0
2019-04-16 08:46:27 GMT 36.985840 -90.666252 40,000 209 439 -64
2019-04-16 08:46:20 GMT 36.997284 -90.658539 39,975 209 439 64
2019-04-16 08:46:12 GMT 37.012299 -90.648369 39,975 209 439 0
2019-04-16 08:46:07 GMT 37.018707 -90.643990 40,000 209 439 -64
2019-04-16 08:45:59 GMT 37.038170 -90.630760 40,000 209 439 0
2019-04-16 08:45:51 GMT 37.048691 -90.623589 39,975 209 439 0
2019-04-16 08:45:46 GMT 37.056744 -90.618156 39,975 209 439 0
2019-04-16 08:45:40 GMT 37.066544 -90.611496 40,000 209 439 -64
2019-04-16 08:45:37 GMT 37.079929 -90.602394 40,000 209 439 -64
2019-04-16 08:45:30 GMT 37.085129 -90.598816 39,975 209 439 0
2019-04-16 08:45:25 GMT 37.096733 -90.590935 39,975 209 439 0
2019-04-16 08:45:19 GMT 37.104767 -90.585434 39,975 209 439 0
2019-04-16 08:45:16 GMT 37.110653 -90.581436 39,975 209 439 0
2019-04-16 08:45:13 GMT 37.115261 -90.578278 39,975 209 439 0
2019-04-16 08:45:07 GMT 37.126713 -90.570450 39,975 209 439 0
2019-04-16 08:45:04 GMT 37.133137 -90.566093 39,975 209 439 0
2019-04-16 08:45:01 GMT 37.139191 -90.561974 40,000 209 439 -64
2019-04-16 08:44:58 GMT 37.142578 -90.559662 40,000 209 439 0
2019-04-16 08:44:55 GMT 37.152237 -90.553116 40,000 209 439 -64
2019-04-16 08:44:48 GMT 37.160278 -90.547646 39,975 209 439 -64
2019-04-16 08:44:44 GMT 37.166519 -90.543358 39,975 209 439 0
2019-04-16 08:44:41 GMT 37.171684 -90.539825 39,975 209 439 0
2019-04-16 08:44:37 GMT 37.179550 -90.534508 40,000 209 439 -64
2019-04-16 08:44:32 GMT 37.190094 -90.527283 40,000 209 439 -64
2019-04-16 08:44:27 GMT 37.198288 -90.521675 40,000 209 439 64
2019-04-16 08:44:24 GMT 37.203804 -90.517906 40,000 209 439 64
2019-04-16 08:44:20 GMT 37.209320 -90.514137 39,975 209 439 64
2019-04-16 08:44:16 GMT 37.218048 -90.508179 39,975 209 439 0
2019-04-16 08:44:11 GMT 37.228058 -90.501312 39,975 209 439 0
2019-04-16 08:44:06 GMT 37.236950 -90.495224 39,975 209 439 0
2019-04-16 08:44:02 GMT 37.241409 -90.492165 40,000 209 439 0
2019-04-16 08:43:59 GMT 37.246719 -90.488480 40,000 209 439 0
2019-04-16 08:43:54 GMT 37.256012 -90.482170 40,000 209 439 0
2019-04-16 08:43:50 GMT 37.265114 -90.475937 40,000 209 439 0
2019-04-16 08:43:45 GMT 37.274376 -90.469604 39,975 209 439 0
2019-04-16 08:43:42 GMT 37.279732 -90.465965 40,000 209 439 0
2019-04-16 08:43:39 GMT 37.284164 -90.462891 40,000 209 439 0
2019-04-16 08:43:34 GMT 37.292725 -90.457047 40,000 209 439 64
2019-04-16 08:43:31 GMT 37.298080 -90.453362 39,975 209 439 0
2019-04-16 08:43:28 GMT 37.303238 -90.449844 39,975 209 439 64
2019-04-16 08:43:24 GMT 37.311806 -90.443993 39,975 209 439 64
2019-04-16 08:43:19 GMT 37.320923 -90.437759 39,975 209 439 64
2019-04-16 08:43:10 GMT 37.335571 -90.427765 39,975 209 439 -64
2019-04-16 08:43:07 GMT 37.340561 -90.424377 40,000 209 439 -64
2019-04-16 08:43:03 GMT 37.359146 -90.411636 40,000 209 439 0
2019-04-16 08:42:56 GMT 37.359146 -90.411636 40,000 209 439 0
2019-04-16 08:42:51 GMT 37.368073 -90.405502 40,000 209 439 0
2019-04-16 08:42:47 GMT 37.378609 -90.398254 39,975 209 440 0
2019-04-16 08:42:41 GMT 37.386848 -90.392639 40,000 209 440 64
2019-04-16 08:42:36 GMT 37.396317 -90.386101 39,975 209 440 64
2019-04-16 08:42:30 GMT 37.405975 -90.379494 39,975 209 440 64
2019-04-16 08:42:24 GMT 37.424740 -90.366547 39,975 209 440 -64
2019-04-16 08:42:20 GMT 37.424740 -90.366547 39,975 209 440 0
2019-04-16 08:42:13 GMT 37.439358 -90.356461 39,975 209 440 -64
2019-04-16 08:42:09 GMT 37.442944 -90.354012 40,000 209 440 -64
2019-04-16 08:42:02 GMT 37.456161 -90.344872 40,000 209 440 -64
2019-04-16 08:41:59 GMT 37.462418 -90.340576 40,000 209 440 -64
2019-04-16 08:41:51 GMT 37.476013 -90.331223 40,000 209 440 -64
2019-04-16 08:41:48 GMT 37.481369 -90.327484 40,000 209 440 -64
2019-04-16 08:41:42 GMT 37.491348 -90.320648 39,975 209 439 0
2019-04-16 08:41:38 GMT 37.500061 -90.314606 39,975 209 439 -64
2019-04-16 08:41:31 GMT 37.510769 -90.307198 40,000 209 438 -64
2019-04-16 08:41:28 GMT 37.519135 -90.301483 40,000 209 438 -64
2019-04-16 08:41:22 GMT 37.529434 -90.294350 40,000 209 438 -64
2019-04-16 08:41:19 GMT 37.534744 -90.290672 40,000 209 438 0
2019-04-16 08:41:16 GMT 37.539539 -90.287315 40,000 209 438 64
2019-04-16 08:41:11 GMT 37.547562 -90.281845 39,975 209 436 0
2019-04-16 08:41:08 GMT 37.554291 -90.277168 39,975 209 437 64
2019-04-16 08:41:04 GMT 37.561020 -90.272499 39,975 209 436 64
2019-04-16 08:41:00 GMT 37.566696 -90.268578 40,000 209 437 -64
2019-04-16 08:40:57 GMT 37.574314 -90.263374 39,975 209 436 0
2019-04-16 08:40:54 GMT 37.579990 -90.259430 40,000 209 437 -64
2019-04-16 08:40:50 GMT 37.585510 -90.255669 39,975 209 436 0
2019-04-16 08:40:44 GMT 37.594193 -90.249641 40,000 209 437 -64
2019-04-16 08:40:39 GMT 37.604645 -90.242462 40,000 209 437 -64
2019-04-16 08:40:35 GMT 37.613697 -90.236206 40,000 209 437 0
2019-04-16 08:40:29 GMT 37.623657 -90.229340 40,000 209 437 0
2019-04-16 08:40:23 GMT 37.632504 -90.223190 40,000 209 438 0
2019-04-16 08:40:18 GMT 37.642464 -90.216324 40,000 209 438 64
2019-04-16 08:40:13 GMT 37.650101 -90.211075 39,975 209 438 64
2019-04-16 08:40:06 GMT 37.661972 -90.202827 39,975 209 438 64
2019-04-16 08:40:03 GMT 37.669601 -90.197578 39,975 209 438 64
2019-04-16 08:39:57 GMT 37.689880 -90.183556 39,975 209 438 0
2019-04-16 08:39:51 GMT 37.689880 -90.183556 39,975 209 438 0
2019-04-16 08:39:45 GMT 37.699127 -90.177124 39,975 209 439 -64
2019-04-16 08:39:40 GMT 37.708199 -90.170822 39,975 209 440 -64
2019-04-16 08:39:35 GMT 37.717834 -90.164139 39,975 209 440 -64
2019-04-16 08:39:30 GMT 37.726772 -90.157928 40,000 209 440 -64
2019-04-16 08:39:25 GMT 37.737476 -90.150528 40,000 209 440 -64
2019-04-16 08:39:20 GMT 37.746597 -90.144165 40,000 210 441 0
2019-04-16 08:39:14 GMT 37.755306 -90.138046 40,000 209 440 64
2019-04-16 08:39:11 GMT 37.761730 -90.133568 39,975 209 440 64
2019-04-16 08:39:08 GMT 37.766064 -90.130585 39,975 209 440 64
2019-04-16 08:39:03 GMT 37.775162 -90.124298 39,975 210 441 0
2019-04-16 08:38:59 GMT 37.782623 -90.119041 40,000 209 440 0
2019-04-16 08:38:56 GMT 37.787979 -90.115295 39,975 209 440 0
2019-04-16 08:38:53 GMT 37.794067 -90.111092 39,975 209 440 0
2019-04-16 08:38:50 GMT 37.799953 -90.106995 39,975 209 440 64
2019-04-16 08:38:46 GMT 37.806885 -90.102150 39,975 209 440 -64
2019-04-16 08:38:41 GMT 37.813869 -90.097267 39,975 209 440 -64
2019-04-16 08:38:37 GMT 37.823181 -90.090813 40,000 209 440 -64
2019-04-16 08:38:31 GMT 37.831745 -90.084846 40,000 209 440 -64
2019-04-16 08:38:28 GMT 37.838169 -90.080368 40,000 209 440 -64
2019-04-16 08:38:25 GMT 37.841904 -90.077721 40,000 210 441 0
2019-04-16 08:38:21 GMT 37.850143 -90.071999 40,000 209 440 0
2019-04-16 08:38:15 GMT 37.867405 -90.059944 40,000 210 440 64
2019-04-16 08:38:08 GMT 37.874527 -90.054932 40,000 209 439 0
2019-04-16 08:38:03 GMT 37.881325 -90.050217 39,975 209 439 0
2019-04-16 08:38:00 GMT 37.888596 -90.045113 40,000 209 439 0
2019-04-16 08:37:54 GMT 37.899479 -90.037560 40,000 209 439 0
2019-04-16 08:37:47 GMT 37.911911 -90.028839 40,000 209 438 64
2019-04-16 08:37:43 GMT 37.917801 -90.024780 39,975 209 438 0
2019-04-16 08:37:39 GMT 37.926315 -90.018814 39,975 209 438 64
2019-04-16 08:37:35 GMT 37.931461 -90.015228 39,975 209 438 0
2019-04-16 08:37:32 GMT 37.938957 -90.009972 39,975 209 438 0
2019-04-16 08:37:29 GMT 37.943024 -90.007126 39,975 209 438 0
2019-04-16 08:37:26 GMT 37.949944 -90.002327 40,000 209 438 0
2019-04-16 08:37:21 GMT 37.956161 -89.997955 39,975 209 438 0
2019-04-16 08:37:18 GMT 37.961304 -89.994385 39,975 209 438 0
2019-04-16 08:37:15 GMT 37.968052 -89.989670 39,975 209 438 0
2019-04-16 08:37:11 GMT 37.974056 -89.985428 39,975 209 438 64
2019-04-16 08:37:08 GMT 37.980110 -89.981255 40,000 209 438 0
2019-04-16 08:37:05 GMT 37.986328 -89.976913 40,000 209 438 0
2019-04-16 08:36:59 GMT 37.997360 -89.969261 39,975 209 438 64
2019-04-16 08:36:56 GMT 38.002350 -89.965813 39,975 209 438 64
2019-04-16 08:36:53 GMT 38.005711 -89.963455 39,975 209 438 64
2019-04-16 08:36:50 GMT 38.011765 -89.959221 39,975 209 438 0
2019-04-16 08:36:47 GMT 38.017445 -89.955276 39,975 209 438 0
2019-04-16 08:36:43 GMT 38.024002 -89.950676 39,975 209 438 -64
2019-04-16 08:36:40 GMT 38.030045 -89.946472 39,975 210 439 -64
2019-04-16 08:36:36 GMT 38.035400 -89.942734 40,000 210 439 0
2019-04-16 08:36:32 GMT 38.042675 -89.937607 40,000 210 439 -64
2019-04-16 08:36:28 GMT 38.051567 -89.931396 40,000 210 439 0
2019-04-16 08:36:22 GMT 38.061901 -89.924171 40,000 210 439 0
2019-04-16 08:36:17 GMT 38.070602 -89.918015 39,975 210 439 0
2019-04-16 08:36:13 GMT 38.078064 -89.912750 40,000 210 439 0
2019-04-16 08:36:09 GMT 38.085846 -89.907257 39,975 210 439 0
2019-04-16 08:36:06 GMT 38.089417 -89.904747 39,975 210 439 0
2019-04-16 08:36:01 GMT 38.099190 -89.897896 40,000 210 439 -64
2019-04-16 08:35:58 GMT 38.106312 -89.892883 40,000 210 439 -64
2019-04-16 08:35:54 GMT 38.110382 -89.890022 40,000 210 439 0
2019-04-16 08:35:51 GMT 38.117844 -89.884758 40,000 209 439 0
2019-04-16 08:35:48 GMT 38.123722 -89.880646 40,000 210 439 -64
2019-04-16 08:35:44 GMT 38.128510 -89.877281 39,975 210 439 -64
2019-04-16 08:35:40 GMT 38.136898 -89.871391 40,000 210 439 0
2019-04-16 08:35:37 GMT 38.142059 -89.867752 40,000 210 439 -64
2019-04-16 08:35:34 GMT 38.147369 -89.864014 40,000 210 439 -64
2019-04-16 08:35:30 GMT 38.155006 -89.858612 40,000 210 439 0
2019-04-16 08:35:26 GMT 38.161057 -89.854370 39,975 210 439 64
2019-04-16 08:35:23 GMT 38.165497 -89.851219 39,975 210 439 0
2019-04-16 08:35:19 GMT 38.174011 -89.845200 39,975 210 439 0
2019-04-16 08:35:16 GMT 38.180786 -89.840462 40,000 210 439 64
2019-04-16 08:35:13 GMT 38.184311 -89.837952 39,975 210 439 0
2019-04-16 08:35:08 GMT 38.192871 -89.831932 40,000 210 439 0
2019-04-16 08:35:05 GMT 38.198345 -89.828102 40,000 210 439 0
2019-04-16 08:35:02 GMT 38.202805 -89.824982 40,000 210 439 0
2019-04-16 08:34:55 GMT 38.217728 -89.814461 40,000 210 439 0
2019-04-16 08:34:51 GMT 38.222351 -89.811188 40,000 210 439 0
2019-04-16 08:34:48 GMT 38.230698 -89.805351 39,975 210 439 0
2019-04-16 08:34:44 GMT 38.235809 -89.801720 40,000 210 438 0
2019-04-16 08:34:41 GMT 38.240616 -89.798302 40,000 210 438 0
2019-04-16 08:34:37 GMT 38.248062 -89.793053 40,000 210 438 0
2019-04-16 08:34:34 GMT 38.253368 -89.789291 40,000 210 438 -64
2019-04-16 08:34:31 GMT 38.258678 -89.785530 40,000 210 438 0
2019-04-16 08:34:27 GMT 38.266823 -89.779793 40,000 210 438 -64
2019-04-16 08:34:23 GMT 38.273026 -89.775368 40,000 210 438 -64
2019-04-16 08:34:20 GMT 38.277649 -89.772148 40,000 210 438 0
2019-04-16 08:34:13 GMT 38.292160 -89.761864 40,000 210 438 0
2019-04-16 08:34:10 GMT 38.295547 -89.759499 39,975 210 436 64
2019-04-16 08:34:03 GMT 38.308628 -89.750237 39,975 210 436 64
2019-04-16 08:34:00 GMT 38.313766 -89.746613 39,975 210 436 64
2019-04-16 08:33:52 GMT 38.328598 -89.736153 39,975 210 436 0
2019-04-16 08:33:49 GMT 38.331951 -89.733818 40,000 210 436 0
2019-04-16 08:33:45 GMT 38.341690 -89.726921 40,000 210 437 0
2019-04-16 08:33:42 GMT 38.344334 -89.725044 39,975 210 437 0
2019-04-16 08:33:39 GMT 38.350338 -89.720802 39,975 210 437 0
2019-04-16 08:33:34 GMT 38.360458 -89.713715 40,000 210 437 0
2019-04-16 08:33:31 GMT 38.365768 -89.709915 39,975 210 437 0
2019-04-16 08:33:28 GMT 38.369099 -89.707550 40,000 210 437 0
2019-04-16 08:33:22 GMT 38.380920 -89.699165 40,000 210 437 -64
2019-04-16 08:33:18 GMT 38.387814 -89.694237 40,000 210 437 -64
2019-04-16 08:33:11 GMT 38.402161 -89.684082 40,000 210 437 0
2019-04-16 08:33:08 GMT 38.405685 -89.681572 40,000 210 437 0
2019-04-16 08:33:02 GMT 38.418411 -89.672562 39,975 210 437 64
2019-04-16 08:32:59 GMT 38.422668 -89.669571 39,975 210 437 64
2019-04-16 08:32:51 GMT 38.435204 -89.660645 39,975 210 437 64
2019-04-16 08:32:47 GMT 38.442654 -89.655396 39,975 210 437 128
2019-04-16 08:32:42 GMT 38.453064 -89.647957 39,975 210 437 64
2019-04-16 08:32:39 GMT 38.457642 -89.644676 39,975 210 438 0
2019-04-16 08:32:36 GMT 38.462112 -89.641541 39,975 210 439 -192
2019-04-16 08:32:31 GMT 38.471832 -89.634583 39,975 210 438 -128
2019-04-16 08:32:26 GMT 38.480171 -89.628662 40,000 210 439 -192
2019-04-16 08:32:20 GMT 38.490459 -89.621399 40,000 210 439 -64
2019-04-16 08:32:17 GMT 38.497581 -89.616333 40,000 210 440 128
2019-04-16 08:32:14 GMT 38.500095 -89.614563 40,000 210 440 192
2019-04-16 08:32:10 GMT 38.508087 -89.608849 39,950 210 440 448
2019-04-16 08:32:04 GMT 38.519485 -89.600731 39,875 210 440 768
2019-04-16 08:31:58 GMT 38.531380 -89.592224 39,800 210 440 832
2019-04-16 08:31:55 GMT 38.535095 -89.589561 39,750 210 440 768
2019-04-16 08:31:52 GMT 38.539898 -89.586121 39,725 210 440 768
2019-04-16 08:31:49 GMT 38.546127 -89.581680 39,675 210 440 704
2019-04-16 08:31:45 GMT 38.552700 -89.576965 39,625 210 440 768
2019-04-16 08:31:42 GMT 38.559078 -89.572388 39,475 210 440 832
2019-04-16 08:31:39 GMT 38.572403 -89.562935 39,475 210 440 768
2019-04-16 08:31:34 GMT 38.572403 -89.562935 39,500 210 440 768
2019-04-16 08:31:28 GMT 38.583286 -89.555237 39,400 210 439 896
2019-04-16 08:31:23 GMT 38.590733 -89.549988 39,350 210 439 896
2019-04-16 08:31:20 GMT 38.599255 -89.543884 39,250 210 440 960
2019-04-16 08:31:17 GMT 38.602093 -89.541870 39,250 210 440 960
2019-04-16 08:31:13 GMT 38.610077 -89.536186 39,175 210 439 960
2019-04-16 08:31:06 GMT 38.620899 -89.528442 39,100 210 439 960
2019-04-16 08:31:02 GMT 38.629257 -89.522514 39,000 210 440 960
2019-04-16 08:30:58 GMT 38.637611 -89.516541 38,900 210 440 1088
2019-04-16 08:30:55 GMT 38.642548 -89.513000 38,850 210 439 1088
2019-04-16 08:30:52 GMT 38.647018 -89.509857 38,825 210 439 1088
2019-04-16 08:30:46 GMT 38.658516 -89.501587 38,550 210 439 1152
2019-04-16 08:30:42 GMT 38.665588 -89.496521 38,625 210 439 1152
2019-04-16 08:30:36 GMT 38.676086 -89.489014 38,500 210 439 1216
2019-04-16 08:30:31 GMT 38.684601 -89.482864 38,400 210 440 1216
2019-04-16 08:30:26 GMT 38.694359 -89.475891 38,300 210 440 1216
2019-04-16 08:30:21 GMT 38.703251 -89.469543 38,200 210 440 1088
2019-04-16 08:30:14 GMT 38.716053 -89.460388 38,075 210 440 896
2019-04-16 08:30:10 GMT 38.722057 -89.456055 37,975 210 438 192
2019-04-16 08:30:07 GMT 38.735001 -89.446800 37,975 210 438 256
2019-04-16 08:30:02 GMT 38.735001 -89.446800 37,975 210 438 192
2019-04-16 08:29:59 GMT 38.740818 -89.442627 37,975 210 438 64
2019-04-16 08:29:55 GMT 38.749146 -89.436653 37,975 210 438 64
2019-04-16 08:29:52 GMT 38.752670 -89.434082 38,000 210 438 64
2019-04-16 08:29:49 GMT 38.760086 -89.428772 38,000 210 438 0
2019-04-16 08:29:45 GMT 38.766083 -89.424469 37,975 210 437 0
2019-04-16 08:29:42 GMT 38.771393 -89.420647 37,975 210 437 0
2019-04-16 08:29:38 GMT 38.777596 -89.416260 38,000 210 437 0
2019-04-16 08:29:34 GMT 38.786224 -89.410019 38,000 210 437 -64
2019-04-16 08:29:31 GMT 38.790848 -89.406738 37,975 210 437 64
2019-04-16 08:29:27 GMT 38.806225 -89.395691 38,000 210 437 0
2019-04-16 08:29:23 GMT 38.811676 -89.391754 37,975 210 438 0
2019-04-16 08:29:19 GMT 38.811676 -89.391754 38,000 210 438 0
2019-04-16 08:29:15 GMT 38.818726 -89.386673 37,975 210 437 0
2019-04-16 08:29:12 GMT 38.824036 -89.382912 37,975 210 438 64
2019-04-16 08:29:09 GMT 38.829666 -89.378853 37,975 210 437 0
2019-04-16 08:29:05 GMT 38.837646 -89.373108 37,975 210 437 -64
2019-04-16 08:29:02 GMT 38.842758 -89.369423 37,975 210 437 -64
2019-04-16 08:28:58 GMT 38.848213 -89.365540 37,975 210 437 0
2019-04-16 08:28:54 GMT 38.855289 -89.360413 37,975 210 437 -64
2019-04-16 08:28:50 GMT 38.863064 -89.354858 38,000 210 438 0
2019-04-16 08:28:47 GMT 38.866974 -89.352051 37,975 210 438 0
2019-04-16 08:28:44 GMT 38.872234 -89.348267 37,975 210 438 -64
2019-04-16 08:28:40 GMT 38.880756 -89.342163 38,000 210 438 -64
2019-04-16 08:28:37 GMT 38.885319 -89.338867 37,975 210 438 0
2019-04-16 08:28:34 GMT 38.892563 -89.333656 38,000 210 438 -64
2019-04-16 08:28:30 GMT 38.899796 -89.328430 38,000 210 438 0
2019-04-16 08:28:27 GMT 38.903332 -89.325867 37,975 210 438 0
2019-04-16 08:28:23 GMT 38.910233 -89.320877 37,975 210 438 0
2019-04-16 08:28:19 GMT 38.917328 -89.315804 38,000 210 438 0
2019-04-16 08:28:16 GMT 38.922466 -89.312073 38,000 210 438 0
2019-04-16 08:28:13 GMT 38.928101 -89.307983 38,000 210 438 -64
2019-04-16 08:28:09 GMT 38.936050 -89.302246 38,000 210 438 0
2019-04-16 08:28:03 GMT 38.946487 -89.294739 38,000 210 438 64
2019-04-16 08:27:59 GMT 38.954262 -89.289124 38,000 210 438 0
2019-04-16 08:27:56 GMT 38.958664 -89.285889 38,000 210 438 0
2019-04-16 08:27:53 GMT 38.963802 -89.282227 38,000 210 438 0
2019-04-16 08:27:48 GMT 38.973675 -89.275085 38,000 210 437 64
2019-04-16 08:27:45 GMT 38.978283 -89.271729 38,000 210 437 0
2019-04-16 08:27:42 GMT 38.985123 -89.266785 37,975 210 437 0
2019-04-16 08:27:38 GMT 38.990799 -89.262718 37,975 210 437 0
2019-04-16 08:27:35 GMT 38.996948 -89.258240 38,000 210 436 0
2019-04-16 08:27:31 GMT 39.001556 -89.254944 37,975 210 437 -64
2019-04-16 08:27:26 GMT 39.010357 -89.248596 38,000 210 437 0
2019-04-16 08:27:22 GMT 39.019363 -89.242119 38,000 210 437 64
2019-04-16 08:27:17 GMT 39.028698 -89.235352 37,975 210 437 64
2019-04-16 08:27:12 GMT 39.038040 -89.228569 37,975 210 437 64
2019-04-16 08:27:06 GMT 39.047039 -89.222046 37,975 210 437 64
2019-04-16 08:27:03 GMT 39.052299 -89.218201 37,975 210 437 0
2019-04-16 08:27:00 GMT 39.056717 -89.215012 37,975 210 437 0
2019-04-16 08:26:56 GMT 39.066238 -89.208145 38,000 210 437 -64
2019-04-16 08:26:53 GMT 39.068871 -89.206238 37,975 210 437 0
2019-04-16 08:26:50 GMT 39.074707 -89.201996 38,000 210 438 0
2019-04-16 08:26:45 GMT 39.083862 -89.195374 38,000 210 441 0
2019-04-16 08:26:42 GMT 39.088486 -89.192024 37,975 210 438 0
2019-04-16 08:26:39 GMT 39.093220 -89.188538 38,000 210 438 0
2019-04-16 08:26:35 GMT 39.102585 -89.181755 37,975 210 438 0
2019-04-16 08:26:32 GMT 39.111980 -89.174927 37,975 210 439 -64
2019-04-16 08:26:29 GMT 39.111980 -89.174927 37,975 210 439 0
2019-04-16 08:26:25 GMT 39.119057 -89.169800 37,975 210 439 0
2019-04-16 08:26:22 GMT 39.124191 -89.166054 37,975 210 439 0
2019-04-16 08:26:18 GMT 39.131111 -89.161072 37,975 210 440 -64
2019-04-16 08:26:14 GMT 39.138187 -89.155884 38,000 210 440 -64
2019-04-16 08:26:11 GMT 39.142639 -89.152679 38,000 210 441 -64
2019-04-16 08:26:08 GMT 39.149002 -89.148026 38,000 210 441 0
2019-04-16 08:26:04 GMT 39.161278 -89.139160 38,000 210 441 0
2019-04-16 08:26:01 GMT 39.167130 -89.134888 38,000 210 441 0
2019-04-16 08:25:58 GMT 39.167130 -89.134888 37,975 210 441 0
2019-04-16 08:25:52 GMT 39.177795 -89.127121 38,000 210 441 0
2019-04-16 08:25:49 GMT 39.182926 -89.123413 38,000 210 441 -64
2019-04-16 08:25:46 GMT 39.189880 -89.118347 38,000 210 441 0
2019-04-16 08:25:43 GMT 39.194332 -89.115112 38,000 210 441 64
2019-04-16 08:25:39 GMT 39.202332 -89.109329 38,000 210 441 -64
2019-04-16 08:25:33 GMT 39.212811 -89.101685 37,975 210 441 0
2019-04-16 08:25:28 GMT 39.220779 -89.095840 38,000 210 441 0
2019-04-16 08:25:25 GMT 39.225769 -89.092255 38,000 210 441 0
2019-04-16 08:25:21 GMT 39.234650 -89.085808 38,000 210 441 0
2019-04-16 08:25:18 GMT 39.239487 -89.082275 38,000 210 441 0
2019-04-16 08:25:15 GMT 39.242111 -89.080376 38,000 210 441 0
2019-04-16 08:25:12 GMT 39.250847 -89.074036 37,975 210 441 0
2019-04-16 08:25:09 GMT 39.253311 -89.072205 38,000 210 441 0
2019-04-16 08:25:06 GMT 39.268066 -89.061447 37,975 210 441 0
2019-04-16 08:25:02 GMT 39.268066 -89.061447 37,975 210 440 0
2019-04-16 08:24:59 GMT 39.271793 -89.058716 37,975 210 440 0
2019-04-16 08:24:54 GMT 39.281708 -89.051514 38,000 210 440 0
2019-04-16 08:24:49 GMT 39.290554 -89.044983 37,975 210 440 0
2019-04-16 08:24:45 GMT 39.297302 -89.040039 37,975 210 440 0
2019-04-16 08:24:41 GMT 39.304379 -89.034851 38,000 210 440 0
2019-04-16 08:24:38 GMT 39.313599 -89.028137 38,000 210 440 0
2019-04-16 08:24:32 GMT 39.320347 -89.023254 38,000 210 440 0
2019-04-16 08:24:29 GMT 39.325104 -89.019707 38,000 210 440 0
2019-04-16 08:24:26 GMT 39.332359 -89.014404 38,000 210 440 0
2019-04-16 08:24:22 GMT 39.336967 -89.011047 37,975 210 440 64
2019-04-16 08:24:19 GMT 39.343018 -89.006653 37,975 210 440 0
2019-04-16 08:24:16 GMT 39.349026 -89.002258 37,975 210 440 0
2019-04-16 08:24:13 GMT 39.355774 -88.997314 38,000 210 440 0
2019-04-16 08:24:09 GMT 39.361267 -88.993317 38,000 210 440 0
2019-04-16 08:24:03 GMT 39.372253 -88.985313 37,975 210 439 64
2019-04-16 08:24:00 GMT 39.375977 -88.982605 38,000 210 440 64
2019-04-16 08:23:57 GMT 39.381611 -88.978455 38,000 210 440 64
2019-04-16 08:23:54 GMT 39.387131 -88.974449 38,000 210 440 64
2019-04-16 08:23:51 GMT 39.392761 -88.970329 37,975 210 440 64
2019-04-16 08:23:48 GMT 39.399536 -88.965431 37,975 210 439 64
2019-04-16 08:23:45 GMT 39.402187 -88.963440 37,975 210 439 64
2019-04-16 08:23:42 GMT 39.410156 -88.957672 37,975 210 440 0
2019-04-16 08:23:36 GMT 39.418854 -88.951294 37,975 210 440 0
2019-04-16 08:23:33 GMT 39.424160 -88.947449 37,975 210 440 -64
2019-04-16 08:23:29 GMT 39.430538 -88.942749 37,975 210 439 -64
2019-04-16 08:23:26 GMT 39.435844 -88.938843 38,000 210 440 -64
2019-04-16 08:23:23 GMT 39.448746 -88.929314 38,000 210 440 -64
2019-04-16 08:23:20 GMT 39.448746 -88.929314 38,000 210 440 -64
2019-04-16 08:23:17 GMT 39.459000 -88.921783 38,000 210 440 0
2019-04-16 08:23:13 GMT 39.459000 -88.921783 38,000 210 440 0
2019-04-16 08:23:10 GMT 39.465042 -88.917366 38,000 210 440 -64
2019-04-16 08:23:07 GMT 39.470524 -88.913330 37,975 210 440 0
2019-04-16 08:23:04 GMT 39.475136 -88.909973 37,975 210 440 0
2019-04-16 08:23:01 GMT 39.480442 -88.906067 38,000 210 440 -64
2019-04-16 08:22:58 GMT 39.484863 -88.902802 38,000 210 440 -64
2019-04-16 08:22:55 GMT 39.493378 -88.896530 38,000 210 440 0
2019-04-16 08:22:52 GMT 39.497807 -88.893311 38,000 210 440 0
2019-04-16 08:22:48 GMT 39.505581 -88.887573 38,000 210 440 0
2019-04-16 08:22:44 GMT 39.511780 -88.883034 38,000 210 440 0
2019-04-16 08:22:41 GMT 39.523132 -88.874741 37,975 210 439 64
2019-04-16 08:22:38 GMT 39.523132 -88.874741 37,975 210 440 64
2019-04-16 08:22:35 GMT 39.526657 -88.872169 37,975 210 439 64
2019-04-16 08:22:31 GMT 39.536022 -88.865234 37,975 210 439 64
2019-04-16 08:22:28 GMT 39.540958 -88.861633 37,975 210 439 0
2019-04-16 08:22:25 GMT 39.544170 -88.859253 37,975 210 439 64
2019-04-16 08:22:22 GMT 39.550690 -88.854492 37,975 210 439 0
2019-04-16 08:22:19 GMT 39.554947 -88.851334 37,975 210 439 0
2019-04-16 08:22:15 GMT 39.562363 -88.845901 37,975 210 440 0
2019-04-16 08:22:12 GMT 39.567673 -88.841957 37,975 210 439 0
2019-04-16 08:22:08 GMT 39.575455 -88.836227 38,000 210 439 0
2019-04-16 08:22:05 GMT 39.586624 -88.828003 37,975 210 440 0
2019-04-16 08:22:01 GMT 39.586624 -88.828003 38,000 210 440 0
2019-04-16 08:21:58 GMT 39.591236 -88.824646 38,000 210 440 -64
2019-04-16 08:21:54 GMT 39.600407 -88.817810 38,000 210 440 0
2019-04-16 08:21:50 GMT 39.605209 -88.814316 37,975 210 440 0
2019-04-16 08:21:46 GMT 39.614929 -88.807129 38,000 210 441 0
2019-04-16 08:21:43 GMT 39.618668 -88.804398 38,000 210 441 0
2019-04-16 08:21:40 GMT 39.624893 -88.799805 37,975 210 440 0
2019-04-16 08:21:37 GMT 39.630524 -88.795654 37,975 210 441 64
2019-04-16 08:21:34 GMT 39.633911 -88.793114 37,975 210 441 0
2019-04-16 08:21:31 GMT 39.640114 -88.788574 37,975 210 441 0
2019-04-16 08:21:28 GMT 39.644726 -88.785156 37,975 210 441 0
2019-04-16 08:21:25 GMT 39.650940 -88.780518 37,975 210 441 -64
2019-04-16 08:21:22 GMT 39.656734 -88.776184 38,000 210 440 -64
2019-04-16 08:21:18 GMT 39.663811 -88.770935 38,000 210 441 -64
2019-04-16 08:21:15 GMT 39.669662 -88.766609 38,000 210 441 0
2019-04-16 08:21:11 GMT 39.677811 -88.760513 38,000 210 441 -64
2019-04-16 08:21:07 GMT 39.682755 -88.756874 38,000 210 441 -64
2019-04-16 08:21:03 GMT 39.690903 -88.750839 38,000 210 441 -64
2019-04-16 08:21:00 GMT 39.695160 -88.747681 38,000 210 440 0
2019-04-16 08:20:55 GMT 39.705460 -88.740036 38,000 210 440 0
2019-04-16 08:20:52 GMT 39.710224 -88.736511 38,000 210 440 0
2019-04-16 08:20:49 GMT 39.714134 -88.733643 38,000 210 440 0
2019-04-16 08:20:45 GMT 39.721909 -88.727844 38,000 210 439 64
2019-04-16 08:20:42 GMT 39.728237 -88.723083 38,000 210 439 0
2019-04-16 08:20:39 GMT 39.731964 -88.720329 38,000 210 439 64
2019-04-16 08:20:35 GMT 39.740433 -88.714066 38,000 210 439 64
2019-04-16 08:20:32 GMT 39.745510 -88.710205 37,975 210 439 64
2019-04-16 08:20:29 GMT 39.751514 -88.705750 37,975 210 438 0
2019-04-16 08:20:26 GMT 39.760162 -88.699371 37,975 210 438 0
2019-04-16 08:20:23 GMT 39.760162 -88.699371 37,975 210 438 64
2019-04-16 08:20:20 GMT 39.766479 -88.694656 37,975 210 438 0
2019-04-16 08:20:17 GMT 39.769810 -88.692200 37,975 210 438 0
2019-04-16 08:20:14 GMT 39.777374 -88.686600 37,975 210 438 0
2019-04-16 08:20:11 GMT 39.782845 -88.682556 38,000 210 437 0
2019-04-16 08:20:08 GMT 39.787949 -88.678772 38,000 210 438 0
2019-04-16 08:20:03 GMT 39.794807 -88.673706 38,000 210 437 0
2019-04-16 08:20:00 GMT 39.802368 -88.668083 37,975 210 437 64
2019-04-16 08:19:57 GMT 39.805702 -88.665588 37,975 210 437 0
2019-04-16 08:19:54 GMT 39.812778 -88.660400 38,000 210 437 0
2019-04-16 08:19:51 GMT 39.819107 -88.655701 37,975 210 437 0
2019-04-16 08:19:48 GMT 39.822601 -88.653076 38,000 210 437 0
2019-04-16 08:19:45 GMT 39.827862 -88.649170 38,000 210 438 0
2019-04-16 08:19:42 GMT 39.833866 -88.644775 38,000 210 438 64
2019-04-16 08:19:39 GMT 39.839127 -88.640869 37,975 210 438 0
2019-04-16 08:19:36 GMT 39.843361 -88.637695 37,975 210 438 0
2019-04-16 08:19:33 GMT 39.849884 -88.632919 38,000 210 438 0
2019-04-16 08:19:30 GMT 39.854095 -88.629753 38,000 210 438 64
2019-04-16 08:19:27 GMT 39.859936 -88.625488 37,975 210 438 0
2019-04-16 08:19:24 GMT 39.864304 -88.622231 38,000 210 438 -64
2019-04-16 08:19:21 GMT 39.870300 -88.617752 38,000 210 438 -64
2019-04-16 08:19:18 GMT 39.876461 -88.613220 37,975 210 438 0
2019-04-16 08:19:15 GMT 39.879997 -88.610596 38,000 210 438 0
2019-04-16 08:19:10 GMT 39.895500 -88.599121 37,975 210 438 64
2019-04-16 08:19:07 GMT 39.895500 -88.599121 38,000 210 438 64
2019-04-16 08:19:04 GMT 39.898338 -88.597046 37,975 210 438 0
2019-04-16 08:19:01 GMT 39.904671 -88.592346 37,975 210 438 64
2019-04-16 08:18:57 GMT 39.913143 -88.585999 37,975 210 438 -64
2019-04-16 08:18:54 GMT 39.916634 -88.583374 37,975 210 439 -64
2019-04-16 08:18:51 GMT 39.928600 -88.574463 37,975 210 438 -64
2019-04-16 08:18:45 GMT 39.933014 -88.571167 38,000 210 439 -64
2019-04-16 08:18:38 GMT 39.946568 -88.561043 38,000 210 439 -64
2019-04-16 08:18:35 GMT 39.956112 -88.553925 37,975 210 439 -64
2019-04-16 08:18:32 GMT 39.956112 -88.553925 37,975 210 439 0
2019-04-16 08:18:29 GMT 39.962265 -88.549316 37,975 210 439 0
2019-04-16 08:18:26 GMT 39.966476 -88.546143 38,000 210 439 0
2019-04-16 08:18:23 GMT 39.972313 -88.541817 38,000 210 439 -64
2019-04-16 08:18:20 GMT 39.979843 -88.536133 37,975 210 438 -64
2019-04-16 08:18:17 GMT 39.983204 -88.533638 37,975 210 438 -64
2019-04-16 08:18:14 GMT 39.987579 -88.530334 38,000 210 438 -64
2019-04-16 08:18:11 GMT 39.993210 -88.526123 38,000 210 438 -64
2019-04-16 08:18:06 GMT 40.002197 -88.519402 38,000 210 438 -64
2019-04-16 08:18:03 GMT 40.006390 -88.516281 38,000 210 438 -64
2019-04-16 08:18:00 GMT 40.011646 -88.512352 38,000 210 437 -64
2019-04-16 08:17:57 GMT 40.018524 -88.507202 38,000 210 437 0
2019-04-16 08:17:54 GMT 40.023567 -88.503365 37,975 210 437 0
2019-04-16 08:17:51 GMT 40.029373 -88.499084 37,975 210 437 64
2019-04-16 08:17:46 GMT 40.038483 -88.492249 38,000 210 436 64
2019-04-16 08:17:42 GMT 40.042515 -88.489258 38,000 211 435 0
2019-04-16 08:17:39 GMT 40.049122 -88.484261 37,975 211 435 0
2019-04-16 08:17:36 GMT 40.060669 -88.475647 37,975 211 435 0
2019-04-16 08:17:33 GMT 40.060669 -88.475647 38,000 211 435 0
2019-04-16 08:17:30 GMT 40.065929 -88.471649 38,000 211 435 0
2019-04-16 08:17:27 GMT 40.070938 -88.467834 38,000 211 435 0
2019-04-16 08:17:24 GMT 40.074261 -88.465347 38,000 211 435 -64
2019-04-16 08:17:21 GMT 40.079147 -88.461662 38,000 211 435 0
2019-04-16 08:17:18 GMT 40.084213 -88.457886 37,975 210 434 0
2019-04-16 08:17:15 GMT 40.090485 -88.453186 38,000 210 434 0
2019-04-16 08:17:12 GMT 40.096233 -88.448868 37,975 210 434 0
2019-04-16 08:17:09 GMT 40.102516 -88.444122 37,975 210 434 64
2019-04-16 08:17:05 GMT 40.109501 -88.438881 37,975 210 434 64
2019-04-16 08:17:02 GMT 40.114517 -88.435120 37,975 210 434 0
2019-04-16 08:16:59 GMT 40.118729 -88.431946 38,000 210 434 0
2019-04-16 08:16:56 GMT 40.129166 -88.424133 37,975 210 434 64
2019-04-16 08:16:48 GMT 40.139107 -88.416718 37,975 210 434 0
2019-04-16 08:16:43 GMT 40.146561 -88.411072 37,975 210 434 0
2019-04-16 08:16:40 GMT 40.151825 -88.407166 37,975 210 434 0
2019-04-16 08:16:37 GMT 40.157043 -88.403259 37,975 210 434 0
2019-04-16 08:16:32 GMT 40.165550 -88.396873 37,975 210 434 0
2019-04-16 08:16:29 GMT 40.170959 -88.392822 37,975 210 434 0
2019-04-16 08:16:25 GMT 40.178120 -88.387444 37,975 210 434 0
2019-04-16 08:16:21 GMT 40.184032 -88.382950 37,975 211 434 -64
2019-04-16 08:16:18 GMT 40.189243 -88.379021 37,975 211 434 -64
2019-04-16 08:16:14 GMT 40.198471 -88.372070 38,000 210 434 -64
2019-04-16 08:16:11 GMT 40.207169 -88.365479 38,000 211 435 -64
2019-04-16 08:16:03 GMT 40.216061 -88.358795 38,000 210 434 0
2019-04-16 08:16:00 GMT 40.221817 -88.354492 38,000 210 434 0
2019-04-16 08:15:57 GMT 40.228626 -88.349365 38,000 210 434 -64
2019-04-16 08:15:53 GMT 40.235237 -88.344437 38,000 210 434 0
2019-04-16 08:15:50 GMT 40.240265 -88.340637 38,000 210 434 0
2019-04-16 08:15:47 GMT 40.243572 -88.338135 38,000 210 433 0
2019-04-16 08:15:42 GMT 40.254181 -88.330139 38,000 210 433 0
2019-04-16 08:15:39 GMT 40.257816 -88.327393 38,000 210 433 64
2019-04-16 08:15:35 GMT 40.264618 -88.322327 38,000 210 433 64
2019-04-16 08:15:31 GMT 40.272758 -88.316223 38,000 210 432 64
2019-04-16 08:15:28 GMT 40.278671 -88.311790 37,975 210 432 64
2019-04-16 08:15:25 GMT 40.285446 -88.306641 37,975 210 432 64
2019-04-16 08:15:21 GMT 40.290619 -88.302734 37,975 211 432 0
2019-04-16 08:15:18 GMT 40.295666 -88.298927 37,975 211 432 0
2019-04-16 08:15:15 GMT 40.299107 -88.296310 37,975 211 431 0
2019-04-16 08:15:11 GMT 40.308418 -88.289253 38,000 211 431 -64
2019-04-16 08:15:08 GMT 40.318104 -88.281952 38,000 211 431 -64
2019-04-16 08:15:05 GMT 40.318104 -88.281952 38,000 211 431 0
2019-04-16 08:15:00 GMT 40.330719 -88.272400 38,000 210 431 64
2019-04-16 08:14:57 GMT 40.330719 -88.272400 38,000 210 431 64
2019-04-16 08:14:54 GMT 40.334564 -88.269531 38,000 210 431 64
2019-04-16 08:14:50 GMT 40.342682 -88.263412 37,975 210 431 64
2019-04-16 08:14:47 GMT 40.348919 -88.258728 37,975 211 431 64
2019-04-16 08:14:44 GMT 40.354088 -88.254799 37,975 211 431 64
2019-04-16 08:14:39 GMT 40.363445 -88.247742 38,000 211 431 0
2019-04-16 08:14:36 GMT 40.368610 -88.243874 37,975 211 431 0
2019-04-16 08:14:33 GMT 40.374477 -88.239380 38,000 211 431 0
2019-04-16 08:14:29 GMT 40.380669 -88.234695 38,000 211 431 0
2019-04-16 08:14:26 GMT 40.385010 -88.231445 38,000 211 431 0
2019-04-16 08:14:23 GMT 40.390182 -88.227478 38,000 211 431 0
2019-04-16 08:14:18 GMT 40.398468 -88.221191 38,000 211 431 0
2019-04-16 08:14:15 GMT 40.404503 -88.216591 38,000 211 431 0
2019-04-16 08:14:12 GMT 40.407074 -88.214661 37,975 211 431 64
2019-04-16 08:14:08 GMT 40.416233 -88.207664 38,000 211 431 0
2019-04-16 08:14:05 GMT 40.426071 -88.200195 38,000 211 431 0
2019-04-16 08:13:57 GMT 40.434311 -88.193909 38,000 211 431 0
2019-04-16 08:13:54 GMT 40.439163 -88.190247 38,000 211 431 0
2019-04-16 08:13:51 GMT 40.444336 -88.186340 38,000 211 431 0
2019-04-16 08:13:47 GMT 40.453308 -88.179504 37,975 211 431 0
2019-04-16 08:13:42 GMT 40.460861 -88.173706 37,975 211 431 0
2019-04-16 08:13:38 GMT 40.467087 -88.169006 37,975 211 431 0
2019-04-16 08:13:34 GMT 40.474686 -88.163208 38,000 211 431 0
2019-04-16 08:13:31 GMT 40.479172 -88.159851 38,000 211 431 0
2019-04-16 08:13:28 GMT 40.485352 -88.155090 38,000 211 431 -64
2019-04-16 08:13:21 GMT 40.497608 -88.145805 38,000 211 431 0
2019-04-16 08:13:18 GMT 40.501923 -88.142517 37,975 211 431 0
2019-04-16 08:13:15 GMT 40.506592 -88.138939 37,975 211 431 0
2019-04-16 08:13:10 GMT 40.516972 -88.131073 38,000 211 431 0
2019-04-16 08:13:06 GMT 40.522141 -88.127144 37,975 211 431 0
2019-04-16 08:13:03 GMT 40.528332 -88.122398 38,000 211 431 -64
2019-04-16 08:13:00 GMT 40.532520 -88.119217 37,975 211 432 -64
2019-04-16 08:12:57 GMT 40.537857 -88.115173 38,000 211 432 0
2019-04-16 08:12:54 GMT 40.542530 -88.111603 38,000 211 432 0
2019-04-16 08:12:51 GMT 40.549622 -88.106201 38,000 211 432 0
2019-04-16 08:12:48 GMT 40.554794 -88.102234 38,000 211 432 0
2019-04-16 08:12:44 GMT 40.560173 -88.098183 38,000 211 432 0
2019-04-16 08:12:40 GMT 40.566879 -88.093018 38,000 211 432 64
2019-04-16 08:12:37 GMT 40.573299 -88.088127 38,000 211 432 64
2019-04-16 08:12:34 GMT 40.578468 -88.084198 38,000 211 432 64
2019-04-16 08:12:31 GMT 40.582809 -88.080872 38,000 211 432 64
2019-04-16 08:12:28 GMT 40.588348 -88.076660 37,975 211 432 0
2019-04-16 08:12:23 GMT 40.596313 -88.070618 37,975 211 432 0
2019-04-16 08:12:20 GMT 40.602859 -88.065552 37,975 211 432 0
2019-04-16 08:12:17 GMT 40.612930 -88.057922 37,975 211 433 0
2019-04-16 08:12:14 GMT 40.612930 -88.057922 38,000 211 433 0
2019-04-16 08:12:11 GMT 40.619156 -88.053162 38,000 211 433 -64
2019-04-16 08:12:07 GMT 40.626114 -88.047852 38,000 211 433 0
2019-04-16 08:12:03 GMT 40.633213 -88.042435 37,975 211 435 64
2019-04-16 08:12:00 GMT 40.636703 -88.039749 38,000 211 435 0
2019-04-16 08:11:57 GMT 40.642776 -88.035095 37,975 211 435 0
2019-04-16 08:11:51 GMT 40.651154 -88.028687 37,975 211 436 64
2019-04-16 08:11:48 GMT 40.657059 -88.024170 37,975 211 436 0
2019-04-16 08:11:45 GMT 40.665241 -88.017906 37,975 211 436 64
2019-04-16 08:11:41 GMT 40.668732 -88.015221 37,975 211 437 0
2019-04-16 08:11:38 GMT 40.675552 -88.010010 37,975 211 435 0
2019-04-16 08:11:34 GMT 40.682190 -88.004944 37,975 211 437 0
2019-04-16 08:11:30 GMT 40.687588 -88.000801 37,975 211 437 0
2019-04-16 08:11:27 GMT 40.694092 -87.995911 38,000 211 437 0
2019-04-16 08:11:23 GMT 40.700203 -87.991188 37,975 211 437 0
2019-04-16 08:11:20 GMT 40.706314 -87.986511 38,000 211 437 0
2019-04-16 08:11:17 GMT 40.712074 -87.982140 37,975 211 437 0
2019-04-16 08:11:13 GMT 40.718357 -87.977264 38,000 211 438 -64
2019-04-16 08:11:09 GMT 40.725540 -87.971802 38,000 211 437 0
2019-04-16 08:11:06 GMT 40.730118 -87.968323 38,000 211 437 -64
2019-04-16 08:11:03 GMT 40.736069 -87.963745 38,000 211 436 0
2019-04-16 08:10:59 GMT 40.744289 -87.957420 38,000 211 438 0
2019-04-16 08:10:56 GMT 40.749344 -87.953491 38,000 211 438 -64
2019-04-16 08:10:53 GMT 40.755508 -87.948807 38,000 211 438 -64
2019-04-16 08:10:48 GMT 40.763351 -87.942810 38,000 211 438 0
2019-04-16 08:10:45 GMT 40.767052 -87.940002 37,975 211 438 0
2019-04-16 08:10:42 GMT 40.774246 -87.934448 38,000 211 437 64
2019-04-16 08:10:37 GMT 40.781391 -87.928955 38,000 211 437 0
2019-04-16 08:10:34 GMT 40.788746 -87.923332 37,975 211 437 0
2019-04-16 08:10:31 GMT 40.792236 -87.920647 38,000 211 437 -64
2019-04-16 08:10:27 GMT 40.800476 -87.914307 38,000 211 437 -64
2019-04-16 08:10:24 GMT 40.804276 -87.911377 38,000 211 437 -64
2019-04-16 08:10:21 GMT 40.810913 -87.906250 38,000 211 437 -64
2019-04-16 08:10:17 GMT 40.822636 -87.897240 38,000 211 436 0
2019-04-16 08:10:14 GMT 40.822636 -87.897240 38,000 211 436 64
2019-04-16 08:10:11 GMT 40.826981 -87.893921 38,000 211 436 0
2019-04-16 08:10:07 GMT 40.834625 -87.888000 37,975 211 436 0
2019-04-16 08:10:04 GMT 40.839890 -87.883972 37,975 211 437 64
2019-04-16 08:10:01 GMT 40.846161 -87.879150 37,975 211 436 0
2019-04-16 08:09:57 GMT 40.852753 -87.874023 37,975 211 436 0
2019-04-16 08:09:54 GMT 40.856758 -87.870964 37,975 211 436 0
2019-04-16 08:09:51 GMT 40.868774 -87.861694 37,975 211 436 0
2019-04-16 08:09:48 GMT 40.868774 -87.861694 37,975 211 436 -64
2019-04-16 08:09:44 GMT 40.876099 -87.856079 38,000 211 435 0
2019-04-16 08:09:41 GMT 40.884968 -87.849236 38,000 211 435 0
2019-04-16 08:09:38 GMT 40.884968 -87.849236 38,000 211 435 -64
2019-04-16 08:09:35 GMT 40.891953 -87.843872 37,975 211 435 0
2019-04-16 08:09:32 GMT 40.895279 -87.841309 38,000 211 435 0
2019-04-16 08:09:28 GMT 40.901871 -87.836182 38,000 211 436 0
2019-04-16 08:09:25 GMT 40.906940 -87.832321 38,000 211 435 0
2019-04-16 08:09:22 GMT 40.913177 -87.827515 38,000 211 435 0
2019-04-16 08:09:19 GMT 40.917370 -87.824272 38,000 211 435 0
2019-04-16 08:09:15 GMT 40.925537 -87.817932 37,975 211 435 0
2019-04-16 08:09:12 GMT 40.931290 -87.813530 38,000 211 435 0
2019-04-16 08:09:09 GMT 40.934780 -87.810852 37,975 211 435 0
2019-04-16 08:09:06 GMT 40.940186 -87.806702 38,000 211 435 0
2019-04-16 08:09:02 GMT 40.948517 -87.800232 37,975 211 435 0
2019-04-16 08:08:59 GMT 40.951817 -87.797676 38,000 211 435 -64
2019-04-16 08:08:56 GMT 40.959320 -87.791931 38,000 211 435 0
2019-04-16 08:08:53 GMT 40.962944 -87.789062 37,975 211 435 0
2019-04-16 08:08:49 GMT 40.970253 -87.783447 38,000 211 435 0
2019-04-16 08:08:46 GMT 40.975662 -87.779297 37,975 211 435 0
2019-04-16 08:08:43 GMT 40.980148 -87.775757 37,975 211 435 0
2019-04-16 08:08:40 GMT 40.985195 -87.771896 37,975 211 435 0
2019-04-16 08:08:37 GMT 40.990784 -87.767593 38,000 211 435 0
2019-04-16 08:08:33 GMT 40.999115 -87.761101 37,975 211 435 0
2019-04-16 08:08:28 GMT 41.007294 -87.754822 37,975 211 435 0
2019-04-16 08:08:25 GMT 41.012833 -87.750488 38,000 211 435 0
2019-04-16 08:08:22 GMT 41.016312 -87.747803 38,000 211 435 0
2019-04-16 08:08:19 GMT 41.021690 -87.743622 37,975 211 435 0
2019-04-16 08:08:16 GMT 41.026382 -87.739990 37,975 211 435 0
2019-04-16 08:08:12 GMT 41.035080 -87.733276 37,975 211 435 -64
2019-04-16 08:08:09 GMT 41.039429 -87.729889 38,000 211 435 0
2019-04-16 08:08:06 GMT 41.052277 -87.719963 38,000 211 434 -64
2019-04-16 08:08:02 GMT 41.052277 -87.719963 38,000 211 434 0
2019-04-16 08:07:59 GMT 41.057816 -87.715652 38,000 211 434 -64
2019-04-16 08:07:56 GMT 41.061813 -87.712524 38,000 211 434 -64
2019-04-16 08:07:53 GMT 41.066345 -87.709045 38,000 211 434 -64
2019-04-16 08:07:49 GMT 41.074482 -87.702736 38,000 211 434 0
2019-04-16 08:07:46 GMT 41.080215 -87.698242 38,000 211 434 0
2019-04-16 08:07:41 GMT 41.089233 -87.691284 38,000 211 434 64
2019-04-16 08:07:38 GMT 41.098206 -87.684265 37,975 211 433 64
2019-04-16 08:07:35 GMT 41.106697 -87.677643 37,975 211 433 64
2019-04-16 08:07:31 GMT 41.106697 -87.677643 37,975 211 433 64
2019-04-16 08:07:28 GMT 41.109650 -87.675354 37,975 211 433 64
2019-04-16 08:07:25 GMT 41.117451 -87.669334 37,975 211 433 64
2019-04-16 08:07:22 GMT 41.120041 -87.667297 37,975 211 433 64
2019-04-16 08:07:18 GMT 41.129013 -87.660339 37,975 211 433 0
2019-04-16 08:07:15 GMT 41.138538 -87.652924 37,975 211 433 0
2019-04-16 08:07:12 GMT 41.138538 -87.652924 37,975 211 433 0
2019-04-16 08:07:08 GMT 41.144730 -87.648048 37,975 211 433 0
2019-04-16 08:07:05 GMT 41.150803 -87.643311 38,000 211 434 0
2019-04-16 08:07:02 GMT 41.155807 -87.639435 38,000 211 433 -64
2019-04-16 08:06:58 GMT 41.163940 -87.633057 38,000 211 434 0
2019-04-16 08:06:54 GMT 41.168472 -87.629578 38,000 211 434 -64
2019-04-16 08:06:51 GMT 41.174850 -87.624580 38,000 211 434 0
2019-04-16 08:06:48 GMT 41.181087 -87.619713 37,975 211 435 0
2019-04-16 08:06:45 GMT 41.184402 -87.617126 37,975 211 435 0
2019-04-16 08:06:42 GMT 41.188396 -87.614029 37,975 211 436 -64
2019-04-16 08:06:38 GMT 41.196533 -87.607666 37,975 211 435 64
2019-04-16 08:06:35 GMT 41.202393 -87.603088 37,975 211 435 64
2019-04-16 08:06:31 GMT 41.210880 -87.596428 37,975 211 435 64
2019-04-16 08:06:27 GMT 41.220795 -87.588745 37,975 211 435 0
2019-04-16 08:06:24 GMT 41.226334 -87.584351 38,000 211 436 -64
2019-04-16 08:06:18 GMT 41.232433 -87.579636 37,975 211 436 -64
2019-04-16 08:06:15 GMT 41.238144 -87.575134 38,000 211 436 -64
2019-04-16 08:06:12 GMT 41.243729 -87.570801 38,000 211 436 -64
2019-04-16 08:06:07 GMT 41.250496 -87.565529 38,000 211 437 -64
2019-04-16 08:06:04 GMT 41.256592 -87.560730 38,000 211 437 -64
2019-04-16 08:06:01 GMT 41.261856 -87.556702 37,975 211 437 0
2019-04-16 08:05:55 GMT 41.273212 -87.547867 37,975 211 437 0
2019-04-16 08:05:52 GMT 41.278103 -87.544060 38,000 211 437 0
2019-04-16 08:05:49 GMT 41.283508 -87.539856 38,000 211 437 0
2019-04-16 08:05:45 GMT 41.290298 -87.534569 37,975 211 437 0
2019-04-16 08:05:42 GMT 41.293789 -87.531822 38,000 211 437 0
2019-04-16 08:05:39 GMT 41.301098 -87.526138 38,000 211 437 0
2019-04-16 08:05:35 GMT 41.305660 -87.522583 38,000 211 437 0
2019-04-16 08:05:31 GMT 41.314365 -87.515778 38,000 211 437 0
2019-04-16 08:05:26 GMT 41.322876 -87.509094 38,000 211 437 0
2019-04-16 08:05:21 GMT 41.335964 -87.498863 37,975 211 436 64
2019-04-16 08:05:18 GMT 41.338577 -87.496826 38,000 211 436 0
2019-04-16 08:05:14 GMT 41.343601 -87.492867 38,000 211 436 0
2019-04-16 08:05:11 GMT 41.347790 -87.489563 37,975 211 436 0
2019-04-16 08:05:08 GMT 41.354031 -87.484695 38,000 211 436 0
2019-04-16 08:05:05 GMT 41.359940 -87.480011 37,975 211 436 0
2019-04-16 08:05:01 GMT 41.367249 -87.474266 37,975 211 436 64
2019-04-16 08:04:57 GMT 41.372635 -87.470093 37,975 211 436 64
2019-04-16 08:04:54 GMT 41.378052 -87.465843 37,975 211 436 0
2019-04-16 08:04:50 GMT 41.392296 -87.454620 38,000 211 436 0
2019-04-16 08:04:45 GMT 41.392296 -87.454620 37,975 211 436 0
2019-04-16 08:04:42 GMT 41.398533 -87.449768 37,975 211 436 0
2019-04-16 08:04:39 GMT 41.402893 -87.446304 37,975 211 436 -64
2019-04-16 08:04:36 GMT 41.410030 -87.440697 38,000 211 436 0
2019-04-16 08:04:32 GMT 41.417130 -87.435127 38,000 211 437 -64
2019-04-16 08:04:29 GMT 41.422714 -87.430763 38,000 211 436 -64
2019-04-16 08:04:25 GMT 41.426880 -87.427452 38,000 211 436 -64
2019-04-16 08:04:22 GMT 41.434845 -87.421150 38,000 211 436 0
2019-04-16 08:04:19 GMT 41.439873 -87.417191 38,000 211 436 0
2019-04-16 08:04:16 GMT 41.449600 -87.409523 38,000 211 435 0
2019-04-16 08:04:13 GMT 41.449600 -87.409523 38,000 211 435 64
2019-04-16 08:04:10 GMT 41.454815 -87.405441 38,000 211 435 64
2019-04-16 08:04:07 GMT 41.460678 -87.400841 37,975 211 435 64
2019-04-16 08:04:04 GMT 41.464005 -87.398239 38,000 211 435 64
2019-04-16 08:04:01 GMT 41.470230 -87.393303 38,000 211 434 64
2019-04-16 08:03:58 GMT 41.476456 -87.388374 37,975 211 434 64
2019-04-16 08:03:55 GMT 41.480621 -87.385132 37,975 211 434 0
2019-04-16 08:03:52 GMT 41.485634 -87.381165 38,000 211 434 64
2019-04-16 08:03:49 GMT 41.496712 -87.372482 37,975 211 434 0
2019-04-16 08:03:46 GMT 41.496712 -87.372482 37,975 211 434 0
2019-04-16 08:03:43 GMT 41.502045 -87.368210 37,975 211 434 0
2019-04-16 08:03:40 GMT 41.507744 -87.363731 37,975 211 434 0
2019-04-16 08:03:37 GMT 41.513283 -87.359383 37,975 211 434 0
2019-04-16 08:03:34 GMT 41.517609 -87.355980 37,975 211 434 0
2019-04-16 08:03:30 GMT 41.523712 -87.351212 37,975 211 434 0
2019-04-16 08:03:26 GMT 41.530277 -87.346031 37,975 211 434 0
2019-04-16 08:03:23 GMT 41.535118 -87.342201 37,975 211 435 0
2019-04-16 08:03:20 GMT 41.547775 -87.332191 37,975 211 435 -64
2019-04-16 08:03:16 GMT 41.547775 -87.332191 38,000 211 436 -64
2019-04-16 08:03:13 GMT 41.553635 -87.327576 38,000 211 435 -64
2019-04-16 08:03:09 GMT 41.559540 -87.322891 37,975 211 436 -64
2019-04-16 08:03:05 GMT 41.566677 -87.317291 38,000 211 436 -64
2019-04-16 08:03:02 GMT 41.571671 -87.313278 38,000 211 436 -64
2019-04-16 08:02:59 GMT 41.575836 -87.309975 38,000 211 436 -64
2019-04-16 08:02:56 GMT 41.581902 -87.305222 38,000 211 436 -64
2019-04-16 08:02:53 GMT 41.589211 -87.299408 38,000 211 436 0
2019-04-16 08:02:50 GMT 41.593727 -87.295891 38,000 211 436 0
2019-04-16 08:02:47 GMT 41.598038 -87.292435 38,000 211 436 64
2019-04-16 08:02:44 GMT 41.602757 -87.288742 38,000 211 434 0
2019-04-16 08:02:41 GMT 41.609322 -87.283501 38,000 211 436 64
2019-04-16 08:02:37 GMT 41.616955 -87.277496 37,975 211 435 64
2019-04-16 08:02:34 GMT 41.621292 -87.274078 37,975 211 434 0
2019-04-16 08:02:30 GMT 41.627151 -87.269402 37,975 211 434 0
2019-04-16 08:02:27 GMT 41.632690 -87.265030 37,975 211 435 0
2019-04-16 08:02:24 GMT 41.637543 -87.261162 38,000 211 435 0
2019-04-16 08:02:21 GMT 41.645187 -87.255104 37,975 211 435 64
2019-04-16 08:02:16 GMT 41.651047 -87.250481 38,000 211 435 0
2019-04-16 08:02:13 GMT 41.658154 -87.244858 37,975 211 435 64
2019-04-16 08:02:10 GMT 41.661804 -87.241997 37,975 211 435 64
2019-04-16 08:02:07 GMT 41.667709 -87.237312 37,975 211 435 64
2019-04-16 08:02:04 GMT 41.673615 -87.232628 37,975 211 435 64
2019-04-16 08:02:01 GMT 41.678787 -87.228508 37,975 211 435 64
2019-04-16 08:01:55 GMT 41.689762 -87.219887 37,975 211 437 -64
2019-04-16 08:01:52 GMT 41.694443 -87.216148 37,975 211 437 -64
2019-04-16 08:01:48 GMT 41.699448 -87.212158 38,000 211 437 -64
2019-04-16 08:01:45 GMT 41.705887 -87.207100 38,000 211 437 0
2019-04-16 08:01:42 GMT 41.710052 -87.203789 38,000 211 437 -64
2019-04-16 08:01:39 GMT 41.715462 -87.199509 38,000 211 437 0
2019-04-16 08:01:35 GMT 41.723602 -87.192993 38,000 211 438 -64
2019-04-16 08:01:32 GMT 41.730404 -87.187561 37,975 211 438 0
2019-04-16 08:01:29 GMT 41.734039 -87.184631 38,000 211 438 0
2019-04-16 08:01:26 GMT 41.739578 -87.180199 38,000 211 437 0
2019-04-16 08:01:23 GMT 41.744274 -87.176453 38,000 211 437 0
2019-04-16 08:01:20 GMT 41.748276 -87.173271 38,000 211 437 0
2019-04-16 08:01:16 GMT 41.756973 -87.166405 38,000 211 437 -64
2019-04-16 08:01:13 GMT 41.762558 -87.161972 38,000 211 437 0
2019-04-16 08:01:10 GMT 41.771255 -87.155037 37,975 211 437 0
2019-04-16 08:01:04 GMT 41.778027 -87.149620 38,000 211 437 0
2019-04-16 08:01:01 GMT 41.784119 -87.144806 38,000 211 437 0
2019-04-16 08:00:58 GMT 41.786732 -87.142723 38,000 211 437 0
2019-04-16 08:00:54 GMT 41.793869 -87.137062 38,000 211 437 64
2019-04-16 08:00:51 GMT 41.799255 -87.132759 38,000 211 437 0
2019-04-16 08:00:48 GMT 41.803444 -87.129440 37,975 211 437 0
2019-04-16 08:00:45 GMT 41.810379 -87.123947 37,975 211 437 0
2019-04-16 08:00:42 GMT 41.815968 -87.119537 38,000 211 437 0
2019-04-16 08:00:39 GMT 41.820328 -87.116028 38,000 211 437 0
2019-04-16 08:00:36 GMT 41.825867 -87.111595 37,975 211 437 0
2019-04-16 08:00:33 GMT 41.831936 -87.106766 37,975 211 437 0
2019-04-16 08:00:30 GMT 41.842209 -87.098549 38,000 211 438 0
2019-04-16 08:00:27 GMT 41.842209 -87.098549 38,000 211 438 0
2019-04-16 08:00:24 GMT 41.847748 -87.094116 38,000 211 438 64
2019-04-16 08:00:21 GMT 41.852791 -87.090096 37,975 211 437 0
2019-04-16 08:00:18 GMT 41.855392 -87.087997 38,000 211 438 64
2019-04-16 08:00:15 GMT 41.863544 -87.081467 37,975 211 438 0
2019-04-16 08:00:12 GMT 41.874527 -87.072639 37,975 211 438 64
2019-04-16 08:00:09 GMT 41.874527 -87.072639 38,000 211 439 0
2019-04-16 08:00:06 GMT 41.877274 -87.070457 37,975 211 438 0
2019-04-16 08:00:03 GMT 41.881805 -87.066841 37,975 211 438 64
2019-04-16 08:00:00 GMT 41.893295 -87.057602 38,000 211 441 0
2019-04-16 07:59:57 GMT 41.893295 -87.057602 37,975 211 438 0
2019-04-16 07:59:54 GMT 41.900085 -87.052216 38,000 211 439 0
2019-04-16 07:59:48 GMT 41.910187 -87.044106 37,975 211 439 0
2019-04-16 07:59:45 GMT 41.914536 -87.040619 38,000 211 439 0
2019-04-16 07:59:42 GMT 41.921494 -87.035065 38,000 211 439 0
2019-04-16 07:59:37 GMT 41.930065 -87.028198 38,000 211 440 0
2019-04-16 07:59:34 GMT 41.933395 -87.025513 38,000 211 440 -64
2019-04-16 07:59:31 GMT 41.938614 -87.021332 38,000 211 440 0
2019-04-16 07:59:27 GMT 41.947197 -87.014465 38,000 211 440 -64
2019-04-16 07:59:23 GMT 41.951714 -87.010826 38,000 211 440 -64
2019-04-16 07:59:20 GMT 41.957153 -87.006477 38,000 211 440 -64
2019-04-16 07:59:17 GMT 41.964329 -87.000732 37,975 211 441 -64
2019-04-16 07:59:14 GMT 41.968735 -86.997238 38,000 211 442 0
2019-04-16 07:59:11 GMT 41.975739 -86.991615 38,000 211 441 0
2019-04-16 07:59:06 GMT 41.984299 -86.984703 38,000 211 441 0
2019-04-16 07:59:03 GMT 41.987640 -86.982071 38,000 211 442 64
2019-04-16 07:59:00 GMT 41.993099 -86.977676 37,975 211 441 0
2019-04-16 07:58:57 GMT 42.005714 -86.967583 38,000 211 442 0
2019-04-16 07:58:54 GMT 42.005714 -86.967583 38,000 211 442 64
2019-04-16 07:58:50 GMT 42.011673 -86.962791 38,000 211 442 64
2019-04-16 07:58:45 GMT 42.024170 -86.952789 38,000 211 443 64
2019-04-16 07:58:42 GMT 42.030293 -86.947845 37,975 211 443 0
2019-04-16 07:58:39 GMT 42.030293 -86.947845 37,975 211 443 64
2019-04-16 07:58:35 GMT 42.036999 -86.942482 37,975 211 444 -64
2019-04-16 07:58:32 GMT 42.042068 -86.938370 37,975 211 442 64
2019-04-16 07:58:29 GMT 42.047333 -86.934189 37,975 211 443 0
2019-04-16 07:58:25 GMT 42.055435 -86.927696 37,975 211 443 0
2019-04-16 07:58:22 GMT 42.065487 -86.919609 38,000 211 444 0
2019-04-16 07:58:19 GMT 42.065487 -86.919609 37,975 211 444 -64
2019-04-16 07:58:16 GMT 42.071819 -86.914566 38,000 212 444 -64
2019-04-16 07:58:13 GMT 42.077126 -86.910286 38,000 212 444 -64
2019-04-16 07:58:10 GMT 42.079742 -86.908157 38,000 212 444 -64
2019-04-16 07:58:07 GMT 42.084686 -86.904167 38,000 212 444 -64
2019-04-16 07:58:04 GMT 42.093155 -86.897362 38,000 211 445 0
2019-04-16 07:58:01 GMT 42.102497 -86.889786 37,975 211 445 0
2019-04-16 07:57:58 GMT 42.102497 -86.889786 37,975 211 445 0
2019-04-16 07:57:55 GMT 42.108307 -86.885063 37,975 211 445 0
2019-04-16 07:57:52 GMT 42.113434 -86.880966 38,000 211 445 0
2019-04-16 07:57:48 GMT 42.122086 -86.873955 38,000 212 445 0
2019-04-16 07:57:45 GMT 42.131081 -86.866722 38,000 212 445 0
2019-04-16 07:57:42 GMT 42.131081 -86.866722 38,000 212 445 0
2019-04-16 07:57:39 GMT 42.136917 -86.862030 37,975 212 445 0
2019-04-16 07:57:34 GMT 42.144333 -86.855972 38,000 212 445 0
2019-04-16 07:57:31 GMT 42.151237 -86.850433 37,975 212 445 0
2019-04-16 07:57:27 GMT 42.157745 -86.845116 37,975 212 445 0
2019-04-16 07:57:24 GMT 42.163944 -86.840157 37,975 212 445 0
2019-04-16 07:57:21 GMT 42.167484 -86.837280 37,975 212 445 0
2019-04-16 07:57:18 GMT 42.171890 -86.833687 37,975 212 445 0
2019-04-16 07:57:14 GMT 42.181263 -86.826164 37,975 212 445 -64
2019-04-16 07:57:11 GMT 42.186768 -86.821709 38,000 212 445 -64
2019-04-16 07:57:08 GMT 42.190105 -86.819008 38,000 212 445 -64
2019-04-16 07:57:05 GMT 42.195602 -86.814590 38,000 211 446 -64
2019-04-16 07:57:02 GMT 42.202652 -86.808846 38,000 211 446 0
2019-04-16 07:56:59 GMT 42.208328 -86.804230 38,000 211 446 0
2019-04-16 07:56:55 GMT 42.214325 -86.799355 38,000 211 446 0
2019-04-16 07:56:52 GMT 42.219482 -86.795250 37,975 211 446 64
2019-04-16 07:56:48 GMT 42.227257 -86.788925 37,975 211 446 0
2019-04-16 07:56:45 GMT 42.233307 -86.784073 37,975 212 447 0
2019-04-16 07:56:42 GMT 42.235565 -86.782188 37,975 212 447 0
2019-04-16 07:56:39 GMT 42.247284 -86.772705 37,975 212 447 0
2019-04-16 07:56:33 GMT 42.252594 -86.768394 38,000 211 446 0
2019-04-16 07:56:30 GMT 42.258957 -86.763275 38,000 211 446 -64
2019-04-16 07:56:24 GMT 42.269577 -86.754662 38,000 211 446 -64
2019-04-16 07:56:21 GMT 42.275066 -86.750221 38,000 211 446 0
2019-04-16 07:56:18 GMT 42.280045 -86.746193 37,975 211 446 0
2019-04-16 07:56:14 GMT 42.290661 -86.737633 38,000 211 446 0
2019-04-16 07:56:11 GMT 42.290661 -86.737633 38,000 211 446 0
2019-04-16 07:56:08 GMT 42.301319 -86.729012 37,975 211 446 64
2019-04-16 07:56:05 GMT 42.301319 -86.729012 38,000 211 446 64
2019-04-16 07:56:02 GMT 42.308945 -86.722832 37,975 211 446 0
2019-04-16 07:55:59 GMT 42.313702 -86.718987 38,000 211 446 0
2019-04-16 07:55:56 GMT 42.318314 -86.715218 37,975 211 446 0
2019-04-16 07:55:53 GMT 42.323456 -86.711090 37,975 211 446 0
2019-04-16 07:55:50 GMT 42.329498 -86.706161 37,975 211 446 0
2019-04-16 07:55:44 GMT 42.338379 -86.698982 37,975 211 446 0
2019-04-16 07:55:41 GMT 42.344376 -86.694115 37,975 211 446 -64
2019-04-16 07:55:38 GMT 42.351643 -86.688263 37,975 211 446 0
2019-04-16 07:55:34 GMT 42.356781 -86.684067 38,000 211 446 -64
2019-04-16 07:55:31 GMT 42.364075 -86.678169 38,000 211 446 -64
2019-04-16 07:55:27 GMT 42.374687 -86.669548 38,000 212 446 -64
2019-04-16 07:55:24 GMT 42.374687 -86.669548 38,000 212 446 -64
2019-04-16 07:55:21 GMT 42.381546 -86.663963 38,000 212 444 0
2019-04-16 07:55:18 GMT 42.391800 -86.655602 38,000 212 445 0
2019-04-16 07:55:15 GMT 42.391800 -86.655602 38,000 212 445 0
2019-04-16 07:55:09 GMT 42.402695 -86.646675 38,000 212 444 0
2019-04-16 07:55:06 GMT 42.406387 -86.643677 38,000 212 444 0
2019-04-16 07:55:03 GMT 42.411648 -86.639336 38,000 212 444 64
2019-04-16 07:55:00 GMT 42.416016 -86.635750 38,000 212 443 0
2019-04-16 07:54:57 GMT 42.421799 -86.631027 38,000 212 443 0
2019-04-16 07:54:54 GMT 42.430222 -86.624130 38,000 212 442 64
2019-04-16 07:54:51 GMT 42.432129 -86.622581 38,000 212 441 0
2019-04-16 07:54:48 GMT 42.437206 -86.618446 38,000 212 441 0
2019-04-16 07:54:45 GMT 42.443985 -86.612839 38,000 212 441 64
2019-04-16 07:54:42 GMT 42.449570 -86.608284 38,000 212 440 64
2019-04-16 07:54:37 GMT 42.457260 -86.601982 38,000 212 439 64
2019-04-16 07:54:34 GMT 42.462624 -86.597557 38,000 212 439 64
2019-04-16 07:54:31 GMT 42.468208 -86.593025 38,000 212 439 64
2019-04-16 07:54:28 GMT 42.474121 -86.588173 37,975 212 438 64
2019-04-16 07:54:24 GMT 42.479336 -86.583893 37,975 212 438 64
2019-04-16 07:54:21 GMT 42.484875 -86.579353 37,975 212 438 64
2019-04-16 07:54:18 GMT 42.490265 -86.574951 37,975 212 438 0
2019-04-16 07:54:15 GMT 42.494751 -86.571266 38,000 212 438 0
2019-04-16 07:54:12 GMT 42.501495 -86.565750 38,000 212 437 0
2019-04-16 07:54:09 GMT 42.505829 -86.562157 38,000 212 437 0
2019-04-16 07:54:05 GMT 42.513107 -86.556221 38,000 212 438 0
2019-04-16 07:54:01 GMT 42.520908 -86.549843 38,000 212 437 0
2019-04-16 07:53:57 GMT 42.527298 -86.544617 38,000 212 437 0
2019-04-16 07:53:54 GMT 42.531784 -86.540932 38,000 212 437 0
2019-04-16 07:53:51 GMT 42.536129 -86.537392 38,000 212 436 0
2019-04-16 07:53:48 GMT 42.545609 -86.529572 38,000 212 436 0
2019-04-16 07:53:42 GMT 42.553772 -86.522957 37,975 212 436 64
2019-04-16 07:53:38 GMT 42.559265 -86.518417 37,975 212 436 64
2019-04-16 07:53:35 GMT 42.564972 -86.513779 37,975 212 436 64
2019-04-16 07:53:32 GMT 42.570877 -86.508972 37,975 212 436 64
2019-04-16 07:53:29 GMT 42.574490 -86.506027 37,975 212 436 64
2019-04-16 07:53:26 GMT 42.579704 -86.501816 37,975 212 436 0
2019-04-16 07:53:23 GMT 42.586639 -86.496124 37,975 212 437 -64
2019-04-16 07:53:19 GMT 42.593719 -86.490372 37,975 212 437 0
2019-04-16 07:53:16 GMT 42.597393 -86.487373 37,975 212 437 -64
2019-04-16 07:53:13 GMT 42.603424 -86.482437 37,975 212 437 0
2019-04-16 07:53:10 GMT 42.608799 -86.478050 37,975 212 438 0
2019-04-16 07:53:06 GMT 42.615555 -86.472511 38,000 212 438 -64
2019-04-16 07:53:02 GMT 42.622669 -86.466682 38,000 212 438 -64
2019-04-16 07:52:59 GMT 42.626812 -86.463234 38,000 212 438 -64
2019-04-16 07:52:56 GMT 42.632904 -86.458221 37,975 212 438 0
2019-04-16 07:52:52 GMT 42.639816 -86.452538 37,975 212 438 0
2019-04-16 07:52:49 GMT 42.644669 -86.448547 37,975 212 438 64
2019-04-16 07:52:46 GMT 42.647995 -86.445793 37,975 212 438 0
2019-04-16 07:52:43 GMT 42.654419 -86.440491 38,000 212 439 -64
2019-04-16 07:52:39 GMT 42.662193 -86.434105 38,000 212 439 -64
2019-04-16 07:52:36 GMT 42.666710 -86.430336 38,000 212 439 -64
2019-04-16 07:52:33 GMT 42.672623 -86.425484 38,000 212 439 -64
2019-04-16 07:52:30 GMT 42.678532 -86.420631 38,000 212 440 -64
2019-04-16 07:52:26 GMT 42.686005 -86.414459 38,000 212 439 0
2019-04-16 07:52:23 GMT 42.689285 -86.411690 38,000 212 439 0
2019-04-16 07:52:20 GMT 42.695198 -86.406830 37,975 212 439 0
2019-04-16 07:52:17 GMT 42.699715 -86.403061 38,000 212 439 0
2019-04-16 07:52:14 GMT 42.711491 -86.393356 37,975 212 439 64
2019-04-16 07:52:11 GMT 42.711491 -86.393356 37,975 212 439 64
2019-04-16 07:52:07 GMT 42.717403 -86.388435 37,975 212 440 0
2019-04-16 07:52:03 GMT 42.724712 -86.382431 37,975 212 440 0
2019-04-16 07:51:59 GMT 42.731094 -86.377136 37,975 212 440 -64
2019-04-16 07:51:55 GMT 42.743958 -86.366524 38,000 212 440 -64
2019-04-16 07:51:52 GMT 42.743958 -86.366524 38,000 212 440 0
2019-04-16 07:51:49 GMT 42.748489 -86.362778 38,000 212 440 -64
2019-04-16 07:51:46 GMT 42.754395 -86.357910 38,000 212 440 -64
2019-04-16 07:51:43 GMT 42.758926 -86.354164 38,000 212 440 0
2019-04-16 07:51:40 GMT 42.763260 -86.350555 38,000 212 440 -64
2019-04-16 07:51:37 GMT 42.769684 -86.345299 38,000 212 440 0
2019-04-16 07:51:34 GMT 42.775589 -86.340370 38,000 212 440 0
2019-04-16 07:51:31 GMT 42.786579 -86.331329 38,000 212 440 64
2019-04-16 07:51:28 GMT 42.786579 -86.331329 38,000 212 440 64
2019-04-16 07:51:25 GMT 42.790028 -86.328461 38,000 212 440 64
2019-04-16 07:51:22 GMT 42.796463 -86.323135 38,000 212 440 64
2019-04-16 07:51:18 GMT 42.803467 -86.317329 37,975 212 440 64
2019-04-16 07:51:15 GMT 42.807953 -86.313591 37,975 212 440 64
2019-04-16 07:51:12 GMT 42.816330 -86.306679 37,975 212 441 0
2019-04-16 07:51:06 GMT 42.822426 -86.301659 37,975 212 441 -64
2019-04-16 07:51:03 GMT 42.826942 -86.297867 37,975 212 441 -64
2019-04-16 07:51:00 GMT 42.833923 -86.292114 38,000 212 441 -64
2019-04-16 07:50:56 GMT 42.842304 -86.285179 38,000 212 442 0
2019-04-16 07:50:52 GMT 42.848263 -86.280281 38,000 212 443 0
2019-04-16 07:50:49 GMT 42.852310 -86.276978 37,975 212 443 0
2019-04-16 07:50:46 GMT 42.857712 -86.272499 38,000 212 443 0
2019-04-16 07:50:43 GMT 42.862793 -86.268288 38,000 212 443 64
2019-04-16 07:50:40 GMT 42.875061 -86.258133 38,000 212 443 64
2019-04-16 07:50:37 GMT 42.875061 -86.258133 37,975 212 443 64
2019-04-16 07:50:34 GMT 42.878754 -86.255104 37,975 212 443 64
2019-04-16 07:50:31 GMT 42.885410 -86.249611 37,975 212 443 0
2019-04-16 07:50:28 GMT 42.891174 -86.244781 37,975 212 443 64
2019-04-16 07:50:25 GMT 42.895931 -86.240845 37,975 212 445 0
2019-04-16 07:50:22 GMT 42.900124 -86.237381 38,000 212 445 -64
2019-04-16 07:50:19 GMT 42.905228 -86.233162 38,000 212 445 -64
2019-04-16 07:50:16 GMT 42.911545 -86.227859 37,975 212 445 -64
2019-04-16 07:50:13 GMT 42.916122 -86.224091 37,975 212 445 -64
2019-04-16 07:50:10 GMT 42.922932 -86.218414 38,000 212 445 -64
2019-04-16 07:50:07 GMT 42.927338 -86.214760 38,000 212 445 0
2019-04-16 07:50:04 GMT 42.932430 -86.210503 38,000 212 445 0
2019-04-16 07:50:01 GMT 42.938599 -86.205376 38,000 212 445 0
2019-04-16 07:49:58 GMT 42.943695 -86.201149 38,000 212 445 0
2019-04-16 07:49:55 GMT 42.947754 -86.197769 38,000 212 445 64
2019-04-16 07:49:52 GMT 42.952652 -86.193619 38,000 212 446 64
2019-04-16 07:49:49 GMT 42.959194 -86.188202 37,975 212 446 64
2019-04-16 07:49:46 GMT 42.965332 -86.183083 37,975 212 446 0
2019-04-16 07:49:43 GMT 42.969715 -86.179436 37,975 212 446 0
2019-04-16 07:49:40 GMT 42.973255 -86.176498 37,975 212 446 0
2019-04-16 07:49:37 GMT 42.980286 -86.170677 38,000 212 446 0
2019-04-16 07:49:32 GMT 42.987534 -86.164688 38,000 212 446 0
2019-04-16 07:49:29 GMT 42.995461 -86.158058 37,975 212 446 0
2019-04-16 07:49:26 GMT 42.998627 -86.155441 38,000 212 446 -64
2019-04-16 07:49:22 GMT 43.007053 -86.148376 38,000 212 446 -64
2019-04-16 07:49:19 GMT 43.010590 -86.145432 37,975 212 442 64
2019-04-16 07:49:16 GMT 43.015850 -86.141052 38,000 212 446 0
2019-04-16 07:49:13 GMT 43.022182 -86.135757 38,000 212 446 0
2019-04-16 07:49:10 GMT 43.032944 -86.126808 38,000 212 445 64
2019-04-16 07:49:07 GMT 43.032944 -86.126808 38,000 212 445 0
2019-04-16 07:49:04 GMT 43.037155 -86.123230 37,975 212 445 64
2019-04-16 07:49:01 GMT 43.043472 -86.117996 37,975 212 445 64
2019-04-16 07:48:57 GMT 43.049469 -86.112946 37,975 212 444 0
2019-04-16 07:48:51 GMT 43.061417 -86.102982 37,975 212 445 0
2019-04-16 07:48:48 GMT 43.065800 -86.099327 38,000 212 444 0
2019-04-16 07:48:45 GMT 43.071388 -86.094620 37,975 212 444 -64
2019-04-16 07:48:41 GMT 43.077717 -86.089394 37,975 212 444 0
2019-04-16 07:48:38 GMT 43.083847 -86.084267 37,975 212 444 0
2019-04-16 07:48:35 GMT 43.089264 -86.079712 38,000 212 444 0
2019-04-16 07:48:32 GMT 43.094524 -86.075333 38,000 212 443 -64
2019-04-16 07:48:29 GMT 43.099594 -86.071045 38,000 212 443 -64
2019-04-16 07:48:25 GMT 43.104126 -86.067276 38,000 212 444 64
2019-04-16 07:48:22 GMT 43.112869 -86.059929 38,000 212 443 0
2019-04-16 07:48:19 GMT 43.116028 -86.057312 38,000 212 443 0
2019-04-16 07:48:15 GMT 43.124596 -86.050156 37,975 212 444 64
2019-04-16 07:48:12 GMT 43.127930 -86.047348 37,975 212 444 0
2019-04-16 07:48:08 GMT 43.136887 -86.039886 38,000 212 444 0
2019-04-16 07:48:05 GMT 43.142101 -86.035507 37,975 212 443 0
2019-04-16 07:48:01 GMT 43.148060 -86.030533 37,975 212 443 0
2019-04-16 07:47:58 GMT 43.153839 -86.025696 38,000 212 443 -64
2019-04-16 07:47:55 GMT 43.158207 -86.022034 38,000 212 444 -64
2019-04-16 07:47:51 GMT 43.164322 -86.016884 38,000 212 444 0
2019-04-16 07:47:48 GMT 43.172333 -86.010109 38,000 212 444 -64
2019-04-16 07:47:45 GMT 43.176910 -86.006279 38,000 212 444 0
2019-04-16 07:47:42 GMT 43.181442 -86.002449 38,000 212 444 64
2019-04-16 07:47:38 GMT 43.189453 -85.995674 38,000 212 443 64
2019-04-16 07:47:35 GMT 43.192932 -85.992737 38,000 212 443 64
2019-04-16 07:47:32 GMT 43.197830 -85.988586 37,975 212 443 128
2019-04-16 07:47:28 GMT 43.204102 -85.983284 37,975 212 442 128
2019-04-16 07:47:25 GMT 43.211601 -85.977043 37,975 212 442 64
2019-04-16 07:47:22 GMT 43.216003 -85.973320 37,975 212 442 64
2019-04-16 07:47:17 GMT 43.225243 -85.965599 37,975 212 442 0
2019-04-16 07:47:14 GMT 43.229233 -85.962204 38,000 212 442 0
2019-04-16 07:47:11 GMT 43.234970 -85.957359 38,000 212 443 64
2019-04-16 07:47:06 GMT 43.245300 -85.948730 38,000 212 443 0
2019-04-16 07:47:03 GMT 43.250336 -85.944473 37,975 212 443 64
2019-04-16 07:46:58 GMT 43.259628 -85.936653 37,975 212 444 64
2019-04-16 07:46:54 GMT 43.266068 -85.931198 38,000 212 444 0
2019-04-16 07:46:51 GMT 43.271004 -85.927078 38,000 212 446 0
2019-04-16 07:46:48 GMT 43.276062 -85.922798 38,000 212 445 0
2019-04-16 07:46:45 GMT 43.286739 -85.913803 38,000 212 445 0
2019-04-16 07:46:42 GMT 43.286739 -85.913803 38,000 212 445 0
2019-04-16 07:46:35 GMT 43.304123 -85.899101 38,000 212 446 -64
2019-04-16 07:46:32 GMT 43.304123 -85.899101 38,000 212 446 0
2019-04-16 07:46:25 GMT 43.315018 -85.889961 38,000 212 446 0
2019-04-16 07:46:22 GMT 43.325912 -85.880699 37,975 212 446 64
2019-04-16 07:46:19 GMT 43.325912 -85.880699 38,000 212 446 64
2019-04-16 07:46:14 GMT 43.335388 -85.872719 37,975 212 446 64
2019-04-16 07:46:11 GMT 43.340332 -85.868568 37,975 212 446 64
2019-04-16 07:46:08 GMT 43.343998 -85.865479 37,975 212 447 64
2019-04-16 07:46:05 GMT 43.349487 -85.860840 37,975 212 447 64
2019-04-16 07:46:02 GMT 43.356171 -85.855217 37,975 212 447 64
2019-04-16 07:45:59 GMT 43.361965 -85.850304 37,975 212 447 0
2019-04-16 07:45:56 GMT 43.367226 -85.845863 37,975 212 447 0
2019-04-16 07:45:51 GMT 43.376396 -85.838081 37,975 212 448 0
2019-04-16 07:45:48 GMT 43.381165 -85.834076 37,975 212 448 0
2019-04-16 07:45:45 GMT 43.385422 -85.830498 37,975 212 449 0
2019-04-16 07:45:40 GMT 43.394943 -85.822388 37,975 212 449 0
2019-04-16 07:45:37 GMT 43.399887 -85.818230 37,975 212 449 0
2019-04-16 07:45:33 GMT 43.406982 -85.812225 37,975 212 449 0
2019-04-16 07:45:30 GMT 43.419178 -85.801849 37,975 212 451 -64
2019-04-16 07:45:26 GMT 43.419178 -85.801849 37,975 212 451 -64
2019-04-16 07:45:23 GMT 43.426304 -85.795898 37,975 212 451 -64
2019-04-16 07:45:20 GMT 43.430008 -85.792747 37,975 212 451 -64
2019-04-16 07:45:17 GMT 43.436588 -85.787132 38,000 212 451 -64
2019-04-16 07:45:14 GMT 43.440674 -85.783676 38,000 212 451 -64
2019-04-16 07:45:11 GMT 43.447769 -85.777672 38,000 212 451 -64
2019-04-16 07:45:07 GMT 43.455963 -85.770714 38,000 212 451 -64
2019-04-16 07:45:04 GMT 43.458981 -85.768173 38,000 212 451 -64
2019-04-16 07:45:00 GMT 43.465359 -85.762741 38,000 212 452 -64
2019-04-16 07:44:56 GMT 43.471573 -85.757423 38,000 212 451 -64
2019-04-16 07:44:53 GMT 43.477787 -85.752151 38,000 212 451 -64
2019-04-16 07:44:50 GMT 43.485077 -85.745995 38,000 212 451 -64
2019-04-16 07:44:47 GMT 43.489014 -85.742668 38,000 212 451 -64
2019-04-16 07:44:44 GMT 43.495377 -85.737244 38,000 212 451 -64
2019-04-16 07:44:41 GMT 43.504089 -85.729912 38,000 212 450 0
2019-04-16 07:44:35 GMT 43.511166 -85.723831 37,975 212 448 64
2019-04-16 07:44:32 GMT 43.514832 -85.720695 38,000 212 449 0
2019-04-16 07:44:28 GMT 43.523876 -85.713043 37,975 212 447 64
2019-04-16 07:44:25 GMT 43.529835 -85.707939 37,975 212 448 64
2019-04-16 07:44:21 GMT 43.533554 -85.704796 38,000 212 444 0
2019-04-16 07:44:18 GMT 43.543938 -85.695976 37,975 212 447 0
2019-04-16 07:44:12 GMT 43.552231 -85.688950 37,975 212 447 0
2019-04-16 07:44:05 GMT 43.561909 -85.680672 37,975 212 447 0
2019-04-16 07:44:02 GMT 43.567169 -85.676163 37,975 212 447 0
2019-04-16 07:43:57 GMT 43.576126 -85.668579 38,000 212 447 0
2019-04-16 07:43:54 GMT 43.581390 -85.664040 38,000 212 447 -64
2019-04-16 07:43:50 GMT 43.590500 -85.656250 38,000 212 446 -64
2019-04-16 07:43:47 GMT 43.595764 -85.651711 38,000 212 446 0
2019-04-16 07:43:44 GMT 43.599289 -85.648712 38,000 212 444 128
2019-04-16 07:43:38 GMT 43.610504 -85.639130 37,975 212 444 128
2019-04-16 07:43:35 GMT 43.616455 -85.634018 38,000 212 446 0
2019-04-16 07:43:32 GMT 43.620098 -85.630844 38,000 212 445 64
2019-04-16 07:43:29 GMT 43.624466 -85.627121 38,000 212 445 64
2019-04-16 07:43:26 GMT 43.632343 -85.620377 38,000 212 444 64
2019-04-16 07:43:23 GMT 43.634949 -85.618118 38,000 212 445 64
2019-04-16 07:43:20 GMT 43.653290 -85.602394 37,975 212 444 64
2019-04-16 07:43:14 GMT 43.653290 -85.602394 37,975 212 444 64
2019-04-16 07:43:09 GMT 43.660973 -85.595856 37,975 212 444 64
2019-04-16 07:43:05 GMT 43.669189 -85.588860 37,975 212 444 128
2019-04-16 07:42:59 GMT 43.678940 -85.580498 37,975 212 444 64
2019-04-16 07:42:56 GMT 43.684204 -85.576019 37,975 212 444 64
2019-04-16 07:42:53 GMT 43.689602 -85.571396 37,975 212 444 0
2019-04-16 07:42:49 GMT 43.695930 -85.566032 37,975 212 445 64
2019-04-16 07:42:46 GMT 43.703796 -85.559288 37,975 212 445 -64
2019-04-16 07:42:43 GMT 43.707478 -85.556160 37,975 212 446 -64
2019-04-16 07:42:40 GMT 43.712692 -85.551651 38,000 212 446 -64
2019-04-16 07:42:37 GMT 43.715332 -85.549385 37,975 212 446 -64
2019-04-16 07:42:32 GMT 43.726959 -85.539421 38,000 212 448 -64
2019-04-16 07:42:28 GMT 43.733276 -85.533997 38,000 212 448 -64
2019-04-16 07:42:23 GMT 43.741745 -85.526779 38,000 212 448 -64
2019-04-16 07:42:17 GMT 43.752121 -85.517838 38,000 212 448 -64
2019-04-16 07:42:13 GMT 43.760593 -85.510582 38,000 212 449 0
2019-04-16 07:42:10 GMT 43.763947 -85.507675 38,000 212 449 0
2019-04-16 07:42:06 GMT 43.770309 -85.502251 38,000 212 450 0
2019-04-16 07:42:02 GMT 43.779465 -85.494331 37,975 212 449 64
2019-04-16 07:41:59 GMT 43.782990 -85.491325 37,975 212 450 64
2019-04-16 07:41:56 GMT 43.788300 -85.486794 38,000 212 449 64
2019-04-16 07:41:51 GMT 43.797821 -85.478554 38,000 212 450 64
2019-04-16 07:41:48 GMT 43.803608 -85.473564 37,975 212 449 64
2019-04-16 07:41:45 GMT 43.806820 -85.470818 37,975 212 449 64
2019-04-16 07:41:42 GMT 43.815079 -85.463730 38,000 212 449 0
2019-04-16 07:41:39 GMT 43.819481 -85.459900 38,000 212 449 0
2019-04-16 07:41:36 GMT 43.825485 -85.454735 38,000 212 449 64
2019-04-16 07:41:33 GMT 43.830963 -85.450066 38,000 212 449 64
2019-04-16 07:41:29 GMT 43.838013 -85.443993 37,975 212 449 64
2019-04-16 07:41:25 GMT 43.843643 -85.439140 38,000 212 449 64
2019-04-16 07:41:20 GMT 43.853165 -85.430901 37,975 212 449 64
2019-04-16 07:41:14 GMT 43.862686 -85.422722 37,975 212 449 64
2019-04-16 07:41:11 GMT 43.875366 -85.411804 37,975 212 448 64
2019-04-16 07:41:08 GMT 43.875366 -85.411804 37,975 212 449 0
2019-04-16 07:41:03 GMT 43.881363 -85.406631 37,975 212 449 -64
2019-04-16 07:40:59 GMT 43.890705 -85.398560 37,975 212 449 0
2019-04-16 07:40:56 GMT 43.895462 -85.394493 38,000 212 449 0
2019-04-16 07:40:49 GMT 43.907604 -85.383980 38,000 212 449 -64
2019-04-16 07:40:46 GMT 43.914139 -85.378334 38,000 212 449 0
2019-04-16 07:40:43 GMT 43.917297 -85.375587 37,975 212 449 -64
2019-04-16 07:40:37 GMT 43.927551 -85.366776 38,000 212 449 0
2019-04-16 07:40:33 GMT 43.936340 -85.359169 38,000 212 449 0
2019-04-16 07:40:29 GMT 43.943390 -85.353043 38,000 213 448 64
2019-04-16 07:40:22 GMT 43.954285 -85.343651 37,975 212 447 64
2019-04-16 07:40:16 GMT 43.966026 -85.333488 38,000 212 447 64
2019-04-16 07:40:12 GMT 43.972359 -85.327995 38,000 213 447 0
2019-04-16 07:40:05 GMT 43.984772 -85.317268 38,000 213 447 0
2019-04-16 07:40:01 GMT 43.991261 -85.311653 38,000 213 447 64
2019-04-16 07:39:58 GMT 43.998093 -85.305710 38,000 213 446 0
2019-04-16 07:39:55 GMT 44.000565 -85.303596 38,000 213 446 0
2019-04-16 07:39:51 GMT 44.009136 -85.296150 37,975 213 446 64
2019-04-16 07:39:47 GMT 44.016445 -85.289810 38,000 213 446 64
2019-04-16 07:39:44 GMT 44.023636 -85.283607 37,975 213 446 64
2019-04-16 07:39:41 GMT 44.027618 -85.280067 37,975 213 446 64
2019-04-16 07:39:37 GMT 44.034805 -85.273895 37,975 213 446 64
2019-04-16 07:39:34 GMT 44.037598 -85.271469 37,975 213 444 0
2019-04-16 07:39:30 GMT 44.045609 -85.264442 37,975 212 445 64
2019-04-16 07:39:25 GMT 44.055920 -85.255539 37,975 212 445 64
2019-04-16 07:39:19 GMT 44.063416 -85.249054 37,975 213 444 0
2019-04-16 07:39:13 GMT 44.074726 -85.239189 37,975 213 445 0
2019-04-16 07:39:09 GMT 44.082230 -85.232635 38,000 213 444 0
2019-04-16 07:39:06 GMT 44.088646 -85.227028 38,000 213 443 64
2019-04-16 07:39:02 GMT 44.096466 -85.220184 38,000 213 444 0
2019-04-16 07:38:58 GMT 44.099773 -85.217285 37,975 213 444 -64
2019-04-16 07:38:53 GMT 44.110382 -85.207977 38,000 213 444 0
2019-04-16 07:38:48 GMT 44.119602 -85.199959 38,000 213 443 0
2019-04-16 07:38:45 GMT 44.124985 -85.195267 38,000 213 443 0
2019-04-16 07:38:36 GMT 44.139763 -85.182365 38,000 213 443 64
2019-04-16 07:38:33 GMT 44.146179 -85.176811 38,000 213 443 64
2019-04-16 07:38:26 GMT 44.158524 -85.166084 38,000 213 443 64
2019-04-16 07:38:22 GMT 44.164387 -85.160912 38,000 213 443 64
2019-04-16 07:38:17 GMT 44.172394 -85.153984 37,975 213 443 0
2019-04-16 07:38:12 GMT 44.182617 -85.145004 37,975 213 443 0
2019-04-16 07:38:06 GMT 44.190083 -85.138481 37,975 213 443 0
2019-04-16 07:38:03 GMT 44.197174 -85.132271 38,000 213 443 -64
2019-04-16 07:38:00 GMT 44.201706 -85.128349 38,000 213 443 0
2019-04-16 07:37:56 GMT 44.208099 -85.122742 37,975 213 443 -64
2019-04-16 07:37:53 GMT 44.215210 -85.116508 38,000 213 443 -64
2019-04-16 07:37:43 GMT 44.232399 -85.101440 38,000 213 443 64
2019-04-16 07:37:40 GMT 44.245743 -85.089767 37,975 213 443 64
2019-04-16 07:37:35 GMT 44.245743 -85.089767 37,975 213 443 64
2019-04-16 07:37:30 GMT 44.254932 -85.081673 37,975 213 443 64
2019-04-16 07:37:25 GMT 44.262566 -85.074974 37,975 213 443 0
2019-04-16 07:37:22 GMT 44.268478 -85.069748 37,975 213 444 0
2019-04-16 07:37:19 GMT 44.273163 -85.065636 37,975 213 444 0
2019-04-16 07:37:14 GMT 44.283421 -85.056686 37,975 213 444 -64
2019-04-16 07:37:11 GMT 44.286865 -85.053604 38,000 213 444 0
2019-04-16 07:37:07 GMT 44.296783 -85.044907 38,000 213 445 -64
2019-04-16 07:37:04 GMT 44.299763 -85.042351 38,000 213 445 -64
2019-04-16 07:37:01 GMT 44.304974 -85.037727 38,000 213 445 -64
2019-04-16 07:36:58 GMT 44.311260 -85.032234 38,000 213 445 -64
2019-04-16 07:36:50 GMT 44.325180 -85.019981 38,000 213 445 0
2019-04-16 07:36:47 GMT 44.335464 -85.010902 38,000 213 445 0
2019-04-16 07:36:43 GMT 44.335464 -85.010902 38,000 213 445 64
2019-04-16 07:36:40 GMT 44.341049 -85.005997 38,000 213 445 64
2019-04-16 07:36:37 GMT 44.346268 -85.001419 38,000 213 445 64
2019-04-16 07:36:33 GMT 44.354324 -84.994354 37,975 213 446 64
2019-04-16 07:36:30 GMT 44.359543 -84.989777 37,975 213 446 64
2019-04-16 07:36:27 GMT 44.364285 -84.985611 37,975 213 446 128
2019-04-16 07:36:23 GMT 44.371964 -84.978844 37,975 213 446 128
2019-04-16 07:36:20 GMT 44.377029 -84.974411 37,975 213 446 64
2019-04-16 07:36:16 GMT 44.383137 -84.969002 37,975 213 448 64
2019-04-16 07:36:12 GMT 44.390671 -84.962440 37,975 213 448 0
2019-04-16 07:36:09 GMT 44.395054 -84.958549 37,975 213 448 -64
2019-04-16 07:36:06 GMT 44.402252 -84.952240 37,975 213 448 -64
2019-04-16 07:36:02 GMT 44.408089 -84.947159 38,000 213 450 -64
2019-04-16 07:35:57 GMT 44.416351 -84.939812 38,000 213 450 -64
2019-04-16 07:35:54 GMT 44.420750 -84.935974 38,000 213 450 -64
2019-04-16 07:35:51 GMT 44.427456 -84.930008 38,000 213 451 -64
2019-04-16 07:35:48 GMT 44.439285 -84.919609 38,000 213 452 -64
2019-04-16 07:35:45 GMT 44.439285 -84.919609 38,000 213 452 -64
2019-04-16 07:35:39 GMT 44.446865 -84.912865 38,000 213 452 64
2019-04-16 07:35:36 GMT 44.465206 -84.896652 37,975 213 452 64
2019-04-16 07:35:30 GMT 44.465206 -84.896652 37,975 213 452 64
2019-04-16 07:35:27 GMT 44.470516 -84.891960 37,975 213 452 64
2019-04-16 07:35:24 GMT 44.475449 -84.887543 37,975 213 452 0
2019-04-16 07:35:19 GMT 44.482155 -84.881645 38,000 213 452 -64
2019-04-16 07:35:16 GMT 44.488358 -84.876183 38,000 213 452 -64
2019-04-16 07:35:13 GMT 44.494164 -84.871063 38,000 213 452 0
2019-04-16 07:35:09 GMT 44.503010 -84.863220 38,000 213 452 -64
2019-04-16 07:35:05 GMT 44.510036 -84.856926 38,000 213 452 0
2019-04-16 07:35:02 GMT 44.512878 -84.854446 38,000 213 452 64
2019-04-16 07:34:58 GMT 44.520653 -84.847549 38,000 213 452 64
2019-04-16 07:34:52 GMT 44.531067 -84.838326 37,975 213 452 64
2019-04-16 07:34:48 GMT 44.537750 -84.832375 37,975 213 452 64
2019-04-16 07:34:44 GMT 44.546768 -84.824432 37,975 213 452 64
2019-04-16 07:34:35 GMT 44.561050 -84.811707 37,975 213 452 64
2019-04-16 07:34:32 GMT 44.566551 -84.806885 37,975 213 452 0
2019-04-16 07:34:29 GMT 44.574509 -84.799805 37,975 213 453 -64
2019-04-16 07:34:24 GMT 44.579632 -84.795227 38,000 213 455 64
2019-04-16 07:34:21 GMT 44.586010 -84.789597 37,975 213 453 -128
2019-04-16 07:34:18 GMT 44.591690 -84.784576 38,000 213 454 -128
2019-04-16 07:34:14 GMT 44.601105 -84.776199 38,000 213 455 -128
2019-04-16 07:34:11 GMT 44.604816 -84.772919 38,000 213 455 -64
2019-04-16 07:34:07 GMT 44.610718 -84.767693 38,000 213 455 0
2019-04-16 07:34:00 GMT 44.623718 -84.756241 38,000 213 454 64
2019-04-16 07:33:56 GMT 44.631317 -84.749451 38,000 213 453 64
2019-04-16 07:33:50 GMT 44.639465 -84.742195 37,975 213 453 128
2019-04-16 07:33:45 GMT 44.649719 -84.733040 37,975 213 451 64
2019-04-16 07:33:40 GMT 44.657654 -84.725960 37,975 213 451 0
2019-04-16 07:33:35 GMT 44.668594 -84.716179 38,000 213 451 0
2019-04-16 07:33:29 GMT 44.679859 -84.706131 37,975 213 452 0
2019-04-16 07:33:20 GMT 44.693966 -84.693535 38,000 213 452 64
2019-04-16 07:33:17 GMT 44.697876 -84.690056 38,000 213 452 64
2019-04-16 07:33:14 GMT 44.706673 -84.682152 37,975 213 453 64
2019-04-16 07:33:10 GMT 44.710213 -84.679001 37,975 213 453 64
2019-04-16 07:33:07 GMT 44.717468 -84.672546 37,975 213 453 64
2019-04-16 07:33:04 GMT 44.722412 -84.668098 37,975 213 453 64
2019-04-16 07:33:00 GMT 44.730370 -84.660980 37,975 213 454 0
2019-04-16 07:32:57 GMT 44.735504 -84.656395 37,975 213 454 0
2019-04-16 07:32:49 GMT 44.749454 -84.643829 37,975 213 454 0
2019-04-16 07:32:42 GMT 44.760269 -84.634163 37,975 213 455 64
2019-04-16 07:32:38 GMT 44.767517 -84.627617 38,000 213 455 0
2019-04-16 07:32:34 GMT 44.777664 -84.618599 37,975 213 455 0
2019-04-16 07:32:30 GMT 44.797211 -84.601135 38,000 213 456 -64
2019-04-16 07:32:22 GMT 44.797211 -84.601135 38,000 213 456 -64
2019-04-16 07:32:18 GMT 44.802200 -84.596687 38,000 213 456 -64
2019-04-16 07:32:14 GMT 44.810905 -84.588898 38,000 213 456 -64
2019-04-16 07:32:08 GMT 44.822681 -84.578384 38,000 213 455 -64
2019-04-16 07:32:04 GMT 44.830132 -84.571747 38,000 213 456 -64
2019-04-16 07:31:58 GMT 44.839394 -84.563438 38,000 213 456 0
2019-04-16 07:31:50 GMT 44.853424 -84.550911 38,000 213 454 64
2019-04-16 07:31:47 GMT 44.858368 -84.546402 37,975 213 454 64
2019-04-16 07:31:41 GMT 44.869186 -84.536713 37,975 213 453 64
2019-04-16 07:31:38 GMT 44.877457 -84.529198 37,975 213 453 64
2019-04-16 07:31:29 GMT 44.889816 -84.518021 37,975 213 453 64
2019-04-16 07:31:26 GMT 44.894188 -84.514069 37,975 213 453 64
2019-04-16 07:31:18 GMT 44.909737 -84.500000 37,975 213 454 0
2019-04-16 07:31:11 GMT 44.922443 -84.488548 37,975 213 454 0
2019-04-16 07:31:06 GMT 44.931839 -84.480087 37,975 213 455 -64
2019-04-16 07:31:00 GMT 44.943604 -84.469559 38,000 213 456 -128
2019-04-16 07:30:56 GMT 44.949646 -84.464134 37,975 213 457 -64
2019-04-16 07:30:50 GMT 44.959454 -84.455322 38,000 213 457 -64
2019-04-16 07:30:44 GMT 44.969788 -84.446007 38,000 213 457 -64
2019-04-16 07:30:40 GMT 44.979424 -84.437370 38,000 213 457 64
2019-04-16 07:30:37 GMT 44.982311 -84.434822 37,975 213 456 -64
2019-04-16 07:30:34 GMT 44.988361 -84.429329 37,975 213 457 -64
2019-04-16 07:30:28 GMT 44.997952 -84.420685 38,000 213 455 0
2019-04-16 07:30:23 GMT 45.007004 -84.412468 38,000 213 456 0
2019-04-16 07:30:13 GMT 45.025604 -84.395569 38,000 213 455 0
2019-04-16 07:30:08 GMT 45.035385 -84.386703 38,000 213 455 64
2019-04-16 07:30:02 GMT 45.044411 -84.378487 38,000 213 455 128
2019-04-16 07:29:55 GMT 45.056419 -84.367561 37,975 213 454 0
2019-04-16 07:29:52 GMT 45.062428 -84.362137 37,975 213 454 64
2019-04-16 07:29:43 GMT 45.080441 -84.345795 38,000 213 455 0
2019-04-16 07:29:31 GMT 45.098740 -84.329292 37,975 213 456 0
2019-04-16 07:29:22 GMT 45.117554 -84.312157 38,000 213 457 64
2019-04-16 07:29:11 GMT 45.136002 -84.295280 37,975 213 458 0
2019-04-16 07:29:01 GMT 45.154320 -84.278603 37,975 213 459 64
2019-04-16 07:28:50 GMT 45.172894 -84.261650 37,975 213 460 64
2019-04-16 07:28:38 GMT 45.193005 -84.243362 37,975 213 463 -64
2019-04-16 07:28:29 GMT 45.210693 -84.227356 38,000 213 464 0
2019-04-16 07:28:15 GMT 45.237835 -84.202766 37,975 213 464 -64
2019-04-16 07:28:09 GMT 45.246868 -84.194527 38,000 213 464 0
2019-04-16 07:28:02 GMT 45.259277 -84.183197 37,975 213 463 -64
2019-04-16 07:27:58 GMT 45.265953 -84.177109 38,000 213 462 -64
2019-04-16 07:27:53 GMT 45.276215 -84.167702 38,000 213 462 64
2019-04-16 07:27:48 GMT 45.285740 -84.159027 38,000 213 462 0
2019-04-16 07:27:42 GMT 45.295002 -84.150452 38,000 214 461 0
2019-04-16 07:27:35 GMT 45.307709 -84.138794 38,000 213 461 64
2019-04-16 07:27:31 GMT 45.316315 -84.130882 37,975 213 461 64
2019-04-16 07:27:26 GMT 45.324375 -84.123451 37,975 213 461 64
2019-04-16 07:27:21 GMT 45.332569 -84.115883 37,975 214 461 64
2019-04-16 07:27:16 GMT 45.343140 -84.106163 37,975 214 462 0
2019-04-16 07:27:10 GMT 45.352478 -84.097595 37,975 213 463 -64
2019-04-16 07:27:04 GMT 45.362736 -84.088150 38,000 213 464 -64
2019-04-16 07:26:55 GMT 45.382240 -84.070267 38,000 213 467 0
2019-04-16 07:26:48 GMT 45.391319 -84.061958 38,000 213 467 -64
2019-04-16 07:26:43 GMT 45.402008 -84.052147 38,000 213 467 0
2019-04-16 07:26:40 GMT 45.407288 -84.047287 38,000 213 467 0
2019-04-16 07:26:29 GMT 45.426559 -84.029602 38,000 213 468 0
2019-04-16 07:26:18 GMT 45.445633 -84.012062 37,975 213 469 128
2019-04-16 07:26:06 GMT 45.469898 -83.989738 37,975 213 470 64
2019-04-16 07:25:58 GMT 45.483582 -83.977135 37,975 214 471 0
2019-04-16 07:25:48 GMT 45.502068 -83.959999 38,000 213 473 -64
2019-04-16 07:25:37 GMT 45.521347 -83.942215 37,975 213 475 -64
2019-04-16 07:25:31 GMT 45.535400 -83.929398 38,000 213 475 0
2019-04-16 07:25:26 GMT 45.541122 -83.924095 38,000 213 475 0
2019-04-16 07:25:22 GMT 45.552704 -83.913376 38,000 214 476 -64
2019-04-16 07:25:16 GMT 45.560440 -83.906204 38,000 213 475 0
2019-04-16 07:25:10 GMT 45.570591 -83.896820 38,000 214 476 0
2019-04-16 07:25:05 GMT 45.579807 -83.888237 37,975 214 476 -64
2019-04-16 07:24:55 GMT 45.598434 -83.870972 38,000 214 476 0
2019-04-16 07:24:45 GMT 45.617249 -83.853554 38,000 214 476 0
2019-04-16 07:24:35 GMT 45.636929 -83.835228 38,000 214 474 0
2019-04-16 07:24:24 GMT 45.655518 -83.817909 38,000 214 475 64
2019-04-16 07:24:14 GMT 45.674774 -83.800003 38,000 214 474 64
2019-04-16 07:24:04 GMT 45.693741 -83.782410 38,000 214 474 64
2019-04-16 07:23:52 GMT 45.714157 -83.763405 37,975 214 475 0
2019-04-16 07:23:42 GMT 45.732285 -83.746368 37,975 214 475 0
2019-04-16 07:23:32 GMT 45.751419 -83.728477 37,975 213 475 0
2019-04-16 07:23:21 GMT 45.770599 -83.710663 38,000 214 476 -64
2019-04-16 07:23:12 GMT 45.789246 -83.693298 38,000 214 476 -64
2019-04-16 07:23:01 GMT 45.809078 -83.674553 38,000 214 476 0
2019-04-16 07:22:51 GMT 45.827465 -83.657249 37,975 214 475 0
2019-04-16 07:22:41 GMT 45.846405 -83.639519 38,000 214 475 64
2019-04-16 07:22:30 GMT 45.865906 -83.621300 37,975 214 475 64
2019-04-16 07:22:20 GMT 45.885040 -83.603477 38,000 213 475 -64
2019-04-16 07:22:09 GMT 45.904369 -83.585495 38,000 214 475 -64
2019-04-16 07:21:59 GMT 45.922756 -83.568192 38,000 214 475 0
2019-04-16 07:21:49 GMT 45.941986 -83.550018 37,975 214 474 128
2019-04-16 07:21:38 GMT 45.960838 -83.532280 37,975 214 473 64
2019-04-16 07:21:28 GMT 45.980251 -83.514015 38,000 214 474 0
2019-04-16 07:21:17 GMT 45.999615 -83.495682 37,975 214 474 0
2019-04-16 07:21:07 GMT 46.018330 -83.477966 37,975 214 474 -64
2019-04-16 07:20:56 GMT 46.038441 -83.458878 38,000 214 474 -64
2019-04-16 07:20:44 GMT 46.059494 -83.438820 38,000 214 475 64
2019-04-16 07:20:07 GMT 46.126842 -83.374763 37,975 214 477 0
2019-04-16 07:18:03 GMT 46.356537 -83.155052 37,975 214 479 0
2019-04-16 07:17:59 GMT 46.365417 -83.146538 38,000 214 480 0
2019-04-16 07:17:46 GMT 46.387444 -83.125374 38,000 214 480 0
2019-04-16 07:16:42 GMT 46.505630 -83.010956 38,000 214 478 0
2019-04-16 07:16:36 GMT 46.519047 -82.998001 37,975 214 478 64
2019-04-16 07:16:24 GMT 46.540146 -82.977524 37,975 214 477 0
2019-04-16 07:15:54 GMT 46.594391 -82.924805 37,975 214 477 0
We lost coverage of the aircraft here for a total of 336 minutes
2019-04-16 01:39:57 GMT 55.992985 -11.800690 36,000 288 537 -64
2019-04-16 01:39:49 GMT 55.987198 -11.767356 35,975 288 537 -64
2019-04-16 01:39:19 GMT 55.965332 -11.641560 35,975 288 534 64
2019-04-16 01:39:03 GMT 55.953461 -11.574180 35,975 288 532 -64
2019-04-16 01:38:59 GMT 55.950577 -11.557875 36,000 288 532 -64
2019-04-16 01:38:49 GMT 55.943024 -11.514920 35,975 288 532 0
2019-04-16 01:38:39 GMT 55.935585 -11.472731 35,975 288 531 -64
2019-04-16 01:38:29 GMT 55.927963 -11.429860 36,000 288 531 -64
2019-04-16 01:38:18 GMT 55.920364 -11.386986 35,975 288 530 -64
2019-04-16 01:38:08 GMT 55.912682 -11.343899 35,975 288 529 0
2019-04-16 01:37:58 GMT 55.905212 -11.302185 36,000 288 527 0
2019-04-16 01:37:48 GMT 55.897659 -11.260071 36,000 288 526 -64
2019-04-16 01:37:37 GMT 55.890015 -11.217291 35,975 288 525 -64
2019-04-16 01:37:27 GMT 55.882324 -11.174511 36,000 288 525 -64
2019-04-16 01:37:17 GMT 55.874882 -11.132927 36,000 288 525 -64
2019-04-16 01:37:06 GMT 55.867203 -11.090183 35,975 288 525 0
2019-04-16 01:36:56 GMT 55.859474 -11.047611 35,975 288 523 0
2019-04-16 01:36:46 GMT 55.852070 -11.006842 35,975 288 522 -64
2019-04-16 01:36:35 GMT 55.844193 -10.963273 36,000 288 521 -64
2019-04-16 01:36:03 GMT 55.799194 -10.717246 36,000 289 518 -64
2019-04-16 01:35:35 GMT 55.799194 -10.717246 36,000 289 516 -64
2019-04-16 01:34:49 GMT 55.765160 -10.533915 36,000 289 513 -64
2019-04-16 01:34:46 GMT 55.762783 -10.521212 35,975 289 514 -64
2019-04-16 01:34:18 GMT 55.742207 -10.411348 36,000 289 511 -64
2019-04-16 01:33:49 GMT 55.720188 -10.294104 35,975 289 510 -64
2019-04-16 01:33:43 GMT 55.716064 -10.272383 36,000 289 509 -64
2019-04-16 01:33:35 GMT 55.708878 -10.234514 36,000 289 509 -64
2019-04-16 01:33:23 GMT 55.700775 -10.191900 36,000 289 508 0
2019-04-16 01:33:13 GMT 55.693954 -10.155778 35,975 289 506 -64
2019-04-16 01:33:03 GMT 55.686531 -10.116091 36,000 289 506 -64
2019-04-16 01:32:53 GMT 55.678989 -10.076094 35,975 289 506 0
2019-04-16 01:32:43 GMT 55.670750 -10.033007 35,975 289 506 -64
2019-04-16 01:32:35 GMT 55.665298 -10.004383 35,975 289 506 -64
2019-04-16 01:32:31 GMT 55.662651 -9.990692 36,000 289 507 -64
2019-04-16 01:32:23 GMT 55.656235 -9.957442 35,975 289 506 -64
2019-04-16 01:32:15 GMT 55.648087 -9.915161 36,000 289 506 -64
2019-04-16 01:32:02 GMT 55.639748 -9.871645 35,975 289 506 -64
2019-04-16 01:31:52 GMT 55.632530 -9.834051 35,975 289 506 -64
2019-04-16 01:31:47 GMT 55.628483 -9.812937 35,975 289 507 -64
2019-04-16 01:31:44 GMT 55.626945 -9.805126 35,975 289 507 -64
2019-04-16 01:31:37 GMT 55.621582 -9.777333 35,975 289 506 -64
2019-04-16 01:31:34 GMT 55.619339 -9.765597 35,975 289 506 -64
2019-04-16 01:31:30 GMT 55.616318 -9.749950 36,000 289 506 0
2019-04-16 01:31:24 GMT 55.611649 -9.725730 36,000 289 506 -64
2019-04-16 01:31:21 GMT 55.609116 -9.712858 35,975 290 506 0
2019-04-16 01:31:17 GMT 55.606228 -9.698009 36,000 290 506 0
2019-04-16 01:31:12 GMT 55.601994 -9.676208 35,975 290 506 0
2019-04-16 01:31:06 GMT 55.598282 -9.657066 35,975 290 505 -64
2019-04-16 01:31:03 GMT 55.595993 -9.645413 35,975 290 505 -64
2019-04-16 01:30:59 GMT 55.593109 -9.630515 35,975 290 505 -64
2019-04-16 01:30:54 GMT 55.588120 -9.605227 36,000 290 505 -64
2019-04-16 01:30:50 GMT 55.586304 -9.595871 36,000 290 505 -64
2019-04-16 01:30:43 GMT 55.578186 -9.554194 36,000 290 505 -64
2019-04-16 01:30:33 GMT 55.572876 -9.526978 35,975 290 505 -64
2019-04-16 01:30:30 GMT 55.570267 -9.513744 36,000 290 505 -64
2019-04-16 01:30:23 GMT 55.565029 -9.486952 35,975 290 505 0
2019-04-16 01:30:19 GMT 55.562073 -9.471796 35,975 290 504 0
2019-04-16 01:30:14 GMT 55.558090 -9.451571 35,975 290 504 -64
2019-04-16 01:30:09 GMT 55.554428 -9.432928 36,000 290 505 -64
2019-04-16 01:30:04 GMT 55.549942 -9.410456 36,000 290 505 -64
2019-04-16 01:29:59 GMT 55.547573 -9.398375 35,975 290 505 -64
2019-04-16 01:29:55 GMT 55.543987 -9.380608 35,975 290 505 -64
2019-04-16 01:29:52 GMT 55.541058 -9.365845 35,975 290 505 -64
2019-04-16 01:29:49 GMT 55.539520 -9.358120 35,975 290 505 -64
2019-04-16 01:29:43 GMT 55.533920 -9.329723 36,000 290 505 -64
2019-04-16 01:29:39 GMT 55.531448 -9.317322 35,975 290 505 -64
2019-04-16 01:29:35 GMT 55.528767 -9.303789 35,975 290 505 -64
2019-04-16 01:29:31 GMT 55.525974 -9.289799 36,000 290 505 -64
2019-04-16 01:29:28 GMT 55.523319 -9.276581 35,975 290 505 -64
2019-04-16 01:29:25 GMT 55.520645 -9.263056 35,975 290 505 -64
2019-04-16 01:29:21 GMT 55.518246 -9.251003 35,975 290 505 -64
2019-04-16 01:29:18 GMT 55.515453 -9.237099 36,000 290 505 -64
2019-04-16 01:29:13 GMT 55.511398 -9.216531 36,000 290 504 -64
2019-04-16 01:29:08 GMT 55.507370 -9.196389 36,000 290 504 -64
2019-04-16 01:29:05 GMT 55.505219 -9.185569 36,000 290 504 -64
2019-04-16 01:29:01 GMT 55.502106 -9.170088 36,000 290 504 -64
2019-04-16 01:28:58 GMT 55.500275 -9.160767 35,975 290 504 -64
2019-04-16 01:28:55 GMT 55.497532 -9.147234 36,000 290 504 -64
2019-04-16 01:28:52 GMT 55.495331 -9.135964 35,975 290 504 -64
2019-04-16 01:28:48 GMT 55.491852 -9.118567 36,000 290 504 -64
2019-04-16 01:28:42 GMT 55.487057 -9.094620 35,975 290 503 -64
2019-04-16 01:28:38 GMT 55.484261 -9.080715 36,000 290 503 -64
2019-04-16 01:28:34 GMT 55.481415 -9.066467 36,000 290 503 0
2019-04-16 01:28:30 GMT 55.478676 -9.052992 35,975 290 503 -64
2019-04-16 01:28:26 GMT 55.475052 -9.034840 35,975 290 503 -64
2019-04-16 01:28:23 GMT 55.472397 -9.021773 35,975 290 503 -64
2019-04-16 01:28:19 GMT 55.469147 -9.005543 36,000 290 502 -64
2019-04-16 01:28:15 GMT 55.467133 -8.995556 36,000 290 502 -64
2019-04-16 01:28:12 GMT 55.464340 -8.981656 36,000 290 502 -64
2019-04-16 01:28:08 GMT 55.460522 -8.962870 35,975 290 503 -64
2019-04-16 01:28:05 GMT 55.459450 -8.957462 36,000 290 503 -64
2019-04-16 01:28:02 GMT 55.456421 -8.942455 36,000 290 503 -64
2019-04-16 01:27:55 GMT 55.451210 -8.916693 36,000 290 502 -64
2019-04-16 01:27:49 GMT 55.446507 -8.893604 36,000 290 502 0
2019-04-16 01:27:44 GMT 55.442230 -8.872510 35,975 290 502 -64
2019-04-16 01:27:39 GMT 55.439117 -8.857162 35,975 290 502 -64
2019-04-16 01:27:35 GMT 55.435547 -8.839551 35,975 290 501 -64
2019-04-16 01:27:32 GMT 55.433147 -8.827598 35,975 290 501 -64
2019-04-16 01:27:28 GMT 55.430309 -8.813865 35,975 290 501 -64
2019-04-16 01:27:24 GMT 55.424583 -8.785484 35,975 290 501 -64
2019-04-16 01:27:17 GMT 55.421814 -8.772098 36,000 290 501 -64
2019-04-16 01:27:14 GMT 55.418762 -8.757186 36,000 290 501 -64
2019-04-16 01:27:10 GMT 55.416183 -8.744552 35,975 290 501 -64
2019-04-16 01:27:07 GMT 55.413780 -8.732716 36,000 290 501 0
2019-04-16 01:27:04 GMT 55.410805 -8.718151 35,975 290 501 -64
2019-04-16 01:27:00 GMT 55.407356 -8.701338 36,000 290 501 -64
2019-04-16 01:26:56 GMT 55.404602 -8.687924 35,975 290 501 -64
2019-04-16 01:26:53 GMT 55.402657 -8.678367 35,975 290 501 -64
2019-04-16 01:26:47 GMT 55.398331 -8.657388 36,000 290 501 -64
2019-04-16 01:26:43 GMT 55.394714 -8.639778 36,000 290 500 -64
2019-04-16 01:26:37 GMT 55.387939 -8.606980 35,975 290 501 -64
2019-04-16 01:26:34 GMT 55.387939 -8.606980 36,000 290 501 0
2019-04-16 01:26:31 GMT 55.385101 -8.593167 36,000 290 500 -64
2019-04-16 01:26:27 GMT 55.382446 -8.580241 36,000 290 500 -64
2019-04-16 01:26:24 GMT 55.379929 -8.568043 36,000 290 500 -64
2019-04-16 01:26:21 GMT 55.376587 -8.551608 35,975 290 500 -64
2019-04-16 01:26:17 GMT 55.374619 -8.542112 35,975 290 499 -64
2019-04-16 01:26:14 GMT 55.371746 -8.527971 36,000 290 499 -64
2019-04-16 01:26:10 GMT 55.369125 -8.515454 36,000 290 499 0
2019-04-16 01:26:07 GMT 55.366856 -8.504417 36,000 290 498 0
2019-04-16 01:26:04 GMT 55.364346 -8.492182 36,000 290 498 0
2019-04-16 01:26:00 GMT 55.358852 -8.465632 35,975 291 497 -64
2019-04-16 01:25:57 GMT 55.358852 -8.465632 36,000 291 499 0
2019-04-16 01:25:53 GMT 55.354427 -8.444408 35,975 291 498 0
2019-04-16 01:25:50 GMT 55.352188 -8.433380 35,975 291 498 0
2019-04-16 01:25:47 GMT 55.350845 -8.426930 35,975 291 498 0
2019-04-16 01:25:43 GMT 55.346832 -8.407611 35,975 291 498 0
2019-04-16 01:25:36 GMT 55.342392 -8.386365 35,975 291 498 -64
2019-04-16 01:25:33 GMT 55.340275 -8.376160 35,975 291 498 0
2019-04-16 01:25:30 GMT 55.337036 -8.360676 35,975 291 497 -64
2019-04-16 01:25:26 GMT 55.334457 -8.348194 36,000 290 497 -128
2019-04-16 01:25:23 GMT 55.332268 -8.337541 36,000 290 497 -64
2019-04-16 01:25:20 GMT 55.329666 -8.325052 36,000 291 498 -64
2019-04-16 01:25:16 GMT 55.326645 -8.310673 36,000 291 498 -64
2019-04-16 01:25:13 GMT 55.323990 -8.297747 35,975 291 498 -64
2019-04-16 01:25:10 GMT 55.321152 -8.284176 35,975 291 498 0
2019-04-16 01:25:06 GMT 55.318535 -8.271706 35,975 291 497 -64
2019-04-16 01:25:02 GMT 55.315155 -8.255418 36,000 291 497 -64
2019-04-16 01:24:59 GMT 55.313232 -8.246370 36,000 291 497 -64
2019-04-16 01:24:56 GMT 55.310017 -8.230841 36,000 291 497 -64
2019-04-16 01:24:52 GMT 55.307236 -8.217612 35,975 291 497 -64
2019-04-16 01:24:49 GMT 55.304855 -8.206302 35,975 291 497 0
2019-04-16 01:24:43 GMT 55.300415 -8.185138 35,975 291 497 -64
2019-04-16 01:24:40 GMT 55.297256 -8.170031 35,975 291 497 -64
2019-04-16 01:24:36 GMT 55.294609 -8.157598 36,000 291 497 0
2019-04-16 01:24:33 GMT 55.292496 -8.147412 36,000 291 498 -64
2019-04-16 01:24:29 GMT 55.285950 -8.116392 36,000 291 498 -64
2019-04-16 01:24:25 GMT 55.285950 -8.116392 36,000 291 498 -64
2019-04-16 01:24:21 GMT 55.281830 -8.096762 36,000 291 498 -64
2019-04-16 01:24:16 GMT 55.278625 -8.081656 36,000 291 498 -64
2019-04-16 01:24:13 GMT 55.276520 -8.071881 36,000 291 498 -64
2019-04-16 01:24:10 GMT 55.274597 -8.062753 36,000 291 498 -64
2019-04-16 01:24:07 GMT 55.271713 -8.049182 36,000 291 498 0
2019-04-16 01:24:04 GMT 55.266769 -8.025755 36,000 291 498 0
2019-04-16 01:24:01 GMT 55.266769 -8.025755 36,000 291 498 0
2019-04-16 01:23:57 GMT 55.263325 -8.009533 35,975 291 498 0
2019-04-16 01:23:54 GMT 55.261604 -8.001210 35,975 291 498 64
2019-04-16 01:23:51 GMT 55.259045 -7.989141 35,975 291 498 64
2019-04-16 01:23:47 GMT 55.255180 -7.970997 35,975 291 498 64
2019-04-16 01:23:44 GMT 55.253174 -7.961614 35,975 291 498 0
2019-04-16 01:23:41 GMT 55.248474 -7.939370 35,975 291 498 64
2019-04-16 01:23:38 GMT 55.248474 -7.939370 36,000 291 498 0
2019-04-16 01:23:35 GMT 55.246567 -7.930298 35,975 291 498 0
2019-04-16 01:23:32 GMT 55.242889 -7.912986 35,975 291 497 -64
2019-04-16 01:23:28 GMT 55.240402 -7.901270 35,975 291 497 -64
2019-04-16 01:23:25 GMT 55.237305 -7.886602 35,975 291 497 0
2019-04-16 01:23:22 GMT 55.235596 -7.878732 36,000 291 497 -64
2019-04-16 01:23:19 GMT 55.232971 -7.866294 35,975 291 497 -64
2019-04-16 01:23:15 GMT 55.230148 -7.853124 35,975 291 497 -64
2019-04-16 01:23:12 GMT 55.224335 -7.825982 36,000 291 497 -64
2019-04-16 01:23:09 GMT 55.224335 -7.825982 36,000 291 497 -64
2019-04-16 01:23:04 GMT 55.221268 -7.811683 36,000 291 497 0
2019-04-16 01:23:01 GMT 55.218704 -7.799647 35,975 291 498 -64
2019-04-16 01:22:58 GMT 55.216820 -7.790971 35,975 291 498 0
2019-04-16 01:22:54 GMT 55.213028 -7.773312 36,000 291 498 -64
2019-04-16 01:22:51 GMT 55.211185 -7.764671 36,000 291 498 -64
2019-04-16 01:22:48 GMT 55.208439 -7.751853 35,975 291 498 -64
2019-04-16 01:22:45 GMT 55.205692 -7.739036 35,975 291 498 -64
2019-04-16 01:22:41 GMT 55.203049 -7.726539 35,975 291 498 -64
2019-04-16 01:22:38 GMT 55.200119 -7.713049 36,000 291 498 -64
2019-04-16 01:22:35 GMT 55.197372 -7.700204 36,000 291 498 -64
2019-04-16 01:22:31 GMT 55.194946 -7.688895 35,975 291 498 -64
2019-04-16 01:22:28 GMT 55.191959 -7.675032 35,975 291 498 -64
2019-04-16 01:22:23 GMT 55.187401 -7.653975 36,000 291 498 -64
2019-04-16 01:22:20 GMT 55.185303 -7.644237 35,975 291 498 -64
2019-04-16 01:22:17 GMT 55.183594 -7.636306 35,975 291 497 -64
2019-04-16 01:22:14 GMT 55.181168 -7.625077 36,000 291 496 -64
2019-04-16 01:22:11 GMT 55.178509 -7.612693 36,000 291 496 -64
2019-04-16 01:22:08 GMT 55.175621 -7.599210 35,975 291 496 -64
2019-04-16 01:22:04 GMT 55.172035 -7.582730 35,975 291 495 -64
2019-04-16 01:22:00 GMT 55.169037 -7.568853 36,000 291 496 -64
2019-04-16 01:21:56 GMT 55.166153 -7.555443 36,000 291 495 -64
2019-04-16 01:21:53 GMT 55.163864 -7.544942 36,000 291 494 -64
2019-04-16 01:21:50 GMT 55.159012 -7.522565 36,000 291 494 -64
2019-04-16 01:21:47 GMT 55.155487 -7.506166 36,000 291 494 -64
2019-04-16 01:21:42 GMT 55.155487 -7.506166 36,000 291 494 -64
2019-04-16 01:21:39 GMT 55.152485 -7.492343 36,000 291 494 -64
2019-04-16 01:21:36 GMT 55.149948 -7.480801 36,000 291 494 -64
2019-04-16 01:21:33 GMT 55.146664 -7.465543 36,000 291 494 -64
2019-04-16 01:21:29 GMT 55.144524 -7.455888 36,000 291 493 -64
2019-04-16 01:21:26 GMT 55.141708 -7.442833 35,975 292 493 -64
2019-04-16 01:21:22 GMT 55.138519 -7.428339 36,000 291 493 -64
2019-04-16 01:21:19 GMT 55.136562 -7.419434 36,000 291 493 0
2019-04-16 01:21:16 GMT 55.132782 -7.402039 35,975 291 493 0
2019-04-16 01:21:12 GMT 55.129852 -7.388629 36,000 291 493 0
2019-04-16 01:21:08 GMT 55.127022 -7.375655 36,000 291 493 -64
2019-04-16 01:21:05 GMT 55.124599 -7.364585 36,000 291 492 -64
2019-04-16 01:21:01 GMT 55.121529 -7.350436 36,000 291 492 -64
2019-04-16 01:20:58 GMT 55.118965 -7.338617 36,000 291 492 -64
2019-04-16 01:20:54 GMT 55.116440 -7.327073 36,000 291 492 0
2019-04-16 01:20:51 GMT 55.113613 -7.314148 36,000 291 493 0
2019-04-16 01:20:48 GMT 55.110443 -7.299688 36,000 292 492 64
2019-04-16 01:20:45 GMT 55.108475 -7.290802 35,975 292 493 0
2019-04-16 01:20:42 GMT 55.105682 -7.278200 35,975 292 492 64
2019-04-16 01:20:39 GMT 55.103897 -7.270041 35,975 291 493 -64
2019-04-16 01:20:36 GMT 55.100647 -7.255177 35,975 291 493 -64
2019-04-16 01:20:33 GMT 55.099415 -7.249645 35,975 291 493 0
2019-04-16 01:20:30 GMT 55.093410 -7.222179 36,000 292 493 -64
2019-04-16 01:20:27 GMT 55.093410 -7.222179 36,000 292 493 -64
2019-04-16 01:20:23 GMT 55.091129 -7.211775 36,000 291 494 -64
2019-04-16 01:20:19 GMT 55.087967 -7.197337 35,975 291 494 -64
2019-04-16 01:20:16 GMT 55.084854 -7.183201 35,975 291 494 -64
2019-04-16 01:20:13 GMT 55.082886 -7.174234 35,975 291 494 -64
2019-04-16 01:20:10 GMT 55.079723 -7.159757 35,975 292 495 0
2019-04-16 01:20:04 GMT 55.075115 -7.138949 36,000 292 495 -64
2019-04-16 01:20:01 GMT 55.069244 -7.112517 35,975 292 495 -64
2019-04-16 01:19:57 GMT 55.069244 -7.112517 35,975 292 495 -64
2019-04-16 01:19:54 GMT 55.064220 -7.089927 35,975 292 495 0
2019-04-16 01:19:51 GMT 55.064220 -7.089927 36,000 292 494 -64
2019-04-16 01:19:48 GMT 55.062267 -7.081021 36,000 292 495 -128
2019-04-16 01:19:45 GMT 55.059799 -7.069869 36,000 292 494 -64
2019-04-16 01:19:42 GMT 55.056633 -7.055803 36,000 292 494 -64
2019-04-16 01:19:38 GMT 55.053452 -7.041348 36,000 292 494 0
2019-04-16 01:19:35 GMT 55.051048 -7.030584 36,000 292 494 -64
2019-04-16 01:19:32 GMT 55.049332 -7.022768 36,000 292 494 0
2019-04-16 01:19:28 GMT 55.045601 -7.006115 36,000 292 494 0
2019-04-16 01:19:25 GMT 55.043133 -6.995045 35,975 292 494 0
2019-04-16 01:19:22 GMT 55.039364 -6.977983 35,975 292 494 0
2019-04-16 01:19:18 GMT 55.037685 -6.970659 35,975 292 493 0
2019-04-16 01:19:15 GMT 55.034821 -6.957658 35,975 292 493 0
2019-04-16 01:19:12 GMT 55.032349 -6.946591 36,000 292 493 -64
2019-04-16 01:19:09 GMT 55.030334 -6.937705 35,975 292 493 -64
2019-04-16 01:19:06 GMT 55.027119 -6.923301 35,975 292 493 -64
2019-04-16 01:19:03 GMT 55.024384 -6.911127 36,000 292 493 -128
2019-04-16 01:19:00 GMT 55.021954 -6.900330 36,000 292 494 -64
2019-04-16 01:18:57 GMT 55.019897 -6.891094 36,000 292 494 -64
2019-04-16 01:18:54 GMT 55.017483 -6.880354 36,000 292 494 -64
2019-04-16 01:18:51 GMT 55.014084 -6.865243 36,000 292 494 -64
2019-04-16 01:18:48 GMT 55.012875 -6.859713 36,000 292 494 0
2019-04-16 01:18:45 GMT 55.009384 -6.844150 36,000 292 494 0
2019-04-16 01:18:42 GMT 55.007755 -6.836742 36,000 292 494 64
2019-04-16 01:18:39 GMT 55.004059 -6.820086 35,975 292 494 64
2019-04-16 01:18:36 GMT 55.002678 -6.813771 35,975 292 494 64
2019-04-16 01:18:33 GMT 55.000679 -6.804865 35,975 292 494 64
2019-04-16 01:18:30 GMT 54.997746 -6.791548 35,975 292 493 0
2019-04-16 01:18:27 GMT 54.995178 -6.780099 35,975 292 493 64
2019-04-16 01:18:21 GMT 54.990437 -6.759172 35,975 292 492 -64
2019-04-16 01:18:18 GMT 54.987671 -6.746979 36,000 292 492 -128
2019-04-16 01:18:15 GMT 54.984756 -6.734120 36,000 292 492 -128
2019-04-16 01:18:12 GMT 54.979385 -6.710223 36,000 292 492 -64
2019-04-16 01:18:08 GMT 54.979385 -6.710223 36,000 292 492 -64
2019-04-16 01:18:05 GMT 54.977051 -6.699964 35,975 292 492 -64
2019-04-16 01:18:02 GMT 54.971878 -6.677183 35,975 292 492 -64
2019-04-16 01:17:59 GMT 54.971878 -6.677183 35,975 292 492 -64
2019-04-16 01:17:56 GMT 54.969673 -6.667203 35,975 292 492 -64
2019-04-16 01:17:53 GMT 54.966835 -6.654719 36,000 292 492 -64
2019-04-16 01:17:50 GMT 54.964096 -6.642609 36,000 292 492 -64
2019-04-16 01:17:47 GMT 54.962040 -6.633412 36,000 292 491 -64
2019-04-16 01:17:44 GMT 54.959526 -6.622425 35,975 292 491 -64
2019-04-16 01:17:41 GMT 54.955708 -6.605613 36,000 292 491 -64
2019-04-16 01:17:37 GMT 54.953613 -6.596401 36,000 292 491 0
2019-04-16 01:17:34 GMT 54.950317 -6.581780 35,975 292 491 -64
2019-04-16 01:17:31 GMT 54.948074 -6.571905 35,975 292 491 -64
2019-04-16 01:17:28 GMT 54.946152 -6.563442 35,975 292 491 -64
2019-04-16 01:17:25 GMT 54.944069 -6.554260 35,975 292 490 0
2019-04-16 01:17:22 GMT 54.940765 -6.539612 35,975 292 491 -64
2019-04-16 01:17:19 GMT 54.938644 -6.530483 36,000 292 491 -64
2019-04-16 01:17:16 GMT 54.936436 -6.520635 36,000 292 491 -64
2019-04-16 01:17:13 GMT 54.933197 -6.506330 36,000 292 490 -64
2019-04-16 01:17:10 GMT 54.931084 -6.497248 36,000 292 490 -64
2019-04-16 01:17:06 GMT 54.927776 -6.482599 36,000 292 490 -64
2019-04-16 01:17:03 GMT 54.924362 -6.467635 36,000 292 490 -64
2019-04-16 01:17:00 GMT 54.922211 -6.458103 35,975 292 489 0
2019-04-16 01:16:57 GMT 54.920422 -6.450473 35,975 292 489 0
2019-04-16 01:16:54 GMT 54.918419 -6.441734 35,975 292 489 0
2019-04-16 01:16:51 GMT 54.915527 -6.428941 35,975 292 489 0
2019-04-16 01:16:48 GMT 54.912689 -6.416581 35,975 292 489 0
2019-04-16 01:16:45 GMT 54.910088 -6.405279 35,975 292 488 -64
2019-04-16 01:16:42 GMT 54.907837 -6.395497 35,975 292 488 0
2019-04-16 01:16:39 GMT 54.904861 -6.382410 36,000 292 488 0
2019-04-16 01:16:36 GMT 54.903103 -6.374734 35,975 292 488 0
2019-04-16 01:16:33 GMT 54.900265 -6.362416 36,000 292 488 0
2019-04-16 01:16:30 GMT 54.897858 -6.351875 35,975 292 488 0
2019-04-16 01:16:26 GMT 54.894585 -6.337696 35,975 292 488 -64
2019-04-16 01:16:23 GMT 54.891281 -6.323131 35,975 292 488 -64
2019-04-16 01:16:20 GMT 54.889160 -6.314069 36,000 292 488 -64
2019-04-16 01:16:17 GMT 54.887009 -6.304617 36,000 292 488 -64
2019-04-16 01:16:14 GMT 54.881653 -6.281433 35,975 292 487 -64
2019-04-16 01:16:11 GMT 54.878998 -6.269801 35,975 292 487 -64
2019-04-16 01:16:08 GMT 54.878998 -6.269801 36,000 292 487 -64
2019-04-16 01:16:05 GMT 54.876984 -6.261076 35,975 292 487 -64
2019-04-16 01:16:02 GMT 54.875015 -6.252352 36,000 292 487 -64
2019-04-16 01:15:59 GMT 54.872177 -6.240073 36,000 292 487 -64
2019-04-16 01:15:55 GMT 54.868748 -6.225170 36,000 292 487 -64
2019-04-16 01:15:52 GMT 54.866135 -6.213980 36,000 292 487 -64
2019-04-16 01:15:49 GMT 54.863720 -6.203447 36,000 292 487 -64
2019-04-16 01:15:46 GMT 54.860695 -6.190463 36,000 292 487 0
2019-04-16 01:15:43 GMT 54.858765 -6.182071 35,975 292 487 -64
2019-04-16 01:15:40 GMT 54.856247 -6.171247 36,000 292 487 0
2019-04-16 01:15:36 GMT 54.852318 -6.154341 36,000 292 486 -64
2019-04-16 01:15:33 GMT 54.850571 -6.146689 36,000 292 486 -64
2019-04-16 01:15:30 GMT 54.847614 -6.134116 36,000 292 486 0
2019-04-16 01:15:27 GMT 54.845032 -6.122939 35,975 292 486 0
2019-04-16 01:15:23 GMT 54.841003 -6.105652 35,975 292 485 0
2019-04-16 01:15:20 GMT 54.838989 -6.096927 36,000 292 485 0
2019-04-16 01:15:17 GMT 54.836906 -6.087924 36,000 292 485 0
2019-04-16 01:15:13 GMT 54.833042 -6.071361 35,975 293 485 0
2019-04-16 01:15:09 GMT 54.830528 -6.060625 35,975 293 485 0
2019-04-16 01:15:06 GMT 54.826851 -6.044728 36,000 293 485 0
2019-04-16 01:15:03 GMT 54.824337 -6.033991 35,975 293 485 0
2019-04-16 01:15:00 GMT 54.822662 -6.026750 35,975 293 485 0
2019-04-16 01:14:57 GMT 54.820038 -6.015580 35,975 293 485 0
2019-04-16 01:14:54 GMT 54.817448 -6.004444 35,975 293 485 0
2019-04-16 01:14:50 GMT 54.813259 -5.986467 35,975 293 485 0
2019-04-16 01:14:47 GMT 54.809532 -5.970653 36,000 292 486 -64
2019-04-16 01:14:44 GMT 54.806881 -5.959084 36,000 292 486 -64
2019-04-16 01:14:41 GMT 54.804367 -5.948348 36,000 292 486 -64
2019-04-16 01:14:38 GMT 54.804367 -5.948348 36,000 293 483 -64
2019-04-16 01:14:34 GMT 54.800400 -5.931405 36,000 292 486 -64
2019-04-16 01:14:28 GMT 54.795753 -5.911643 36,000 293 485 -64
2019-04-16 01:14:24 GMT 54.792480 -5.897558 35,975 293 485 -64
2019-04-16 01:14:21 GMT 54.790215 -5.887923 36,000 293 485 -64
2019-04-16 01:14:18 GMT 54.786537 -5.872109 35,975 293 484 -64
2019-04-16 01:14:15 GMT 54.783600 -5.859510 35,975 293 484 -64
2019-04-16 01:14:12 GMT 54.782410 -5.854501 35,975 293 484 -64
2019-04-16 01:14:09 GMT 54.779892 -5.843757 36,000 293 483 -64
2019-04-16 01:14:06 GMT 54.776947 -5.831243 36,000 293 483 -64
2019-04-16 01:14:03 GMT 54.774536 -5.820896 36,000 293 483 -64
2019-04-16 01:14:00 GMT 54.772247 -5.811185 36,000 293 483 -64
2019-04-16 01:13:57 GMT 54.769733 -5.800532 36,000 293 483 -64
2019-04-16 01:13:54 GMT 54.766335 -5.786216 36,000 293 483 0
2019-04-16 01:13:51 GMT 54.764660 -5.779058 35,975 293 483 64
2019-04-16 01:13:47 GMT 54.757141 -5.747384 35,975 293 483 64
2019-04-16 01:13:43 GMT 54.757141 -5.747384 35,975 293 483 64
2019-04-16 01:13:39 GMT 54.751297 -5.722795 35,975 293 483 64
2019-04-16 01:13:36 GMT 54.751297 -5.722795 35,975 293 483 0
2019-04-16 01:13:33 GMT 54.749222 -5.713860 36,000 293 483 -64
2019-04-16 01:13:29 GMT 54.742733 -5.686340 36,000 293 483 -64
2019-04-16 01:13:25 GMT 54.742733 -5.686340 36,000 293 483 -128
2019-04-16 01:13:22 GMT 54.740616 -5.677427 36,000 293 483 -64
2019-04-16 01:13:19 GMT 54.738098 -5.666683 36,000 293 483 -64
2019-04-16 01:13:16 GMT 54.734444 -5.651301 36,000 293 484 -64
2019-04-16 01:13:13 GMT 54.732651 -5.643822 36,000 293 484 0
2019-04-16 01:13:10 GMT 54.730209 -5.633489 36,000 293 485 0
2019-04-16 01:13:07 GMT 54.727322 -5.621338 36,000 293 485 0
2019-04-16 01:13:03 GMT 54.723087 -5.603443 35,975 293 485 64
2019-04-16 01:13:00 GMT 54.721436 -5.596646 35,975 293 485 64
2019-04-16 01:12:57 GMT 54.718552 -5.584448 35,975 293 485 -64
2019-04-16 01:12:54 GMT 54.716431 -5.575562 35,975 293 486 -64
2019-04-16 01:12:51 GMT 54.713867 -5.564825 35,975 293 485 -64
2019-04-16 01:12:48 GMT 54.710983 -5.552590 35,975 293 486 -64
2019-04-16 01:12:45 GMT 54.705963 -5.531455 36,000 293 486 -64
2019-04-16 01:12:42 GMT 54.705963 -5.531455 36,000 293 486 -64
2019-04-16 01:12:38 GMT 54.702713 -5.517803 36,000 293 487 -64
2019-04-16 01:12:35 GMT 54.700470 -5.508513 36,000 293 487 -64
2019-04-16 01:12:32 GMT 54.697906 -5.497688 36,000 293 487 -64
2019-04-16 01:12:29 GMT 54.695293 -5.486589 35,975 293 488 -64
2019-04-16 01:12:26 GMT 54.691406 -5.470384 35,975 293 488 -64
2019-04-16 01:12:23 GMT 54.690216 -5.465294 35,975 293 489 -64
2019-04-16 01:12:20 GMT 54.687195 -5.452714 35,975 293 489 -64
2019-04-16 01:12:17 GMT 54.685043 -5.443726 36,000 293 489 -64
2019-04-16 01:12:14 GMT 54.681793 -5.430073 35,975 293 489 -64
2019-04-16 01:12:11 GMT 54.676804 -5.409151 35,975 293 489 -64
2019-04-16 01:12:08 GMT 54.676804 -5.409151 36,000 293 489 -64
2019-04-16 01:12:05 GMT 54.675064 -5.401961 35,975 293 489 -64
2019-04-16 01:12:02 GMT 54.672020 -5.389377 36,000 293 490 -64
2019-04-16 01:11:59 GMT 54.668247 -5.373480 36,000 293 490 -64
2019-04-16 01:11:56 GMT 54.666664 -5.366988 36,000 293 490 -64
2019-04-16 01:11:53 GMT 54.661057 -5.343556 36,000 293 490 -64
2019-04-16 01:11:50 GMT 54.661057 -5.343556 36,000 293 490 -64
2019-04-16 01:11:47 GMT 54.658813 -5.334185 36,000 293 490 -64
2019-04-16 01:11:44 GMT 54.656204 -5.323441 35,975 293 490 0
2019-04-16 01:11:41 GMT 54.653961 -5.314071 36,000 293 490 0
2019-04-16 01:11:38 GMT 54.650665 -5.300338 36,000 293 490 0
2019-04-16 01:11:35 GMT 54.648464 -5.291332 35,975 293 490 0
2019-04-16 01:11:32 GMT 54.645630 -5.279496 35,975 293 490 0
2019-04-16 01:11:29 GMT 54.643436 -5.270441 35,975 293 490 0
2019-04-16 01:11:26 GMT 54.640045 -5.256393 35,975 293 490 -64
2019-04-16 01:11:23 GMT 54.637897 -5.247387 35,975 293 491 -64
2019-04-16 01:11:20 GMT 54.634918 -5.235069 35,975 293 491 -64
2019-04-16 01:11:17 GMT 54.633007 -5.227162 36,000 293 491 -64
2019-04-16 01:11:13 GMT 54.629242 -5.211639 36,000 293 491 -64
2019-04-16 01:11:10 GMT 54.626312 -5.199361 36,000 293 493 -64
2019-04-16 01:11:07 GMT 54.624443 -5.191789 36,000 293 492 -64
2019-04-16 01:11:04 GMT 54.621834 -5.180886 35,975 293 493 -64
2019-04-16 01:11:01 GMT 54.617973 -5.164989 35,975 293 493 -64
2019-04-16 01:10:58 GMT 54.616150 -5.157354 36,000 293 493 -64
2019-04-16 01:10:55 GMT 54.613781 -5.147594 36,000 293 493 -128
2019-04-16 01:10:52 GMT 54.610886 -5.135704 36,000 293 493 -64
2019-04-16 01:10:49 GMT 54.608047 -5.124072 36,000 293 493 -64
2019-04-16 01:10:43 GMT 54.602921 -5.103149 35,975 293 493 0
2019-04-16 01:10:40 GMT 54.599396 -5.088689 36,000 293 493 0
2019-04-16 01:10:37 GMT 54.597908 -5.082508 36,000 293 493 0
2019-04-16 01:10:33 GMT 54.592972 -5.062284 35,975 293 493 0
2019-04-16 01:10:30 GMT 54.588638 -5.044583 36,000 293 493 0
2019-04-16 01:10:27 GMT 54.588638 -5.044583 36,000 293 492 -64
2019-04-16 01:10:24 GMT 54.586128 -5.034152 36,000 293 492 0
2019-04-16 01:10:21 GMT 54.583740 -5.024387 36,000 293 492 0
2019-04-16 01:10:18 GMT 54.581268 -5.014289 36,000 293 492 -64
2019-04-16 01:10:15 GMT 54.577927 -5.000556 36,000 293 492 -64
2019-04-16 01:10:12 GMT 54.575638 -4.991186 36,000 293 492 -64
2019-04-16 01:10:09 GMT 54.572296 -4.977453 36,000 293 492 0
2019-04-16 01:10:06 GMT 54.570511 -4.970263 35,975 293 492 -64
2019-04-16 01:10:03 GMT 54.567974 -4.959828 35,975 293 492 -64
2019-04-16 01:10:00 GMT 54.564697 -4.946433 35,975 293 492 -64
2019-04-16 01:09:57 GMT 54.562622 -4.938188 35,975 293 492 -64
2019-04-16 01:09:54 GMT 54.558655 -4.921956 36,000 293 492 -64
2019-04-16 01:09:51 GMT 54.557236 -4.916220 35,975 293 492 0
2019-04-16 01:09:47 GMT 54.550938 -4.890581 35,975 293 492 -64
2019-04-16 01:09:44 GMT 54.550938 -4.890581 36,000 293 492 -64
2019-04-16 01:09:41 GMT 54.548218 -4.879384 35,975 293 492 -64
2019-04-16 01:09:37 GMT 54.544746 -4.865362 35,975 293 492 -64
2019-04-16 01:09:34 GMT 54.542175 -4.854907 36,000 293 492 -64
2019-04-16 01:09:31 GMT 54.539520 -4.844082 36,000 294 493 -64
2019-04-16 01:09:28 GMT 54.536739 -4.832902 36,000 294 493 -64
2019-04-16 01:09:25 GMT 54.534641 -4.824246 36,000 294 493 -64
2019-04-16 01:09:22 GMT 54.531059 -4.809848 36,000 294 493 -64
2019-04-16 01:09:19 GMT 54.527756 -4.796582 36,000 294 492 -64
2019-04-16 01:09:16 GMT 54.525970 -4.789393 36,000 294 492 -64
2019-04-16 01:09:13 GMT 54.522949 -4.777114 36,000 294 492 0
2019-04-16 01:09:10 GMT 54.521164 -4.769924 35,975 294 492 0
2019-04-16 01:09:07 GMT 54.518509 -4.759180 35,975 293 492 -64
2019-04-16 01:09:04 GMT 54.515045 -4.745178 36,000 293 491 0
2019-04-16 01:09:01 GMT 54.512577 -4.735107 36,000 293 491 0
2019-04-16 01:08:57 GMT 54.509125 -4.721132 35,975 294 491 -64
2019-04-16 01:08:54 GMT 54.506199 -4.709306 35,975 294 491 64
2019-04-16 01:08:51 GMT 54.503731 -4.699235 35,975 294 491 0
2019-04-16 01:08:46 GMT 54.499054 -4.680257 35,975 294 490 -64
2019-04-16 01:08:43 GMT 54.496719 -4.670967 35,975 294 490 -64
2019-04-16 01:08:40 GMT 54.490791 -4.646967 35,975 294 490 -64
2019-04-16 01:08:36 GMT 54.490791 -4.646967 36,000 294 490 -64
2019-04-16 01:08:33 GMT 54.487701 -4.634453 36,000 294 490 -64
2019-04-16 01:08:30 GMT 54.485229 -4.624517 36,000 294 490 -64
2019-04-16 01:08:26 GMT 54.480873 -4.607017 36,000 294 489 -64
2019-04-16 01:08:23 GMT 54.478920 -4.599110 36,000 294 489 -64
2019-04-16 01:08:20 GMT 54.476532 -4.589539 36,000 294 489 -64
2019-04-16 01:08:16 GMT 54.473007 -4.575240 36,000 294 489 -64
2019-04-16 01:08:13 GMT 54.469803 -4.562477 35,975 294 488 0
2019-04-16 01:08:09 GMT 54.467422 -4.552834 35,975 294 488 -64
2019-04-16 01:08:06 GMT 54.463512 -4.537187 35,975 294 488 0
2019-04-16 01:08:03 GMT 54.460785 -4.526206 35,975 294 488 -64
2019-04-16 01:08:00 GMT 54.458313 -4.516189 35,975 294 488 0
2019-04-16 01:07:56 GMT 54.455292 -4.504152 35,975 294 488 0
2019-04-16 01:07:53 GMT 54.451904 -4.490581 36,000 294 488 0
2019-04-16 01:07:50 GMT 54.450058 -4.483171 35,975 294 488 -64
2019-04-16 01:07:47 GMT 54.447731 -4.473932 35,975 294 487 -64
2019-04-16 01:07:44 GMT 54.444889 -4.462530 35,975 294 487 -64
2019-04-16 01:07:41 GMT 54.442005 -4.451211 35,975 294 488 -64
2019-04-16 01:07:38 GMT 54.438095 -4.435564 36,000 294 488 -64
2019-04-16 01:07:35 GMT 54.436020 -4.427409 35,975 294 488 -64
2019-04-16 01:07:32 GMT 54.433319 -4.416746 36,000 294 488 -64
2019-04-16 01:07:29 GMT 54.431622 -4.410012 36,000 294 488 -64
2019-04-16 01:07:26 GMT 54.428146 -4.396228 36,000 294 489 -64
2019-04-16 01:07:23 GMT 54.426361 -4.389119 35,975 294 488 -64
2019-04-16 01:07:20 GMT 54.423244 -4.376637 35,975 294 488 -64
2019-04-16 01:07:17 GMT 54.420170 -4.364569 35,975 294 485 0
2019-04-16 01:07:14 GMT 54.417435 -4.353575 35,975 294 488 -64
2019-04-16 01:07:11 GMT 54.412628 -4.334430 36,000 294 488 -64
2019-04-16 01:07:08 GMT 54.409649 -4.322704 36,000 294 487 -64
2019-04-16 01:07:05 GMT 54.409649 -4.322704 36,000 294 488 -64
2019-04-16 01:07:02 GMT 54.407089 -4.312457 36,000 294 488 -64
2019-04-16 01:06:59 GMT 54.404297 -4.301480 36,000 294 488 -64
2019-04-16 01:06:56 GMT 54.401184 -4.289030 36,000 294 488 -64
2019-04-16 01:06:53 GMT 54.399033 -4.280548 36,000 294 486 -64
2019-04-16 01:06:50 GMT 54.395916 -4.268188 36,000 294 486 0
2019-04-16 01:06:47 GMT 54.393356 -4.257929 35,975 294 486 0
2019-04-16 01:06:44 GMT 54.388096 -4.237061 35,975 294 486 0
2019-04-16 01:06:41 GMT 54.388096 -4.237061 35,975 294 485 0
2019-04-16 01:06:38 GMT 54.385666 -4.227555 36,000 294 485 0
2019-04-16 01:06:35 GMT 54.382370 -4.214505 36,000 294 485 0
2019-04-16 01:06:32 GMT 54.379856 -4.204601 36,000 294 485 0
2019-04-16 01:06:29 GMT 54.377716 -4.196195 36,000 294 485 0
2019-04-16 01:06:26 GMT 54.375061 -4.185625 36,000 294 485 0
2019-04-16 01:06:23 GMT 54.371479 -4.171559 35,975 294 485 0
2019-04-16 01:06:20 GMT 54.369335 -4.163153 36,000 294 485 0
2019-04-16 01:06:17 GMT 54.366943 -4.153640 36,000 294 484 0
2019-04-16 01:06:14 GMT 54.364170 -4.142761 35,975 294 485 0
2019-04-16 01:06:11 GMT 54.360771 -4.129361 35,975 294 484 0
2019-04-16 01:06:08 GMT 54.359436 -4.124154 36,000 294 484 0
2019-04-16 01:06:05 GMT 54.356049 -4.110745 35,975 294 484 0
2019-04-16 01:06:02 GMT 54.353275 -4.099898 35,975 294 484 0
2019-04-16 01:05:59 GMT 54.348106 -4.079590 35,975 294 484 0
2019-04-16 01:05:56 GMT 54.348106 -4.079590 35,975 294 484 0
2019-04-16 01:05:53 GMT 54.345081 -4.067605 36,000 294 484 -64
2019-04-16 01:05:50 GMT 54.342453 -4.057429 36,000 294 484 -64
2019-04-16 01:05:47 GMT 54.340054 -4.047963 35,975 294 484 -64
2019-04-16 01:05:44 GMT 54.336842 -4.035312 35,975 294 484 0
2019-04-16 01:05:41 GMT 54.334328 -4.025491 36,000 294 484 -64
2019-04-16 01:05:38 GMT 54.332291 -4.017442 35,975 294 484 -64
2019-04-16 01:05:35 GMT 54.326088 -3.993281 35,975 294 484 -64
2019-04-16 01:05:32 GMT 54.326088 -3.993281 35,975 294 484 -64
2019-04-16 01:05:29 GMT 54.324234 -3.985856 36,000 294 484 -64
2019-04-16 01:05:25 GMT 54.320175 -3.970143 36,000 294 484 -64
2019-04-16 01:05:22 GMT 54.317917 -3.961379 36,000 294 484 -64
2019-04-16 01:05:19 GMT 54.314964 -3.949751 36,000 294 484 -64
2019-04-16 01:05:16 GMT 54.311829 -3.937548 36,000 294 484 -64
2019-04-16 01:05:13 GMT 54.309128 -3.927047 36,000 294 484 0
2019-04-16 01:05:10 GMT 54.306656 -3.917191 36,000 294 484 0
2019-04-16 01:05:07 GMT 54.304642 -3.909517 35,975 294 484 0
2019-04-16 01:05:04 GMT 54.300705 -3.894169 35,975 294 483 0
2019-04-16 01:05:01 GMT 54.298485 -3.885415 35,975 294 483 64
2019-04-16 01:04:58 GMT 54.296036 -3.875993 35,975 294 483 0
2019-04-16 01:04:55 GMT 54.293270 -3.865107 35,975 294 483 0
2019-04-16 01:04:52 GMT 54.290569 -3.854703 35,975 294 483 -64
2019-04-16 01:04:49 GMT 54.287357 -3.842135 35,975 294 483 -64
2019-04-16 01:04:45 GMT 54.282028 -3.821546 35,975 294 483 -64
2019-04-16 01:04:42 GMT 54.278374 -3.807262 35,975 294 483 -64
2019-04-16 01:04:39 GMT 54.278374 -3.807262 36,000 294 483 -64
2019-04-16 01:04:35 GMT 54.275112 -3.794645 36,000 294 483 -64
2019-04-16 01:04:32 GMT 54.272972 -3.786325 36,000 294 483 -64
2019-04-16 01:04:28 GMT 54.269341 -3.772350 36,000 294 483 -64
2019-04-16 01:04:25 GMT 54.266373 -3.760856 36,000 294 483 -64
2019-04-16 01:04:22 GMT 54.263756 -3.750700 36,000 294 483 -64
2019-04-16 01:04:19 GMT 54.260124 -3.736806 36,000 294 483 -64
2019-04-16 01:04:16 GMT 54.258308 -3.729778 36,000 294 483 -64
2019-04-16 01:04:13 GMT 54.255608 -3.719357 36,000 294 483 -64
2019-04-16 01:04:10 GMT 54.250397 -3.699161 36,000 294 483 -64
2019-04-16 01:04:04 GMT 54.247559 -3.688346 36,000 294 483 -64
2019-04-16 01:04:01 GMT 54.244762 -3.677512 36,000 294 483 -64
2019-04-16 01:03:58 GMT 54.242157 -3.667393 36,000 294 483 0
2019-04-16 01:03:55 GMT 54.239876 -3.658770 36,000 294 483 0
2019-04-16 01:03:52 GMT 54.235916 -3.643422 35,975 294 482 0
2019-04-16 01:03:49 GMT 54.233643 -3.634748 36,000 294 482 0
2019-04-16 01:03:46 GMT 54.231773 -3.627427 35,975 294 482 0
2019-04-16 01:03:43 GMT 54.228973 -3.616699 36,000 294 482 0
2019-04-16 01:03:40 GMT 54.225628 -3.603839 36,000 294 482 -64
2019-04-16 01:03:37 GMT 54.222839 -3.593079 36,000 294 482 0
2019-04-16 01:03:33 GMT 54.216843 -3.570164 36,000 294 482 -64
2019-04-16 01:03:30 GMT 54.216843 -3.570164 36,000 294 482 -64
2019-04-16 01:03:27 GMT 54.214085 -3.559409 36,000 294 482 -64
2019-04-16 01:03:24 GMT 54.211384 -3.548988 35,975 294 482 0
2019-04-16 01:03:21 GMT 54.205490 -3.526454 36,000 294 482 0
2019-04-16 01:03:18 GMT 54.205490 -3.526454 36,000 294 482 -64
2019-04-16 01:03:15 GMT 54.203423 -3.518452 36,000 294 482 0
2019-04-16 01:03:12 GMT 54.199978 -3.505285 35,975 295 481 0
2019-04-16 01:03:09 GMT 54.198025 -3.497691 36,000 295 482 0
2019-04-16 01:03:06 GMT 54.195278 -3.487271 35,975 295 482 0
2019-04-16 01:03:03 GMT 54.192673 -3.477251 35,975 295 482 0
2019-04-16 01:03:00 GMT 54.189011 -3.463361 35,975 295 482 0
2019-04-16 01:02:57 GMT 54.186199 -3.452615 35,975 295 483 0
2019-04-16 01:02:54 GMT 54.183498 -3.442194 35,975 295 483 -64
2019-04-16 01:02:51 GMT 54.180679 -3.431501 36,000 295 483 -64
2019-04-16 01:02:48 GMT 54.178936 -3.424907 35,975 295 483 -64
2019-04-16 01:02:45 GMT 54.176331 -3.414865 36,000 295 483 -64
2019-04-16 01:02:42 GMT 54.173584 -3.404428 36,000 295 483 -64
2019-04-16 01:02:39 GMT 54.170048 -3.390898 36,000 295 483 -64
2019-04-16 01:02:36 GMT 54.167858 -3.382577 35,975 295 483 64
2019-04-16 01:02:33 GMT 54.164474 -3.369742 36,000 295 483 0
2019-04-16 01:02:30 GMT 54.162178 -3.361089 36,000 295 483 0
2019-04-16 01:02:27 GMT 54.159348 -3.350359 35,975 295 483 0
2019-04-16 01:02:24 GMT 54.157059 -3.341702 35,975 295 483 -64
2019-04-16 01:02:21 GMT 54.153305 -3.327445 35,975 295 483 0
2019-04-16 01:02:18 GMT 54.148819 -3.310439 35,975 295 483 0
2019-04-16 01:02:12 GMT 54.145615 -3.298331 36,000 295 483 -64
2019-04-16 01:02:09 GMT 54.142815 -3.287578 36,000 295 483 -64
2019-04-16 01:02:06 GMT 54.140438 -3.278530 36,000 295 484 -64
2019-04-16 01:02:03 GMT 54.137787 -3.268511 36,000 295 484 -64
2019-04-16 01:02:00 GMT 54.134491 -3.255955 36,000 295 484 -64
2019-04-16 01:01:57 GMT 54.131641 -3.245248 36,000 295 484 -64
2019-04-16 01:01:54 GMT 54.128010 -3.231354 35,975 295 484 0
2019-04-16 01:01:51 GMT 54.123821 -3.215359 35,975 295 484 64
2019-04-16 01:01:48 GMT 54.123821 -3.215359 35,975 295 484 0
2019-04-16 01:01:45 GMT 54.120888 -3.204292 35,975 295 484 0
2019-04-16 01:01:42 GMT 54.118511 -3.195244 35,975 295 484 0
2019-04-16 01:01:39 GMT 54.115208 -3.182804 35,975 295 484 0
2019-04-16 01:01:36 GMT 54.112015 -3.170654 35,975 295 484 -64
2019-04-16 01:01:33 GMT 54.110184 -3.163670 36,000 294 483 0
2019-04-16 01:01:30 GMT 54.107155 -3.152268 35,975 295 484 -64
2019-04-16 01:01:27 GMT 54.104408 -3.141847 36,000 295 484 -64
2019-04-16 01:01:24 GMT 54.099335 -3.122785 36,000 295 484 -64
2019-04-16 01:01:21 GMT 54.099335 -3.122785 36,000 295 484 -64
2019-04-16 01:01:18 GMT 54.096073 -3.110666 36,000 295 484 -64
2019-04-16 01:01:15 GMT 54.093063 -3.099243 36,000 295 484 -64
2019-04-16 01:01:12 GMT 54.090908 -3.091278 36,000 295 485 -64
2019-04-16 01:01:09 GMT 54.087112 -3.077035 36,000 295 484 0
2019-04-16 01:01:06 GMT 54.085052 -3.069423 36,000 295 484 -64
2019-04-16 01:01:03 GMT 54.079548 -3.049110 36,000 295 484 -64
2019-04-16 01:01:00 GMT 54.079548 -3.049110 36,000 295 483 0
2019-04-16 01:00:57 GMT 54.077042 -3.039682 36,000 294 483 0
2019-04-16 01:00:54 GMT 54.074341 -3.029323 36,000 294 483 0
2019-04-16 01:00:51 GMT 54.071686 -3.018886 35,975 293 482 0
2019-04-16 01:00:48 GMT 54.068710 -3.006958 35,975 293 482 0
2019-04-16 01:00:45 GMT 54.066193 -2.996521 36,000 293 482 0
2019-04-16 01:00:42 GMT 54.063858 -2.986633 36,000 291 481 -64
2019-04-16 01:00:39 GMT 54.061249 -2.975412 36,000 292 481 -64
2019-04-16 01:00:36 GMT 54.058044 -2.961286 36,000 292 482 -64
2019-04-16 01:00:33 GMT 54.056877 -2.956049 36,000 290 480 -64
2019-04-16 01:00:30 GMT 54.054016 -2.942923 36,000 287 477 -64
2019-04-16 01:00:27 GMT 54.052128 -2.934077 36,000 290 480 0
2019-04-16 01:00:24 GMT 54.049393 -2.920872 36,000 290 480 -64
2019-04-16 01:00:21 GMT 54.047615 -2.912023 36,000 289 480 -64
2019-04-16 01:00:18 GMT 54.043625 -2.891680 36,000 289 479 0
2019-04-16 01:00:15 GMT 54.043625 -2.891680 36,000 288 478 0
2019-04-16 01:00:12 GMT 54.040924 -2.877319 35,975 288 478 0
2019-04-16 01:00:09 GMT 54.039558 -2.869774 36,000 288 477 0
2019-04-16 01:00:06 GMT 54.037582 -2.858721 36,000 287 478 -64
2019-04-16 01:00:03 GMT 54.035046 -2.843924 36,000 287 477 0
2019-04-16 01:00:00 GMT 54.034065 -2.838189 36,000 286 477 0
2019-04-16 00:59:57 GMT 54.032089 -2.826311 36,000 286 477 -64
2019-04-16 00:59:54 GMT 54.030437 -2.816620 35,975 286 477 -64
2019-04-16 00:59:51 GMT 54.027832 -2.801121 36,000 287 477 0
2019-04-16 00:59:48 GMT 54.026943 -2.795778 36,000 287 477 0
2019-04-16 00:59:45 GMT 54.024811 -2.783151 36,000 287 477 64
2019-04-16 00:59:42 GMT 54.022663 -2.770574 35,975 287 477 64
2019-04-16 00:59:39 GMT 54.020920 -2.760158 35,975 287 477 0
2019-04-16 00:59:36 GMT 54.018658 -2.746905 35,975 287 477 0
2019-04-16 00:59:33 GMT 54.017120 -2.737871 35,975 287 477 64
2019-04-16 00:59:30 GMT 54.015633 -2.728891 35,975 287 477 0
2019-04-16 00:59:27 GMT 54.013962 -2.719195 35,975 287 477 0
2019-04-16 00:59:24 GMT 54.012188 -2.708776 35,975 287 477 0
2019-04-16 00:59:21 GMT 54.009705 -2.694005 35,975 287 478 0
2019-04-16 00:59:18 GMT 54.008240 -2.685372 35,975 287 478 -64
2019-04-16 00:59:15 GMT 54.006695 -2.676383 35,975 287 478 -64
2019-04-16 00:59:12 GMT 54.004787 -2.664831 35,975 287 478 -64
2019-04-16 00:59:09 GMT 54.002598 -2.651825 35,975 287 478 -64
2019-04-16 00:59:06 GMT 54.001053 -2.642840 36,000 287 478 -64
2019-04-16 00:59:03 GMT 53.999130 -2.631304 36,000 287 478 -64
2019-04-16 00:59:00 GMT 53.997196 -2.620078 36,000 287 478 -64
2019-04-16 00:58:57 GMT 53.994827 -2.606036 36,000 287 478 -64
2019-04-16 00:58:54 GMT 53.993591 -2.598816 36,000 287 478 -64
2019-04-16 00:58:51 GMT 53.991852 -2.588771 35,975 287 476 0
2019-04-16 00:58:48 GMT 53.989746 -2.576529 36,000 287 478 0
2019-04-16 00:58:45 GMT 53.987686 -2.564287 36,000 287 478 0
2019-04-16 00:58:42 GMT 53.984024 -2.543093 36,000 287 478 0
2019-04-16 00:58:39 GMT 53.984024 -2.543093 36,000 287 477 0
2019-04-16 00:58:36 GMT 53.982513 -2.534154 36,000 287 477 -64
2019-04-16 00:58:33 GMT 53.981091 -2.525886 35,975 287 476 64
2019-04-16 00:58:30 GMT 53.978485 -2.510861 35,975 287 476 64
2019-04-16 00:58:27 GMT 53.977112 -2.502607 35,975 287 476 64
2019-04-16 00:58:24 GMT 53.974915 -2.489659 35,975 287 476 0
2019-04-16 00:58:21 GMT 53.973541 -2.481812 35,975 287 477 -64
2019-04-16 00:58:18 GMT 53.971642 -2.470631 35,975 287 477 -64
2019-04-16 00:58:15 GMT 53.969788 -2.459525 36,000 287 477 -64
2019-04-16 00:58:12 GMT 53.967957 -2.448774 35,975 287 477 -64
2019-04-16 00:58:09 GMT 53.965775 -2.436218 35,975 287 477 64
2019-04-16 00:58:06 GMT 53.964333 -2.427575 36,000 287 477 -64
2019-04-16 00:58:03 GMT 53.962471 -2.416831 36,000 287 478 -64
2019-04-16 00:58:00 GMT 53.960377 -2.404633 36,000 287 478 -64
2019-04-16 00:57:57 GMT 53.958572 -2.394235 36,000 287 477 -64
2019-04-16 00:57:54 GMT 53.956745 -2.383791 36,000 287 477 0
2019-04-16 00:57:51 GMT 53.955021 -2.373774 36,000 287 477 0
2019-04-16 00:57:48 GMT 53.953217 -2.363395 35,975 287 477 64
2019-04-16 00:57:45 GMT 53.951340 -2.352644 35,975 287 477 64
2019-04-16 00:57:42 GMT 53.948868 -2.338283 35,975 287 477 64
2019-04-16 00:57:39 GMT 53.947292 -2.329344 35,975 287 476 0
2019-04-16 00:57:36 GMT 53.945709 -2.319973 35,975 287 476 0
2019-04-16 00:57:33 GMT 53.943054 -2.304618 35,975 287 476 -64
2019-04-16 00:57:30 GMT 53.941727 -2.296692 35,975 287 476 -64
2019-04-16 00:57:27 GMT 53.939800 -2.285641 35,975 287 477 -64
2019-04-16 00:57:24 GMT 53.937515 -2.272365 36,000 287 479 -64
2019-04-16 00:57:21 GMT 53.936646 -2.267343 36,000 287 477 -64
2019-04-16 00:57:18 GMT 53.934631 -2.255886 35,975 287 477 -64
2019-04-16 00:57:15 GMT 53.930813 -2.233941 36,000 287 474 0
2019-04-16 00:57:12 GMT 53.928905 -2.223197 36,000 287 479 -64
2019-04-16 00:57:09 GMT 53.928905 -2.223197 36,000 287 479 -64
2019-04-16 00:57:06 GMT 53.927135 -2.213180 36,000 287 479 -64
2019-04-16 00:57:03 GMT 53.925156 -2.202053 36,000 287 479 -64
2019-04-16 00:57:00 GMT 53.922947 -2.189511 36,000 287 479 0
2019-04-16 00:56:57 GMT 53.921318 -2.180140 35,975 287 479 0
2019-04-16 00:56:54 GMT 53.919113 -2.167603 35,975 287 478 0
2019-04-16 00:56:51 GMT 53.917545 -2.158652 35,975 287 478 0
2019-04-16 00:56:48 GMT 53.913170 -2.133529 35,975 287 478 0
2019-04-16 00:56:45 GMT 53.913170 -2.133529 35,975 287 478 -64
2019-04-16 00:56:42 GMT 53.911819 -2.125612 35,975 287 478 0
2019-04-16 00:56:39 GMT 53.909958 -2.114868 35,975 287 478 0
2019-04-16 00:56:36 GMT 53.907722 -2.101943 36,000 287 477 -64
2019-04-16 00:56:33 GMT 53.906296 -2.093680 36,000 287 477 -64
2019-04-16 00:56:30 GMT 53.903954 -2.080455 36,000 287 477 -64
2019-04-16 00:56:27 GMT 53.902267 -2.070766 36,000 287 477 -64
2019-04-16 00:56:24 GMT 53.898273 -2.048304 36,000 287 477 -64
2019-04-16 00:56:21 GMT 53.898273 -2.048304 36,000 287 477 -64
2019-04-16 00:56:18 GMT 53.895992 -2.035460 36,000 287 477 -64
2019-04-16 00:56:15 GMT 53.894806 -2.028625 36,000 287 476 0
2019-04-16 00:56:12 GMT 53.893158 -2.019366 36,000 287 476 0
2019-04-16 00:56:09 GMT 53.891197 -2.008317 36,000 287 476 -64
2019-04-16 00:56:06 GMT 53.889290 -1.997654 36,000 287 476 0
2019-04-16 00:56:03 GMT 53.887344 -1.986564 35,975 287 475 64
2019-04-16 00:56:00 GMT 53.885330 -1.975185 36,000 287 474 0
2019-04-16 00:55:57 GMT 53.883144 -1.962756 35,975 287 475 0
2019-04-16 00:55:54 GMT 53.881470 -1.953466 35,975 287 474 0
2019-04-16 00:55:51 GMT 53.879791 -1.943874 35,975 287 474 0
2019-04-16 00:55:48 GMT 53.877914 -1.933280 35,975 287 474 -64
2019-04-16 00:55:45 GMT 53.875992 -1.922607 35,975 287 474 -64
2019-04-16 00:55:42 GMT 53.874207 -1.912267 35,975 287 474 -64
2019-04-16 00:55:39 GMT 53.869858 -1.887765 36,000 287 474 -64
2019-04-16 00:55:36 GMT 53.869858 -1.887765 36,000 287 474 -64
2019-04-16 00:55:33 GMT 53.868347 -1.879290 36,000 287 474 -64
2019-04-16 00:55:30 GMT 53.866386 -1.868241 36,000 287 473 -64
2019-04-16 00:55:27 GMT 53.864758 -1.859032 36,000 287 473 -64
2019-04-16 00:55:24 GMT 53.862167 -1.844526 36,000 287 474 0
2019-04-16 00:55:21 GMT 53.860847 -1.837059 36,000 287 474 0
2019-04-16 00:55:18 GMT 53.858334 -1.822842 35,975 287 474 64
2019-04-16 00:55:15 GMT 53.854702 -1.802323 35,975 287 474 0
2019-04-16 00:55:12 GMT 53.854702 -1.802323 35,975 287 474 0
2019-04-16 00:55:09 GMT 53.852966 -1.792812 36,000 287 473 -64
2019-04-16 00:55:06 GMT 53.851257 -1.783259 36,000 287 473 -64
2019-04-16 00:55:03 GMT 53.849396 -1.772596 35,975 287 473 -64
2019-04-16 00:55:00 GMT 53.847931 -1.764483 36,000 287 473 -64
2019-04-16 00:54:57 GMT 53.845718 -1.752077 36,000 287 473 0
2019-04-16 00:54:54 GMT 53.843491 -1.739685 35,975 287 473 -64
2019-04-16 00:54:51 GMT 53.841900 -1.730831 36,000 287 473 0
2019-04-16 00:54:48 GMT 53.839828 -1.719203 35,975 287 473 0
2019-04-16 00:54:45 GMT 53.837906 -1.708609 36,000 287 473 0
2019-04-16 00:54:42 GMT 53.834965 -1.691975 35,975 287 473 -64
2019-04-16 00:54:39 GMT 53.833939 -1.686321 36,000 287 473 0
2019-04-16 00:54:36 GMT 53.832596 -1.678946 36,000 287 473 0
2019-04-16 00:54:33 GMT 53.830170 -1.665527 35,975 287 473 0
2019-04-16 00:54:30 GMT 53.828587 -1.656674 35,975 287 473 0
2019-04-16 00:54:27 GMT 53.826645 -1.645673 35,975 287 473 0
2019-04-16 00:54:24 GMT 53.824722 -1.635080 35,975 287 473 -64
2019-04-16 00:54:21 GMT 53.821091 -1.614990 36,000 287 473 -64
2019-04-16 00:54:18 GMT 53.821091 -1.614990 36,000 287 473 -64
2019-04-16 00:54:15 GMT 53.819088 -1.603681 36,000 287 473 -64
2019-04-16 00:54:12 GMT 53.817272 -1.593825 36,000 287 473 -64
2019-04-16 00:54:09 GMT 53.814991 -1.581062 36,000 287 473 -64
2019-04-16 00:54:06 GMT 53.813316 -1.571934 36,000 287 473 0
2019-04-16 00:54:03 GMT 53.811127 -1.559588 36,000 287 472 0
2019-04-16 00:54:00 GMT 53.808792 -1.546875 36,000 287 472 -64
2019-04-16 00:53:57 GMT 53.807732 -1.540833 36,000 287 472 0
2019-04-16 00:53:54 GMT 53.805496 -1.528512 36,000 287 472 0
2019-04-16 00:53:51 GMT 53.803436 -1.517212 36,000 288 472 -64
2019-04-16 00:53:48 GMT 53.801723 -1.507712 36,000 288 472 -64
2019-04-16 00:53:45 GMT 53.799500 -1.495396 35,975 287 472 -64
2019-04-16 00:53:42 GMT 53.797806 -1.486293 35,975 287 472 -64
2019-04-16 00:53:39 GMT 53.795929 -1.475699 35,975 288 471 0
2019-04-16 00:53:36 GMT 53.793671 -1.463363 35,975 288 471 -64
2019-04-16 00:53:33 GMT 53.792416 -1.456335 36,000 288 471 0
2019-04-16 00:53:30 GMT 53.790573 -1.446193 36,000 288 471 -64
2019-04-16 00:53:27 GMT 53.788239 -1.433480 35,975 288 471 -64
2019-04-16 00:53:24 GMT 53.786087 -1.421552 36,000 288 471 0
2019-04-16 00:53:21 GMT 53.784500 -1.412793 35,975 288 470 0
2019-04-16 00:53:18 GMT 53.782745 -1.403268 35,975 288 471 0
2019-04-16 00:53:15 GMT 53.780823 -1.392753 35,975 288 470 -64
2019-04-16 00:53:12 GMT 53.778450 -1.379754 35,975 288 470 0
2019-04-16 00:53:09 GMT 53.776978 -1.371722 36,000 288 470 0
2019-04-16 00:53:06 GMT 53.774632 -1.358750 35,975 288 470 0
2019-04-16 00:53:03 GMT 53.772675 -1.348168 35,975 288 470 0
2019-04-16 00:53:00 GMT 53.770844 -1.338056 35,975 288 470 0
2019-04-16 00:52:57 GMT 53.768860 -1.327165 35,975 288 470 0
2019-04-16 00:52:54 GMT 53.767555 -1.320137 35,975 288 470 -64
2019-04-16 00:52:51 GMT 53.764854 -1.305434 36,000 288 470 0
2019-04-16 00:52:48 GMT 53.763382 -1.297328 35,975 288 470 -64
2019-04-16 00:52:45 GMT 53.761410 -1.286451 36,000 288 470 -64
2019-04-16 00:52:42 GMT 53.759537 -1.276297 35,975 288 470 -64
2019-04-16 00:52:39 GMT 53.757614 -1.265782 36,000 288 470 -64
2019-04-16 00:52:36 GMT 53.755779 -1.255673 35,975 288 470 -64
2019-04-16 00:52:33 GMT 53.752716 -1.239179 36,000 288 471 -64
2019-04-16 00:52:30 GMT 53.749958 -1.224087 36,000 288 471 -64
2019-04-16 00:52:27 GMT 53.749958 -1.224087 36,000 288 470 -64
2019-04-16 00:52:24 GMT 53.748142 -1.214312 35,975 288 471 0
2019-04-16 00:52:21 GMT 53.745758 -1.201355 35,975 288 471 0
2019-04-16 00:52:18 GMT 53.742279 -1.182443 35,975 288 471 0
2019-04-16 00:52:15 GMT 53.742279 -1.182443 35,975 288 471 0
2019-04-16 00:52:12 GMT 53.739944 -1.169809 35,975 288 471 0
2019-04-16 00:52:09 GMT 53.738251 -1.160706 35,975 288 471 0
2019-04-16 00:52:06 GMT 53.736366 -1.150576 35,975 288 471 -64
2019-04-16 00:52:03 GMT 53.734829 -1.142174 35,975 288 471 -64
2019-04-16 00:52:00 GMT 53.732082 -1.127472 36,000 288 471 -64
2019-04-16 00:51:57 GMT 53.730606 -1.119428 35,975 288 471 -64
2019-04-16 00:51:54 GMT 53.728451 -1.107842 36,000 288 471 -64
2019-04-16 00:51:51 GMT 53.724586 -1.086839 36,000 288 471 -64
2019-04-16 00:51:48 GMT 53.724586 -1.086839 36,000 288 471 -64
2019-04-16 00:51:45 GMT 53.722321 -1.074620 36,000 288 471 -64
2019-04-16 00:51:42 GMT 53.720993 -1.067636 36,000 288 471 -64
2019-04-16 00:51:39 GMT 53.717926 -1.050842 36,000 288 470 -64
2019-04-16 00:51:36 GMT 53.716953 -1.045640 36,000 288 470 -64
2019-04-16 00:51:33 GMT 53.714996 -1.035138 36,000 288 470 -64
2019-04-16 00:51:30 GMT 53.713211 -1.025731 36,000 288 470 -64
2019-04-16 00:51:27 GMT 53.711227 -1.014862 36,000 288 470 -64
2019-04-16 00:51:24 GMT 53.708954 -1.002659 36,000 288 469 0
2019-04-16 00:51:21 GMT 53.706985 -0.992222 36,000 288 469 0
2019-04-16 00:51:18 GMT 53.703094 -0.971270 36,000 288 469 0
2019-04-16 00:51:15 GMT 53.703094 -0.971270 36,000 288 469 -64
2019-04-16 00:51:12 GMT 53.701172 -0.961142 36,000 288 469 0
2019-04-16 00:51:09 GMT 53.699123 -0.949994 36,000 288 469 -64
2019-04-16 00:51:06 GMT 53.697235 -0.939959 35,975 288 469 0
2019-04-16 00:51:02 GMT 53.692978 -0.917278 35,975 288 468 0
2019-04-16 00:50:59 GMT 53.692978 -0.917278 35,975 288 468 0
2019-04-16 00:50:56 GMT 53.690872 -0.905823 36,000 288 468 0
2019-04-16 00:50:53 GMT 53.688976 -0.895790 36,000 288 468 0
2019-04-16 00:50:50 GMT 53.686981 -0.884949 35,975 288 468 0
2019-04-16 00:50:47 GMT 53.684875 -0.873884 36,000 288 468 0
2019-04-16 00:50:44 GMT 53.683250 -0.865173 36,000 288 467 -64
2019-04-16 00:50:41 GMT 53.680481 -0.850263 35,975 288 467 0
2019-04-16 00:50:38 GMT 53.679016 -0.842651 35,975 288 467 0
2019-04-16 00:50:35 GMT 53.677460 -0.834333 35,975 288 467 0
2019-04-16 00:50:32 GMT 53.675400 -0.823268 35,975 288 468 -64
2019-04-16 00:50:29 GMT 53.673294 -0.812125 35,975 288 467 0
2019-04-16 00:50:26 GMT 53.670822 -0.799020 35,975 288 467 0
2019-04-16 00:50:23 GMT 53.669189 -0.790369 35,975 288 466 0
2019-04-16 00:50:20 GMT 53.667469 -0.781322 35,975 288 466 0
2019-04-16 00:50:17 GMT 53.665466 -0.770612 36,000 288 466 0
2019-04-16 00:50:14 GMT 53.663559 -0.760642 35,975 288 466 0
2019-04-16 00:50:11 GMT 53.661804 -0.751308 36,000 288 466 0
2019-04-16 00:50:08 GMT 53.659836 -0.740871 36,000 288 466 0
2019-04-16 00:50:05 GMT 53.657833 -0.730187 36,000 288 466 0
2019-04-16 00:50:02 GMT 53.655304 -0.716701 35,975 288 466 0
2019-04-16 00:49:59 GMT 53.653702 -0.708383 35,975 288 467 0
2019-04-16 00:49:56 GMT 53.650955 -0.693865 35,975 288 467 0
2019-04-16 00:49:53 GMT 53.649261 -0.684919 35,975 288 467 -64
2019-04-16 00:49:50 GMT 53.647568 -0.675973 35,975 288 466 0
2019-04-16 00:49:47 GMT 53.643768 -0.655962 35,975 288 466 0
2019-04-16 00:49:44 GMT 53.643768 -0.655962 35,975 288 466 0
2019-04-16 00:49:41 GMT 53.641724 -0.645285 36,000 288 466 -64
2019-04-16 00:49:38 GMT 53.639694 -0.634539 36,000 288 466 -64
2019-04-16 00:49:35 GMT 53.637814 -0.624524 36,000 288 466 -64
2019-04-16 00:49:32 GMT 53.635300 -0.611438 35,975 288 466 -64
2019-04-16 00:49:29 GMT 53.634064 -0.604876 36,000 288 466 -64
2019-04-16 00:49:26 GMT 53.632042 -0.594231 36,000 288 466 -64
2019-04-16 00:49:23 GMT 53.627571 -0.570724 35,975 288 465 -64
2019-04-16 00:49:20 GMT 53.627571 -0.570724 36,000 288 465 0
2019-04-16 00:49:17 GMT 53.625778 -0.561480 36,000 288 466 -64
2019-04-16 00:49:14 GMT 53.624268 -0.553517 36,000 288 465 -64
2019-04-16 00:49:11 GMT 53.622543 -0.544631 36,000 288 465 -64
2019-04-16 00:49:08 GMT 53.620312 -0.532918 36,000 288 465 0
2019-04-16 00:49:05 GMT 53.618355 -0.522578 36,000 288 465 0
2019-04-16 00:49:02 GMT 53.616402 -0.512238 36,000 288 465 0
2019-04-16 00:48:59 GMT 53.614304 -0.501251 36,000 289 462 -64
2019-04-16 00:48:56 GMT 53.612583 -0.492284 35,975 288 465 0
2019-04-16 00:48:53 GMT 53.610260 -0.480259 35,975 288 464 0
2019-04-16 00:48:50 GMT 53.608627 -0.471685 35,975 288 464 0
2019-04-16 00:48:47 GMT 53.604492 -0.450047 36,000 288 464 0
2019-04-16 00:48:44 GMT 53.604492 -0.450047 35,975 288 464 0
2019-04-16 00:48:41 GMT 53.602524 -0.439767 36,000 288 464 0
2019-04-16 00:48:38 GMT 53.600693 -0.430193 36,000 288 464 0
2019-04-16 00:48:35 GMT 53.598724 -0.419913 36,000 288 464 -64
2019-04-16 00:48:32 GMT 53.596661 -0.409241 35,975 288 464 0
2019-04-16 00:48:29 GMT 53.594376 -0.397234 36,000 288 464 -64
2019-04-16 00:48:26 GMT 53.592705 -0.388722 36,000 288 464 -64
2019-04-16 00:48:23 GMT 53.588886 -0.368850 36,000 288 463 -64
2019-04-16 00:48:20 GMT 53.588886 -0.368850 35,975 288 464 -64
2019-04-16 00:48:17 GMT 53.586685 -0.357527 36,000 288 463 -64
2019-04-16 00:48:14 GMT 53.584442 -0.345912 36,000 288 463 -64
2019-04-16 00:48:11 GMT 53.582790 -0.337345 36,000 288 463 -64
2019-04-16 00:48:08 GMT 53.578766 -0.316485 36,000 288 463 0
2019-04-16 00:48:05 GMT 53.578766 -0.316485 36,000 288 463 -64
2019-04-16 00:48:02 GMT 53.576660 -0.305577 36,000 288 463 -64
2019-04-16 00:47:59 GMT 53.574505 -0.294288 36,000 289 462 -64
2019-04-16 00:47:56 GMT 53.570709 -0.274815 36,000 289 462 -64
2019-04-16 00:47:53 GMT 53.570709 -0.274815 36,000 289 462 0
2019-04-16 00:47:50 GMT 53.568916 -0.265611 36,000 289 462 0
2019-04-16 00:47:47 GMT 53.566402 -0.252605 36,000 289 462 0
2019-04-16 00:47:44 GMT 53.565102 -0.245819 36,000 289 462 0
2019-04-16 00:47:41 GMT 53.563099 -0.235560 35,975 289 462 0
2019-04-16 00:47:38 GMT 53.560959 -0.224654 35,975 289 462 0
2019-04-16 00:47:35 GMT 53.558582 -0.212375 35,975 289 462 0
2019-04-16 00:47:32 GMT 53.556381 -0.201128 35,975 289 462 0
2019-04-16 00:47:29 GMT 53.555138 -0.194684 35,975 289 462 0
2019-04-16 00:47:26 GMT 53.553276 -0.185152 36,000 289 462 0
2019-04-16 00:47:23 GMT 53.550900 -0.172873 36,000 289 462 0
2019-04-16 00:47:20 GMT 53.548527 -0.160594 35,975 289 462 0
2019-04-16 00:47:17 GMT 53.546860 -0.152082 36,000 289 462 0
2019-04-16 00:47:14 GMT 53.544945 -0.142257 35,975 289 462 0
2019-04-16 00:47:11 GMT 53.542431 -0.129251 35,975 289 462 0
2019-04-16 00:47:08 GMT 53.540909 -0.121477 35,975 289 462 0
2019-04-16 00:47:05 GMT 53.538666 -0.109863 36,000 289 462 -64
2019-04-16 00:47:02 GMT 53.536842 -0.100654 36,000 289 462 -64
2019-04-16 00:46:59 GMT 53.535324 -0.092834 36,000 289 462 -64
2019-04-16 00:46:56 GMT 53.530930 -0.070312 36,000 289 462 -64
2019-04-16 00:46:53 GMT 53.530930 -0.070312 36,000 289 462 -64
2019-04-16 00:46:50 GMT 53.529373 -0.062151 36,000 289 462 0
2019-04-16 00:46:47 GMT 53.527161 -0.050973 36,000 289 462 0
2019-04-16 00:46:44 GMT 53.525158 -0.040714 36,000 289 462 0
2019-04-16 00:46:41 GMT 53.522827 -0.028878 35,975 289 462 0
2019-04-16 00:46:38 GMT 53.521152 -0.020357 36,000 289 462 0
2019-04-16 00:46:35 GMT 53.519154 -0.010098 36,000 289 462 0
2019-04-16 00:46:32 GMT 53.517334 -0.000942 36,000 289 462 0
2019-04-16 00:46:29 GMT 53.514908 0.011300 35,975 289 462 -64
2019-04-16 00:46:26 GMT 53.513214 0.020089 36,000 289 462 -64
2019-04-16 00:46:23 GMT 53.511284 0.029970 36,000 289 462 -64
2019-04-16 00:46:20 GMT 53.509377 0.039502 35,975 289 462 -64
2019-04-16 00:46:17 GMT 53.506668 0.053441 36,000 289 462 0
2019-04-16 00:46:14 GMT 53.505280 0.060586 36,000 289 462 -64
2019-04-16 00:46:11 GMT 53.503189 0.071097 36,000 289 462 0
2019-04-16 00:46:08 GMT 53.499207 0.091500 36,000 289 462 0
2019-04-16 00:46:05 GMT 53.499207 0.091500 35,975 289 462 0
2019-04-16 00:46:02 GMT 53.497272 0.101300 36,000 289 462 -64
2019-04-16 00:45:59 GMT 53.494850 0.113579 36,000 289 462 0
2019-04-16 00:45:56 GMT 53.493164 0.122027 36,000 289 461 0
2019-04-16 00:45:53 GMT 53.490990 0.133209 36,000 289 461 0
2019-04-16 00:45:50 GMT 53.489273 0.141724 36,000 289 461 0
2019-04-16 00:45:47 GMT 53.487217 0.152193 36,000 289 461 0
2019-04-16 00:45:44 GMT 53.485214 0.162371 36,000 289 461 0
2019-04-16 00:45:41 GMT 53.482590 0.175624 36,000 289 461 0
2019-04-16 00:45:38 GMT 53.480934 0.184102 35,975 289 461 0
2019-04-16 00:45:35 GMT 53.479164 0.192907 35,975 289 461 0
2019-04-16 00:45:32 GMT 53.477097 0.203404 35,975 289 461 0
2019-04-16 00:45:29 GMT 53.474808 0.214940 35,975 289 461 -64
2019-04-16 00:45:26 GMT 53.472462 0.226835 35,975 289 461 -64
2019-04-16 00:45:23 GMT 53.470505 0.236598 35,975 289 461 -64
2019-04-16 00:45:20 GMT 53.468552 0.246465 36,000 289 461 -64
2019-04-16 00:45:17 GMT 53.466614 0.256295 35,975 289 461 -64
2019-04-16 00:45:14 GMT 53.464737 0.265791 36,000 289 462 -64
2019-04-16 00:45:11 GMT 53.462639 0.276274 36,000 289 462 -64
2019-04-16 00:45:08 GMT 53.460869 0.285079 35,975 289 461 -64
2019-04-16 00:45:05 GMT 53.458542 0.296550 35,975 289 461 -64
2019-04-16 00:45:02 GMT 53.456867 0.304709 36,000 289 461 -64
2019-04-16 00:44:59 GMT 53.454803 0.315151 36,000 289 461 -64
2019-04-16 00:44:56 GMT 53.452789 0.325352 36,000 289 461 -64
2019-04-16 00:44:53 GMT 53.450821 0.335554 36,000 288 461 0
2019-04-16 00:44:50 GMT 53.448624 0.347089 36,000 288 461 -64
2019-04-16 00:44:47 GMT 53.446884 0.356663 36,000 288 461 0
2019-04-16 00:44:44 GMT 53.445145 0.366159 36,000 287 461 -64
2019-04-16 00:44:41 GMT 53.443314 0.376439 35,975 287 461 0
2019-04-16 00:44:38 GMT 53.441391 0.387347 36,000 286 460 0
2019-04-16 00:44:35 GMT 53.438759 0.402778 35,975 286 461 0
2019-04-16 00:44:32 GMT 53.437546 0.410025 35,975 286 460 0
2019-04-16 00:44:29 GMT 53.436081 0.418893 35,975 286 460 0
2019-04-16 00:44:26 GMT 53.434387 0.429252 36,000 286 460 -64
2019-04-16 00:44:23 GMT 53.433105 0.437491 35,975 284 457 0
2019-04-16 00:44:20 GMT 53.431046 0.450518 36,000 285 460 -64
2019-04-16 00:44:17 GMT 53.429771 0.459164 35,975 284 460 -64
2019-04-16 00:44:14 GMT 53.427933 0.471235 36,000 284 460 0
2019-04-16 00:44:11 GMT 53.426651 0.480259 36,000 284 459 -64
2019-04-16 00:44:08 GMT 53.425140 0.490618 36,000 284 459 -64
2019-04-16 00:44:05 GMT 53.423859 0.499564 36,000 284 459 0
2019-04-16 00:44:02 GMT 53.422230 0.511026 36,000 284 459 0
2019-04-16 00:43:59 GMT 53.420834 0.520639 36,000 284 459 0
2019-04-16 00:43:56 GMT 53.419018 0.533079 36,000 284 459 0
2019-04-16 00:43:53 GMT 53.417530 0.543419 36,000 284 459 0
2019-04-16 00:43:50 GMT 53.416214 0.552769 36,000 284 458 0
2019-04-16 00:43:47 GMT 53.414429 0.565168 35,975 284 458 0
2019-04-16 00:43:44 GMT 53.413387 0.572420 36,000 284 458 0
2019-04-16 00:43:41 GMT 53.411476 0.585507 35,975 284 458 0
2019-04-16 00:43:38 GMT 53.409801 0.597220 36,000 284 458 0
2019-04-16 00:43:35 GMT 53.408218 0.608287 35,975 284 458 0
2019-04-16 00:43:32 GMT 53.407429 0.613780 36,000 284 458 0
2019-04-16 00:43:29 GMT 53.405704 0.625494 35,975 284 458 0
2019-04-16 00:43:26 GMT 53.404266 0.635402 35,975 284 458 0
2019-04-16 00:43:23 GMT 53.402725 0.646093 35,975 284 457 0
2019-04-16 00:43:20 GMT 53.401188 0.656433 35,975 284 457 0
2019-04-16 00:43:17 GMT 53.399963 0.664987 35,975 284 458 0
2019-04-16 00:43:14 GMT 53.398270 0.676758 36,000 284 458 0
2019-04-16 00:43:11 GMT 53.396255 0.690491 36,000 284 458 -64
2019-04-16 00:43:08 GMT 53.395325 0.696986 36,000 284 458 0
2019-04-16 00:43:05 GMT 53.392365 0.717329 35,975 284 458 0
2019-04-16 00:43:02 GMT 53.392365 0.717329 35,975 284 458 0
2019-04-16 00:42:59 GMT 53.390533 0.729649 35,975 284 458 0
2019-04-16 00:42:56 GMT 53.389023 0.740008 35,975 284 458 0
2019-04-16 00:42:53 GMT 53.387596 0.749978 35,975 284 459 0
2019-04-16 00:42:50 GMT 53.386322 0.758606 36,000 284 459 -64
2019-04-16 00:42:47 GMT 53.384850 0.768558 35,975 284 459 -64
2019-04-16 00:42:44 GMT 53.383362 0.778898 36,000 284 459 -64
2019-04-16 00:42:41 GMT 53.381607 0.790937 36,000 284 459 -64
2019-04-16 00:42:38 GMT 53.380333 0.799498 36,000 284 459 -64
2019-04-16 00:42:35 GMT 53.378845 0.809838 36,000 284 459 -64
2019-04-16 00:42:32 GMT 53.377216 0.820905 36,000 284 459 -64
2019-04-16 00:42:29 GMT 53.375259 0.833911 36,000 284 459 -64
2019-04-16 00:42:26 GMT 53.374329 0.840454 36,000 284 459 -64
2019-04-16 00:42:23 GMT 53.372326 0.853945 36,000 284 458 0
2019-04-16 00:42:20 GMT 53.371117 0.862184 36,000 284 459 0
2019-04-16 00:42:17 GMT 53.369614 0.872158 36,000 284 459 0
2019-04-16 00:42:11 GMT 53.364971 0.903464 36,000 284 459 -64
2019-04-16 00:42:08 GMT 53.364971 0.903464 36,000 284 458 0
2019-04-16 00:42:05 GMT 53.363575 0.913077 36,000 284 458 0
2019-04-16 00:42:02 GMT 53.361786 0.925127 36,000 284 458 0
2019-04-16 00:41:59 GMT 53.360046 0.936741 35,975 284 458 64
2019-04-16 00:41:56 GMT 53.359013 0.944016 35,975 284 458 64
2019-04-16 00:41:53 GMT 53.357117 0.956674 35,975 284 458 64
2019-04-16 00:41:50 GMT 53.355846 0.965262 35,975 285 458 -64
2019-04-16 00:41:47 GMT 53.354050 0.977312 35,975 284 458 64
2019-04-16 00:41:44 GMT 53.352680 0.986588 35,975 285 458 0
2019-04-16 00:41:41 GMT 53.351147 0.996848 35,975 284 458 64
2019-04-16 00:41:38 GMT 53.349792 1.006112 35,975 284 458 -64
2019-04-16 00:41:35 GMT 53.346497 1.028085 35,875 285 459 896
2019-04-16 00:41:32 GMT 53.346497 1.028085 35,975 285 458 -192
2019-04-16 00:41:29 GMT 53.345169 1.037031 36,000 285 458 -256
2019-04-16 00:41:26 GMT 53.343788 1.046286 36,000 285 458 -256
2019-04-16 00:41:23 GMT 53.342255 1.056545 35,875 285 459 896
2019-04-16 00:41:20 GMT 53.340454 1.068577 35,525 285 459 512
2019-04-16 00:41:17 GMT 53.339088 1.077872 35,950 285 459 512
2019-04-16 00:41:14 GMT 53.337414 1.088858 36,000 285 459 256
2019-04-16 00:41:11 GMT 53.334366 1.109070 35,875 285 459 896
2019-04-16 00:41:08 GMT 53.334366 1.109070 35,875 285 467 1856
2019-04-16 00:41:05 GMT 53.333084 1.117697 35,875 285 458 832
2019-04-16 00:41:02 GMT 53.331299 1.129708 35,850 285 459 896
2019-04-16 00:40:59 GMT 53.329777 1.139670 35,800 285 459 896
2019-04-16 00:40:56 GMT 53.328186 1.150347 35,750 285 467 1856
2019-04-16 00:40:53 GMT 53.326218 1.163374 35,625 285 459 896
2019-04-16 00:40:50 GMT 53.324799 1.173026 35,675 285 459 896
2019-04-16 00:40:47 GMT 53.323494 1.181596 35,575 285 459 896
2019-04-16 00:40:44 GMT 53.321445 1.195329 35,550 284 459 960
2019-04-16 00:40:41 GMT 53.320515 1.201549 35,525 284 459 960
2019-04-16 00:40:38 GMT 53.318466 1.215282 35,500 284 459 960
2019-04-16 00:40:35 GMT 53.317383 1.222543 35,425 284 460 1024
2019-04-16 00:40:32 GMT 53.316055 1.231489 35,350 284 460 1024
2019-04-16 00:40:29 GMT 53.314461 1.242182 35,325 285 460 1024
2019-04-16 00:40:26 GMT 53.312759 1.253540 35,275 285 460 1088
2019-04-16 00:40:23 GMT 53.311203 1.263820 35,125 285 460 1152
2019-04-16 00:40:20 GMT 53.307999 1.285243 35,150 285 460 1152
2019-04-16 00:40:17 GMT 53.307999 1.285243 35,100 285 460 1152
2019-04-16 00:40:14 GMT 53.306442 1.295524 35,025 285 462 1216
2019-04-16 00:40:11 GMT 53.304474 1.308629 34,950 285 462 1280
2019-04-16 00:40:08 GMT 53.303238 1.316947 34,925 285 462 1344
2019-04-16 00:40:05 GMT 53.301865 1.325893 34,875 285 462 1344
2019-04-16 00:40:02 GMT 53.300030 1.337989 34,675 285 464 1664
2019-04-16 00:39:59 GMT 53.298679 1.347037 34,675 285 464 1664
2019-04-16 00:39:55 GMT 53.296509 1.361206 34,550 285 465 1792
2019-04-16 00:39:52 GMT 53.294678 1.373372 34,325 285 466 1856
2019-04-16 00:39:49 GMT 53.293442 1.381374 34,375 285 466 1856
2019-04-16 00:39:46 GMT 53.292160 1.389771 34,225 285 475 1216
2019-04-16 00:39:43 GMT 53.290070 1.403342 34,225 285 467 1856
2019-04-16 00:39:40 GMT 53.288486 1.413843 34,025 285 470 1856
2019-04-16 00:39:37 GMT 53.286392 1.427516 33,950 285 470 1792
2019-04-16 00:39:34 GMT 53.285568 1.433167 33,900 285 471 1664
2019-04-16 00:39:31 GMT 53.283600 1.445879 33,800 285 472 1536
2019-04-16 00:39:28 GMT 53.280525 1.465948 33,725 285 472 1472
2019-04-16 00:39:25 GMT 53.279037 1.475884 33,625 285 473 1408
2019-04-16 00:39:22 GMT 53.279037 1.475884 33,500 285 474 1280
2019-04-16 00:39:19 GMT 53.275780 1.497049 33,475 285 473 1344
2019-04-16 00:39:16 GMT 53.275780 1.497049 33,425 285 474 1344
2019-04-16 00:39:13 GMT 53.273777 1.509812 33,375 285 474 1280
2019-04-16 00:39:10 GMT 53.272430 1.518624 33,350 285 474 1280
2019-04-16 00:39:07 GMT 53.269215 1.539540 33,225 285 475 1280
2019-04-16 00:39:01 GMT 53.267120 1.553031 33,175 285 475 1280
2019-04-16 00:38:58 GMT 53.265839 1.561157 33,050 285 476 1152
2019-04-16 00:38:55 GMT 53.264420 1.570417 33,025 285 476 1088
2019-04-16 00:38:52 GMT 53.262508 1.582839 33,000 285 475 1088
2019-04-16 00:38:49 GMT 53.260647 1.594876 32,900 285 475 1152
2019-04-16 00:38:46 GMT 53.259251 1.604085 32,800 285 475 1216
2019-04-16 00:38:43 GMT 53.257713 1.614021 32,800 285 475 1216
2019-04-16 00:38:40 GMT 53.255585 1.627860 32,725 285 475 1216
2019-04-16 00:38:37 GMT 53.254486 1.634923 32,625 285 476 1280
2019-04-16 00:38:34 GMT 53.252197 1.649833 32,575 285 476 1344
2019-04-16 00:38:31 GMT 53.251099 1.656974 32,525 285 476 1408
2019-04-16 00:38:28 GMT 53.248672 1.672590 32,450 285 476 1408
2019-04-16 00:38:25 GMT 53.247845 1.677919 32,425 285 477 1408
2019-04-16 00:38:22 GMT 53.246475 1.686794 32,350 285 477 1344
2019-04-16 00:38:19 GMT 53.244122 1.702073 32,250 285 477 1408
2019-04-16 00:38:16 GMT 53.242771 1.710636 32,200 285 477 1408
2019-04-16 00:38:13 GMT 53.241211 1.720930 32,125 285 477 1344
2019-04-16 00:38:10 GMT 53.237698 1.743353 32,025 285 478 1344
2019-04-16 00:38:07 GMT 53.237698 1.743353 31,950 285 478 1408
2019-04-16 00:38:04 GMT 53.236313 1.752241 31,925 285 478 1344
2019-04-16 00:38:01 GMT 53.234665 1.762913 31,825 285 478 1344
2019-04-16 00:37:58 GMT 53.232948 1.773969 31,775 285 478 1344
2019-04-16 00:37:55 GMT 53.231506 1.783259 31,750 285 478 1344
2019-04-16 00:37:52 GMT 53.229080 1.798540 31,650 285 478 1280
2019-04-16 00:37:49 GMT 53.227921 1.806039 31,575 285 479 1344
2019-04-16 00:37:46 GMT 53.226059 1.817845 31,525 285 479 1344
2019-04-16 00:37:43 GMT 53.224594 1.827105 31,475 285 479 1280
2019-04-16 00:37:40 GMT 53.222900 1.837777 31,350 285 479 1216
2019-04-16 00:37:37 GMT 53.220612 1.852408 31,175 285 479 1216
2019-04-16 00:37:34 GMT 53.219513 1.859201 30,175 285 476 1344
2019-04-16 00:37:30 GMT 53.217121 1.874542 31,175 285 479 1152
2019-04-16 00:37:26 GMT 53.214890 1.888393 31,075 285 478 1088
2019-04-16 00:37:23 GMT 53.213074 1.900150 30,325 286 470 1024
2019-04-16 00:37:20 GMT 53.211582 1.909440 30,975 285 478 1024
2019-04-16 00:37:17 GMT 53.208138 1.931493 30,825 286 474 1024
2019-04-16 00:37:14 GMT 53.208138 1.931493 29,725 285 477 960
2019-04-16 00:37:11 GMT 53.206375 1.942540 30,825 285 477 960
2019-04-16 00:37:08 GMT 53.204784 1.952820 30,775 285 477 960
2019-04-16 00:37:05 GMT 53.203033 1.963885 30,675 285 477 1088
2019-04-16 00:37:02 GMT 53.201385 1.974557 30,650 285 477 1088
2019-04-16 00:36:59 GMT 53.199574 1.986263 29,325 285 479 1728
2019-04-16 00:36:56 GMT 53.197895 1.996846 30,575 285 476 1216
2019-04-16 00:36:53 GMT 53.196854 2.003671 30,300 285 476 1344
2019-04-16 00:36:50 GMT 53.195068 2.014971 30,450 285 476 1344
2019-04-16 00:36:47 GMT 53.193146 2.027381 30,375 285 476 1344
2019-04-16 00:36:44 GMT 53.191612 2.037318 30,325 285 476 1344
2019-04-16 00:36:41 GMT 53.189842 2.048627 30,250 285 476 1344
2019-04-16 00:36:38 GMT 53.188168 2.059290 30,150 285 476 1408
2019-04-16 00:36:35 GMT 53.186096 2.072414 30,075 285 476 1472
2019-04-16 00:36:32 GMT 53.184673 2.081263 30,025 285 476 1472
2019-04-16 00:36:29 GMT 53.182617 2.094387 29,900 285 477 1536
2019-04-16 00:36:26 GMT 53.179832 2.111798 29,700 285 477 1600
2019-04-16 00:36:23 GMT 53.179832 2.111798 29,775 285 477 1600
2019-04-16 00:36:20 GMT 53.178158 2.122381 29,300 285 479 1664
2019-04-16 00:36:17 GMT 53.176250 2.134498 29,650 285 478 1664
2019-04-16 00:36:14 GMT 53.174927 2.142648 29,600 285 479 1664
2019-04-16 00:36:11 GMT 53.172852 2.155825 28,925 285 482 1600
2019-04-16 00:36:08 GMT 53.171455 2.164387 29,375 285 480 1664
2019-04-16 00:36:05 GMT 53.169407 2.177232 29,325 285 480 1664
2019-04-16 00:36:02 GMT 53.168015 2.186122 29,200 285 481 1664
2019-04-16 00:35:59 GMT 53.166046 2.198286 29,050 285 481 1664
2019-04-16 00:35:56 GMT 53.164516 2.207929 29,050 285 481 1664
2019-04-16 00:35:53 GMT 53.162796 2.218592 28,900 285 482 1408
2019-04-16 00:35:50 GMT 53.160980 2.230063 28,925 285 482 1536
2019-04-16 00:35:47 GMT 53.159317 2.240426 28,775 285 482 1344
2019-04-16 00:35:44 GMT 53.157627 2.250824 28,650 286 482 1024
2019-04-16 00:35:41 GMT 53.155579 2.263749 28,650 286 470 1024
2019-04-16 00:35:38 GMT 53.153484 2.276593 28,650 286 482 1024
2019-04-16 00:35:35 GMT 53.152313 2.284136 28,600 286 481 1024
2019-04-16 00:35:32 GMT 53.150738 2.293719 28,550 286 481 1024
2019-04-16 00:35:29 GMT 53.148468 2.307678 28,475 286 481 1024
2019-04-16 00:35:26 GMT 53.147247 2.315126 28,425 286 480 1024
2019-04-16 00:35:23 GMT 53.145950 2.323373 28,400 286 480 1024
2019-04-16 00:35:20 GMT 53.143753 2.336870 28,350 286 480 1024
2019-04-16 00:35:17 GMT 53.142014 2.347621 28,250 286 479 1024
2019-04-16 00:35:14 GMT 53.140030 2.360041 28,225 286 479 1024
2019-04-16 00:35:11 GMT 53.138489 2.369594 28,200 286 479 1024
2019-04-16 00:35:08 GMT 53.136978 2.378854 28,125 286 478 960
2019-04-16 00:35:05 GMT 53.134918 2.391645 28,050 286 477 1024
2019-04-16 00:35:02 GMT 53.133774 2.398708 28,025 286 477 1024
2019-04-16 00:34:59 GMT 53.131577 2.412205 28,000 286 477 1024
2019-04-16 00:34:56 GMT 53.128391 2.431614 27,900 286 476 960
2019-04-16 00:34:53 GMT 53.126438 2.443650 27,850 286 476 960
2019-04-16 00:34:50 GMT 53.126438 2.443650 27,825 286 476 960
2019-04-16 00:34:47 GMT 53.124344 2.456700 27,750 286 475 1024
2019-04-16 00:34:44 GMT 53.122993 2.464815 27,675 286 475 960
2019-04-16 00:34:41 GMT 53.120911 2.477809 27,700 286 474 1024
2019-04-16 00:34:38 GMT 53.118164 2.494681 27,625 286 474 1088
2019-04-16 00:34:35 GMT 53.118164 2.494681 27,550 286 474 1088
2019-04-16 00:34:32 GMT 53.115738 2.509434 27,500 286 473 1088
2019-04-16 00:34:29 GMT 53.114502 2.517203 27,475 286 473 1088
2019-04-16 00:34:26 GMT 53.112377 2.530168 27,375 286 473 1088
2019-04-16 00:34:23 GMT 53.111160 2.537528 27,350 286 467 1216
2019-04-16 00:34:20 GMT 53.108932 2.551171 27,275 286 471 1024
2019-04-16 00:34:17 GMT 53.107498 2.559893 27,225 286 471 1024
2019-04-16 00:34:14 GMT 53.105816 2.569993 27,175 286 471 1024
2019-04-16 00:34:11 GMT 53.104233 2.579768 27,100 286 470 1024
2019-04-16 00:34:08 GMT 53.102829 2.588536 27,075 286 470 960
2019-04-16 00:34:05 GMT 53.100834 2.600690 27,075 286 470 1024
2019-04-16 00:34:02 GMT 53.099018 2.611838 27,025 286 470 1024
2019-04-16 00:33:59 GMT 53.097382 2.621966 26,950 286 469 1024
2019-04-16 00:33:56 GMT 53.095688 2.632324 26,650 286 467 1216
2019-04-16 00:33:53 GMT 53.093803 2.643781 26,850 286 468 1088
2019-04-16 00:33:49 GMT 53.090378 2.664948 26,750 286 467 1152
2019-04-16 00:33:46 GMT 53.089756 2.668736 26,700 286 467 1216
2019-04-16 00:33:43 GMT 53.088360 2.677054 26,675 286 467 1216
2019-04-16 00:33:40 GMT 53.085938 2.691879 26,550 286 466 1216
2019-04-16 00:33:36 GMT 53.084198 2.702255 26,450 286 466 1280
2019-04-16 00:33:33 GMT 53.082539 2.712289 26,450 286 466 1280
2019-04-16 00:33:30 GMT 53.080902 2.722244 26,425 286 465 1280
2019-04-16 00:33:27 GMT 53.079208 2.732620 26,275 286 465 1280
2019-04-16 00:33:24 GMT 53.077011 2.745667 26,225 286 465 1280
2019-04-16 00:33:21 GMT 53.075867 2.752533 26,200 286 465 1280
2019-04-16 00:33:18 GMT 53.074345 2.761884 26,125 286 464 1216
2019-04-16 00:33:15 GMT 53.072388 2.773895 26,075 286 464 1216
2019-04-16 00:33:12 GMT 53.070099 2.787628 25,975 286 464 1216
2019-04-16 00:33:09 GMT 53.068634 2.796555 25,925 286 464 1216
2019-04-16 00:33:06 GMT 53.067223 2.805123 25,875 286 463 1216
2019-04-16 00:33:03 GMT 53.065430 2.815781 25,800 286 463 1152
2019-04-16 00:33:00 GMT 53.064011 2.824350 25,750 286 462 1216
2019-04-16 00:32:57 GMT 53.062592 2.832870 25,450 286 461 1408
2019-04-16 00:32:54 GMT 53.060349 2.846603 25,625 286 462 1280
2019-04-16 00:32:50 GMT 53.058239 2.859192 25,450 286 461 1408
2019-04-16 00:32:47 GMT 53.054886 2.879674 25,425 286 461 1408
2019-04-16 00:32:44 GMT 53.054886 2.879674 25,400 286 461 1344
2019-04-16 00:32:41 GMT 53.053207 2.889557 25,350 286 461 1344
2019-04-16 00:32:38 GMT 53.051441 2.900155 25,300 286 460 1280
2019-04-16 00:32:35 GMT 53.049133 2.914047 25,175 286 459 1280
2019-04-16 00:32:32 GMT 53.048126 2.920151 25,125 286 460 1280
2019-04-16 00:32:29 GMT 53.046322 2.930682 25,050 286 459 1280
2019-04-16 00:32:26 GMT 53.044415 2.942217 25,000 286 459 1280
2019-04-16 00:32:23 GMT 53.040665 2.964249 24,925 286 459 1344
2019-04-16 00:32:20 GMT 53.040665 2.964249 24,875 286 458 1280
2019-04-16 00:32:16 GMT 53.037140 2.985153 24,725 286 458 1344
2019-04-16 00:32:10 GMT 53.035381 2.995658 24,650 286 457 1344
2019-04-16 00:32:07 GMT 53.034073 3.003387 24,625 286 457 1344
2019-04-16 00:32:04 GMT 53.032078 3.015198 24,450 286 456 1408
2019-04-16 00:32:01 GMT 53.030121 3.026576 24,475 286 456 1344
2019-04-16 00:31:58 GMT 53.028168 3.038034 24,375 286 455 1408
2019-04-16 00:31:55 GMT 53.026886 3.045731 24,350 286 455 1408
2019-04-16 00:31:52 GMT 53.024597 3.059158 24,225 286 455 1344
2019-04-16 00:31:49 GMT 53.023743 3.064244 24,200 286 455 1344
2019-04-16 00:31:46 GMT 53.021091 3.079625 24,100 286 453 1280
2019-04-16 00:31:43 GMT 53.019928 3.086624 24,075 286 453 1280
2019-04-16 00:31:40 GMT 53.017502 3.100739 23,975 286 453 1280
2019-04-16 00:31:37 GMT 53.015945 3.110046 23,950 286 452 1280
2019-04-16 00:31:34 GMT 53.014294 3.119725 23,850 286 452 1280
2019-04-16 00:31:31 GMT 53.013336 3.125381 23,725 286 450 1280
2019-04-16 00:31:28 GMT 53.011688 3.135376 23,750 286 451 1280
2019-04-16 00:31:25 GMT 53.009995 3.145370 23,625 286 450 1280
2019-04-16 00:31:22 GMT 53.008347 3.155365 23,650 286 450 1280
2019-04-16 00:31:19 GMT 53.006332 3.167267 23,525 286 449 1280
2019-04-16 00:31:15 GMT 53.001957 3.193412 23,375 286 448 1408
2019-04-16 00:31:12 GMT 53.001957 3.193412 23,375 286 448 1472
2019-04-16 00:31:09 GMT 53.001205 3.197708 23,225 286 447 1664
2019-04-16 00:31:06 GMT 52.999256 3.209263 23,250 286 447 1664
2019-04-16 00:31:03 GMT 52.995987 3.228760 23,125 286 446 1536
2019-04-16 00:31:00 GMT 52.995987 3.228760 23,075 286 447 1600
2019-04-16 00:30:56 GMT 52.993973 3.240662 22,975 286 447 1536
2019-04-16 00:30:53 GMT 52.992043 3.252189 22,875 286 446 1536
2019-04-16 00:30:50 GMT 52.990227 3.262704 22,800 286 446 1536
2019-04-16 00:30:47 GMT 52.988846 3.270950 22,550 286 446 1536
2019-04-16 00:30:44 GMT 52.987015 3.281773 22,600 286 442 1536
2019-04-16 00:30:41 GMT 52.985458 3.290634 22,575 286 446 1536
2019-04-16 00:30:38 GMT 52.982117 3.310318 22,500 286 445 1536
2019-04-16 00:30:35 GMT 52.982117 3.310318 22,275 286 444 1472
2019-04-16 00:30:32 GMT 52.980423 3.320160 22,375 286 444 1472
2019-04-16 00:30:29 GMT 52.978958 3.328705 22,050 286 440 1536
2019-04-16 00:30:26 GMT 52.975296 3.350220 22,175 286 443 1472
2019-04-16 00:30:23 GMT 52.975296 3.350220 22,150 286 443 1472
2019-04-16 00:30:20 GMT 52.973740 3.359375 21,825 286 442 1472
2019-04-16 00:30:17 GMT 52.972023 3.369507 22,000 286 442 1536
2019-04-16 00:30:13 GMT 52.969437 3.384781 21,900 286 441 1536
2019-04-16 00:30:10 GMT 52.968067 3.392892 21,825 286 441 1536
2019-04-16 00:30:07 GMT 52.966461 3.402328 21,750 286 440 1536
2019-04-16 00:30:03 GMT 52.963970 3.416905 21,650 287 439 1536
2019-04-16 00:30:00 GMT 52.962524 3.424988 21,550 288 440 1536
2019-04-16 00:29:57 GMT 52.960804 3.434326 21,500 288 438 1536
2019-04-16 00:29:54 GMT 52.958897 3.444606 21,300 289 437 1600
2019-04-16 00:29:51 GMT 52.954845 3.465009 21,300 289 437 1600
2019-04-16 00:29:48 GMT 52.954845 3.465009 21,250 289 437 1600
2019-04-16 00:29:45 GMT 52.952545 3.476028 21,150 290 437 1664
2019-04-16 00:29:42 GMT 52.948975 3.492355 21,050 291 436 1664
2019-04-16 00:29:39 GMT 52.948975 3.492355 21,000 291 436 1728
2019-04-16 00:29:36 GMT 52.946869 3.501740 20,800 292 435 1664
2019-04-16 00:29:32 GMT 52.941532 3.524414 20,775 292 434 1664
2019-04-16 00:29:29 GMT 52.941532 3.524414 20,700 293 434 1600
2019-04-16 00:29:26 GMT 52.939636 3.532104 20,675 293 434 1600
2019-04-16 00:29:22 GMT 52.935993 3.546544 20,550 294 434 1600
2019-04-16 00:29:16 GMT 52.931896 3.562317 20,400 294 432 1536
2019-04-16 00:29:13 GMT 52.929428 3.571777 20,275 294 432 1536
2019-04-16 00:29:10 GMT 52.926964 3.581151 20,250 294 431 1600
2019-04-16 00:29:06 GMT 52.923889 3.592987 19,975 294 429 1664
2019-04-16 00:29:02 GMT 52.918583 3.613168 20,025 294 430 1664
2019-04-16 00:28:59 GMT 52.915787 3.623734 19,925 294 429 1600
2019-04-16 00:28:56 GMT 52.915787 3.623734 19,875 294 429 1664
2019-04-16 00:28:53 GMT 52.913647 3.631845 19,775 294 428 1600
2019-04-16 00:28:50 GMT 52.910480 3.643851 19,750 294 428 1600
2019-04-16 00:28:47 GMT 52.909286 3.648376 19,700 294 428 1600
2019-04-16 00:28:44 GMT 52.906906 3.657379 19,575 294 428 1600
2019-04-16 00:28:41 GMT 52.904022 3.668137 19,475 294 426 1536
2019-04-16 00:28:38 GMT 52.901405 3.677909 19,450 294 426 1536
2019-04-16 00:28:35 GMT 52.899311 3.685678 19,375 294 425 1536
2019-04-16 00:28:32 GMT 52.896282 3.696978 19,225 295 424 1600
2019-04-16 00:28:29 GMT 52.894653 3.702863 19,175 295 423 1664
2019-04-16 00:28:25 GMT 52.891571 3.714447 19,125 295 423 1664
2019-04-16 00:28:21 GMT 52.888138 3.727112 18,975 295 422 1600
2019-04-16 00:28:17 GMT 52.884926 3.738883 18,625 295 420 1600
2019-04-16 00:28:14 GMT 52.880177 3.756539 18,725 295 421 1536
2019-04-16 00:28:11 GMT 52.880177 3.756539 18,700 295 420 1536
2019-04-16 00:28:08 GMT 52.877663 3.765878 18,650 295 420 1536
2019-04-16 00:28:05 GMT 52.875687 3.773193 18,575 294 419 1728
2019-04-16 00:28:02 GMT 52.872849 3.783798 18,400 294 418 2112
2019-04-16 00:27:59 GMT 52.870914 3.791068 18,225 294 418 2368
2019-04-16 00:27:56 GMT 52.868134 3.801270 18,275 294 418 2304
2019-04-16 00:27:53 GMT 52.865021 3.812943 18,075 294 419 2368
2019-04-16 00:27:50 GMT 52.862961 3.820572 17,950 294 419 2240
2019-04-16 00:27:47 GMT 52.860718 3.829049 17,875 294 419 2176
2019-04-16 00:27:44 GMT 52.859070 3.835220 17,800 294 419 1984
2019-04-16 00:27:40 GMT 52.855774 3.847504 17,600 294 419 1920
2019-04-16 00:27:37 GMT 52.853176 3.857535 17,525 294 419 1856
2019-04-16 00:27:34 GMT 52.851219 3.864755 17,425 294 418 1792
2019-04-16 00:27:31 GMT 52.848892 3.873544 17,400 294 419 2304
2019-04-16 00:27:28 GMT 52.844051 3.891671 17,225 294 418 2176
2019-04-16 00:27:25 GMT 52.844051 3.891671 17,175 295 417 2368
2019-04-16 00:27:22 GMT 52.842003 3.899205 17,075 295 417 2432
2019-04-16 00:27:19 GMT 52.838928 3.910522 16,975 295 417 2560
2019-04-16 00:27:16 GMT 52.834991 3.925095 16,700 294 419 2688
2019-04-16 00:27:10 GMT 52.832291 3.935089 16,450 294 419 2496
2019-04-16 00:27:07 GMT 52.830093 3.943253 16,375 294 419 2048
2019-04-16 00:27:04 GMT 52.827576 3.952637 16,100 294 419 2112
2019-04-16 00:27:01 GMT 52.825516 3.960266 16,225 295 420 1920
2019-04-16 00:26:58 GMT 52.820663 3.978424 16,050 295 420 2368
2019-04-16 00:26:55 GMT 52.820663 3.978424 15,800 294 420 2368
2019-04-16 00:26:52 GMT 52.817799 3.989293 15,800 294 420 2368
2019-04-16 00:26:49 GMT 52.814896 4.000168 15,725 294 420 2048
2019-04-16 00:26:46 GMT 52.813202 4.006653 15,700 294 420 2176
2019-04-16 00:26:43 GMT 52.808254 4.025077 15,400 295 419 1984
2019-04-16 00:26:40 GMT 52.808254 4.025077 15,425 295 420 1984
2019-04-16 00:26:37 GMT 52.806427 4.031830 15,350 295 419 1984
2019-04-16 00:26:34 GMT 52.801071 4.051666 15,200 294 419 1984
2019-04-16 00:26:30 GMT 52.801071 4.051666 15,100 294 419 1984
2019-04-16 00:26:27 GMT 52.798664 4.060782 15,025 294 418 1984
2019-04-16 00:26:24 GMT 52.796616 4.068316 14,925 294 417 1984
2019-04-16 00:26:21 GMT 52.793884 4.078522 14,775 294 416 1984
2019-04-16 00:26:18 GMT 52.791687 4.086609 14,700 294 416 1984
2019-04-16 00:26:15 GMT 52.788513 4.098528 14,600 294 415 1984
2019-04-16 00:26:12 GMT 52.786057 4.107513 14,500 294 415 1984
2019-04-16 00:26:09 GMT 52.784500 4.113312 14,425 295 414 1984
2019-04-16 00:26:06 GMT 52.782623 4.120255 14,275 295 414 2048
2019-04-16 00:26:03 GMT 52.779968 4.130020 13,550 295 414 1984
2019-04-16 00:26:00 GMT 52.777359 4.139862 14,075 295 413 1984
2019-04-16 00:25:57 GMT 52.774921 4.148751 14,025 295 413 1984
2019-04-16 00:25:53 GMT 52.771942 4.159659 13,875 295 412 1984
2019-04-16 00:25:50 GMT 52.769211 4.169693 13,750 295 411 2048
2019-04-16 00:25:47 GMT 52.767288 4.176845 13,675 295 411 1984
2019-04-16 00:25:44 GMT 52.765099 4.184771 13,550 295 410 1984
2019-04-16 00:25:41 GMT 52.761978 4.196228 13,175 295 408 1984
2019-04-16 00:25:38 GMT 52.757790 4.211530 13,350 295 409 1984
2019-04-16 00:25:35 GMT 52.755928 4.218358 13,175 295 407 1984
2019-04-16 00:25:32 GMT 52.755928 4.218358 13,150 295 406 1984
2019-04-16 00:25:29 GMT 52.753601 4.226833 13,075 295 406 1984
2019-04-16 00:25:26 GMT 52.751678 4.233932 13,025 295 406 1984
2019-04-16 00:25:23 GMT 52.748199 4.246608 12,875 295 405 1920
2019-04-16 00:25:20 GMT 52.746059 4.254456 12,725 295 404 1920
2019-04-16 00:25:17 GMT 52.744308 4.260941 12,700 295 404 1920
2019-04-16 00:25:14 GMT 52.741562 4.271088 12,600 295 403 1920
2019-04-16 00:25:11 GMT 52.739594 4.278336 12,500 295 402 1920
2019-04-16 00:25:08 GMT 52.737076 4.287493 12,475 295 401 1920
2019-04-16 00:25:05 GMT 52.732681 4.303360 12,275 295 399 1664
2019-04-16 00:25:02 GMT 52.732681 4.303360 12,225 295 399 1728
2019-04-16 00:24:58 GMT 52.729340 4.315491 12,125 295 398 1472
2019-04-16 00:24:55 GMT 52.727829 4.321060 12,025 295 396 1216
2019-04-16 00:24:52 GMT 52.722969 4.338893 12,000 295 394 1088
2019-04-16 00:24:49 GMT 52.722969 4.338893 11,950 295 392 1024
2019-04-16 00:24:46 GMT 52.720779 4.346771 11,925 295 391 1024
2019-04-16 00:24:43 GMT 52.718262 4.355927 11,850 295 387 960
2019-04-16 00:24:40 GMT 52.716125 4.363691 11,825 295 386 1024
2019-04-16 00:24:37 GMT 52.713272 4.374084 11,750 295 382 1024
2019-04-16 00:24:34 GMT 52.711891 4.379150 11,725 295 381 1024
2019-04-16 00:24:31 GMT 52.709564 4.387547 11,650 295 378 960
2019-04-16 00:24:28 GMT 52.707420 4.395394 11,600 295 375 1024
2019-04-16 00:24:25 GMT 52.705559 4.402143 11,575 295 373 960
2019-04-16 00:24:22 GMT 52.702438 4.413522 11,500 295 369 1024
2019-04-16 00:24:19 GMT 52.701096 4.418411 11,450 295 368 1024
2019-04-16 00:24:16 GMT 52.699036 4.426041 11,400 295 365 1088
2019-04-16 00:24:13 GMT 52.696655 4.434662 11,350 295 363 1088
2019-04-16 00:24:10 GMT 52.695007 4.440689 11,325 295 362 1088
2019-04-16 00:24:07 GMT 52.692947 4.448166 11,250 295 359 1088
2019-04-16 00:24:04 GMT 52.690521 4.456839 11,175 295 354 1024
2019-04-16 00:24:01 GMT 52.688141 4.465485 11,150 295 352 1024
2019-04-16 00:23:58 GMT 52.686813 4.470367 11,125 295 352 1024
2019-04-16 00:23:55 GMT 52.685074 4.476700 11,025 295 349 960
2019-04-16 00:23:52 GMT 52.682751 4.485090 11,025 295 341 960
2019-04-16 00:23:49 GMT 52.680725 4.492493 10,950 295 343 960
2019-04-16 00:23:46 GMT 52.679169 4.498215 10,375 295 341 960
2019-04-16 00:23:43 GMT 52.677025 4.505964 10,850 295 337 1024
2019-04-16 00:23:40 GMT 52.675022 4.513497 10,825 295 335 1024
2019-04-16 00:23:37 GMT 52.673080 4.520645 10,750 294 331 960
2019-04-16 00:23:34 GMT 52.670364 4.530762 10,675 294 326 896
2019-04-16 00:23:31 GMT 52.669434 4.534215 10,650 295 324 896
2019-04-16 00:23:28 GMT 52.667385 4.541827 10,600 295 322 896
2019-04-16 00:23:25 GMT 52.664825 4.550694 10,500 297 319 832
2019-04-16 00:23:22 GMT 52.663521 4.555010 10,525 297 316 832
2019-04-16 00:23:19 GMT 52.661568 4.561445 10,475 298 313 768
2019-04-16 00:23:16 GMT 52.659798 4.566938 10,450 299 311 768
2019-04-16 00:23:13 GMT 52.657612 4.573530 10,425 300 308 768
2019-04-16 00:23:10 GMT 52.655411 4.579773 10,275 303 298 1280
2019-04-16 00:23:07 GMT 52.653534 4.584885 10,350 302 301 896
2019-04-16 00:23:04 GMT 52.651520 4.590302 8,675 305 292 2560
2019-04-16 00:23:01 GMT 52.648682 4.597549 10,125 304 295 2112
2019-04-16 00:22:58 GMT 52.646763 4.602173 9,925 305 294 2240
2019-04-16 00:22:55 GMT 52.644157 4.608529 10,000 305 294 2240
2019-04-16 00:22:52 GMT 52.642410 4.612732 9,775 305 293 2432
2019-04-16 00:22:49 GMT 52.639847 4.618988 9,600 305 292 2816
2019-04-16 00:22:46 GMT 52.635963 4.628383 9,500 305 292 2624
2019-04-16 00:22:40 GMT 52.632938 4.635760 9,325 305 292 2752
2019-04-16 00:22:37 GMT 52.629726 4.643450 9,225 305 292 2816
2019-04-16 00:22:34 GMT 52.626297 4.651718 8,925 305 293 2688
2019-04-16 00:22:31 GMT 52.626297 4.651718 8,925 305 293 2688
2019-04-16 00:22:28 GMT 52.622696 4.660400 8,650 305 293 2624
2019-04-16 00:22:25 GMT 52.620941 4.664612 8,600 305 292 2560
2019-04-16 00:22:22 GMT 52.619385 4.668274 8,525 305 293 2560
2019-04-16 00:22:19 GMT 52.616592 4.674835 8,350 305 292 2560
2019-04-16 00:22:16 GMT 52.614365 4.680176 8,200 306 292 2560
2019-04-16 00:22:13 GMT 52.612782 4.683786 8,150 306 292 2560
2019-04-16 00:22:10 GMT 52.608032 4.694824 7,900 306 292 2496
2019-04-16 00:22:04 GMT 52.605427 4.700736 7,650 312 291 2304
2019-04-16 00:22:01 GMT 52.602306 4.706857 7,650 312 291 2304
2019-04-16 00:21:58 GMT 52.599468 4.711565 7,500 318 290 2240
2019-04-16 00:21:55 GMT 52.596909 4.715118 7,425 322 290 2304
2019-04-16 00:21:51 GMT 52.591972 4.720747 7,175 330 289 2368
2019-04-16 00:21:48 GMT 52.588715 4.723729 7,150 335 288 2432
2019-04-16 00:21:45 GMT 52.581310 4.728516 6,950 341 286 2432
2019-04-16 00:21:42 GMT 52.581310 4.728516 6,850 345 285 2432
2019-04-16 00:21:39 GMT 52.578140 4.729919 6,775 348 286 2432
2019-04-16 00:21:36 GMT 52.573975 4.731064 6,650 354 285 2432
2019-04-16 00:21:33 GMT 52.570419 4.731498 6,500 0 284 2496
2019-04-16 00:21:30 GMT 52.566101 4.731522 6,450 1 283 2624
2019-04-16 00:21:27 GMT 52.561527 4.731105 6,175 4 281 2752
2019-04-16 00:21:23 GMT 52.553329 4.730148 5,950 4 281 2752
2019-04-16 00:21:20 GMT 52.553329 4.730148 5,850 4 281 2752
2019-04-16 00:21:17 GMT 52.549332 4.729614 5,775 4 281 2752
2019-04-16 00:21:14 GMT 52.540924 4.728699 5,575 4 280 2752
2019-04-16 00:21:08 GMT 52.536388 4.728202 5,050 3 279 2688
2019-04-16 00:21:05 GMT 52.533035 4.727809 4,575 3 279 2688
2019-04-16 00:21:02 GMT 52.528522 4.727260 5,050 3 278 2688
2019-04-16 00:20:58 GMT 52.523346 4.726715 4,875 3 278 2624
2019-04-16 00:20:55 GMT 52.520374 4.726397 4,725 3 278 2560
2019-04-16 00:20:52 GMT 52.517071 4.726004 4,650 3 277 2560
2019-04-16 00:20:49 GMT 52.513206 4.725534 4,525 3 277 2432
2019-04-16 00:20:46 GMT 52.508240 4.724960 4,375 3 275 2176
2019-04-16 00:20:43 GMT 52.505447 4.724655 4,225 3 273 1920
2019-04-16 00:20:40 GMT 52.501144 4.724197 4,175 3 272 1856
2019-04-16 00:20:37 GMT 52.497517 4.723807 4,075 3 269 1472
2019-04-16 00:20:34 GMT 52.494141 4.723434 4,025 3 267 1216
2019-04-16 00:20:31 GMT 52.486439 4.722552 3,950 3 263 1024
2019-04-16 00:20:28 GMT 52.486439 4.722552 3,900 3 260 1088
2019-04-16 00:20:25 GMT 52.483318 4.722238 3,875 3 258 1024
2019-04-16 00:20:22 GMT 52.479630 4.721832 3,850 3 255 1024
2019-04-16 00:20:19 GMT 52.472260 4.720993 3,725 3 248 1024
2019-04-16 00:20:16 GMT 52.472260 4.720993 3,700 3 245 960
2019-04-16 00:20:13 GMT 52.468643 4.720535 3,675 4 243 896
2019-04-16 00:20:10 GMT 52.466469 4.720276 3,525 5 208 1856
2019-04-16 00:20:07 GMT 52.461823 4.719772 3,550 4 226 1152
2019-04-16 00:20:04 GMT 52.459076 4.719467 3,500 4 227 1152
2019-04-16 00:19:58 GMT 52.453293 4.718785 3,425 3 223 1216
2019-04-16 00:19:55 GMT 52.450104 4.718475 3,400 3 221 1216
2019-04-16 00:19:52 GMT 52.443562 4.717686 3,200 3 213 1920
2019-04-16 00:19:49 GMT 52.443562 4.717686 3,200 3 214 1664
2019-04-16 00:19:46 GMT 52.440674 4.717407 3,125 3 213 1920
2019-04-16 00:19:43 GMT 52.438255 4.717137 3,025 3 212 2304
2019-04-16 00:19:40 GMT 52.434219 4.716721 2,975 3 212 2304
2019-04-16 00:19:37 GMT 52.431473 4.716415 2,750 3 212 2368
2019-04-16 00:19:33 GMT 52.428177 4.716034 2,700 3 212 2368
2019-04-16 00:19:30 GMT 52.424942 4.715724 2,600 3 212 2368
2019-04-16 00:19:27 GMT 52.422089 4.715424 2,225 3 212 2176
2019-04-16 00:19:24 GMT 52.417191 4.714890 2,125 3 212 2112
2019-04-16 00:19:21 GMT 52.417191 4.714890 2,225 3 212 2176
2019-04-16 00:19:18 GMT 52.413349 4.714469 2,075 4 211 2112
2019-04-16 00:19:15 GMT 52.410553 4.714127 1,975 4 211 2048
2019-04-16 00:19:12 GMT 52.407257 4.713745 1,875 4 210 1920
2019-04-16 00:19:08 GMT 52.403294 4.713135 1,750 5 208 1856
2019-04-16 00:19:05 GMT 52.400711 4.712753 1,650 5 208 1792
2019-04-16 00:19:01 GMT 52.397461 4.712219 1,450 3 205 1728
2019-04-16 00:18:58 GMT 52.394394 4.711761 1,425 2 204 1728
2019-04-16 00:18:55 GMT 52.388073 4.711408 1,175 1 193 2496
2019-04-16 00:18:51 GMT 52.388073 4.711408 1,275 0 203 1728
2019-04-16 00:18:47 GMT 52.383976 4.711644 1,125 358 200 1920
2019-04-16 00:18:44 GMT 52.381348 4.711838 1,025 358 197 2240
2019-04-16 00:18:41 GMT 52.374985 4.712067 750 0 194 2624
2019-04-16 00:18:37 GMT 52.374985 4.712067 700 0 194 2560
2019-04-16 00:18:34 GMT 52.372284 4.712067 625 1 193 2496
2019-04-16 00:18:31 GMT 52.369629 4.711990 500 1 193 2304
2019-04-16 00:18:28 GMT 52.367218 4.711879 400 1 192 2048
2019-04-16 00:18:24 GMT 52.363770 4.711685 250 1 190 1984
2019-04-16 00:18:20 GMT 52.360107 4.711456 150 2 188 1984
2019-04-16 00:18:16 GMT 52.356308 4.711227 0 2 187 1856
2019-04-16 00:18:08 GMT 52.349670 4.710770 -150 3 174 128
2019-04-16 00:17:58 GMT 52.341988 4.710074 -150 3 142 -64
2019-04-16 00:17:38 GMT 52.332153 4.709152 0 2 65
2019-04-16 00:17:35 GMT 52.331497 4.709091 0 2 56
2019-04-16 00:17:12 GMT 52.328991 4.708958 0 331 8
2019-04-16 00:17:05 GMT 52.328789 4.709074 0 298 8
2019-04-16 00:16:46 GMT 52.328648 4.710331 0 258 14
2019-04-16 00:16:15 GMT 52.329975 4.712939 0 222 15
2019-04-16 00:16:06 GMT 52.330421 4.713573 0 222 15
2019-04-16 00:15:36 GMT 52.331501 4.716038 0 286 13
2019-04-16 00:15:25 GMT 52.331257 4.716960 0 309 15
2019-04-16 00:15:15 GMT 52.330803 4.717784 0 312 15
2019-04-16 00:15:03 GMT 52.330116 4.719079 0 312 22
2019-04-16 00:14:55 GMT 52.329617 4.719982 0 312 25
2019-04-16 00:14:45 GMT 52.328438 4.722159 0 312 22
2019-04-16 00:14:35 GMT 52.328190 4.722633 0 312 21
2019-04-16 00:14:24 GMT 52.327549 4.723835 0 312 20
2019-04-16 00:14:15 GMT 52.326954 4.724941 0 312 20
2019-04-16 00:14:04 GMT 52.326218 4.726083 0 320 21
2019-04-16 00:13:58 GMT 52.325798 4.726677 0 320 21
2019-04-16 00:13:53 GMT 52.325443 4.727173 0 317 20
2019-04-16 00:13:40 GMT 52.324577 4.728398 0 320 19
2019-04-16 00:13:31 GMT 52.323990 4.729214 0 320 19
2019-04-16 00:13:21 GMT 52.323318 4.730144 0 320 18
2019-04-16 00:13:12 GMT 52.322777 4.730892 0 320 16
2019-04-16 00:13:07 GMT 52.322540 4.731243 0 317 15
2019-04-16 00:13:03 GMT 52.322342 4.731522 0 320 14
2019-04-16 00:13:00 GMT 52.322170 4.731770 0 320 14
2019-04-16 00:12:53 GMT 52.321899 4.732125 0 315 12
2019-04-16 00:12:40 GMT 52.321529 4.733009 0 275 10
2019-04-16 00:12:19 GMT 52.321548 4.734382 0 233 9
2019-04-16 00:12:08 GMT 52.321877 4.734872 0 188 9
2019-04-16 00:11:47 GMT 52.323418 4.735031 0 182 24
2019-04-16 00:11:22 GMT 52.326038 4.735279 0 182 22
2019-04-16 00:11:16 GMT 52.326694 4.735323 0 182 22
2019-04-16 00:11:04 GMT 52.327789 4.735441 0 182 21
2019-04-16 00:10:43 GMT 52.329689 4.735603 0 182 20
2019-04-16 00:10:32 GMT 52.330650 4.735696 0 182 19
2019-04-16 00:10:26 GMT 52.331200 4.735756 0 182 18
2019-04-16 00:10:13 GMT 52.332211 4.735853 0 182 17
2019-04-16 00:10:04 GMT 52.332916 4.735909 0 182 17
2019-04-16 00:10:00 GMT 52.333187 4.735951 0 182 16
2019-04-16 00:09:46 GMT 52.334175 4.736080 0 225 15
2019-04-16 00:09:41 GMT 52.334518 4.736328 0 227 15
2019-04-16 00:09:19 GMT 52.334873 4.738369 0 272 16
2019-04-16 00:09:08 GMT 52.334816 4.739816 0 272 17
2019-04-16 00:08:59 GMT 52.334782 4.740944 0 272 16
2019-04-16 00:08:50 GMT 52.334736 4.742170 0 272 15
2019-04-16 00:08:39 GMT 52.334679 4.743195 0 284 15
2019-04-16 00:08:08 GMT 52.331661 4.744426 0 2 29
2019-04-16 00:07:58 GMT 52.331661 4.744426 0 2 29
2019-04-16 00:07:29 GMT 52.327068 4.744015 0 2 27
2019-04-16 00:07:07 GMT 52.325237 4.743843 0 2 26
2019-04-16 00:07:02 GMT 52.324608 4.743786 0 2 26
2019-04-16 00:06:55 GMT 52.323830 4.743710 0 2 26
2019-04-16 00:06:38 GMT 52.321842 4.743524 0 2 25
2019-04-16 00:06:29 GMT 52.320728 4.743423 0 5 25
2019-04-16 00:06:03 GMT 52.317936 4.743176 0 2 23
2019-04-16 00:05:49 GMT 52.316570 4.743053 0 2 21
2019-04-16 00:05:45 GMT 52.316128 4.743014 0 2 19
2019-04-16 00:05:28 GMT 52.314938 4.742908 0 2 13
2019-04-16 00:05:21 GMT 52.314514 4.742870 0 354 11
2019-04-16 00:04:59 GMT 52.313931 4.743690 0 264 10
We lost coverage of the aircraft here for a total of 6 minutes
2019-04-15 23:58:42 GMT 52.314533 4.760886 0 267 5
2019-04-15 23:58:38 GMT 52.314522 4.760729 0 267 5
2019-04-15 23:58:25 GMT 52.314480 4.760265 0 261 6
2019-04-15 23:58:08 GMT 52.314182 4.759513 0 227 8
2019-04-15 23:57:50 GMT 52.313602 4.759297 0 185 8
2019-04-15 23:57:46 GMT 52.313450 4.759317 0 180 8
We lost coverage of the aircraft here for a total of 104 minutes
2019-04-15 22:13:49 GMT 52.305386 4.774129 0 28 8 0
2019-04-15 22:13:22 GMT 52.304428 4.774148 0 19 15 0
2019-04-15 22:12:55 GMT 52.302475 4.772029 0 56 27 0
2019-04-15 22:12:42 GMT 52.301289 4.768949 0 59 50 0
2019-04-15 22:12:09 GMT 52.296295 4.755936 -175 57 102 -64
2019-04-15 22:11:58 GMT 52.293152 4.747820 -175 58 145 -128
2019-04-15 22:11:49 GMT 52.289848 4.739188 -100 58 151 -832
2019-04-15 22:11:45 GMT 52.288357 4.735264 -50 57 150 -768
2019-04-15 22:11:41 GMT 52.286453 4.730301 -25 57 150 -832
2019-04-15 22:11:34 GMT 52.283981 4.723964 75 57 147 -832
2019-04-15 22:11:30 GMT 52.282585 4.720354 125 57 147 -768
2019-04-15 22:11:25 GMT 52.279678 4.712753 200 57 144 -832
2019-04-15 22:11:22 GMT 52.279678 4.712753 250 57 144 -768
2019-04-15 22:11:19 GMT 52.278629 4.710074 250 57 144 -768
2019-04-15 22:11:14 GMT 52.276814 4.705287 350 57 141 -768
2019-04-15 22:11:11 GMT 52.275970 4.703064 350 57 141 -832
2019-04-15 22:11:05 GMT 52.273956 4.697800 400 57 141 -768
2019-04-15 22:11:02 GMT 52.272717 4.694615 500 57 141 -768
2019-04-15 22:10:59 GMT 52.271740 4.692104 525 57 140 -768
2019-04-15 22:10:55 GMT 52.270294 4.688337 550 57 140 -832
2019-04-15 22:10:51 GMT 52.268948 4.684727 625 58 140 -768
2019-04-15 22:10:46 GMT 52.267502 4.680961 675 57 141 -768
2019-04-15 22:10:43 GMT 52.266384 4.678057 725 57 142 -768
2019-04-15 22:10:40 GMT 52.265305 4.675293 750 57 144 -768
2019-04-15 22:10:35 GMT 52.263268 4.669974 825 57 145 -832
2019-04-15 22:10:32 GMT 52.262383 4.667777 1,025 57 146 -832
2019-04-15 22:10:29 GMT 52.261002 4.664154 900 57 146 -832
2019-04-15 22:10:26 GMT 52.260101 4.661813 1,050 57 147 -832
2019-04-15 22:10:23 GMT 52.259125 4.659271 975 57 147 -832
2019-04-15 22:10:20 GMT 52.257912 4.656241 1,025 57 147 -832
2019-04-15 22:10:17 GMT 52.256973 4.653854 1,050 57 147 -832
2019-04-15 22:10:14 GMT 52.254684 4.647827 1,225 57 148 -832
2019-04-15 22:10:11 GMT 52.254684 4.647827 1,150 58 148 -832
2019-04-15 22:10:08 GMT 52.253490 4.644706 1,200 57 148 -832
2019-04-15 22:10:03 GMT 52.251816 4.640311 1,250 57 150 -896
2019-04-15 22:09:59 GMT 52.250198 4.636230 1,325 57 150 -896
2019-04-15 22:09:55 GMT 52.248734 4.632416 1,375 57 151 -832
2019-04-15 22:09:52 GMT 52.247952 4.630345 1,400 57 151 -832
2019-04-15 22:09:49 GMT 52.246601 4.626892 1,450 57 152 -832
2019-04-15 22:09:43 GMT 52.244274 4.620850 1,525 57 153 -896
2019-04-15 22:09:39 GMT 52.242416 4.616089 1,600 57 154 -896
2019-04-15 22:09:35 GMT 52.240784 4.611825 1,650 57 154 -896
2019-04-15 22:09:32 GMT 52.240223 4.610413 1,675 57 155 -832
2019-04-15 22:09:29 GMT 52.238640 4.606253 1,750 57 158 -832
2019-04-15 22:09:26 GMT 52.237564 4.603577 1,950 57 158 -832
2019-04-15 22:09:23 GMT 52.236694 4.601288 1,825 57 160 -896
2019-04-15 22:09:20 GMT 52.235149 4.597307 1,875 57 162 -960
2019-04-15 22:09:17 GMT 52.234406 4.595337 1,900 57 162 -960
2019-04-15 22:09:14 GMT 52.231888 4.589005 1,975 56 164 -896
2019-04-15 22:09:08 GMT 52.230400 4.585379 2,025 56 165 -832
2019-04-15 22:09:05 GMT 52.229370 4.582748 2,075 56 168 -896
2019-04-15 22:09:02 GMT 52.228088 4.579544 2,100 56 168 -960
2019-04-15 22:08:58 GMT 52.226025 4.574315 2,350 57 171 -1152
2019-04-15 22:08:54 GMT 52.224243 4.569855 2,275 57 172 -1216
2019-04-15 22:08:47 GMT 52.221558 4.562857 2,375 57 174 -1280
2019-04-15 22:08:41 GMT 52.219208 4.556732 2,550 60 176 -1344
2019-04-15 22:08:38 GMT 52.217739 4.552734 2,550 60 176 -1344
2019-04-15 22:08:35 GMT 52.216667 4.549438 2,650 70 173 -1280
2019-04-15 22:08:32 GMT 52.215271 4.544181 2,725 72 172 -1216
2019-04-15 22:08:29 GMT 52.214897 4.542140 2,775 77 170 -1024
2019-04-15 22:08:26 GMT 52.214401 4.538040 2,825 83 168 -320
2019-04-15 22:08:22 GMT 52.213989 4.532013 2,825 83 166 0
2019-04-15 22:08:18 GMT 52.213760 4.528732 2,825 83 166 0
2019-04-15 22:08:15 GMT 52.213531 4.524994 2,825 83 166 0
2019-04-15 22:08:12 GMT 52.212944 4.516479 2,825 83 165 -64
2019-04-15 22:08:06 GMT 52.212711 4.512713 2,825 83 166 0
2019-04-15 22:08:00 GMT 52.212250 4.506378 2,825 83 166 0
2019-04-15 22:07:57 GMT 52.211838 4.500656 2,825 83 167 0
2019-04-15 22:07:51 GMT 52.211426 4.494934 2,825 82 167 -64
2019-04-15 22:07:48 GMT 52.211082 4.490583 2,825 83 167 -64
2019-04-15 22:07:45 GMT 52.210831 4.486923 2,825 82 167 -64
2019-04-15 22:07:40 GMT 52.210430 4.481794 2,850 86 165 0
2019-04-15 22:07:37 GMT 52.209824 4.473397 2,850 83 165 -64
2019-04-15 22:07:30 GMT 52.209545 4.468610 2,850 86 165 -64
2019-04-15 22:07:27 GMT 52.209366 4.465027 2,850 86 165 0
2019-04-15 22:07:24 GMT 52.209320 4.460297 2,850 89 164 64
2019-04-15 22:07:21 GMT 52.209637 4.453387 2,825 98 161 128
2019-04-15 22:07:18 GMT 52.209637 4.453387 2,825 101 161 64
2019-04-15 22:07:13 GMT 52.210987 4.446559 2,825 124 156 64
2019-04-15 22:07:10 GMT 52.211746 4.444427 2,825 124 156 64
2019-04-15 22:07:07 GMT 52.212616 4.442520 2,825 142 155 -64
2019-04-15 22:07:04 GMT 52.214340 4.439497 2,825 135 155 -64
2019-04-15 22:07:01 GMT 52.218292 4.435120 2,825 149 155 0
2019-04-15 22:06:58 GMT 52.218292 4.435120 2,825 151 157 -64
2019-04-15 22:06:54 GMT 52.220531 4.433062 2,825 151 157 -64
2019-04-15 22:06:50 GMT 52.223007 4.430923 2,825 151 157 -64
2019-04-15 22:06:47 GMT 52.224861 4.429295 2,825 151 157 -128
2019-04-15 22:06:44 GMT 52.227127 4.427261 2,825 151 160 -64
2019-04-15 22:06:41 GMT 52.229145 4.425450 2,850 151 161 -64
2019-04-15 22:06:37 GMT 52.231564 4.423410 2,825 151 166 -64
2019-04-15 22:06:33 GMT 52.234039 4.421158 2,825 151 171 128
2019-04-15 22:06:30 GMT 52.236282 4.419174 2,825 151 175 64
2019-04-15 22:06:27 GMT 52.238571 4.417191 2,825 151 175 64
2019-04-15 22:06:23 GMT 52.241730 4.414368 2,825 151 186 -64
2019-04-15 22:06:20 GMT 52.243698 4.412613 2,825 151 198 -320
2019-04-15 22:06:17 GMT 52.246040 4.410540 2,825 151 198 -320
2019-04-15 22:06:12 GMT 52.249512 4.407425 2,800 151 196 -192
2019-04-15 22:06:09 GMT 52.253910 4.403477 2,850 151 202 -576
2019-04-15 22:06:02 GMT 52.258053 4.399789 2,925 150 209 -640
2019-04-15 22:05:59 GMT 52.262753 4.395551 2,925 150 209 -640
2019-04-15 22:05:52 GMT 52.266895 4.391785 2,975 150 213 -512
2019-04-15 22:05:48 GMT 52.272034 4.387131 3,025 150 217 -512
2019-04-15 22:05:45 GMT 52.272034 4.387131 3,050 150 223 0
2019-04-15 22:05:41 GMT 52.275558 4.383926 3,050 150 219 -576
2019-04-15 22:05:38 GMT 52.278118 4.381583 3,125 150 221 -640
2019-04-15 22:05:35 GMT 52.281052 4.378891 3,150 149 253 -1024
2019-04-15 22:05:31 GMT 52.285099 4.375148 3,175 150 223 -832
2019-04-15 22:05:28 GMT 52.287102 4.373343 3,275 150 224 -1088
2019-04-15 22:05:25 GMT 52.290173 4.370518 3,275 150 224 -1216
2019-04-15 22:05:22 GMT 52.292816 4.368134 3,325 150 223 -1344
2019-04-15 22:05:19 GMT 52.300091 4.361415 3,500 150 223 -1920
2019-04-15 22:05:15 GMT 52.300091 4.361415 3,475 150 223 -1472
2019-04-15 22:05:12 GMT 52.301907 4.359767 3,550 150 223 -1536
2019-04-15 22:05:09 GMT 52.305588 4.356308 3,650 150 223 -1664
2019-04-15 22:05:06 GMT 52.307632 4.354431 3,725 150 223 -1856
2019-04-15 22:05:02 GMT 52.311401 4.350978 3,850 150 223 -2048
2019-04-15 22:04:56 GMT 52.316429 4.346270 4,100 150 223 -1984
2019-04-15 22:04:53 GMT 52.319828 4.343131 4,200 150 223 -1984
2019-04-15 22:04:50 GMT 52.321644 4.341483 4,300 150 223 -1920
2019-04-15 22:04:47 GMT 52.324402 4.338837 4,350 150 224 -1856
2019-04-15 22:04:43 GMT 52.328300 4.335205 4,650 149 230 -1408
2019-04-15 22:04:40 GMT 52.330254 4.333322 4,600 149 228 -1536
2019-04-15 22:04:37 GMT 52.333561 4.330261 4,575 149 228 -1472
2019-04-15 22:04:34 GMT 52.337311 4.326630 4,675 149 229 -1408
2019-04-15 22:04:30 GMT 52.339920 4.324112 4,750 149 234 -1024
2019-04-15 22:04:27 GMT 52.345184 4.319000 4,850 149 239 -896
2019-04-15 22:04:24 GMT 52.345184 4.319000 4,875 149 242 -896
2019-04-15 22:04:20 GMT 52.349297 4.315037 4,900 149 244 -896
2019-04-15 22:04:17 GMT 52.352413 4.311977 5,000 149 250 -1024
2019-04-15 22:04:11 GMT 52.359398 4.305150 5,050 149 255 -1024
2019-04-15 22:04:08 GMT 52.361259 4.303345 5,075 149 256 -1088
2019-04-15 22:04:04 GMT 52.365772 4.298950 5,175 149 262 -960
2019-04-15 22:04:01 GMT 52.368286 4.296518 5,225 149 264 -1024
2019-04-15 22:03:58 GMT 52.376587 4.288406 5,325 149 266 -1216
2019-04-15 22:03:53 GMT 52.376587 4.288406 5,600 149 266 -1280
2019-04-15 22:03:49 GMT 52.381557 4.283569 5,500 149 266 -1216
2019-04-15 22:03:46 GMT 52.384953 4.280273 5,550 149 266 -1280
2019-04-15 22:03:43 GMT 52.392746 4.272842 5,900 149 266 -1280
2019-04-15 22:03:38 GMT 52.395905 4.269791 5,725 149 266 -1280
2019-04-15 22:03:35 GMT 52.395905 4.269791 5,775 149 266 -1216
2019-04-15 22:03:32 GMT 52.398651 4.267120 5,800 149 266 -1216
2019-04-15 22:03:29 GMT 52.403015 4.262931 5,900 149 266 -1088
2019-04-15 22:03:26 GMT 52.405014 4.261017 5,900 149 266 -1088
2019-04-15 22:03:22 GMT 52.409580 4.256574 6,075 149 268 -1088
2019-04-15 22:03:17 GMT 52.415863 4.250412 6,125 149 268 -1088
2019-04-15 22:03:14 GMT 52.418655 4.247742 6,150 149 269 -1024
2019-04-15 22:03:11 GMT 52.421219 4.245224 6,175 149 269 -1088
2019-04-15 22:03:08 GMT 52.425827 4.240801 6,250 149 269 -1024
2019-04-15 22:03:02 GMT 52.431831 4.234916 6,350 149 270 -1088
2019-04-15 22:02:57 GMT 52.436581 4.230364 6,575 149 272 -1088
2019-04-15 22:02:54 GMT 52.439896 4.227142 6,500 149 271 -1088
2019-04-15 22:02:50 GMT 52.443787 4.223328 6,525 149 271 -1088
2019-04-15 22:02:46 GMT 52.448776 4.218597 6,600 149 272 -1152
2019-04-15 22:02:43 GMT 52.451756 4.215768 6,725 149 272 -1152
2019-04-15 22:02:40 GMT 52.454781 4.212864 6,750 149 272 -1216
2019-04-15 22:02:36 GMT 52.460129 4.207764 6,850 149 273 -1216
2019-04-15 22:02:33 GMT 52.462967 4.205093 6,925 150 273 -1280
2019-04-15 22:02:30 GMT 52.465721 4.202506 6,950 150 273 -1280
2019-04-15 22:02:27 GMT 52.469212 4.199289 7,000 150 273 -1216
2019-04-15 22:02:23 GMT 52.474594 4.194260 7,100 150 273 -1216
2019-04-15 22:02:19 GMT 52.478245 4.190892 7,175 150 274 -1152
2019-04-15 22:02:16 GMT 52.481461 4.187927 7,225 150 274 -1152
2019-04-15 22:02:13 GMT 52.484756 4.184875 7,275 150 274 -1152
2019-04-15 22:02:09 GMT 52.488625 4.181318 7,350 150 275 -1152
2019-04-15 22:02:05 GMT 52.493515 4.176845 7,425 150 275 -1152
2019-04-15 22:02:02 GMT 52.497162 4.173431 7,475 150 275 -1152
2019-04-15 22:01:59 GMT 52.500404 4.170489 7,500 150 276 -1152
2019-04-15 22:01:56 GMT 52.503616 4.167480 7,625 150 276 -1152
2019-04-15 22:01:53 GMT 52.508514 4.162903 7,700 150 277 -1216
2019-04-15 22:01:50 GMT 52.515766 4.156128 7,750 150 277 -1152
2019-04-15 22:01:45 GMT 52.519535 4.152597 7,850 150 277 -1216
2019-04-15 22:01:42 GMT 52.519535 4.152597 7,850 150 277 -1216
2019-04-15 22:01:39 GMT 52.523773 4.148594 7,950 150 278 -1216
2019-04-15 22:01:36 GMT 52.526424 4.146083 8,000 150 278 -1216
2019-04-15 22:01:33 GMT 52.528660 4.143964 8,025 150 278 -1216
2019-04-15 22:01:30 GMT 52.532478 4.140355 8,125 150 278 -1216
2019-04-15 22:01:27 GMT 52.536015 4.136980 8,175 149 278 -1216
2019-04-15 22:01:23 GMT 52.541603 4.131723 8,300 149 278 -1280
2019-04-15 22:01:20 GMT 52.545044 4.128418 8,325 149 278 -1216
2019-04-15 22:01:17 GMT 52.547375 4.126151 8,375 149 278 -1280
2019-04-15 22:01:13 GMT 52.551846 4.121913 8,550 149 279 -1280
2019-04-15 22:01:10 GMT 52.554657 4.119263 8,550 149 279 -1216
2019-04-15 22:01:07 GMT 52.558083 4.115949 8,550 149 279 -1216
2019-04-15 22:01:04 GMT 52.561340 4.112854 8,625 149 280 -1152
2019-04-15 22:01:00 GMT 52.566368 4.108024 8,725 149 280 -1088
2019-04-15 22:00:57 GMT 52.569626 4.104919 8,775 149 280 -1088
2019-04-15 22:00:53 GMT 52.574421 4.100255 8,850 149 281 -1088
2019-04-15 22:00:50 GMT 52.578239 4.096566 8,900 149 282 -1088
2019-04-15 22:00:47 GMT 52.580753 4.094212 8,950 149 282 -1088
2019-04-15 22:00:44 GMT 52.588074 4.087296 9,075 150 282 -1280
2019-04-15 22:00:41 GMT 52.588074 4.087296 9,075 150 282 -1280
2019-04-15 22:00:37 GMT 52.592606 4.082947 9,125 150 282 -1344
2019-04-15 22:00:34 GMT 52.595581 4.080200 9,200 150 282 -1344
2019-04-15 22:00:31 GMT 52.599884 4.076157 9,300 150 282 -1408
2019-04-15 22:00:28 GMT 52.602913 4.073260 9,375 150 282 -1408
2019-04-15 22:00:25 GMT 52.610962 4.065628 9,450 149 283 -1472
2019-04-15 22:00:21 GMT 52.613663 4.063034 9,550 149 282 -1472
2019-04-15 22:00:15 GMT 52.616364 4.060440 9,650 149 282 -1472
2019-04-15 22:00:11 GMT 52.624695 4.052429 9,750 149 281 -1344
2019-04-15 22:00:05 GMT 52.629364 4.047775 9,900 148 282 -1216
2019-04-15 22:00:02 GMT 52.632523 4.044647 9,925 148 282 -1216
2019-04-15 21:59:59 GMT 52.634613 4.042498 10,025 147 282 -576
2019-04-15 21:59:56 GMT 52.638931 4.038086 10,025 147 283 -192
2019-04-15 21:59:52 GMT 52.642410 4.034271 10,025 146 283 -64
2019-04-15 21:59:49 GMT 52.645554 4.030727 10,025 143 283 0
2019-04-15 21:59:45 GMT 52.650925 4.024200 10,025 141 283 0
2019-04-15 21:59:41 GMT 52.653580 4.020767 10,025 140 283 0
2019-04-15 21:59:38 GMT 52.657242 4.015808 10,025 140 283 -64
2019-04-15 21:59:34 GMT 52.661148 4.010402 10,025 140 283 0
2019-04-15 21:59:31 GMT 52.664127 4.006321 10,025 140 283 0
2019-04-15 21:59:28 GMT 52.666965 4.002398 10,025 140 283 -64
2019-04-15 21:59:25 GMT 52.673080 3.993988 10,025 140 283 0
2019-04-15 21:59:22 GMT 52.673080 3.993988 10,025 140 283 0
2019-04-15 21:59:19 GMT 52.676102 3.989868 10,025 140 282 0
2019-04-15 21:59:16 GMT 52.679211 3.985604 10,025 140 282 -64
2019-04-15 21:59:13 GMT 52.683334 3.979950 10,025 140 282 0
2019-04-15 21:59:07 GMT 52.689266 3.971793 10,025 140 282 -64
2019-04-15 21:59:04 GMT 52.692150 3.967791 10,025 140 282 -64
2019-04-15 21:59:01 GMT 52.694366 3.964767 10,025 140 283 0
2019-04-15 21:58:57 GMT 52.698296 3.959394 10,050 139 283 -64
2019-04-15 21:58:54 GMT 52.701187 3.955383 10,050 137 282 -64
2019-04-15 21:58:51 GMT 52.703884 3.951625 10,050 139 282 -64
2019-04-15 21:58:47 GMT 52.708401 3.945112 10,050 138 282 -64
2019-04-15 21:58:43 GMT 52.712173 3.939438 10,050 135 282 0
2019-04-15 21:58:40 GMT 52.715195 3.934440 10,050 133 282 64
2019-04-15 21:58:37 GMT 52.717896 3.929443 10,025 129 281 64
2019-04-15 21:58:34 GMT 52.721191 3.922272 10,025 123 282 64
2019-04-15 21:58:31 GMT 52.722084 3.919922 10,025 119 282 64
2019-04-15 21:58:27 GMT 52.725857 3.907131 10,025 108 283 0
2019-04-15 21:58:21 GMT 52.727207 3.900146 10,025 104 284 -64
2019-04-15 21:58:17 GMT 52.728558 3.890494 10,025 100 284 -64
2019-04-15 21:58:13 GMT 52.729248 3.883438 10,025 98 284 -64
2019-04-15 21:58:10 GMT 52.729767 3.877154 10,025 98 284 0
2019-04-15 21:58:07 GMT 52.730324 3.870797 10,025 98 283 0
2019-04-15 21:58:04 GMT 52.730930 3.863499 10,025 98 283 0
2019-04-15 21:58:00 GMT 52.731628 3.855591 10,025 98 283 0
2019-04-15 21:57:55 GMT 52.732590 3.844452 10,025 98 283 0
2019-04-15 21:57:52 GMT 52.733257 3.836740 10,025 98 283 0
2019-04-15 21:57:46 GMT 52.734188 3.826303 10,025 98 283 0
2019-04-15 21:57:42 GMT 52.734970 3.817062 10,025 98 283 -64
2019-04-15 21:57:39 GMT 52.735493 3.811314 10,025 98 283 -64
2019-04-15 21:57:36 GMT 52.736069 3.804245 10,025 98 283 0
2019-04-15 21:57:30 GMT 52.737442 3.788834 10,025 98 283 -64
2019-04-15 21:57:27 GMT 52.737946 3.782883 10,025 98 283 0
2019-04-15 21:57:24 GMT 52.738331 3.778355 10,025 98 283 0
2019-04-15 21:57:20 GMT 52.739216 3.768154 10,025 97 283 0
2019-04-15 21:57:14 GMT 52.740189 3.756409 10,025 97 283 -64
2019-04-15 21:57:11 GMT 52.740646 3.750839 10,025 97 283 0
2019-04-15 21:57:08 GMT 52.741219 3.744219 10,025 97 283 -64
2019-04-15 21:57:04 GMT 52.741928 3.735809 10,025 97 283 -64
2019-04-15 21:57:00 GMT 52.742802 3.725385 10,025 97 283 -64
2019-04-15 21:56:55 GMT 52.743713 3.714447 10,025 97 283 -64
2019-04-15 21:56:52 GMT 52.744125 3.708878 10,025 97 283 -64
2019-04-15 21:56:49 GMT 52.744522 3.704433 10,025 97 283 -64
2019-04-15 21:56:46 GMT 52.745087 3.696899 10,025 96 283 -64
2019-04-15 21:56:42 GMT 52.746201 3.679949 10,050 95 283 0
2019-04-15 21:56:39 GMT 52.746201 3.679949 10,050 94 283 0
2019-04-15 21:56:35 GMT 52.746433 3.674848 10,050 93 283 0
2019-04-15 21:56:32 GMT 52.746666 3.667472 10,025 92 284 64
2019-04-15 21:56:27 GMT 52.746616 3.656250 10,025 82 286 -64
2019-04-15 21:56:24 GMT 52.746140 3.648682 10,025 77 289 0
2019-04-15 21:56:20 GMT 52.745407 3.641575 10,025 77 287 -64
2019-04-15 21:56:17 GMT 52.743713 3.628540 10,025 77 287 -64
2019-04-15 21:56:11 GMT 52.742943 3.622742 10,025 77 287 0
2019-04-15 21:56:08 GMT 52.742058 3.616307 10,025 77 288 -64
2019-04-15 21:56:05 GMT 52.741058 3.608856 10,025 77 288 -64
2019-04-15 21:56:02 GMT 52.740101 3.601789 10,025 77 288 0
2019-04-15 21:55:59 GMT 52.739403 3.596610 10,025 77 288 0
2019-04-15 21:55:56 GMT 52.738148 3.587193 10,025 77 288 0
2019-04-15 21:55:53 GMT 52.737495 3.582406 10,025 77 289 0
2019-04-15 21:55:50 GMT 52.736656 3.575971 10,025 77 289 -64
2019-04-15 21:55:47 GMT 52.735912 3.570400 10,025 77 289 0
2019-04-15 21:55:44 GMT 52.734787 3.562012 10,025 77 289 -64
2019-04-15 21:55:40 GMT 52.733955 3.555725 10,025 77 289 0
2019-04-15 21:55:37 GMT 52.733025 3.548898 10,025 77 289 0
2019-04-15 21:55:33 GMT 52.731441 3.537205 10,025 77 289 0
2019-04-15 21:55:30 GMT 52.731033 3.534012 10,025 77 289 0
2019-04-15 21:55:27 GMT 52.730164 3.527527 10,025 77 289 -64
2019-04-15 21:55:23 GMT 52.728882 3.517990 10,025 77 290 0
2019-04-15 21:55:19 GMT 52.727905 3.510917 10,025 77 290 0
2019-04-15 21:55:16 GMT 52.726788 3.502677 10,025 77 290 0
2019-04-15 21:55:12 GMT 52.725624 3.494045 10,025 77 290 0
2019-04-15 21:55:09 GMT 52.724899 3.488693 10,025 77 290 -64
2019-04-15 21:55:06 GMT 52.724030 3.482208 10,025 77 290 0
2019-04-15 21:55:01 GMT 52.722412 3.470346 10,025 77 290 0
2019-04-15 21:54:58 GMT 52.721016 3.459909 10,025 77 290 0
2019-04-15 21:54:49 GMT 52.719223 3.446808 10,025 77 290 0
2019-04-15 21:54:46 GMT 52.718079 3.438110 10,025 77 291 -64
2019-04-15 21:54:38 GMT 52.715988 3.422791 10,025 77 290 0
2019-04-15 21:54:35 GMT 52.715008 3.415492 10,025 77 291 0
2019-04-15 21:54:27 GMT 52.712635 3.398150 10,025 77 290 0
2019-04-15 21:54:24 GMT 52.711845 3.392107 10,025 77 290 0
2019-04-15 21:54:19 GMT 52.710205 3.380280 10,025 77 290 0
2019-04-15 21:54:16 GMT 52.709377 3.373980 10,025 77 290 -64
2019-04-15 21:54:13 GMT 52.708679 3.368801 10,025 77 290 -64
2019-04-15 21:54:09 GMT 52.707367 3.359070 10,025 77 291 -64
2019-04-15 21:54:06 GMT 52.706581 3.353655 10,025 77 291 -64
2019-04-15 21:54:03 GMT 52.704987 3.342209 10,050 75 290 -64
2019-04-15 21:53:56 GMT 52.703018 3.329849 10,050 74 291 0
2019-04-15 21:53:53 GMT 52.702255 3.325326 10,050 72 291 64
2019-04-15 21:53:49 GMT 52.700020 3.314889 10,025 64 293 0
2019-04-15 21:53:46 GMT 52.698624 3.309784 10,025 53 295 0
2019-04-15 21:53:43 GMT 52.697086 3.304844 10,025 53 295 0
2019-04-15 21:53:40 GMT 52.693680 3.296432 10,025 50 296 0
2019-04-15 21:53:37 GMT 52.688244 3.286639 10,025 35 298 64
2019-04-15 21:53:33 GMT 52.688244 3.286639 10,025 41 298 64
2019-04-15 21:53:29 GMT 52.682144 3.278503 10,025 31 300 -64
2019-04-15 21:53:25 GMT 52.679211 3.275495 10,025 22 301 0
2019-04-15 21:53:21 GMT 52.674911 3.271713 10,025 26 300 -64
2019-04-15 21:53:17 GMT 52.669201 3.267491 10,025 22 302 0
2019-04-15 21:53:14 GMT 52.666641 3.265686 10,025 21 301 -64
2019-04-15 21:53:11 GMT 52.660309 3.261490 10,025 22 301 -64
2019-04-15 21:53:07 GMT 52.657051 3.259408 10,025 22 301 0
2019-04-15 21:53:04 GMT 52.652676 3.256505 10,025 22 301 0
2019-04-15 21:53:01 GMT 52.648811 3.253915 10,025 22 301 -64
2019-04-15 21:52:54 GMT 52.639782 3.247951 10,025 21 300 -64
2019-04-15 21:52:50 GMT 52.634892 3.244655 10,025 21 300 0
2019-04-15 21:52:46 GMT 52.630516 3.241830 10,025 21 300 -64
2019-04-15 21:52:43 GMT 52.625351 3.238377 10,025 21 300 -64
2019-04-15 21:52:40 GMT 52.622406 3.236465 10,025 21 300 -64
2019-04-15 21:52:37 GMT 52.613892 3.230820 10,025 21 299 -64
2019-04-15 21:52:34 GMT 52.613892 3.230820 10,025 21 299 0
2019-04-15 21:52:28 GMT 52.606201 3.225708 10,025 21 299 -64
2019-04-15 21:52:24 GMT 52.601807 3.222809 10,025 21 299 0
2019-04-15 21:52:21 GMT 52.597458 3.219910 10,025 21 299 0
2019-04-15 21:52:18 GMT 52.593842 3.217545 10,025 21 299 0
2019-04-15 21:52:13 GMT 52.586929 3.212967 10,025 21 299 0
2019-04-15 21:52:07 GMT 52.579357 3.208008 10,025 21 299 -64
2019-04-15 21:52:04 GMT 52.575073 3.205185 10,025 21 299 0
2019-04-15 21:51:58 GMT 52.568275 3.200710 10,025 22 301 -64
2019-04-15 21:51:54 GMT 52.562485 3.196869 10,025 22 301 0
2019-04-15 21:51:49 GMT 52.556580 3.192902 10,025 22 301 -64
2019-04-15 21:51:46 GMT 52.551407 3.189468 10,025 22 301 0
2019-04-15 21:51:42 GMT 52.547012 3.186569 10,025 22 301 0
2019-04-15 21:51:37 GMT 52.540440 3.182111 10,025 22 303 0
2019-04-15 21:51:34 GMT 52.536713 3.179550 10,025 22 303 0
2019-04-15 21:51:30 GMT 52.530991 3.175735 10,025 22 304 64
2019-04-15 21:51:26 GMT 52.527218 3.173165 10,025 22 304 0
2019-04-15 21:51:23 GMT 52.522797 3.170105 10,025 22 304 0
2019-04-15 21:51:20 GMT 52.514229 3.164298 10,025 22 304 -64
2019-04-15 21:51:16 GMT 52.514229 3.164298 10,025 22 304 -64
2019-04-15 21:51:12 GMT 52.504128 3.157314 10,025 22 304 -64
2019-04-15 21:51:09 GMT 52.504128 3.157314 10,025 22 304 -64
2019-04-15 21:51:03 GMT 52.492813 3.149719 10,025 22 304 -64
2019-04-15 21:50:55 GMT 52.486816 3.145828 10,050 20 303 -64
2019-04-15 21:50:52 GMT 52.478989 3.141384 10,050 18 303 0
2019-04-15 21:50:45 GMT 52.472626 3.138580 10,025 0 306 -64
2019-04-15 21:50:42 GMT 52.468185 3.137283 10,050 2 306 0
2019-04-15 21:50:35 GMT 52.458179 3.136754 10,025 348 307 0
2019-04-15 21:50:32 GMT 52.454502 3.137381 10,025 348 307 0
2019-04-15 21:50:29 GMT 52.450592 3.138480 10,025 345 308 64
2019-04-15 21:50:22 GMT 52.440170 3.144150 10,025 332 309 -64
2019-04-15 21:50:19 GMT 52.435547 3.147888 10,025 333 309 -64
2019-04-15 21:50:13 GMT 52.429596 3.153939 10,025 325 307 -64
2019-04-15 21:50:10 GMT 52.422913 3.161621 10,025 325 310 0
2019-04-15 21:50:07 GMT 52.422913 3.161621 10,025 325 306 0
2019-04-15 21:50:04 GMT 52.418701 3.166504 10,025 325 310 -64
2019-04-15 21:50:01 GMT 52.415680 3.170090 10,025 325 310 -64
2019-04-15 21:49:58 GMT 52.410782 3.175812 10,025 325 308 -64
2019-04-15 21:49:53 GMT 52.402550 3.185486 10,025 325 308 0
2019-04-15 21:49:50 GMT 52.402550 3.185486 10,025 325 308 0
2019-04-15 21:49:47 GMT 52.400269 3.188232 10,025 325 308 -64
2019-04-15 21:49:44 GMT 52.395847 3.193333 10,025 325 308 0
2019-04-15 21:49:40 GMT 52.391426 3.198512 10,025 325 308 -64
2019-04-15 21:49:36 GMT 52.386814 3.203927 10,025 325 308 0
2019-04-15 21:49:30 GMT 52.379745 3.212204 10,025 325 308 -64
2019-04-15 21:49:27 GMT 52.376156 3.216483 10,025 325 306 0
2019-04-15 21:49:23 GMT 52.372246 3.221034 10,025 325 308 -64
2019-04-15 21:49:20 GMT 52.367935 3.226089 10,025 325 308 0
2019-04-15 21:49:16 GMT 52.363682 3.231079 10,025 325 307 0
2019-04-15 21:49:13 GMT 52.360107 3.235321 10,025 325 306 0
2019-04-15 21:49:09 GMT 52.354694 3.241673 10,025 325 306 0
2019-04-15 21:49:06 GMT 52.348572 3.248749 10,025 325 306 -64
2019-04-15 21:48:59 GMT 52.343491 3.254700 10,025 325 306 -64
2019-04-15 21:48:56 GMT 52.340240 3.258438 10,025 325 306 0
2019-04-15 21:48:53 GMT 52.336212 3.263096 10,025 325 306 -64
2019-04-15 21:48:47 GMT 52.329620 3.270721 10,025 325 307 0
2019-04-15 21:48:41 GMT 52.315868 3.286639 10,025 325 307 0
2019-04-15 21:48:35 GMT 52.315868 3.286639 10,025 325 306 0
2019-04-15 21:48:31 GMT 52.311356 3.291855 10,025 325 307 -64
2019-04-15 21:48:28 GMT 52.307877 3.295822 10,025 325 307 0
2019-04-15 21:48:24 GMT 52.304279 3.299979 10,025 326 308 -64
2019-04-15 21:48:21 GMT 52.299957 3.304901 10,025 326 309 0
2019-04-15 21:48:18 GMT 52.296021 3.309402 10,025 325 307 0
2019-04-15 21:48:15 GMT 52.292408 3.313555 10,025 325 307 0
2019-04-15 21:48:11 GMT 52.288330 3.318253 10,025 325 307 0
2019-04-15 21:48:07 GMT 52.283661 3.323593 10,025 326 308 0
2019-04-15 21:48:04 GMT 52.279221 3.328629 10,025 326 308 0
2019-04-15 21:48:00 GMT 52.276070 3.332232 10,025 326 309 0
2019-04-15 21:47:56 GMT 52.271133 3.337803 10,025 326 309 -64
2019-04-15 21:47:52 GMT 52.266357 3.343201 10,025 326 309 -64
2019-04-15 21:47:48 GMT 52.261543 3.348711 10,025 325 310 0
2019-04-15 21:47:44 GMT 52.256516 3.354440 10,025 326 309 -64
2019-04-15 21:47:41 GMT 52.253952 3.357315 10,025 326 309 -64
2019-04-15 21:47:38 GMT 52.249924 3.361816 10,025 326 309 0
2019-04-15 21:47:33 GMT 52.243946 3.368565 10,025 326 311 0
2019-04-15 21:47:29 GMT 52.239120 3.374023 10,025 326 309 0
2019-04-15 21:47:23 GMT 52.231796 3.382263 10,025 326 311 0
2019-04-15 21:47:19 GMT 52.226624 3.388138 10,025 326 311 0
2019-04-15 21:47:14 GMT 52.220810 3.394618 10,025 326 311 0
2019-04-15 21:47:11 GMT 52.218338 3.397446 10,025 326 311 0
2019-04-15 21:47:08 GMT 52.214996 3.401108 10,025 326 311 -64
2019-04-15 21:47:05 GMT 52.211082 3.405526 10,025 326 311 0
2019-04-15 21:47:01 GMT 52.205978 3.411179 10,025 326 311 -64
2019-04-15 21:46:57 GMT 52.201351 3.416356 10,025 326 311 -64
2019-04-15 21:46:54 GMT 52.198002 3.420122 10,025 326 311 0
2019-04-15 21:46:51 GMT 52.193848 3.424759 10,025 326 312 -64
2019-04-15 21:46:48 GMT 52.190880 3.428048 10,025 326 311 -64
2019-04-15 21:46:45 GMT 52.186131 3.433384 10,025 326 312 0
2019-04-15 21:46:42 GMT 52.183243 3.436523 10,025 326 312 -64
2019-04-15 21:46:39 GMT 52.177052 3.443429 10,025 326 312 0
2019-04-15 21:46:33 GMT 52.172653 3.448334 10,025 326 312 0
2019-04-15 21:46:30 GMT 52.169586 3.451767 10,025 326 312 0
2019-04-15 21:46:27 GMT 52.165741 3.456039 10,050 326 312 0
2019-04-15 21:46:24 GMT 52.161942 3.460236 10,025 326 312 0
2019-04-15 21:46:21 GMT 52.158371 3.464279 10,025 326 312 0
2019-04-15 21:46:17 GMT 52.154240 3.468933 10,025 326 312 0
2019-04-15 21:46:13 GMT 52.149261 3.474505 10,025 326 312 -64
2019-04-15 21:46:10 GMT 52.145676 3.478507 10,025 326 312 -64
2019-04-15 21:46:06 GMT 52.137157 3.488081 10,025 326 311 0
2019-04-15 21:46:03 GMT 52.137157 3.488081 10,025 326 311 0
2019-04-15 21:46:00 GMT 52.133743 3.491974 10,025 326 311 -64
2019-04-15 21:45:56 GMT 52.128525 3.497849 10,025 326 311 -64
2019-04-15 21:45:53 GMT 52.124725 3.502121 10,025 326 311 -64
2019-04-15 21:45:50 GMT 52.121429 3.505859 10,025 326 311 -64
2019-04-15 21:45:46 GMT 52.116581 3.511309 10,025 326 310 -64
2019-04-15 21:45:43 GMT 52.112915 3.515472 10,025 326 310 0
2019-04-15 21:45:39 GMT 52.109272 3.519549 10,025 326 310 -64
2019-04-15 21:45:36 GMT 52.104675 3.524780 10,025 326 310 -64
2019-04-15 21:45:33 GMT 52.101498 3.528416 10,025 326 310 -64
2019-04-15 21:45:30 GMT 52.097492 3.532968 10,025 326 310 -64
2019-04-15 21:45:27 GMT 52.095291 3.535461 10,025 326 310 -64
2019-04-15 21:45:24 GMT 52.090805 3.540573 10,025 325 310 -64
2019-04-15 21:45:21 GMT 52.087051 3.544846 10,025 325 310 0
2019-04-15 21:45:15 GMT 52.080002 3.552856 10,025 325 310 -64
2019-04-15 21:45:11 GMT 52.075893 3.557530 10,025 326 310 -64
2019-04-15 21:45:08 GMT 52.070679 3.563416 10,025 326 310 0
2019-04-15 21:45:05 GMT 52.067780 3.566742 10,025 326 310 -64
2019-04-15 21:45:01 GMT 52.064117 3.570871 10,025 326 310 -64
2019-04-15 21:44:58 GMT 52.060577 3.574873 10,025 326 310 0
2019-04-15 21:44:55 GMT 52.056473 3.579559 10,025 326 310 0
2019-04-15 21:44:52 GMT 52.054199 3.582092 10,025 325 309 0
2019-04-15 21:44:49 GMT 52.049126 3.587899 10,025 326 310 0
2019-04-15 21:44:46 GMT 52.045727 3.591745 10,025 325 311 -64
2019-04-15 21:44:43 GMT 52.037842 3.600693 10,025 325 311 -64
2019-04-15 21:44:39 GMT 52.037842 3.600693 10,025 325 311 -64
2019-04-15 21:44:36 GMT 52.034546 3.604507 10,025 325 311 0
2019-04-15 21:44:33 GMT 52.031021 3.608475 10,025 325 311 0
2019-04-15 21:44:29 GMT 52.026077 3.614120 10,025 325 310 0
2019-04-15 21:44:26 GMT 52.021408 3.619461 10,025 325 310 0
2019-04-15 21:44:22 GMT 52.017883 3.623505 10,025 325 310 -64
2019-04-15 21:44:19 GMT 52.014492 3.627372 10,025 325 310 0
2019-04-15 21:44:16 GMT 52.011520 3.630753 10,025 325 310 0
2019-04-15 21:44:13 GMT 52.004391 3.638907 10,025 325 310 -64
2019-04-15 21:44:07 GMT 52.000618 3.643223 10,025 325 310 0
2019-04-15 21:44:04 GMT 51.996662 3.647775 10,025 325 309 -64
2019-04-15 21:44:01 GMT 51.992657 3.652326 10,025 325 309 -64
2019-04-15 21:43:57 GMT 51.985291 3.660812 10,025 325 309 -64
2019-04-15 21:43:54 GMT 51.981812 3.664780 10,025 325 309 0
2019-04-15 21:43:51 GMT 51.981812 3.664780 10,025 325 309 0
2019-04-15 21:43:48 GMT 51.978180 3.668963 10,025 325 309 -64
2019-04-15 21:43:45 GMT 51.974075 3.673630 10,025 325 309 0
2019-04-15 21:43:42 GMT 51.970917 3.677202 10,025 325 309 -64
2019-04-15 21:43:38 GMT 51.966728 3.682068 10,025 325 309 -64
2019-04-15 21:43:35 GMT 51.963318 3.685913 10,025 325 309 -64
2019-04-15 21:43:32 GMT 51.958649 3.691254 10,025 325 309 -64
2019-04-15 21:43:26 GMT 51.952606 3.698120 10,025 326 308 -64
2019-04-15 21:43:23 GMT 51.948994 3.702236 10,025 326 308 -64
2019-04-15 21:43:20 GMT 51.945686 3.705924 10,025 326 308 -64
2019-04-15 21:43:17 GMT 51.941498 3.710632 10,050 326 307 -64
2019-04-15 21:43:14 GMT 51.937820 3.714676 10,050 327 308 -64
2019-04-15 21:43:11 GMT 51.934753 3.718033 10,025 329 307 0
2019-04-15 21:43:08 GMT 51.927441 3.725542 10,025 329 307 0
2019-04-15 21:43:05 GMT 51.927441 3.725542 10,025 330 307 0
2019-04-15 21:43:02 GMT 51.923016 3.729701 10,025 332 307 0
2019-04-15 21:42:59 GMT 51.920883 3.731537 10,025 334 307 0
2019-04-15 21:42:56 GMT 51.911362 3.738708 10,025 339 307 0
2019-04-15 21:42:53 GMT 51.911362 3.738708 10,025 338 307 -64
2019-04-15 21:42:49 GMT 51.907928 3.740997 10,025 339 307 0
2019-04-15 21:42:45 GMT 51.901611 3.744965 10,025 339 307 0
2019-04-15 21:42:42 GMT 51.897629 3.747482 10,025 339 307 0
2019-04-15 21:42:38 GMT 51.893547 3.750105 10,025 339 307 -64
2019-04-15 21:42:35 GMT 51.888382 3.753316 10,025 339 307 0
2019-04-15 21:42:32 GMT 51.884518 3.755722 10,025 339 307 0
2019-04-15 21:42:28 GMT 51.874786 3.761902 10,025 339 306 -64
2019-04-15 21:42:25 GMT 51.874786 3.761902 10,025 339 306 -64
2019-04-15 21:42:22 GMT 51.871994 3.763708 10,025 339 306 -64
2019-04-15 21:42:19 GMT 51.863430 3.769150 10,025 339 306 -64
2019-04-15 21:42:13 GMT 51.859985 3.771286 10,025 339 306 0
2019-04-15 21:42:10 GMT 51.852631 3.776016 10,025 339 306 -64
2019-04-15 21:42:07 GMT 51.848392 3.778687 10,025 339 306 -64
2019-04-15 21:42:04 GMT 51.848392 3.778687 10,025 339 306 -64
2019-04-15 21:42:01 GMT 51.844204 3.781357 10,025 339 306 0
2019-04-15 21:41:58 GMT 51.834473 3.787537 10,025 339 305 -64
2019-04-15 21:41:54 GMT 51.834473 3.787537 10,025 339 306 -64
2019-04-15 21:41:51 GMT 51.829834 3.790506 10,025 339 305 0
2019-04-15 21:41:47 GMT 51.820274 3.796616 10,025 339 305 0
2019-04-15 21:41:43 GMT 51.820274 3.796616 10,025 339 305 0
2019-04-15 21:41:40 GMT 51.815529 3.799591 10,025 339 305 0
2019-04-15 21:41:37 GMT 51.812759 3.801418 10,025 339 305 0
2019-04-15 21:41:34 GMT 51.808594 3.804090 10,025 339 305 -64
2019-04-15 21:41:31 GMT 51.804108 3.806985 10,025 339 306 -64
2019-04-15 21:41:27 GMT 51.800304 3.809433 10,025 339 306 -64
2019-04-15 21:41:24 GMT 51.794765 3.812943 10,025 339 306 -64
2019-04-15 21:41:21 GMT 51.791088 3.815308 10,025 339 306 -64
2019-04-15 21:41:17 GMT 51.780800 3.821869 10,050 339 306 -64
2019-04-15 21:41:13 GMT 51.780800 3.821869 10,050 340 306 -64
2019-04-15 21:41:09 GMT 51.774582 3.825618 10,050 341 306 -64
2019-04-15 21:41:06 GMT 51.771378 3.827399 10,025 342 305 0
2019-04-15 21:41:03 GMT 51.763390 3.831329 10,050 347 305 0
2019-04-15 21:40:56 GMT 51.757736 3.833264 10,025 353 304 0
2019-04-15 21:40:53 GMT 51.753525 3.834006 10,025 356 305 0
2019-04-15 21:40:50 GMT 51.749313 3.834229 10,025 3 303 0
2019-04-15 21:40:46 GMT 51.744164 3.833694 10,025 9 302 -64
2019-04-15 21:40:43 GMT 51.739883 3.832595 10,025 21 299 -64
2019-04-15 21:40:39 GMT 51.734756 3.830368 10,025 31 298 -64
2019-04-15 21:40:35 GMT 51.730087 3.827473 10,025 22 299 -64
2019-04-15 21:40:32 GMT 51.724609 3.822861 10,025 32 297 0
2019-04-15 21:40:29 GMT 51.721985 3.820050 10,025 36 296 0
2019-04-15 21:40:26 GMT 51.719444 3.816986 10,025 39 296 -64
2019-04-15 21:40:23 GMT 51.711960 3.804684 10,025 151 283 0
2019-04-15 21:40:19 GMT 51.711960 3.804684 10,025 56 292 0
2019-04-15 21:40:16 GMT 51.709946 3.800278 10,025 59 292 0
2019-04-15 21:40:13 GMT 51.707478 3.793488 10,025 62 290 -64
2019-04-15 21:40:10 GMT 51.705570 3.786850 10,025 69 289 -64
2019-04-15 21:40:07 GMT 51.704315 3.781128 10,025 74 289 -64
2019-04-15 21:40:04 GMT 51.703476 3.776169 10,025 76 288 0
2019-04-15 21:40:01 GMT 51.702896 3.771354 10,025 83 287 0
2019-04-15 21:39:58 GMT 51.702393 3.763634 10,025 88 287 0
2019-04-15 21:39:54 GMT 51.702499 3.754501 10,025 97 286 0
2019-04-15 21:39:51 GMT 51.703011 3.747787 10,025 102 285 0
2019-04-15 21:39:48 GMT 51.704128 3.739929 10,025 107 284 0
2019-04-15 21:39:45 GMT 51.706421 3.730230 10,025 112 283 0
2019-04-15 21:39:42 GMT 51.706421 3.730230 10,025 121 283 0
2019-04-15 21:39:39 GMT 51.707977 3.725330 10,025 121 283 0
2019-04-15 21:39:35 GMT 51.711063 3.717804 10,025 128 282 0
2019-04-15 21:39:31 GMT 51.714020 3.712117 10,025 150 282 0
2019-04-15 21:39:28 GMT 51.717361 3.706846 10,025 138 281 0
2019-04-15 21:39:25 GMT 51.720329 3.703079 10,025 148 282 0
2019-04-15 21:39:20 GMT 51.725739 3.697642 10,025 155 283 -64
2019-04-15 21:39:17 GMT 51.729309 3.694895 10,025 159 283 -64
2019-04-15 21:39:14 GMT 51.733597 3.692322 10,025 162 284 -128
2019-04-15 21:39:10 GMT 51.738438 3.690109 10,025 166 286 -64
2019-04-15 21:39:07 GMT 51.743324 3.688278 10,050 167 287 -64
2019-04-15 21:39:04 GMT 51.745789 3.687398 10,050 167 287 -64
2019-04-15 21:38:59 GMT 51.752838 3.685022 10,050 168 289 -64
2019-04-15 21:38:56 GMT 51.761665 3.681946 10,050 167 292 -64
2019-04-15 21:38:52 GMT 51.761665 3.681946 10,025 168 293 -64
2019-04-15 21:38:49 GMT 51.765110 3.680801 10,025 167 295 -64
2019-04-15 21:38:46 GMT 51.774563 3.677521 10,025 167 298 0
2019-04-15 21:38:43 GMT 51.774563 3.677521 10,025 167 303 64
2019-04-15 21:38:40 GMT 51.778244 3.676263 10,025 167 303 64
2019-04-15 21:38:37 GMT 51.780846 3.675385 10,025 167 305 64
2019-04-15 21:38:34 GMT 51.785980 3.673591 10,025 167 308 128
2019-04-15 21:38:31 GMT 51.789738 3.672256 10,025 167 313 128
2019-04-15 21:38:28 GMT 51.794579 3.670578 10,025 167 314 64
2019-04-15 21:38:25 GMT 51.798706 3.669137 10,025 167 316 64
2019-04-15 21:38:21 GMT 51.805145 3.666916 10,025 167 319 -64
2019-04-15 21:38:18 GMT 51.809475 3.665390 10,025 167 319 0
2019-04-15 21:38:13 GMT 51.816833 3.662827 10,025 167 318 -64
2019-04-15 21:38:10 GMT 51.821136 3.661342 10,025 167 317 -64
2019-04-15 21:38:07 GMT 51.824745 3.660049 10,025 167 317 -64
2019-04-15 21:38:03 GMT 51.830750 3.657913 10,025 167 315 0
2019-04-15 21:38:00 GMT 51.834751 3.656540 10,025 167 315 0
2019-04-15 21:37:57 GMT 51.839447 3.654884 10,025 167 314 0
2019-04-15 21:37:54 GMT 51.843552 3.653412 10,025 167 314 -64
2019-04-15 21:37:51 GMT 51.847229 3.652115 10,025 167 313 0
2019-04-15 21:37:48 GMT 51.856819 3.648758 10,025 167 312 -64
2019-04-15 21:37:45 GMT 51.856819 3.648758 10,025 167 311 -64
2019-04-15 21:37:42 GMT 51.861614 3.647079 10,025 167 311 -64
2019-04-15 21:37:38 GMT 51.865952 3.645531 10,025 167 310 0
2019-04-15 21:37:35 GMT 51.874054 3.642636 10,025 167 307 0
2019-04-15 21:37:32 GMT 51.874054 3.642636 10,025 167 308 0
2019-04-15 21:37:29 GMT 51.883209 3.639370 10,025 167 305 -64
2019-04-15 21:37:26 GMT 51.883209 3.639370 10,025 167 307 -64
2019-04-15 21:37:23 GMT 51.887218 3.637924 10,025 167 305 -64
2019-04-15 21:37:20 GMT 51.890800 3.636627 10,025 167 305 -64
2019-04-15 21:37:17 GMT 51.899460 3.633575 10,050 167 303 -64
2019-04-15 21:37:14 GMT 51.899460 3.633575 10,025 167 303 -64
2019-04-15 21:37:11 GMT 51.902905 3.632315 10,025 167 303 -64
2019-04-15 21:37:08 GMT 51.907513 3.630668 10,050 167 302 -64
2019-04-15 21:37:05 GMT 51.914867 3.628078 10,050 167 301 0
2019-04-15 21:37:02 GMT 51.918686 3.626744 10,025 167 300 -64
2019-04-15 21:36:59 GMT 51.924088 3.624782 10,025 167 298 0
2019-04-15 21:36:56 GMT 51.924088 3.624782 10,050 167 298 -64
2019-04-15 21:36:53 GMT 51.928650 3.623134 10,025 167 297 0
2019-04-15 21:36:50 GMT 51.931351 3.622192 10,025 167 296 -64
2019-04-15 21:36:47 GMT 51.939743 3.619156 10,025 167 296 0
2019-04-15 21:36:44 GMT 51.939743 3.619156 10,025 167 295 0
2019-04-15 21:36:41 GMT 51.942673 3.618164 10,025 167 295 0
2019-04-15 21:36:38 GMT 51.947754 3.616333 10,025 167 292 0
2019-04-15 21:36:35 GMT 51.951736 3.614883 10,050 167 292 -64
2019-04-15 21:36:32 GMT 51.956451 3.613205 10,025 167 290 0
2019-04-15 21:36:29 GMT 51.959885 3.611984 10,025 167 290 -64
2019-04-15 21:36:25 GMT 51.964725 3.610264 10,050 167 289 0
2019-04-15 21:36:22 GMT 51.968262 3.608932 10,025 167 288 -64
2019-04-15 21:36:19 GMT 51.972317 3.607518 10,050 167 287 -64
2019-04-15 21:36:15 GMT 51.977875 3.605499 10,050 167 287 -64
2019-04-15 21:36:12 GMT 51.982651 3.603751 10,050 167 286 0
2019-04-15 21:36:09 GMT 51.985611 3.602676 10,025 167 283 0
2019-04-15 21:36:06 GMT 51.988842 3.601475 10,050 167 285 -64
2019-04-15 21:36:03 GMT 51.993217 3.599906 10,050 167 283 0
2019-04-15 21:36:00 GMT 51.998199 3.598099 10,025 167 281 128
2019-04-15 21:35:57 GMT 52.001595 3.596845 10,025 167 282 128
2019-04-15 21:35:54 GMT 52.004288 3.595810 10,025 167 281 64
2019-04-15 21:35:51 GMT 52.008205 3.594413 10,025 166 278 512
2019-04-15 21:35:48 GMT 52.012257 3.592843 10,025 166 279 -128
2019-04-15 21:35:45 GMT 52.015514 3.591666 10,025 166 278 320
2019-04-15 21:35:42 GMT 52.019890 3.590018 10,025 166 277 512
2019-04-15 21:35:39 GMT 52.023148 3.588791 9,975 166 278 512
2019-04-15 21:35:36 GMT 52.028782 3.586644 9,975 166 278 512
2019-04-15 21:35:33 GMT 52.031528 3.585545 9,850 166 282 640
2019-04-15 21:35:30 GMT 52.036045 3.583819 9,850 166 289 -576
2019-04-15 21:35:26 GMT 52.039948 3.582306 9,875 166 280 640
2019-04-15 21:35:23 GMT 52.043633 3.580915 9,850 166 282 640
2019-04-15 21:35:20 GMT 52.047729 3.579346 9,775 166 284 640
2019-04-15 21:35:17 GMT 52.051315 3.578012 9,775 166 285 640
2019-04-15 21:35:14 GMT 52.054897 3.576599 9,750 166 286 448
2019-04-15 21:35:11 GMT 52.060181 3.574524 9,800 165 290 -256
2019-04-15 21:35:07 GMT 52.064209 3.572989 9,775 166 289 -448
2019-04-15 21:35:04 GMT 52.068008 3.571472 9,775 166 290 -320
2019-04-15 21:35:00 GMT 52.073101 3.569380 9,800 165 292 -256
2019-04-15 21:34:57 GMT 52.077011 3.567810 9,825 165 292 -256
2019-04-15 21:34:54 GMT 52.080410 3.566398 9,825 165 293 -192
2019-04-15 21:34:51 GMT 52.086227 3.563965 9,825 165 295 -192
2019-04-15 21:34:47 GMT 52.090183 3.562317 9,850 165 296 -128
2019-04-15 21:34:44 GMT 52.095493 3.560041 9,850 165 297 -320
2019-04-15 21:34:41 GMT 52.098816 3.558578 9,875 165 298 -192
2019-04-15 21:34:38 GMT 52.101639 3.557373 9,875 165 299 -128
2019-04-15 21:34:35 GMT 52.105362 3.555804 9,875 165 301 -320
2019-04-15 21:34:32 GMT 52.110626 3.553543 9,925 165 304 -512
2019-04-15 21:34:29 GMT 52.115604 3.551409 9,900 165 302 -384
2019-04-15 21:34:26 GMT 52.122398 3.548506 9,925 165 305 -512
2019-04-15 21:34:23 GMT 52.122398 3.548506 9,925 165 305 -512
2019-04-15 21:34:20 GMT 52.126217 3.546858 9,975 165 305 -576
2019-04-15 21:34:17 GMT 52.130592 3.544974 10,000 165 305 -640
2019-04-15 21:34:14 GMT 52.135895 3.542709 10,050 165 306 -704
2019-04-15 21:34:11 GMT 52.139343 3.541286 10,125 165 306 -640
2019-04-15 21:34:08 GMT 52.144001 3.539246 10,125 165 306 -512
2019-04-15 21:34:04 GMT 52.148888 3.537127 10,125 164 306 -384
2019-04-15 21:34:01 GMT 52.153152 3.535309 10,150 164 306 -448
2019-04-15 21:33:57 GMT 52.158478 3.532889 10,175 164 306 -448
2019-04-15 21:33:53 GMT 52.163410 3.530692 10,200 164 306 -448
2019-04-15 21:33:50 GMT 52.168858 3.528259 10,225 164 306 -320
2019-04-15 21:33:47 GMT 52.171604 3.527004 10,250 163 307 -192
2019-04-15 21:33:43 GMT 52.176910 3.524551 10,250 163 307 -192
2019-04-15 21:33:40 GMT 52.185104 3.520737 10,275 163 307 -64
2019-04-15 21:33:37 GMT 52.185104 3.520737 10,250 163 306 -64
2019-04-15 21:33:33 GMT 52.190971 3.517979 10,275 163 306 -128
2019-04-15 21:33:30 GMT 52.194462 3.516253 10,275 162 305 -256
2019-04-15 21:33:27 GMT 52.199348 3.513820 10,275 163 306 -192
2019-04-15 21:33:22 GMT 52.205311 3.510917 10,300 162 306 -128
2019-04-15 21:33:19 GMT 52.209229 3.508911 10,300 162 305 -256
2019-04-15 21:33:16 GMT 52.214905 3.506088 10,300 162 304 -256
2019-04-15 21:33:13 GMT 52.217972 3.504482 10,325 162 303 -448
2019-04-15 21:33:09 GMT 52.223091 3.501892 10,350 162 303 -448
2019-04-15 21:33:05 GMT 52.229370 3.498611 10,375 162 302 -384
2019-04-15 21:33:02 GMT 52.232403 3.497027 10,400 162 301 64
2019-04-15 21:32:59 GMT 52.236919 3.494673 10,375 172 303 256
2019-04-15 21:32:55 GMT 52.241432 3.492240 10,200 173 304 192
2019-04-15 21:32:52 GMT 52.247406 3.489227 10,325 166 303 448
2019-04-15 21:32:49 GMT 52.250790 3.487610 10,350 164 302 384
2019-04-15 21:32:46 GMT 52.254410 3.485947 10,225 171 304 384
2019-04-15 21:32:43 GMT 52.257935 3.484497 10,300 167 303 448
2019-04-15 21:32:40 GMT 52.262329 3.482895 10,275 169 303 384
2019-04-15 21:32:37 GMT 52.266850 3.481410 10,275 170 303 384
2019-04-15 21:32:34 GMT 52.270340 3.480530 10,250 171 304 384
2019-04-15 21:32:31 GMT 52.274506 3.479538 10,225 172 304 448
2019-04-15 21:32:28 GMT 52.278584 3.478742 10,225 172 304 320
2019-04-15 21:32:25 GMT 52.283890 3.477644 10,200 173 304 192
2019-04-15 21:32:21 GMT 52.288589 3.476702 10,175 173 304 128
2019-04-15 21:32:18 GMT 52.292953 3.475800 10,150 172 303 192
2019-04-15 21:32:15 GMT 52.297668 3.474884 10,150 172 303 192
2019-04-15 21:32:11 GMT 52.302837 3.473798 10,150 172 302 128
2019-04-15 21:32:08 GMT 52.308243 3.472672 10,125 172 302 128
2019-04-15 21:32:05 GMT 52.311123 3.472072 10,125 172 301 128
2019-04-15 21:32:02 GMT 52.314194 3.471444 10,050 172 301 128
2019-04-15 21:31:58 GMT 52.319595 3.470383 10,125 172 301 128
2019-04-15 21:31:55 GMT 52.324390 3.469325 10,075 172 300 128
2019-04-15 21:31:51 GMT 52.329372 3.468227 10,100 172 299 192
2019-04-15 21:31:46 GMT 52.337330 3.466500 10,075 171 298 192
2019-04-15 21:31:43 GMT 52.341293 3.465576 10,075 171 298 192
2019-04-15 21:31:38 GMT 52.347885 3.464050 9,975 170 296 0
2019-04-15 21:31:35 GMT 52.351685 3.463135 10,025 171 298 320
2019-04-15 21:31:32 GMT 52.355625 3.462184 10,025 171 298 256
2019-04-15 21:31:26 GMT 52.364613 3.459909 10,000 171 297 256
2019-04-15 21:31:23 GMT 52.369629 3.458633 9,975 170 295 -128
2019-04-15 21:31:19 GMT 52.374802 3.457260 9,975 170 295 -192
2019-04-15 21:31:16 GMT 52.378876 3.456192 9,975 170 295 -128
2019-04-15 21:31:12 GMT 52.383839 3.454886 10,025 170 295 -192
2019-04-15 21:31:09 GMT 52.386536 3.454102 9,975 170 294 -256
2019-04-15 21:31:05 GMT 52.392681 3.452375 10,025 169 288 -384
2019-04-15 21:31:02 GMT 52.396687 3.451198 10,050 169 289 -448
2019-04-15 21:30:59 GMT 52.399853 3.450256 13,325 169 289 -448
2019-04-15 21:30:56 GMT 52.403915 3.449020 10,075 168 287 -384
2019-04-15 21:30:53 GMT 52.408741 3.447431 10,075 168 287 -256
2019-04-15 21:30:50 GMT 52.413025 3.445969 10,075 167 288 128
2019-04-15 21:30:45 GMT 52.423874 3.441938 10,050 166 293 384
2019-04-15 21:30:42 GMT 52.423874 3.441938 10,050 165 294 192
2019-04-15 21:30:39 GMT 52.426895 3.440704 10,025 165 296 -64
2019-04-15 21:30:33 GMT 52.434486 3.437387 10,075 164 299 -832
2019-04-15 21:30:30 GMT 52.440994 3.434372 10,150 163 300 -1152
2019-04-15 21:30:26 GMT 52.445023 3.432388 10,225 162 301 -1088
2019-04-15 21:30:22 GMT 52.448872 3.430402 10,275 162 301 -960
2019-04-15 21:30:18 GMT 52.456272 3.426479 10,375 161 302 -1152
2019-04-15 21:30:13 GMT 52.462509 3.422928 10,500 160 303 -1024
2019-04-15 21:30:07 GMT 52.474800 3.415571 10,600 159 305 -1152
2019-04-15 21:30:03 GMT 52.474800 3.415571 10,700 158 305 -1344
2019-04-15 21:30:00 GMT 52.478756 3.413060 10,700 158 304 -1280
2019-04-15 21:29:55 GMT 52.486343 3.408037 10,800 157 306 -1024
2019-04-15 21:29:52 GMT 52.488953 3.406311 10,825 157 306 -1024
2019-04-15 21:29:49 GMT 52.492863 3.403643 10,875 157 307 -1088
2019-04-15 21:29:46 GMT 52.498260 3.399887 10,975 157 308 -1216
2019-04-15 21:29:42 GMT 52.502197 3.397141 11,050 157 309 -1216
2019-04-15 21:29:39 GMT 52.506268 3.394383 11,075 159 310 -1216
2019-04-15 21:29:36 GMT 52.509888 3.392029 11,100 159 310 -1216
2019-04-15 21:29:32 GMT 52.515564 3.388672 13,375 168 311 -1600
2019-04-15 21:29:29 GMT 52.520508 3.386154 13,325 166 311 -1664
2019-04-15 21:29:26 GMT 52.523121 3.385045 13,325 166 311 -1664
2019-04-15 21:29:22 GMT 52.530350 3.382797 13,325 170 311 -1536
2019-04-15 21:29:19 GMT 52.534058 3.382034 13,325 174 312 -1472
2019-04-15 21:29:15 GMT 52.545189 3.381042 13,400 177 313 -1472
2019-04-15 21:29:11 GMT 52.545189 3.381042 13,400 177 313 -1536
2019-04-15 21:29:08 GMT 52.550076 3.380650 13,325 175 313 -1536
2019-04-15 21:29:05 GMT 52.557999 3.379135 13,375 171 313 -1536
2019-04-15 21:29:02 GMT 52.557999 3.379135 13,375 165 313 -1536
2019-04-15 21:28:59 GMT 52.562134 3.377747 13,325 163 313 -1536
2019-04-15 21:28:55 GMT 52.572144 3.372345 13,450 158 313 -1536
2019-04-15 21:28:52 GMT 52.572144 3.372345 13,450 150 314 -1472
2019-04-15 21:28:49 GMT 52.576702 3.368722 13,325 151 313 -1472
2019-04-15 21:28:46 GMT 52.579605 3.365936 13,325 143 314 -1472
2019-04-15 21:28:43 GMT 52.582489 3.362808 13,350 143 314 -1472
2019-04-15 21:28:38 GMT 52.588665 3.354440 13,375 137 315 -1472
2019-04-15 21:28:35 GMT 52.591827 3.349075 13,350 121 319 -1408
2019-04-15 21:28:31 GMT 52.595535 3.341675 13,375 124 317 -1408
2019-04-15 21:28:28 GMT 52.597961 3.336258 13,375 124 317 -1408
2019-04-15 21:28:25 GMT 52.601028 3.328552 13,350 121 319 -1408
2019-04-15 21:28:22 GMT 52.603088 3.323288 13,325 121 319 -1600
2019-04-15 21:28:19 GMT 52.605286 3.317490 13,325 121 319 -1536
2019-04-15 21:28:16 GMT 52.608589 3.308611 13,325 121 319 -1408
2019-04-15 21:28:10 GMT 52.614037 3.293623 13,325 120 320 -1344
2019-04-15 21:28:07 GMT 52.614037 3.293623 13,375 120 320 -1344
2019-04-15 21:28:03 GMT 52.619751 3.277359 13,475 119 322 -1216
2019-04-15 21:28:00 GMT 52.619751 3.277359 13,500 119 322 -1216
2019-04-15 21:27:57 GMT 52.622044 3.270787 13,525 119 322 -1216
2019-04-15 21:27:53 GMT 52.624557 3.263489 13,600 119 323 -1280
2019-04-15 21:27:50 GMT 52.627121 3.255997 13,675 119 324 -1152
2019-04-15 21:27:47 GMT 52.629074 3.250148 15,125 118 328 -1600
2019-04-15 21:27:43 GMT 52.631927 3.241730 13,775 118 326 -1088
2019-04-15 21:27:37 GMT 52.636276 3.228607 13,875 118 328 -1088
2019-04-15 21:27:34 GMT 52.638474 3.222046 14,075 118 328 -1472
2019-04-15 21:27:27 GMT 52.643784 3.206046 14,275 118 329 -1792
2019-04-15 21:27:22 GMT 52.647354 3.195267 14,225 118 328 -1792
2019-04-15 21:27:18 GMT 52.651016 3.184357 14,400 118 328 -1152
2019-04-15 21:27:15 GMT 52.652206 3.180847 14,425 119 333 -1024
2019-04-15 21:27:12 GMT 52.654816 3.173165 14,475 119 331 -896
2019-04-15 21:27:09 GMT 52.657242 3.165970 14,525 119 332 -960
2019-04-15 21:27:05 GMT 52.659943 3.157959 14,825 119 333 -1024
2019-04-15 21:27:01 GMT 52.662552 3.150482 14,600 119 334 -1152
2019-04-15 21:26:56 GMT 52.666409 3.139186 14,750 119 335 -1344
2019-04-15 21:26:52 GMT 52.670609 3.126984 14,950 119 334 -1600
2019-04-15 21:26:47 GMT 52.673252 3.119176 14,975 119 334 -1600
2019-04-15 21:26:44 GMT 52.676743 3.108974 15,075 119 335 -1600
2019-04-15 21:26:41 GMT 52.678207 3.104782 15,325 119 335 -1344
2019-04-15 21:26:37 GMT 52.681168 3.096183 15,275 119 335 -1344
2019-04-15 21:26:33 GMT 52.684479 3.086624 15,325 119 336 -1600
2019-04-15 21:26:30 GMT 52.686356 3.081360 15,475 120 335 -1792
2019-04-15 21:26:25 GMT 52.690151 3.070522 15,525 120 335 -1344
2019-04-15 21:26:22 GMT 52.696945 3.051610 15,750 120 337 -1536
2019-04-15 21:26:17 GMT 52.696945 3.051610 15,800 120 336 -1344
2019-04-15 21:26:14 GMT 52.699322 3.045018 15,775 120 336 -1344
2019-04-15 21:26:11 GMT 52.701694 3.038504 15,875 120 336 -1216
2019-04-15 21:26:05 GMT 52.707367 3.022842 15,975 120 337 -1216
2019-04-15 21:26:02 GMT 52.708649 3.019333 16,025 120 337 -1344
2019-04-15 21:25:59 GMT 52.711285 3.012059 16,500 120 337 -1536
2019-04-15 21:25:54 GMT 52.714916 3.001857 16,225 120 337 -1600
2019-04-15 21:25:51 GMT 52.717289 2.995265 16,250 120 337 -1536
2019-04-15 21:25:48 GMT 52.719852 2.988124 16,300 120 337 -1600
2019-04-15 21:25:44 GMT 52.723763 2.977060 16,625 120 336 -1472
2019-04-15 21:25:39 GMT 52.726929 2.968192 16,575 120 336 -1472
2019-04-15 21:25:36 GMT 52.729256 2.961600 16,725 120 336 -1408
2019-04-15 21:25:33 GMT 52.731812 2.954254 16,800 120 336 -1408
2019-04-15 21:25:30 GMT 52.734562 2.946533 16,950 120 337 -1408
2019-04-15 21:25:27 GMT 52.736610 2.940805 16,875 120 337 -1472
2019-04-15 21:25:22 GMT 52.740280 2.930374 16,975 120 337 -1152
2019-04-15 21:25:18 GMT 52.743301 2.921982 17,025 120 338 -1152
2019-04-15 21:25:13 GMT 52.747501 2.910200 17,400 120 339 -1536
2019-04-15 21:25:10 GMT 52.749878 2.903530 17,325 120 339 -1728
2019-04-15 21:25:07 GMT 52.751972 2.897723 17,325 120 339 -1472
2019-04-15 21:25:04 GMT 52.754391 2.891131 17,300 120 339 -1728
2019-04-15 21:25:01 GMT 52.756626 2.884853 17,375 120 339 -1728
2019-04-15 21:24:57 GMT 52.760101 2.875366 17,525 121 338 -1600
2019-04-15 21:24:54 GMT 52.762848 2.867889 17,600 121 338 -1536
2019-04-15 21:24:51 GMT 52.764954 2.862091 17,725 121 338 -1536
2019-04-15 21:24:48 GMT 52.767147 2.856131 17,725 121 338 -1536
2019-04-15 21:24:45 GMT 52.770630 2.846680 17,850 121 338 -1536
2019-04-15 21:24:42 GMT 52.774887 2.835236 17,975 121 338 -1536
2019-04-15 21:24:36 GMT 52.776924 2.829686 18,025 121 338 -1536
2019-04-15 21:24:32 GMT 52.781204 2.818069 18,250 121 338 -1472
2019-04-15 21:24:29 GMT 52.783718 2.811244 18,575 121 338 -1536
2019-04-15 21:24:26 GMT 52.785675 2.805908 18,300 121 338 -1536
2019-04-15 21:24:22 GMT 52.789352 2.796021 18,375 121 338 -1536
2019-04-15 21:24:19 GMT 52.791138 2.791138 18,600 121 338 -1472
2019-04-15 21:24:16 GMT 52.793610 2.784576 18,575 121 338 -1472
2019-04-15 21:24:13 GMT 52.798756 2.770673 18,625 121 339 -1408
2019-04-15 21:24:05 GMT 52.802261 2.761154 18,775 121 338 -1472
2019-04-15 21:24:02 GMT 52.805134 2.753488 18,900 121 340 -1344
2019-04-15 21:23:59 GMT 52.807602 2.746817 18,975 121 342 -1024
2019-04-15 21:23:53 GMT 52.812424 2.733765 19,125 121 341 -1024
2019-04-15 21:23:50 GMT 52.815144 2.726493 19,075 121 341 -1024
2019-04-15 21:23:47 GMT 52.817871 2.719116 19,175 121 342 -1024
2019-04-15 21:23:44 GMT 52.819839 2.713776 19,250 121 342 -1024
2019-04-15 21:23:41 GMT 52.822266 2.707345 19,325 121 342 -1024
2019-04-15 21:23:38 GMT 52.824646 2.700882 19,300 121 342 -1024
2019-04-15 21:23:34 GMT 52.827805 2.692413 19,525 121 342 -1024
2019-04-15 21:23:31 GMT 52.831558 2.682190 19,450 121 341 -1024
2019-04-15 21:23:28 GMT 52.833298 2.677525 19,725 121 342 -1024
2019-04-15 21:23:25 GMT 52.835678 2.671051 19,525 121 342 -1024
2019-04-15 21:23:21 GMT 52.838791 2.662582 19,600 121 342 -1024
2019-04-15 21:23:18 GMT 52.841263 2.655869 19,675 121 342 -1024
2019-04-15 21:23:15 GMT 52.843960 2.648490 19,725 121 342 -1024
2019-04-15 21:23:10 GMT 52.847946 2.637558 19,775 120 341 -1024
2019-04-15 21:23:07 GMT 52.850010 2.631932 19,875 120 342 -1024
2019-04-15 21:23:04 GMT 52.852341 2.625427 19,875 120 342 -1024
2019-04-15 21:23:00 GMT 52.856621 2.613569 19,925 120 342 -1024
2019-04-15 21:22:57 GMT 52.858658 2.607956 20,000 120 342 -1024
2019-04-15 21:22:54 GMT 52.862766 2.596462 20,200 120 342 -1024
2019-04-15 21:22:51 GMT 52.863556 2.594264 20,100 120 342 -1024
2019-04-15 21:22:47 GMT 52.866852 2.584991 20,150 120 342 -1024
2019-04-15 21:22:44 GMT 52.868958 2.579193 20,200 120 342 -1024
2019-04-15 21:22:40 GMT 52.871887 2.571106 20,275 120 342 -1024
2019-04-15 21:22:37 GMT 52.875477 2.560992 20,650 120 342 -1024
2019-04-15 21:22:34 GMT 52.877335 2.555771 20,375 120 342 -1024
2019-04-15 21:22:29 GMT 52.880642 2.546552 20,575 120 342 -1024
2019-04-15 21:22:26 GMT 52.883202 2.539333 20,500 120 342 -1024
2019-04-15 21:22:23 GMT 52.885849 2.531891 20,725 120 341 -1024
2019-04-15 21:22:18 GMT 52.889767 2.520891 20,625 120 341 -1024
2019-04-15 21:22:15 GMT 52.892120 2.514343 20,775 120 341 -1024
2019-04-15 21:22:11 GMT 52.895004 2.506180 20,775 120 341 -1024
2019-04-15 21:22:08 GMT 52.897202 2.499924 20,800 120 342 -1024
2019-04-15 21:22:05 GMT 52.901047 2.489090 21,200 120 342 -1024
2019-04-15 21:22:02 GMT 52.902569 2.484794 20,900 120 342 -1024
2019-04-15 21:21:59 GMT 52.905670 2.475967 20,975 120 342 -1024
2019-04-15 21:21:56 GMT 52.907593 2.470551 21,000 120 342 -1024
2019-04-15 21:21:52 GMT 52.913368 2.454032 21,075 120 342 -1024
2019-04-15 21:21:48 GMT 52.913368 2.454032 21,150 120 342 -1024
2019-04-15 21:21:45 GMT 52.915833 2.447052 21,150 120 342 -1024
2019-04-15 21:21:42 GMT 52.918442 2.439514 21,275 120 342 -1024
2019-04-15 21:21:37 GMT 52.926079 2.417855 21,375 120 341 -1024
2019-04-15 21:21:33 GMT 52.926079 2.417855 22,050 138 347 -1024
2019-04-15 21:21:30 GMT 52.927475 2.413775 21,400 120 341 -1024
2019-04-15 21:21:26 GMT 52.931107 2.403338 21,525 119 342 -1024
2019-04-15 21:21:23 GMT 52.933411 2.396774 21,500 119 342 -1024
2019-04-15 21:21:20 GMT 52.935471 2.390823 21,550 119 342 -1024
2019-04-15 21:21:17 GMT 52.938229 2.382935 21,650 120 342 -1088
2019-04-15 21:21:14 GMT 52.940742 2.375637 21,675 119 342 -1024
2019-04-15 21:21:10 GMT 52.943439 2.367946 21,750 119 342 -1088
2019-04-15 21:21:07 GMT 52.946228 2.360001 21,800 120 341 -1088
2019-04-15 21:21:04 GMT 52.948929 2.352295 21,950 120 342 -1088
2019-04-15 21:21:01 GMT 52.951309 2.345581 21,900 120 341 -1088
2019-04-15 21:20:57 GMT 52.953827 2.338333 21,950 120 341 -1088
2019-04-15 21:20:54 GMT 52.956711 2.330170 22,100 192 355 0
2019-04-15 21:20:51 GMT 52.958755 2.324550 22,100 121 342 -1024
2019-04-15 21:20:48 GMT 52.961288 2.317657 22,575 170 355 -1024
2019-04-15 21:20:45 GMT 52.964127 2.310104 22,575 170 355 -1024
2019-04-15 21:20:42 GMT 52.966484 2.304147 22,200 123 342 -1024
2019-04-15 21:20:39 GMT 52.976028 2.283554 22,275 128 344 -1024
2019-04-15 21:20:35 GMT 52.976028 2.283554 22,375 133 345 -1024
2019-04-15 21:20:31 GMT 52.976715 2.282410 22,375 133 345 -1024
2019-04-15 21:20:28 GMT 52.980728 2.275896 22,425 139 348 -1024
2019-04-15 21:20:25 GMT 52.988411 2.266244 22,525 146 350 -1024
2019-04-15 21:20:22 GMT 52.993286 2.261429 22,575 149 350 -1024
2019-04-15 21:20:19 GMT 52.993286 2.261429 22,600 153 351 -1024
2019-04-15 21:20:16 GMT 52.995895 2.259216 22,650 158 352 -1024
2019-04-15 21:20:13 GMT 53.000793 2.255572 22,675 158 352 -1024
2019-04-15 21:20:10 GMT 53.005402 2.252825 22,725 162 353 -1024
2019-04-15 21:20:07 GMT 53.010315 2.250595 22,800 170 355 -1024
2019-04-15 21:20:04 GMT 53.018204 2.248117 22,900 176 355 -1024
2019-04-15 21:20:01 GMT 53.020809 2.247724 22,900 176 355 -1024
2019-04-15 21:19:58 GMT 53.027000 2.247175 22,925 181 355 -1088
2019-04-15 21:19:55 GMT 53.029984 2.247253 23,100 193 355 -1088
2019-04-15 21:19:52 GMT 53.036362 2.248001 23,025 187 355 -1088
2019-04-15 21:19:49 GMT 53.040085 2.248901 23,075 188 355 -1088
2019-04-15 21:19:46 GMT 53.044785 2.250290 23,225 194 355 -1088
2019-04-15 21:19:42 GMT 53.051304 2.253060 23,200 204 355 -1024
2019-04-15 21:19:39 GMT 53.055862 2.255325 23,300 198 355 -1024
2019-04-15 21:19:36 GMT 53.061684 2.258397 23,300 199 356 -1024
2019-04-15 21:19:33 GMT 53.067719 2.261810 23,375 200 356 -1024
2019-04-15 21:19:30 GMT 53.070065 2.263262 23,600 255 348 -1024
2019-04-15 21:19:27 GMT 53.080215 2.270279 23,475 203 355 -1024
2019-04-15 21:19:23 GMT 53.080215 2.270279 23,525 208 356 -1024
2019-04-15 21:19:20 GMT 53.084774 2.274170 23,650 218 355 -1024
2019-04-15 21:19:17 GMT 53.089645 2.279129 23,625 214 355 -1024
2019-04-15 21:19:13 GMT 53.095230 2.285784 23,700 220 355 -1024
2019-04-15 21:19:10 GMT 53.102325 2.296300 23,800 226 353 -1024
2019-04-15 21:19:07 GMT 53.105164 2.301232 23,850 232 353 -1024
2019-04-15 21:19:01 GMT 53.111298 2.314192 23,900 233 353 -1024
2019-04-15 21:18:55 GMT 53.115921 2.326590 24,025 242 351 -1024
2019-04-15 21:18:52 GMT 53.118992 2.337018 24,175 247 350 -1024
2019-04-15 21:18:48 GMT 53.118992 2.337018 24,100 248 350 -1024
2019-04-15 21:18:45 GMT 53.120853 2.344450 24,150 250 349 -1024
2019-04-15 21:18:41 GMT 53.123135 2.355598 24,275 255 348 -1024
2019-04-15 21:18:38 GMT 53.124390 2.362788 24,275 255 349 -1024
2019-04-15 21:18:35 GMT 53.125671 2.370850 24,325 256 349 -1024
2019-04-15 21:18:32 GMT 53.126999 2.379168 24,400 256 349 -1024
2019-04-15 21:18:29 GMT 53.128021 2.385649 24,425 256 349 -1024
2019-04-15 21:18:26 GMT 53.129463 2.394939 24,500 256 349 -960
2019-04-15 21:18:23 GMT 53.130859 2.403825 24,550 256 349 -960
2019-04-15 21:18:17 GMT 53.133774 2.422250 24,650 256 350 -960
2019-04-15 21:18:14 GMT 53.134094 2.424369 24,650 256 350 -960
2019-04-15 21:18:10 GMT 53.135841 2.435491 24,825 256 350 -960
2019-04-15 21:18:07 GMT 53.137096 2.443327 24,825 256 350 -960
2019-04-15 21:18:04 GMT 53.138123 2.449873 24,800 256 350 -960
2019-04-15 21:18:01 GMT 53.139660 2.459483 24,875 256 350 -960
2019-04-15 21:17:58 GMT 53.141098 2.468549 24,950 256 350 -896
2019-04-15 21:17:55 GMT 53.142124 2.475074 25,000 256 347 -256
2019-04-15 21:17:52 GMT 53.143433 2.483146 25,100 256 348 -768
2019-04-15 21:17:49 GMT 53.144547 2.490100 25,050 256 348 -768
2019-04-15 21:17:46 GMT 53.146362 2.501273 25,100 256 347 -128
2019-04-15 21:17:43 GMT 53.147095 2.505903 25,150 256 347 -256
2019-04-15 21:17:40 GMT 53.148331 2.513672 25,150 255 349 0
2019-04-15 21:17:37 GMT 53.150803 2.528582 25,150 255 348 0
2019-04-15 21:17:31 GMT 53.152039 2.536351 25,150 255 349 -64
2019-04-15 21:17:28 GMT 53.153320 2.544120 25,150 256 350 -64
2019-04-15 21:17:25 GMT 53.154602 2.552140 25,150 255 350 -64
2019-04-15 21:17:22 GMT 53.155998 2.560945 25,150 255 350 -64
2019-04-15 21:17:19 GMT 53.156891 2.566406 25,150 256 350 -64
2019-04-15 21:17:16 GMT 53.158722 2.577863 25,150 266 349 0
2019-04-15 21:17:13 GMT 53.159630 2.583887 25,150 257 351 -64
2019-04-15 21:17:10 GMT 53.160980 2.592773 25,150 257 351 -64
2019-04-15 21:17:07 GMT 53.162338 2.602504 25,150 259 351 0
2019-04-15 21:17:04 GMT 53.163307 2.610142 25,150 266 349 0
2019-04-15 21:17:01 GMT 53.163895 2.615138 25,150 294 349 0
2019-04-15 21:16:57 GMT 53.165031 2.628802 25,150 265 350 0
2019-04-15 21:16:52 GMT 53.165497 2.639779 25,150 268 350 0
2019-04-15 21:16:48 GMT 53.165497 2.649981 25,150 273 349 0
2019-04-15 21:16:42 GMT 53.164703 2.664669 25,150 283 348 64
2019-04-15 21:16:39 GMT 53.164005 2.672101 25,150 288 348 0
2019-04-15 21:16:36 GMT 53.162888 2.680743 25,150 284 349 0
2019-04-15 21:16:33 GMT 53.161259 2.690843 25,150 293 349 0
2019-04-15 21:16:29 GMT 53.159073 2.701425 25,150 294 349 0
2019-04-15 21:16:26 GMT 53.157814 2.706918 25,150 294 352 0
2019-04-15 21:16:23 GMT 53.155746 2.715114 25,150 293 349 0
2019-04-15 21:16:20 GMT 53.154324 2.720813 25,150 294 349 0
2019-04-15 21:16:17 GMT 53.152367 2.728245 25,150 294 350 0
2019-04-15 21:16:14 GMT 53.150253 2.736380 25,150 294 352 0
2019-04-15 21:16:11 GMT 53.148056 2.744777 25,150 294 352 0
2019-04-15 21:16:08 GMT 53.145432 2.754983 25,150 294 353 0
2019-04-15 21:16:05 GMT 53.144577 2.758196 25,150 294 352 0
2019-04-15 21:16:02 GMT 53.142174 2.767424 25,150 294 354 0
2019-04-15 21:15:59 GMT 53.140217 2.774856 25,150 294 370 -256
2019-04-15 21:15:55 GMT 53.137802 2.784092 25,150 294 356 0
2019-04-15 21:15:51 GMT 53.135143 2.794405 25,150 294 357 0
2019-04-15 21:15:48 GMT 53.132256 2.805472 25,225 294 369 -256
2019-04-15 21:15:44 GMT 53.130478 2.812265 25,150 294 357 0
2019-04-15 21:15:41 GMT 53.128738 2.818778 25,150 294 358 0
2019-04-15 21:15:38 GMT 53.124802 2.833923 25,150 294 360 0
2019-04-15 21:15:35 GMT 53.124802 2.833923 25,150 294 360 0
2019-04-15 21:15:31 GMT 53.119354 2.854719 25,150 294 360 0
2019-04-15 21:15:28 GMT 53.119354 2.854719 25,150 294 362 64
2019-04-15 21:15:24 GMT 53.116615 2.865170 25,150 294 362 64
2019-04-15 21:15:20 GMT 53.114685 2.872532 25,125 294 363 64
2019-04-15 21:15:17 GMT 53.112534 2.880772 25,225 294 369 -256
2019-04-15 21:15:13 GMT 53.109261 2.893282 25,150 294 364 64
2019-04-15 21:15:09 GMT 53.107452 2.900234 25,150 294 366 -256
2019-04-15 21:15:06 GMT 53.105301 2.908473 25,225 294 369 -256
2019-04-15 21:15:03 GMT 53.103207 2.916466 25,150 294 366 -192
2019-04-15 21:15:00 GMT 53.101158 2.924140 25,150 294 367 -192
2019-04-15 21:14:57 GMT 53.099297 2.931411 25,175 294 366 -256
2019-04-15 21:14:54 GMT 53.097061 2.939941 25,175 294 367 -256
2019-04-15 21:14:51 GMT 53.095619 2.945305 25,200 294 367 -192
2019-04-15 21:14:47 GMT 53.092361 2.957755 25,225 294 369 -256
2019-04-15 21:14:44 GMT 53.089939 2.967093 25,225 294 368 -256
2019-04-15 21:14:41 GMT 53.087475 2.976432 25,325 294 370 -256
2019-04-15 21:14:38 GMT 53.086075 2.981873 25,225 294 368 -192
2019-04-15 21:14:35 GMT 53.084213 2.988831 25,250 294 369 -192
2019-04-15 21:14:32 GMT 53.082169 2.996678 25,275 294 370 -256
2019-04-15 21:14:28 GMT 53.079468 3.007036 25,275 294 370 -192
2019-04-15 21:14:25 GMT 53.077332 3.015137 25,300 294 371 -256
2019-04-15 21:14:21 GMT 53.074585 3.025589 25,325 294 371 -256
2019-04-15 21:14:18 GMT 53.072800 3.032379 25,300 294 372 -256
2019-04-15 21:14:15 GMT 53.070389 3.041486 25,325 294 372 -256
2019-04-15 21:14:12 GMT 53.068760 3.047764 25,325 294 372 -192
2019-04-15 21:14:09 GMT 53.064423 3.064270 25,325 294 372 -192
2019-04-15 21:14:06 GMT 53.064423 3.064270 25,350 294 373 -192
2019-04-15 21:14:02 GMT 53.061592 3.074995 25,350 294 373 -192
2019-04-15 21:13:59 GMT 53.056889 3.092887 25,375 294 374 -192
2019-04-15 21:13:56 GMT 53.056889 3.092887 25,375 294 374 -192
2019-04-15 21:13:53 GMT 53.055450 3.098373 25,375 294 374 -128
2019-04-15 21:13:50 GMT 53.053303 3.106541 25,375 294 374 -64
2019-04-15 21:13:46 GMT 53.048676 3.124161 25,375 294 375 0
2019-04-15 21:13:43 GMT 53.048676 3.124161 25,375 294 375 0
2019-04-15 21:13:40 GMT 53.046158 3.133621 25,375 294 375 0
2019-04-15 21:13:37 GMT 53.041946 3.149702 25,375 294 376 0
2019-04-15 21:13:34 GMT 53.041946 3.149702 25,375 294 376 0
2019-04-15 21:13:31 GMT 53.040131 3.156607 25,375 294 376 0
2019-04-15 21:13:28 GMT 53.037384 3.167123 25,375 294 376 0
2019-04-15 21:13:25 GMT 53.036316 3.171082 25,375 294 377 0
2019-04-15 21:13:22 GMT 53.031876 3.188019 25,375 294 379 -128
2019-04-15 21:13:16 GMT 53.029469 3.197335 25,375 294 377 0
2019-04-15 21:13:13 GMT 53.027573 3.204498 25,375 294 378 -64
2019-04-15 21:13:10 GMT 53.025604 3.211899 25,375 294 378 -64
2019-04-15 21:13:07 GMT 53.023884 3.218602 25,375 294 368 1664
2019-04-15 21:13:04 GMT 53.019196 3.236389 25,375 294 379 -128
2019-04-15 21:13:01 GMT 53.019196 3.236389 25,375 294 379 -64
2019-04-15 21:12:58 GMT 53.017365 3.243332 25,375 294 379 -64
2019-04-15 21:12:55 GMT 53.014805 3.253209 25,375 294 379 -64
2019-04-15 21:12:52 GMT 53.013130 3.259565 25,375 294 379 -128
2019-04-15 21:12:49 GMT 53.011093 3.267288 25,400 294 378 -192
2019-04-15 21:12:46 GMT 53.008942 3.275495 25,400 294 378 -192
2019-04-15 21:12:43 GMT 53.007263 3.281930 25,400 294 378 -256
2019-04-15 21:12:40 GMT 53.005096 3.290176 25,400 294 378 -256
2019-04-15 21:12:37 GMT 53.002441 3.300247 25,400 294 377 -448
2019-04-15 21:12:34 GMT 52.999863 3.309945 25,525 294 369 64
2019-04-15 21:12:31 GMT 52.998550 3.314972 25,525 294 371 -832
2019-04-15 21:12:28 GMT 52.996811 3.321762 25,525 294 370 -576
2019-04-15 21:12:25 GMT 52.994556 3.330348 25,550 294 369 64
2019-04-15 21:12:22 GMT 52.992188 3.339386 25,425 294 367 1664
2019-04-15 21:12:19 GMT 52.989487 3.349762 25,375 294 366 1728
2019-04-15 21:12:16 GMT 52.988224 3.354597 25,325 294 367 1728
2019-04-15 21:12:13 GMT 52.985806 3.363935 25,225 294 368 1600
2019-04-15 21:12:08 GMT 52.980961 3.382533 25,100 294 368 1600
2019-04-15 21:12:04 GMT 52.980030 3.386143 25,000 294 367 1472
2019-04-15 21:12:01 GMT 52.978088 3.393631 24,900 294 367 1472
2019-04-15 21:11:58 GMT 52.976349 3.400345 24,125 294 353 1152
2019-04-15 21:11:55 GMT 52.974258 3.408351 24,800 294 366 1408
2019-04-15 21:11:51 GMT 52.971558 3.418710 24,650 294 366 1472
2019-04-15 21:11:48 GMT 52.969894 3.425140 24,525 294 366 1408
2019-04-15 21:11:44 GMT 52.966904 3.436759 24,475 294 365 1280
2019-04-15 21:11:41 GMT 52.964527 3.446019 24,425 294 365 1216
2019-04-15 21:11:37 GMT 52.961876 3.456299 24,375 294 365 1088
2019-04-15 21:11:34 GMT 52.960571 3.461400 24,300 293 363 1088
2019-04-15 21:11:31 GMT 52.958199 3.470660 24,275 294 362 1088
2019-04-15 21:11:28 GMT 52.956242 3.478271 24,200 293 361 1088
2019-04-15 21:11:25 GMT 52.954605 3.484650 23,875 294 355 1088
2019-04-15 21:11:22 GMT 52.951679 3.496085 24,100 294 359 1088
2019-04-15 21:11:19 GMT 52.950748 3.499616 24,075 294 359 1088
2019-04-15 21:11:16 GMT 52.948421 3.508719 24,000 294 358 1088
2019-04-15 21:11:13 GMT 52.946503 3.516006 23,950 294 356 1088
2019-04-15 21:11:10 GMT 52.944397 3.524017 23,900 294 356 1088
2019-04-15 21:11:06 GMT 52.942291 3.531952 23,850 294 347 1280
2019-04-15 21:11:03 GMT 52.939529 3.542463 23,725 294 352 1152
2019-04-15 21:11:00 GMT 52.937622 3.549881 23,475 294 353 1152
2019-04-15 21:10:55 GMT 52.934177 3.563023 23,625 294 352 1216
2019-04-15 21:10:52 GMT 52.932873 3.567967 23,600 294 351 1216
2019-04-15 21:10:49 GMT 52.930965 3.575422 23,450 294 351 1344
2019-04-15 21:10:46 GMT 52.929108 3.582535 23,450 294 350 1344
2019-04-15 21:10:43 GMT 52.927048 3.590393 23,200 294 349 1280
2019-04-15 21:10:40 GMT 52.925034 3.598328 23,200 294 349 1280
2019-04-15 21:10:34 GMT 52.921051 3.613510 23,125 294 348 1280
2019-04-15 21:10:30 GMT 52.919037 3.621292 23,150 294 348 1280
2019-04-15 21:10:27 GMT 52.916904 3.629412 23,050 294 347 1280
2019-04-15 21:10:24 GMT 52.912949 3.644479 22,925 294 346 1344
2019-04-15 21:10:18 GMT 52.910614 3.653412 22,825 294 344 1344
2019-04-15 21:10:13 GMT 52.905128 3.674456 22,700 294 344 1408
2019-04-15 21:10:10 GMT 52.905128 3.674456 22,625 294 343 1280
2019-04-15 21:10:07 GMT 52.904160 3.678055 22,250 294 344 4224
2019-04-15 21:10:03 GMT 52.901962 3.686541 22,500 294 340 1088
2019-04-15 21:09:57 GMT 52.897774 3.702314 22,325 294 340 1152
2019-04-15 21:09:53 GMT 52.895050 3.712616 22,300 294 340 1088
2019-04-15 21:09:48 GMT 52.892029 3.723984 22,225 294 338 1408
2019-04-15 21:09:45 GMT 52.890060 3.731537 22,150 294 337 1664
2019-04-15 21:09:41 GMT 52.887680 3.740540 21,850 294 337 2368
2019-04-15 21:09:38 GMT 52.885578 3.748300 21,750 294 342 4096
2019-04-15 21:09:35 GMT 52.883514 3.756180 21,400 294 343 4160
2019-04-15 21:09:32 GMT 52.882179 3.761169 21,350 294 347 4352
2019-04-15 21:09:29 GMT 52.880222 3.768467 21,250 294 348 4416
2019-04-15 21:09:26 GMT 52.875870 3.784866 20,950 294 352 4544
2019-04-15 21:09:23 GMT 52.875870 3.784866 20,375 294 355 4672
2019-04-15 21:09:20 GMT 52.872391 3.797913 19,700 294 363 5120
2019-04-15 21:09:17 GMT 52.872391 3.797913 20,425 294 364 5184
2019-04-15 21:09:14 GMT 52.870308 3.805821 18,525 294 370 5440
2019-04-15 21:09:11 GMT 52.867676 3.815842 19,700 295 385 5952
2019-04-15 21:09:08 GMT 52.865570 3.823700 19,000 294 379 5824
2019-04-15 21:09:05 GMT 52.864071 3.829285 17,775 294 411 4928
2019-04-15 21:09:02 GMT 52.861603 3.838388 19,000 295 385 5952
2019-04-15 21:08:59 GMT 52.859619 3.845673 18,775 295 388 6080
2019-04-15 21:08:56 GMT 52.854713 3.863578 18,075 294 418 3136
2019-04-15 21:08:52 GMT 52.852066 3.873444 17,725 294 411 4928
2019-04-15 21:08:49 GMT 52.852066 3.873444 17,175 294 411 4928
2019-04-15 21:08:45 GMT 52.849033 3.884687 17,300 294 416 3712
2019-04-15 21:08:40 GMT 52.844563 3.901637 16,900 294 419 1536
2019-04-15 21:08:36 GMT 52.841034 3.914871 16,850 294 419 1600
2019-04-15 21:08:33 GMT 52.837143 3.929520 15,975 294 419 1536
2019-04-15 21:08:27 GMT 52.834557 3.939148 16,650 294 418 1728
2019-04-15 21:08:21 GMT 52.830597 3.954086 16,475 294 416 2048
2019-04-15 21:08:17 GMT 52.824684 3.976501 16,225 294 417 2048
2019-04-15 21:08:11 GMT 52.822685 3.984113 16,050 294 416 2112
2019-04-15 21:08:07 GMT 52.819885 3.994904 16,000 294 416 2112
2019-04-15 21:08:04 GMT 52.817413 4.004211 15,825 294 416 2304
2019-04-15 21:08:01 GMT 52.814987 4.013519 15,750 294 416 2560
2019-04-15 21:07:57 GMT 52.812302 4.023743 15,450 294 416 2432
2019-04-15 21:07:54 GMT 52.809631 4.033966 15,450 294 416 2304
2019-04-15 21:07:51 GMT 52.806839 4.044495 15,325 294 417 2112
2019-04-15 21:07:47 GMT 52.804184 4.054337 15,200 294 416 1984
2019-04-15 21:07:44 GMT 52.801132 4.066040 15,075 294 415 2176
2019-04-15 21:07:41 GMT 52.799561 4.071808 14,900 294 415 2112
2019-04-15 21:07:37 GMT 52.796383 4.083775 14,700 294 415 2176
2019-04-15 21:07:34 GMT 52.793915 4.093035 14,775 294 415 2112
2019-04-15 21:07:31 GMT 52.791775 4.101118 12,950 295 405 1984
2019-04-15 21:07:28 GMT 52.789913 4.108102 14,575 294 415 2176
2019-04-15 21:07:25 GMT 52.786839 4.119638 14,425 294 414 2112
2019-04-15 21:07:19 GMT 52.782650 4.135254 14,200 294 413 1920
2019-04-15 21:07:16 GMT 52.777176 4.155731 13,575 294 409 2048
2019-04-15 21:07:13 GMT 52.777176 4.155731 14,050 295 412 1856
2019-04-15 21:07:09 GMT 52.774979 4.163742 13,800 294 411 1856
2019-04-15 21:07:06 GMT 52.772369 4.173508 13,825 294 411 1856
2019-04-15 21:07:02 GMT 52.765869 4.197464 13,650 294 409 1920
2019-04-15 21:06:58 GMT 52.765869 4.197464 13,550 294 409 1984
2019-04-15 21:06:55 GMT 52.763378 4.206900 13,450 294 409 1984
2019-04-15 21:06:51 GMT 52.758022 4.226754 13,250 295 407 2048
2019-04-15 21:06:48 GMT 52.758022 4.226754 13,150 295 406 2048
2019-04-15 21:06:45 GMT 52.756531 4.232178 13,150 295 406 2048
2019-04-15 21:06:42 GMT 52.754242 4.240646 13,050 295 405 1984
2019-04-15 21:06:39 GMT 52.751553 4.250532 12,925 295 405 1984
2019-04-15 21:06:36 GMT 52.749802 4.256973 12,850 295 404 1856
2019-04-15 21:06:33 GMT 52.746525 4.269052 12,725 295 404 1792
2019-04-15 21:06:29 GMT 52.744171 4.277725 12,600 295 401 1728
2019-04-15 21:06:26 GMT 52.742290 4.284746 12,550 295 401 1664
2019-04-15 21:06:23 GMT 52.739777 4.293900 12,500 295 401 1664
2019-04-15 21:06:20 GMT 52.737488 4.302292 12,400 295 398 1536
2019-04-15 21:06:17 GMT 52.735107 4.311142 12,300 295 397 1408
2019-04-15 21:06:14 GMT 52.732933 4.319118 12,150 295 395 1216
2019-04-15 21:06:11 GMT 52.730621 4.327698 12,150 295 386 960
2019-04-15 21:06:08 GMT 52.728741 4.334499 12,125 295 393 1088
2019-04-15 21:06:05 GMT 52.724041 4.351920 12,000 295 388 960
2019-04-15 21:05:59 GMT 52.722244 4.358597 11,975 295 383 960
2019-04-15 21:05:56 GMT 52.719177 4.369888 11,950 295 383 960
2019-04-15 21:05:53 GMT 52.715012 4.385223 11,825 295 377 1024
2019-04-15 21:05:50 GMT 52.715012 4.385223 11,825 295 377 1024
2019-04-15 21:05:47 GMT 52.713318 4.391479 11,750 294 374 1024
2019-04-15 21:05:44 GMT 52.710480 4.401932 11,725 295 371 1024
2019-04-15 21:05:41 GMT 52.708351 4.409912 11,700 295 371 1024
2019-04-15 21:05:38 GMT 52.706726 4.415817 11,650 294 369 1024
2019-04-15 21:05:35 GMT 52.704720 4.423253 11,600 295 363 1024
2019-04-15 21:05:32 GMT 52.700684 4.438171 11,500 295 361 1024
2019-04-15 21:05:29 GMT 52.700684 4.438171 11,475 295 360 1024
2019-04-15 21:05:26 GMT 52.697937 4.448166 11,425 295 358 1024
2019-04-15 21:05:23 GMT 52.696014 4.455348 11,375 295 356 1024
2019-04-15 21:05:20 GMT 52.694046 4.462509 11,325 295 352 1024
2019-04-15 21:05:17 GMT 52.692719 4.467392 11,325 295 351 1024
2019-04-15 21:05:14 GMT 52.690708 4.474967 11,200 294 346 1024
2019-04-15 21:05:11 GMT 52.688690 4.482422 11,200 295 346 1024
2019-04-15 21:05:08 GMT 52.686722 4.489594 11,050 297 336 1024
2019-04-15 21:05:04 GMT 52.684067 4.499054 11,075 296 339 1024
2019-04-15 21:05:01 GMT 52.681538 4.507612 10,625 305 308 960
2019-04-15 21:04:58 GMT 52.679722 4.513576 10,975 298 334 1024
2019-04-15 21:04:55 GMT 52.677719 4.519854 10,925 298 332 1024
2019-04-15 21:04:51 GMT 52.674500 4.529877 10,850 299 329 1024
2019-04-15 21:04:48 GMT 52.672485 4.535980 10,775 300 326 1024
2019-04-15 21:04:43 GMT 52.669510 4.544601 10,550 301 319 1024
2019-04-15 21:04:40 GMT 52.666077 4.554214 9,800 305 296 2240
2019-04-15 21:04:37 GMT 52.664639 4.558149 10,625 302 317 1024
2019-04-15 21:04:34 GMT 52.662415 4.564056 10,500 303 313 1024
2019-04-15 21:04:31 GMT 52.659531 4.571152 10,475 304 309 960
2019-04-15 21:04:28 GMT 52.657288 4.576645 10,450 305 308 960
2019-04-15 21:04:25 GMT 52.655144 4.581848 10,350 305 302 1344
2019-04-15 21:04:21 GMT 52.651794 4.589996 10,000 305 298 2176
2019-04-15 21:04:18 GMT 52.649509 4.595503 10,225 305 298 2048
2019-04-15 21:04:15 GMT 52.647720 4.599762 10,150 305 298 2304
2019-04-15 21:04:10 GMT 52.642715 4.611982 9,850 305 296 2304
2019-04-15 21:04:06 GMT 52.639893 4.618835 9,750 305 295 2304
2019-04-15 21:04:03 GMT 52.638153 4.623125 9,650 304 295 2496
2019-04-15 21:04:00 GMT 52.635635 4.629288 9,550 304 295 2496
2019-04-15 21:03:57 GMT 52.633347 4.634857 9,050 305 294 2688
2019-04-15 21:03:54 GMT 52.630981 4.640625 9,075 305 294 2688
2019-04-15 21:03:51 GMT 52.626701 4.650984 9,050 305 294 2752
2019-04-15 21:03:48 GMT 52.626701 4.650984 8,925 305 294 2752
2019-04-15 21:03:45 GMT 52.623394 4.658988 8,800 305 294 2752
2019-04-15 21:03:42 GMT 52.621994 4.662247 8,650 305 294 2752
2019-04-15 21:03:39 GMT 52.620045 4.666835 8,600 305 294 2816
2019-04-15 21:03:36 GMT 52.616783 4.674604 8,400 305 295 2752
2019-04-15 21:03:33 GMT 52.614670 4.679565 8,275 306 294 2560
2019-04-15 21:03:30 GMT 52.612656 4.684296 8,150 305 295 2624
2019-04-15 21:03:26 GMT 52.610001 4.690552 8,025 306 294 2560
2019-04-15 21:03:23 GMT 52.607521 4.696184 7,975 306 294 2496
2019-04-15 21:03:20 GMT 52.604401 4.702933 7,675 312 294 2304
2019-04-15 21:03:17 GMT 52.602119 4.707406 7,600 316 292 2304
2019-04-15 21:03:14 GMT 52.599236 4.712115 7,525 318 293 2304
2019-04-15 21:03:11 GMT 52.596535 4.715803 7,475 331 291 2432
2019-04-15 21:03:08 GMT 52.592926 4.720078 7,200 331 291 2432
2019-04-15 21:03:05 GMT 52.588257 4.724503 7,100 336 289 2432
2019-04-15 21:03:02 GMT 52.583454 4.727809 7,075 338 289 2432
2019-04-15 21:02:59 GMT 52.581528 4.728775 6,875 347 287 2368
2019-04-15 21:02:56 GMT 52.578415 4.730072 6,800 349 287 2368
2019-04-15 21:02:53 GMT 52.570419 4.731576 6,525 0 285 2624
2019-04-15 21:02:50 GMT 52.565670 4.731419 6,425 3 284 2944
2019-04-15 21:02:47 GMT 52.565670 4.731419 6,275 3 284 2944
2019-04-15 21:02:43 GMT 52.559666 4.730791 6,150 3 283 2944
2019-04-15 21:02:40 GMT 52.555710 4.730321 6,000 3 284 2944
2019-04-15 21:02:37 GMT 52.552589 4.730007 5,900 4 284 3008
2019-04-15 21:02:33 GMT 52.547470 4.729385 5,675 3 284 3136
2019-04-15 21:02:30 GMT 52.538624 4.728437 5,450 3 285 3200
2019-04-15 21:02:27 GMT 52.538624 4.728437 5,350 3 285 3200
2019-04-15 21:02:21 GMT 52.532181 4.727707 4,975 4 286 2752
2019-04-15 21:02:18 GMT 52.526752 4.727103 4,950 4 286 2688
2019-04-15 21:02:15 GMT 52.523987 4.726791 4,875 4 286 2624
2019-04-15 21:02:12 GMT 52.519768 4.726240 4,600 4 284 2304
2019-04-15 21:02:09 GMT 52.516342 4.725876 4,500 4 283 2176
2019-04-15 21:02:06 GMT 52.511902 4.725342 4,500 4 283 2176
2019-04-15 21:02:03 GMT 52.507851 4.724906 4,375 3 264 960
2019-04-15 21:02:00 GMT 52.503986 4.724435 4,300 4 280 1984
2019-04-15 21:01:57 GMT 52.495796 4.723493 4,100 3 275 1280
2019-04-15 21:01:54 GMT 52.495796 4.723493 4,075 3 272 1152
2019-04-15 21:01:50 GMT 52.491791 4.723022 4,050 4 271 1088
2019-04-15 21:01:47 GMT 52.484024 4.722137 3,950 3 263 960
2019-04-15 21:01:41 GMT 52.480408 4.721756 3,850 4 256 1088
2019-04-15 21:01:38 GMT 52.477219 4.721375 3,775 3 252 896
2019-04-15 21:01:35 GMT 52.472519 4.720904 3,750 3 247 704
2019-04-15 21:01:32 GMT 52.469772 4.720590 3,725 3 247 704
2019-04-15 21:01:29 GMT 52.467178 4.720306 3,675 3 218 1088
2019-04-15 21:01:26 GMT 52.463303 4.719884 3,650 3 238 768
2019-04-15 21:01:23 GMT 52.460045 4.719491 3,650 3 234 896
2019-04-15 21:01:20 GMT 52.456596 4.719177 3,575 3 229 960
2019-04-15 21:01:17 GMT 52.452595 4.718706 3,500 3 225 1024
2019-04-15 21:01:14 GMT 52.447659 4.718236 3,425 3 219 1088
2019-04-15 21:01:08 GMT 52.441132 4.717560 3,300 3 213 1536
2019-04-15 21:01:05 GMT 52.441132 4.717560 3,250 3 212 1792
2019-04-15 21:01:02 GMT 52.438751 4.717255 3,225 3 211 1920
2019-04-15 21:00:59 GMT 52.435867 4.716949 3,125 4 201 1728
2019-04-15 21:00:56 GMT 52.431877 4.716588 2,975 3 210 2048
2019-04-15 21:00:53 GMT 52.429131 4.716274 2,875 4 209 2048
2019-04-15 21:00:49 GMT 52.425873 4.715881 2,800 4 209 2048
2019-04-15 21:00:46 GMT 52.423050 4.715576 2,550 4 208 1984
2019-04-15 21:00:43 GMT 52.420845 4.715254 2,575 4 207 1984
2019-04-15 21:00:39 GMT 52.415588 4.714661 2,400 4 206 1920
2019-04-15 21:00:35 GMT 52.411423 4.714127 2,250 3 204 1792
2019-04-15 21:00:32 GMT 52.409500 4.713898 2,200 3 205 1792
2019-04-15 21:00:28 GMT 52.405807 4.713527 2,125 4 195 1600
2019-04-15 21:00:24 GMT 52.402176 4.713058 1,650 4 196 1600
2019-04-15 21:00:21 GMT 52.398781 4.712507 1,875 4 196 0
2019-04-15 21:00:18 GMT 52.396500 4.712143 1,800 5 198 1600
2019-04-15 21:00:14 GMT 52.392776 4.711565 1,600 2 196 1728
2019-04-15 21:00:10 GMT 52.390076 4.711330 1,600 0 196 2048
2019-04-15 21:00:07 GMT 52.386631 4.711251 1,550 0 196 1920
2019-04-15 21:00:04 GMT 52.381741 4.711565 1,325 358 192 2816
2019-04-15 20:59:57 GMT 52.376999 4.712143 1,075 358 192 2816
2019-04-15 20:59:52 GMT 52.373428 4.712296 875 0 191 2816
2019-04-15 20:59:47 GMT 52.367729 4.712193 575 2 189 2880
2019-04-15 20:59:44 GMT 52.366192 4.712036 500 2 188 2752
2019-04-15 20:59:40 GMT 52.362331 4.711801 350 3 173 128
2019-04-15 20:59:37 GMT 52.360703 4.711609 200 3 187 2368
2019-04-15 20:59:33 GMT 52.356976 4.711330 25 2 187 2176
2019-04-15 20:59:23 GMT 52.347992 4.710624 -175 3 173 128
2019-04-15 20:59:12 GMT 52.340469 4.709930 -150 3 139 -64
2019-04-15 20:59:02 GMT 52.334702 4.709396 -150 2 96 -64
2019-04-15 20:58:51 GMT 52.330822 4.709034 0 2 48
2019-04-15 20:58:41 GMT 52.329483 4.708920 0 0 14
2019-04-15 20:58:31 GMT 52.328999 4.708956 0 326 8
2019-04-15 20:58:19 GMT 52.328686 4.709388 0 275 10
2019-04-15 20:58:09 GMT 52.328659 4.710217 0 264 12
2019-04-15 20:57:59 GMT 52.328766 4.711094 0 233 11
2019-04-15 20:57:48 GMT 52.329071 4.711647 0 219 8
2019-04-15 20:57:39 GMT 52.329288 4.711952 0 222 6
2019-04-15 20:57:28 GMT 52.329521 4.712291 0 222 9
2019-04-15 20:57:17 GMT 52.329906 4.712830 0 222 13
2019-04-15 20:57:07 GMT 52.330376 4.713516 0 222 13
2019-04-15 20:56:57 GMT 52.330791 4.714116 0 222 13
2019-04-15 20:56:44 GMT 52.331291 4.714900 0 239 12
2019-04-15 20:56:34 GMT 52.331512 4.715764 0 275 13
2019-04-15 20:56:31 GMT 52.331512 4.716038 0 286 12
2019-04-15 20:56:22 GMT 52.331337 4.716764 0 309 11
2019-04-15 20:56:15 GMT 52.331131 4.717197 0 312 13
2019-04-15 20:56:12 GMT 52.330948 4.717522 0 312 13
2019-04-15 20:56:01 GMT 52.330559 4.718227 0 312 13
2019-04-15 20:55:55 GMT 52.330330 4.718685 0 312 12
2019-04-15 20:55:42 GMT 52.329838 4.719589 0 312 17
2019-04-15 20:55:38 GMT 52.329586 4.720039 0 312 19
2019-04-15 20:55:34 GMT 52.329369 4.720459 0 312 19
2019-04-15 20:55:26 GMT 52.328957 4.721222 0 312 19
2019-04-15 20:55:20 GMT 52.328602 4.721870 0 312 17
2019-04-15 20:55:13 GMT 52.328247 4.722538 0 312 16
2019-04-15 20:55:10 GMT 52.328075 4.722843 0 312 15
2019-04-15 20:55:02 GMT 52.327778 4.723395 0 312 14
2019-04-15 20:54:58 GMT 52.327641 4.723663 0 312 13
2019-04-15 20:54:52 GMT 52.327381 4.724121 0 312 13
2019-04-15 20:54:47 GMT 52.327206 4.724445 0 312 12
2019-04-15 20:54:42 GMT 52.327000 4.724846 0 312 12
2019-04-15 20:54:31 GMT 52.326611 4.725513 0 317 13
2019-04-15 20:54:20 GMT 52.326145 4.726181 0 320 15
2019-04-15 20:54:10 GMT 52.325523 4.727058 0 320 21
2019-04-15 20:54:05 GMT 52.325100 4.727650 0 320 20
2019-04-15 20:54:00 GMT 52.324783 4.728104 0 320 20
2019-04-15 20:53:50 GMT 52.324097 4.729085 0 320 19
2019-04-15 20:53:38 GMT 52.323372 4.730072 0 320 18
2019-04-15 20:53:26 GMT 52.322666 4.731066 0 320 17
2019-04-15 20:53:15 GMT 52.322056 4.731922 0 317 13
2019-04-15 20:53:08 GMT 52.321781 4.732323 0 309 12
2019-04-15 20:52:57 GMT 52.321503 4.733047 0 275 10
2019-04-15 20:52:47 GMT 52.321495 4.733753 0 258 9
2019-04-15 20:52:35 GMT 52.321571 4.734401 0 227 8
2019-04-15 20:52:25 GMT 52.321842 4.734852 0 191 9
2019-04-15 20:52:14 GMT 52.322262 4.734936 0 185 11
2019-04-15 20:52:04 GMT 52.322876 4.735009 0 182 18
2019-04-15 20:51:53 GMT 52.323978 4.735088 0 182 23
2019-04-15 20:51:43 GMT 52.324940 4.735184 0 182 23
2019-04-15 20:51:33 GMT 52.326027 4.735279 0 182 22
2019-04-15 20:51:22 GMT 52.327034 4.735374 0 182 21
2019-04-15 20:51:14 GMT 52.327858 4.735441 0 182 20
2019-04-15 20:51:00 GMT 52.329037 4.735565 0 182 20
2019-04-15 20:50:51 GMT 52.329861 4.735641 0 182 19
2019-04-15 20:50:35 GMT 52.331207 4.735755 0 182 18
2019-04-15 20:50:26 GMT 52.331898 4.735814 0 182 17
2019-04-15 20:50:16 GMT 52.332642 4.735909 0 182 16
2019-04-15 20:50:08 GMT 52.333221 4.735951 0 185 16
2019-04-15 20:49:58 GMT 52.333889 4.736023 0 188 15
2019-04-15 20:49:49 GMT 52.334515 4.736324 0 227 15
2019-04-15 20:49:36 GMT 52.334873 4.737415 0 270 13
2019-04-15 20:49:26 GMT 52.334866 4.738482 0 272 18
2019-04-15 20:49:17 GMT 52.334816 4.739704 0 275 19
2019-04-15 20:49:06 GMT 52.334759 4.741189 0 272 16
2019-04-15 20:48:56 GMT 52.334724 4.742249 0 275 13
2019-04-15 20:48:46 GMT 52.334690 4.743176 0 284 13
2019-04-15 20:48:34 GMT 52.334435 4.744152 0 323 13
2019-04-15 20:48:24 GMT 52.333923 4.744587 0 354 13
2019-04-15 20:48:14 GMT 52.333317 4.744606 0 2 17
2019-04-15 20:48:01 GMT 52.332012 4.744473 0 2 22
2019-04-15 20:47:53 GMT 52.331326 4.744426 0 2 21
2019-04-15 20:47:50 GMT 52.330978 4.744387 0 2 21
2019-04-15 20:47:42 GMT 52.330215 4.744320 0 2 23
2019-04-15 20:47:33 GMT 52.329220 4.744210 0 2 23
2019-04-15 20:47:16 GMT 52.327503 4.744072 0 2 23
2019-04-15 20:47:13 GMT 52.327103 4.744034 0 2 22
2019-04-15 20:47:09 GMT 52.326752 4.743995 0 2 22
2019-04-15 20:46:56 GMT 52.325451 4.743877 0 2 21
2019-04-15 20:46:48 GMT 52.324623 4.743798 0 5 21
2019-04-15 20:46:40 GMT 52.323933 4.743729 0 2 21
2019-04-15 20:46:29 GMT 52.322811 4.743633 0 5 20
2019-04-15 20:46:14 GMT 52.321609 4.743524 0 2 19
2019-04-15 20:46:09 GMT 52.321133 4.743465 0 2 19
2019-04-15 20:45:57 GMT 52.320202 4.743404 0 2 18
2019-04-15 20:45:46 GMT 52.319321 4.743309 0 2 18
2019-04-15 20:45:33 GMT 52.318336 4.743210 0 2 17
2019-04-15 20:45:27 GMT 52.317825 4.743171 0 2 16
2019-04-15 20:45:16 GMT 52.317043 4.743099 0 2 15
2019-04-15 20:45:06 GMT 52.316402 4.743042 0 2 13
2019-04-15 20:44:55 GMT 52.315823 4.742994 0 2 10
2019-04-15 20:44:27 GMT 52.314777 4.743524 0 272 9
2019-04-15 20:44:22 GMT 52.314766 4.743805 0 267 9
2019-04-15 20:44:16 GMT 52.314789 4.744339 0 264 15
2019-04-15 20:44:07 GMT 52.314846 4.745643 0 267 19
2019-04-15 20:44:02 GMT 52.314857 4.746094 0 267 19
2019-04-15 20:43:52 GMT 52.314903 4.747467 0 267 18
2019-04-15 20:43:40 GMT 52.314953 4.748880 0 267 14
2019-04-15 20:43:32 GMT 52.314983 4.749737 0 267 13
2019-04-15 20:43:20 GMT 52.315022 4.750724 0 267 11
2019-04-15 20:43:10 GMT 52.315044 4.751567 0 267 10
2019-04-15 20:43:05 GMT 52.315052 4.751854 0 267 9
2019-04-15 20:42:59 GMT 52.315067 4.752254 0 267 8
2019-04-15 20:42:49 GMT 52.315090 4.752823 0 267 8
2019-04-15 20:42:38 GMT 52.315113 4.753490 0 281 8
2019-04-15 20:42:28 GMT 52.315041 4.754028 0 320 8
2019-04-15 20:42:17 GMT 52.314766 4.754333 0 334 6
2019-04-15 20:42:06 GMT 52.314537 4.754467 0 317 5
2019-04-15 20:41:56 GMT 52.314358 4.754647 0 281 6
2019-04-15 20:41:44 GMT 52.314320 4.755039 0 267 6
2019-04-15 20:41:35 GMT 52.314342 4.755459 0 264 6
2019-04-15 20:41:24 GMT 52.314358 4.755903 0 267 6
2019-04-15 20:41:13 GMT 52.314381 4.756354 0 267 7
2019-04-15 20:41:03 GMT 52.314400 4.756966 0 267 10
2019-04-15 20:40:53 GMT 52.314426 4.757747 0 267 10
2019-04-15 20:40:39 GMT 52.314457 4.758606 0 267 9
2019-04-15 20:40:30 GMT 52.314484 4.759179 0 267 8
2019-04-15 20:40:20 GMT 52.314499 4.759709 0 267 8
2019-04-15 20:40:10 GMT 52.314514 4.760208 0 267 6
2019-04-15 20:39:57 GMT 52.314526 4.760685 0 267 5
2019-04-15 20:39:49 GMT 52.314533 4.760925 0 267 3
2019-04-15 20:39:28 GMT 52.314548 4.761238 0 264 1
2019-04-15 20:39:13 GMT 52.314548 4.761295 0 264 0
2019-04-15 20:39:03 GMT 52.314545 4.761298 0 264 0
2019-04-15 20:38:43 GMT 52.314548 4.761314 0 264 0
2019-04-15 20:38:33 GMT 52.314556 4.761298 0 264 0
2019-04-15 20:38:14 GMT 52.314548 4.761314 0 264 0
2019-04-15 20:38:03 GMT 52.314556 4.761298 0 264 0
2019-04-15 20:37:53 GMT 52.314548 4.761295 0 264 0
2019-04-15 20:37:38 GMT 52.314556 4.761298 0 264 0
2019-04-15 20:37:28 GMT 52.314548 4.761295 0 264 0
2019-04-15 20:37:08 GMT 52.314556 4.761298 0 264 0
2019-04-15 20:36:54 GMT 52.314545 4.761298 0 264 0
2019-04-15 20:36:48 GMT 52.314548 4.761295 0 264 0
2019-04-15 20:36:08 GMT 52.314545 4.761298 0 264 0
2019-04-15 20:35:37 GMT 52.314548 4.761314 0 264 0
2019-04-15 20:35:26 GMT 52.314556 4.761318 0 264 0
2019-04-15 20:35:14 GMT 52.314556 4.761200 0 267 4
2019-04-15 20:35:03 GMT 52.314510 4.760788 0 261 7
2019-04-15 20:34:54 GMT 52.314468 4.760303 0 264 9
2019-04-15 20:34:43 GMT 52.314346 4.759630 0 247 9
2019-04-15 20:34:30 GMT 52.313835 4.759297 0 194 10
2019-04-15 20:34:23 GMT 52.313496 4.759317 0 180 10
2019-04-15 20:34:11 GMT 52.312981 4.759407 0 174 10
2019-04-15 20:34:02 GMT 52.312603 4.759521 0 168 9

Making use of Plane Finder data

You are free to use the raw flight data, aircraft information and images provided in this report for your own purposes provided the data is correctly attributed to Plane Finder. We ask that you please credit Plane Finder and link to planefinder.net in close proximity to the content.

Optionally one of the following logos (no smaller then 150x24px) can be used and must link to planefinder.net

Embedding the Plane Finder map

You are welcome to embed the Plane Finder playback map on your website to offer visitors a more interactive experience. We suggest using the following HTML code:

<iframe src="//planefinder.net/data/report/AM26-XA-ADH-7700-squawk-2019-04-15/map" width="800" height="600" seamless="seamless"></iframe>

Where our data comes from

Plane Finder has a global network of data feeds and antenna radars that receive data broadcast directly from aircraft. The primary technologies used are ADS-B and MLAT. We also show feeds from the FAA and a FLARM glider feed.

Click here to find out more about the Plane Finder network.

How we collect our data